<
# Wetter Temperatur Luftdruck Luftfeuchtigkeit Sichtweite Windgeschwindigkeit Windrichtung Zeit
1 Clouds 31 1008 66 6000 4.6 310 09:40 29.01.2020
2 Clouds 33 1008 66 6000 4.6 310 09:22 29.01.2020
3 Clouds 32 1009 70 10000 5.1 330 08:58 29.01.2020
4 Clouds 32 1009 70 10000 5.7 330 08:39 29.01.2020
5 Clouds 32 1009 70 10000 5.7 330 08:20 29.01.2020
6 Clouds 32 1010 63 6000 5.7 20 07:45 29.01.2020
7 Clouds 32 1010 63 6000 5.7 20 07:25 29.01.2020
8 Haze 33 1010 59 5000 5.1 350 06:55 29.01.2020
9 Haze 33 1010 59 5000 4.6 10 06:37 29.01.2020
10 Haze 32 1010 59 5000 4.6 10 06:18 29.01.2020
11 Clouds 32 1011 66 10000 4.6 340 05:45 29.01.2020
12 Haze 32 1011 66 4000 2.1 20 05:26 29.01.2020
13 Haze 32 1011 79 4000 1.5 140 04:38 29.01.2020
14 Haze 32 1011 79 4000 1.5 300 03:49 29.01.2020
15 Haze 30 1011 94 3000 1.5 250 02:33 29.01.2020
16 Mist 26 1010 100 3000 1.5 210 00:44 29.01.2020
17 Mist 26 1010 100 3000 1.5 210 00:25 29.01.2020
18 Mist 26 1010 100 3000 1.5 160 23:58 28.01.2020
19 Mist 26 1010 100 3000 1.5 130 23:37 28.01.2020
20 Mist 26 1010 100 3000 1.5 130 23:18 28.01.2020
21 Mist 26 1010 100 4000 1.5 230 22:41 28.01.2020
22 Mist 27 1010 100 4000 1.5 230 22:21 28.01.2020
23 Haze 25 1010 83 5000 0.69 112 21:54 28.01.2020
24 Haze 25 1010 83 5000 0.5 0 21:36 28.01.2020
25 Haze 25 1010 83 5000 0.5 0 21:18 28.01.2020
26 Clouds 26 1010 88 6000 1 330 20:42 28.01.2020
27 Clouds 26 1010 88 6000 1 330 20:42 28.01.2020
28 Clouds 26 1010 88 6000 1 330 20:23 28.01.2020
29 Clouds 27 1010 88 6000 1 0 19:55 28.01.2020
30 Clouds 27 1010 83 6000 1 300 19:36 28.01.2020
31 Clouds 28 1010 83 6000 1 300 19:18 28.01.2020
32 Clouds 26 1010 88 6000 1 280 18:41 28.01.2020
33 Clouds 26 1010 88 6000 1 280 18:22 28.01.2020
34 Clouds 26 1010 83 6000 1 310 17:59 28.01.2020
35 Clouds 27 1011 83 6000 1 310 17:38 28.01.2020
36 Clouds 27 1011 83 6000 1 310 17:19 28.01.2020
37 Clouds 27 1011 83 6000 1.5 350 16:56 28.01.2020
38 Clouds 27 1011 83 6000 1 40 16:37 28.01.2020
39 Clouds 27 1011 83 6000 1 40 16:19 28.01.2020
40 Clouds 28 1011 79 7000 1 0 15:44 28.01.2020
41 Clouds 28 1011 79 7000 1 0 15:19 28.01.2020
42 Clouds 28 1011 79 7000 1 0 14:57 28.01.2020
43 Clouds 28 1010 83 8000 1.5 300 14:38 28.01.2020
44 Clouds 29 1010 83 8000 1.5 300 14:18 28.01.2020
45 Clouds 30 1009 74 6000 2.1 350 13:39 28.01.2020
46 Clouds 30 1009 74 6000 2.1 350 13:21 28.01.2020
47 Clouds 29 1008 74 10000 2.1 10 12:42 28.01.2020
48 Clouds 31 1008 74 10000 2.1 10 12:24 28.01.2020
49 Clouds 31 1008 70 10000 3.1 10 11:55 28.01.2020
50 Clouds 32 1007 62 6000 1.5 20 11:37 28.01.2020
51 Clouds 31 1007 62 6000 1.5 20 11:19 28.01.2020
52 Clouds 32 1007 59 6000 2.1 340 10:41 28.01.2020
53 Clouds 31 1007 59 6000 2.1 340 10:22 28.01.2020
54 Clouds 31 1008 66 10000 3.1 20 09:56 28.01.2020
55 Clouds 31 1008 66 10000 5.7 10 09:37 28.01.2020
56 Clouds 32 1008 66 10000 5.7 10 09:19 28.01.2020
57 Clouds 31 1009 66 9000 3.1 360 08:41 28.01.2020
58 Clouds 31 1009 66 9000 3.1 360 08:20 28.01.2020
59 Clouds 32 1009 70 9000 3.6 340 07:38 28.01.2020
60 Clouds 31 1010 74 9000 3.6 340 06:51 28.01.2020
61 Clouds 31 1011 79 9000 3.1 350 06:29 28.01.2020
62 Clouds 31 1011 78 9000 2.6 340 05:56 28.01.2020
63 Clouds 32 1011 74 8000 3.1 330 05:34 28.01.2020
64 Rain 30 1011 79 4000 2.1 230 04:39 28.01.2020
65 Haze 31 1011 83 2000 1.5 150 03:36 28.01.2020
66 Haze 28 1011 94 2000 2.1 160 02:32 28.01.2020
67 Haze 28 1011 83 5000 2.6 0 01:58 28.01.2020
68 Mist 27 1010 100 2000 1.05 85 01:40 28.01.2020
69 Haze 26 1010 88 5000 2.1 0 00:51 28.01.2020
70 Mist 26 1010 100 2000 0.95 341 00:30 28.01.2020
71 Mist 26 1009 88 4000 1.5 220 23:53 27.01.2020
72 Mist 26 1009 100 3000 0.95 341 23:30 27.01.2020
73 Mist 26 1009 88 3000 2.1 190 22:59 27.01.2020
74 Mist 26 1009 88 4000 1 0 22:41 27.01.2020
75 Mist 26 1009 88 4000 1 0 22:20 27.01.2020
76 Haze 26 1009 88 4000 1.5 190 21:57 27.01.2020
77 Haze 26 1009 88 4000 2.1 170 21:38 27.01.2020
78 Haze 25 1009 88 4000 2.1 170 21:18 27.01.2020
79 Haze 25 1009 88 4000 0.5 270 20:55 27.01.2020
80 Haze 25 1009 83 4000 1 310 20:37 27.01.2020
81 Haze 27 1009 83 4000 1 310 20:18 27.01.2020
82 Haze 27 1010 83 5000 1 0 19:41 27.01.2020
83 Haze 27 1010 83 5000 1 0 19:23 27.01.2020
84 Haze 26 1010 83 5000 1 0 18:56 27.01.2020
85 Haze 25 1010 83 5000 1 0 18:38 27.01.2020
86 Haze 26 1010 83 5000 1 0 18:20 27.01.2020
87 Haze 27 1011 78 5000 1 350 17:40 27.01.2020
88 Haze 27 1011 78 5000 1 350 17:21 27.01.2020
89 Haze 27 1011 78 5000 1 350 16:59 27.01.2020
90 Clouds 28 1011 78 6000 1 0 16:41 27.01.2020
91 Clouds 28 1011 78 6000 1 0 16:41 27.01.2020
92 Clouds 28 1011 78 6000 1 0 16:23 27.01.2020
93 Clouds 26 1011 78 7000 1 0 15:55 27.01.2020
94 Clouds 26 1010 78 7000 1.5 90 15:37 27.01.2020
95 Clouds 26 1010 78 7000 1.5 90 15:19 27.01.2020
96 Clouds 27 1010 78 7000 1 40 14:54 27.01.2020
97 Clouds 27 1010 78 9000 1.5 50 14:36 27.01.2020
98 Clouds 28 1010 78 9000 1.5 50 14:18 27.01.2020
99 Clouds 29 1009 74 6000 1.5 130 13:41 27.01.2020
100 Clouds 29 1009 74 6000 1.5 130 13:20 27.01.2020
101 Clouds 29 1009 70 8000 2.6 40 12:55 27.01.2020
102 Clouds 29 1008 70 6000 1.5 40 12:37 27.01.2020
103 Clouds 30 1008 70 6000 1.5 40 12:18 27.01.2020
104 Rain 31 1008 70 6000 3.1 40 11:41 27.01.2020
105 Rain 31 1008 70 6000 3.1 40 11:21 27.01.2020
106 Rain 31 1008 74 6000 2.6 10 10:43 27.01.2020
107 Rain 31 1008 74 6000 2.6 10 10:25 27.01.2020
108 Clouds 31 1007 66 10000 3.6 10 09:56 27.01.2020
109 Rain 30 1008 74 5000 2.6 330 09:38 27.01.2020
110 Rain 31 1008 74 5000 2.6 330 09:18 27.01.2020
111 Clouds 31 1008 70 10000 3.1 350 08:42 27.01.2020
112 Rain 31 1008 74 5000 3.1 30 08:20 27.01.2020
113 Clouds 31 1009 70 10000 4.1 350 07:54 27.01.2020
114 Rain 31 1009 70 5000 2.6 360 07:34 27.01.2020
115 Clouds 32 1010 70 10000 5.7 330 06:53 27.01.2020
116 Rain 32 1010 66 5000 3.1 360 06:25 27.01.2020
117 Rain 31 1010 70 5000 2.6 20 05:24 27.01.2020
118 Clouds 30 1011 78 8000 2.1 0 03:58 27.01.2020
119 Haze 27 1011 94 4000 1.5 310 02:42 27.01.2020
120 Haze 27 1010 100 3000 1.5 180 01:29 27.01.2020
121 Haze 25 1009 100 3000 2.03 113 00:58 27.01.2020
122 Haze 26 1009 100 4000 2.03 113 00:37 27.01.2020
123 Haze 25 1009 100 4000 2.03 113 00:18 27.01.2020
124 Haze 25 1008 100 4000 2.03 113 23:41 26.01.2020
125 Haze 25 1008 100 4000 1.3 115 23:19 26.01.2020
126 Clouds 25 1008 88 6000 0.5 0 22:55 26.01.2020
127 Clouds 25 1008 88 6000 1.5 110 22:37 26.01.2020
128 Clouds 25 1008 88 6000 1.5 110 22:18 26.01.2020
129 Clouds 25 1008 83 6000 0.5 0 21:56 26.01.2020
130 Clouds 25 1008 88 0 0.5 0 21:38 26.01.2020
131 Clouds 25 1008 88 0 0.5 0 21:19 26.01.2020
132 Rain 25 1009 88 5000 1 0 20:55 26.01.2020
133 Rain 25 1009 88 5000 2.6 130 20:37 26.01.2020
134 Rain 25 1009 88 5000 2.6 130 20:18 26.01.2020
135 Rain 26 1009 88 5000 1.5 130 19:56 26.01.2020
136 Rain 26 1009 83 5000 2.6 0 19:37 26.01.2020
137 Rain 26 1009 83 5000 2.6 0 19:37 26.01.2020
138 Rain 26 1009 83 5000 2.6 0 19:18 26.01.2020
139 Clouds 26 1010 88 7000 2.1 0 18:41 26.01.2020
140 Clouds 26 1010 88 7000 2.1 0 18:22 26.01.2020
141 Clouds 26 1010 88 7000 2.1 0 17:58 26.01.2020
142 Clouds 26 1010 88 7000 2.1 0 17:58 26.01.2020
143 Clouds 26 1010 88 7000 2.1 160 17:39 26.01.2020
144 Clouds 26 1010 88 7000 2.1 160 17:20 26.01.2020
145 Clouds 26 1010 83 7000 1.5 200 16:58 26.01.2020
146 Clouds 26 1010 83 7000 1.5 200 16:58 26.01.2020
147 Clouds 26 1010 83 7000 1.5 200 16:39 26.01.2020
148 Clouds 26 1010 83 7000 1.5 200 16:39 26.01.2020
149 Clouds 26 1010 83 7000 1.5 200 16:21 26.01.2020
150 Clouds 27 1011 86 0 1.34 224 15:58 26.01.2020
151 Clouds 27 1011 85 0 0.89 228 15:39 26.01.2020
152 Clouds 27 1011 83 0 0.45 224 15:18 26.01.2020
153 Clouds 27 1009 78 0 2.17 32 14:41 26.01.2020
154 Clouds 27 1011 80 0 1.92 9 14:21 26.01.2020
155 Clouds 28 1011 73 0 0.45 334 13:57 26.01.2020
156 Clouds 28 1010 73 0 1.79 82 13:37 26.01.2020
157 Rain 28 1010 73 0 1.34 112 13:18 26.01.2020
158 Rain 26 1009 73 0 1.79 104 12:42 26.01.2020
159 Rain 27 1009 72 0 2.24 90 12:24 26.01.2020
160 Rain 27 1009 72 0 1.79 90 12:24 26.01.2020
161 Rain 27 1009 71 0 2.24 100 11:58 26.01.2020
162 Rain 28 1008 70 0 0.89 79 11:39 26.01.2020
163 Rain 30 1007 70 6000 4.1 350 11:19 26.01.2020
164 Rain 30 1007 70 6000 4.1 350 10:58 26.01.2020
165 Rain 31 1007 70 6000 4.1 350 10:38 26.01.2020
166 Rain 31 1007 70 6000 4.1 350 10:38 26.01.2020
167 Rain 31 1007 70 6000 4.1 350 10:20 26.01.2020
168 Clouds 31 1007 74 10000 5.7 310 09:57 26.01.2020
169 Clouds 32 1007 62 6000 6.2 20 09:39 26.01.2020
170 Clouds 32 1007 62 6000 6.2 20 09:39 26.01.2020
171 Clouds 32 1007 62 6000 6.2 20 09:21 26.01.2020
172 Clouds 29 1007 66 6000 4.1 30 08:43 26.01.2020
173 Clouds 32 1007 66 6000 4.1 30 08:23 26.01.2020
174 Clouds 29 1008 62 10000 5.1 360 07:57 26.01.2020
175 Clouds 30 1009 62 10000 4.1 350 07:39 26.01.2020
176 Clouds 30 1009 62 10000 4.1 350 07:21 26.01.2020
177 Clouds 32 1009 66 10000 3.1 20 06:31 26.01.2020
178 Haze 31 1010 74 4000 3.6 80 05:32 26.01.2020
179 Clouds 31 1011 74 10000 1 0 04:45 26.01.2020
180 Clouds 30 1011 78 8000 1 0 02:54 26.01.2020
181 Haze 27 1010 83 5000 2.1 0 01:49 26.01.2020
182 Mist 26 1009 100 2000 1.5 180 01:25 26.01.2020
183 Mist 26 1009 94 2000 1.5 180 00:53 26.01.2020
184 Mist 25 1009 100 2000 3 245 00:31 26.01.2020
185 Rain 25 1010 97 0 3 245 23:41 25.01.2020
186 Rain 25 1010 97 0 4.51 236 23:23 25.01.2020
187 Rain 25 1010 97 0 4.51 236 22:59 25.01.2020
188 Rain 25 1010 97 0 4.51 236 22:40 25.01.2020
189 Rain 25 1010 97 0 4.51 236 22:19 25.01.2020
190 Rain 25 1010 97 0 0.45 233 21:57 25.01.2020
191 Rain 25 1010 96 0 0.45 225 21:38 25.01.2020
192 Rain 28 1008 75 0 4.51 236 21:20 25.01.2020
193 Rain 24 1010 96 0 4.51 236 20:44 25.01.2020
194 Rain 24 1010 96 0 4.51 236 20:44 25.01.2020
195 Rain 24 1010 95 0 4.51 236 20:25 25.01.2020
196 Rain 24 1010 95 0 4.51 236 20:25 25.01.2020
197 Clouds 26 1010 95 0 2.69 287 19:55 25.01.2020
198 Rain 26 1012 93 0 5.85 277 19:37 25.01.2020
199 Clouds 26 1011 94 0 0.89 253 19:18 25.01.2020
200 Rain 26 1012 93 0 5.85 277 18:42 25.01.2020
201 Clouds 26 1011 93 0 2.69 287 18:22 25.01.2020
202 Rain 26 1012 93 0 5.85 277 17:58 25.01.2020
203 Rain 25 1012 92 0 5.85 277 17:38 25.01.2020
204 Rain 26 1012 92 0 6.26 268 17:19 25.01.2020
205 Rain 26 1012 91 0 6.26 268 16:43 25.01.2020
206 Rain 26 1012 91 0 6.26 268 16:23 25.01.2020
207 Rain 27 1012 90 0 6.26 268 15:58 25.01.2020
208 Rain 27 1012 90 0 6.26 268 15:58 25.01.2020
209 Rain 25 1012 90 0 6.26 268 15:39 25.01.2020
210 Rain 25 1012 89 0 0.45 315 15:21 25.01.2020
211 Rain 25 1012 88 0 6.26 268 14:43 25.01.2020
212 Rain 27 1012 87 0 4.75 321 14:19 25.01.2020
213 Rain 27 1011 86 0 4.75 321 13:54 25.01.2020
214 Rain 27 1011 86 0 0.45 23 13:36 25.01.2020
215 Rain 28 1011 81 0 6.39 296 13:18 25.01.2020
216 Rain 28 1011 81 0 6.39 296 13:18 25.01.2020
217 Clouds 26 1009 83 7000 1.5 0 12:41 25.01.2020
218 Clouds 27 1009 83 7000 1.5 0 12:20 25.01.2020
219 Rain 26 1009 94 4000 1.5 330 11:40 25.01.2020
220 Rain 27 1009 94 4000 1.5 330 11:20 25.01.2020
221 Clouds 28 1008 83 7000 2.1 0 10:56 25.01.2020
222 Rain 27 1008 94 4000 1.5 280 10:38 25.01.2020
223 Rain 27 1008 94 4000 1.5 280 10:38 25.01.2020
224 Rain 27 1008 94 4000 1.5 280 10:18 25.01.2020
225 Rain 28 1008 94 4000 1.5 270 09:40 25.01.2020
226 Rain 28 1008 94 4000 1.5 270 09:20 25.01.2020
227 Clouds 28 1009 78 8000 3.1 320 08:43 25.01.2020
228 Clouds 29 1009 74 8000 6.2 310 08:00 25.01.2020
229 Clouds 28 1010 74 8000 4.6 330 07:40 25.01.2020
230 Clouds 29 1010 78 8000 4.6 310 06:44 25.01.2020
231 Haze 29 1011 83 5000 1.5 340 06:24 25.01.2020
232 Rain 30 1012 88 4000 1.5 320 05:44 25.01.2020
233 Rain 28 1012 88 4000 2.1 280 04:24 25.01.2020
234 Clouds 28 1012 83 7000 5.7 300 03:50 25.01.2020
235 Rain 27 1012 100 3000 6.09 296 02:38 25.01.2020
236 Rain 26 1012 100 3000 2.1 300 01:58 25.01.2020
237 Rain 26 1011 100 3000 1.5 280 01:23 25.01.2020
238 Mist 25 1010 100 3000 1.5 210 00:41 25.01.2020
239 Mist 25 1010 100 3000 1.5 210 00:41 25.01.2020
240 Mist 25 1010 100 3000 1.5 210 00:22 25.01.2020
241 Mist 25 1009 100 3000 5.29 287 23:42 24.01.2020
242 Mist 25 1009 100 3000 5.29 287 23:24 24.01.2020
243 Mist 25 1009 100 3000 5.49 310 22:47 24.01.2020
244 Mist 24 1009 100 4000 5.49 310 22:29 24.01.2020
245 Clouds 24 1009 94 5000 1.5 230 21:59 24.01.2020
246 Rain 24 1010 94 5000 1 250 21:41 24.01.2020
247 Rain 24 1010 94 5000 1 250 21:41 24.01.2020
248 Rain 24 1010 94 5000 1 250 21:19 24.01.2020
249 Rain 24 1010 94 5000 2.6 270 20:44 24.01.2020
250 Rain 24 1010 94 5000 2.1 280 20:23 24.01.2020
251 Rain 24 1010 94 5000 2.6 300 19:59 24.01.2020
252 Rain 24 1011 94 5000 3.1 300 19:41 24.01.2020
253 Rain 24 1011 94 5000 3.1 300 19:22 24.01.2020
254 Rain 24 1011 94 5000 3.1 330 18:58 24.01.2020
255 Thunderstorm 25 1012 94 6000 4.6 320 18:40 24.01.2020
256 Thunderstorm 24 1012 94 6000 4.6 320 18:21 24.01.2020
257 Rain 25 1012 88 4000 3.6 340 17:44 24.01.2020
258 Rain 26 1012 88 4000 3.6 340 17:22 24.01.2020
259 Clouds 26 1012 88 5000 2.6 0 16:57 24.01.2020
260 Clouds 26 1012 88 5000 1 0 16:38 24.01.2020
261 Clouds 26 1012 88 5000 1 0 16:18 24.01.2020
262 Haze 26 1011 88 5000 2.1 0 15:41 24.01.2020
263 Haze 26 1011 88 5000 2.1 0 15:21 24.01.2020
264 Clouds 26 1011 88 5000 2.1 0 14:42 24.01.2020
265 Rain 26 1011 94 5000 2.6 0 14:24 24.01.2020
266 Rain 26 1010 88 6000 2.6 0 13:59 24.01.2020
267 Haze 26 1010 94 5000 2.6 220 13:40 24.01.2020
268 Haze 26 1010 94 5000 2.6 220 13:21 24.01.2020
269 Haze 26 1010 94 4000 2.1 250 12:42 24.01.2020
270 Haze 26 1009 100 4000 2.6 230 12:20 24.01.2020
271 Haze 26 1009 94 4000 2.1 250 11:44 24.01.2020
272 Haze 26 1009 94 4000 2.1 250 11:19 24.01.2020
273 Rain 26 1008 94 4000 1.5 270 10:56 24.01.2020
274 Rain 27 1008 100 4000 1.5 280 10:38 24.01.2020
275 Rain 26 1008 100 4000 1.5 280 10:18 24.01.2020
276 Rain 27 1009 100 4000 3.1 250 09:41 24.01.2020
277 Rain 27 1009 100 4000 3.1 250 09:23 24.01.2020
278 Rain 28 1009 88 5000 1 0 08:41 24.01.2020
279 Rain 28 1009 88 5000 1 0 08:21 24.01.2020
280 Rain 27 1010 94 5000 1.5 0 07:58 24.01.2020
281 Rain 27 1010 94 5000 2.1 300 07:37 24.01.2020
282 Rain 26 1011 100 5000 1.5 270 06:53 24.01.2020
283 Rain 26 1011 100 4000 1.5 10 06:33 24.01.2020
284 Thunderstorm 26 1012 100 4000 1.5 360 05:59 24.01.2020
285 Thunderstorm 26 1012 100 2000 2.1 330 05:18 24.01.2020
286 Rain 27 1011 100 4000 3.6 40 02:54 24.01.2020
287 Rain 27 1011 100 3000 1.5 100 02:27 24.01.2020
288 Rain 26 1011 100 3000 2.1 120 01:56 24.01.2020
289 Rain 27 1010 100 3000 1.5 70 01:35 24.01.2020
290 Rain 27 1009 94 3000 1.5 350 00:33 24.01.2020
291 Rain 26 1009 100 3000 1.5 310 23:58 23.01.2020
292 Mist 26 1009 100 3000 1.5 160 23:40 23.01.2020
293 Mist 26 1009 100 3000 1.5 160 23:20 23.01.2020
294 Rain 26 1009 100 3000 1.5 80 22:55 23.01.2020
295 Rain 26 1009 100 3000 1.5 80 22:55 23.01.2020
296 Rain 26 1009 88 4000 2.1 300 22:36 23.01.2020
297 Rain 26 1009 88 4000 2.1 300 22:18 23.01.2020
298 Rain 26 1009 94 4000 2.1 0 21:54 23.01.2020
299 Thunderstorm 26 1009 88 4000 2.6 290 21:36 23.01.2020
300 Thunderstorm 27 1009 88 4000 2.6 290 21:18 23.01.2020
301 Haze 27 1009 83 5000 2.1 280 20:40 23.01.2020
302 Haze 27 1009 83 5000 2.1 280 20:22 23.01.2020
303 Haze 27 1009 83 5000 1 300 19:57 23.01.2020
304 Haze 27 1009 88 5000 1.5 300 19:38 23.01.2020
305 Haze 27 1009 88 5000 1.5 300 19:38 23.01.2020
306 Haze 27 1009 88 5000 1.5 300 19:20 23.01.2020
307 Clouds 27 1010 83 5000 1.5 330 18:56 23.01.2020
308 Clouds 27 1010 83 5000 1.5 330 18:56 23.01.2020
309 Clouds 27 1010 83 7000 3.2 352 18:37 23.01.2020
310 Clouds 26 1010 83 7000 3.2 352 18:19 23.01.2020
311 Clouds 27 1011 78 8000 2.1 0 17:43 23.01.2020
312 Clouds 28 1011 78 8000 2.1 0 17:20 23.01.2020
313 Clouds 28 1012 83 7000 2.1 0 16:58 23.01.2020
314 Clouds 28 1011 79 7000 2.1 0 16:38 23.01.2020
315 Clouds 29 1011 79 7000 2.1 0 16:19 23.01.2020
316 Clouds 28 1011 83 6000 1 0 15:57 23.01.2020
317 Haze 27 1010 83 5000 1 0 15:38 23.01.2020
318 Haze 27 1010 83 5000 1 0 15:18 23.01.2020
319 Haze 27 1010 83 5000 1 0 15:18 23.01.2020
320 Haze 27 1010 83 3000 1.5 50 14:56 23.01.2020
321 Haze 27 1010 83 3000 1.5 50 14:56 23.01.2020
322 Haze 27 1010 79 4000 1.5 50 14:38 23.01.2020
323 Haze 29 1010 79 4000 1.5 50 14:20 23.01.2020
324 Thunderstorm 29 1010 83 4600 1.5 0 13:45 23.01.2020
325 Clouds 30 1009 79 6000 1.5 10 13:21 23.01.2020
326 Thunderstorm 30 1009 79 7000 1.5 350 12:55 23.01.2020
327 Clouds 30 1008 74 6000 1.5 310 12:36 23.01.2020
328 Clouds 30 1008 74 6000 1.5 310 12:18 23.01.2020
329 Clouds 31 1007 70 6000 3.6 350 11:43 23.01.2020
330 Clouds 32 1007 70 6000 3.6 350 11:24 23.01.2020
331 Clouds 32 1007 70 9000 3.6 350 10:58 23.01.2020
332 Clouds 31 1007 70 6000 3.1 360 10:40 23.01.2020
333 Clouds 31 1007 70 6000 3.1 360 10:18 23.01.2020
334 Clouds 33 1008 62 10000 5.1 330 09:41 23.01.2020
335 Clouds 33 1008 62 10000 5.1 330 09:41 23.01.2020
336 Clouds 32 1008 62 10000 5.1 330 09:21 23.01.2020
337 Clouds 31 1008 70 10000 5.1 340 08:56 23.01.2020
338 Clouds 31 1009 66 10000 4.6 340 08:37 23.01.2020
339 Clouds 30 1009 66 10000 4.6 340 08:18 23.01.2020
340 Rain 30 1010 100 4000 2.1 10 07:37 23.01.2020
341 Rain 30 1010 100 4000 2.1 10 07:18 23.01.2020
342 Clouds 32 1010 70 9000 6.2 350 06:44 23.01.2020
343 Rain 30 1011 88 3000 1.5 340 06:18 23.01.2020
344 Rain 29 1012 88 5000 1.5 350 04:25 23.01.2020
345 Rain 28 1012 83 5000 1.5 270 03:36 23.01.2020
346 Rain 26 1011 83 4000 1.5 290 01:55 23.01.2020
347 Rain 26 1010 94 4000 1.5 160 00:44 23.01.2020
348 Rain 27 1010 94 4000 1.5 160 00:24 23.01.2020
349 Rain 26 1010 94 4000 1.5 100 23:46 22.01.2020
350 Rain 27 1010 88 4000 2.1 20 23:28 22.01.2020
351 Rain 27 1009 100 4000 2.43 325 22:43 22.01.2020
352 Rain 27 1009 100 4000 2.43 325 22:25 22.01.2020
353 Haze 26 1010 100 4000 1.5 230 21:59 22.01.2020
354 Haze 26 1010 88 5000 1 250 21:38 22.01.2020
355 Haze 26 1010 88 5000 1 250 21:19 22.01.2020
356 Haze 26 1010 83 4000 1.5 0 20:42 22.01.2020
357 Haze 26 1010 83 4000 1.5 0 20:42 22.01.2020
358 Haze 26 1010 83 4000 1.5 0 20:23 22.01.2020
359 Haze 26 1011 83 4000 0.5 0 19:59 22.01.2020
360 Haze 26 1011 83 4000 1 330 19:41 22.01.2020
361 Haze 26 1011 83 4000 1 330 19:21 22.01.2020
362 Haze 26 1011 88 4000 1 300 18:59 22.01.2020
363 Haze 26 1012 88 4000 1 310 18:40 22.01.2020
364 Haze 26 1012 88 4000 1 310 18:21 22.01.2020
365 Haze 26 1012 88 3000 1.5 320 17:59 22.01.2020
366 Haze 26 1012 83 4000 1 0 17:39 22.01.2020
367 Haze 28 1012 83 4000 1 0 17:20 22.01.2020
368 Haze 28 1012 83 5000 1.5 0 16:56 22.01.2020
369 Haze 28 1012 83 5000 1.5 80 16:37 22.01.2020
370 Haze 28 1012 83 5000 1.5 80 16:37 22.01.2020
371 Haze 28 1012 83 5000 1.5 80 16:18 22.01.2020
372 Haze 27 1012 78 4000 1 40 15:43 22.01.2020
373 Haze 27 1012 78 4000 1 40 15:24 22.01.2020
374 Haze 27 1012 78 4000 1.5 50 14:59 22.01.2020
375 Clouds 28 1011 74 6000 1.5 30 14:38 22.01.2020
376 Clouds 29 1011 74 6000 1.5 30 14:20 22.01.2020
377 Clouds 29 1011 74 6000 1.5 40 13:57 22.01.2020
378 Clouds 29 1010 83 6000 1.5 260 13:37 22.01.2020
379 Clouds 29 1010 83 6000 1.5 260 13:19 22.01.2020
380 Clouds 29 1010 79 6000 3.33 347 12:57 22.01.2020
381 Rain 30 1009 74 5000 1.5 330 12:38 22.01.2020
382 Rain 30 1009 74 5000 1.5 330 12:19 22.01.2020
383 Rain 29 1009 74 5000 3.1 360 11:56 22.01.2020
384 Rain 30 1009 70 5000 3.1 360 11:38 22.01.2020
385 Rain 31 1009 70 5000 3.1 360 11:19 22.01.2020
386 Rain 31 1009 70 5000 3.1 360 11:19 22.01.2020
387 Clouds 31 1009 70 6000 2.1 350 10:45 22.01.2020
388 Clouds 32 1008 66 6000 1.5 320 10:21 22.01.2020
389 Clouds 31 1008 70 6000 3.6 360 09:58 22.01.2020
390 Clouds 32 1009 70 6000 2.1 330 09:40 22.01.2020
391 Clouds 31 1009 70 6000 2.1 330 09:21 22.01.2020
392 Clouds 31 1009 70 6000 3.1 330 08:55 22.01.2020
393 Haze 31 1010 74 5000 2.1 330 08:36 22.01.2020
394 Haze 32 1010 74 5000 2.1 330 08:18 22.01.2020
395 Rain 31 1011 83 5000 2.6 310 07:44 22.01.2020
396 Rain 31 1011 83 5000 2.6 310 07:26 22.01.2020
397 Rain 30 1012 88 5000 1.5 300 06:34 22.01.2020
398 Rain 30 1012 88 5000 1.5 290 05:54 22.01.2020
399 Haze 30 1013 83 4000 1.5 230 04:25 22.01.2020
400 Haze 30 1013 83 4000 1.5 290 03:26 22.01.2020
401 Haze 29 1013 94 4000 1.5 210 02:42 22.01.2020
402 Clouds 27 1012 83 4000 1 0 00:47 22.01.2020
403 Rain 27 1011 83 3000 2.1 0 00:27 22.01.2020
404 Rain 26 1011 88 3000 3.6 20 23:57 21.01.2020
405 Haze 26 1011 88 3000 2.6 170 23:37 21.01.2020
406 Haze 25 1011 88 3000 2.6 170 23:19 21.01.2020
407 Haze 25 1011 88 3000 2.6 170 22:40 21.01.2020
408 Haze 25 1011 88 3000 2.6 170 22:21 21.01.2020
409 Haze 25 1011 88 4000 2.1 170 21:58 21.01.2020
410 Thunderstorm 25 1011 88 5000 2.6 170 21:38 21.01.2020
411 Thunderstorm 25 1011 88 5000 2.6 170 21:20 21.01.2020
412 Haze 25 1011 88 5000 2.1 180 20:57 21.01.2020
413 Haze 25 1012 88 5000 1.5 140 20:38 21.01.2020
414 Haze 27 1012 88 5000 1.5 140 20:20 21.01.2020
415 Haze 27 1012 88 2700 0.5 0 19:57 21.01.2020
416 Haze 26 1012 88 3000 1 70 19:39 21.01.2020
417 Haze 26 1012 88 3000 1 70 19:20 21.01.2020
418 Haze 26 1013 88 5000 1.5 120 18:55 21.01.2020
419 Haze 26 1013 88 5000 1 130 18:37 21.01.2020
420 Haze 26 1013 88 5000 1 130 18:19 21.01.2020
421 Haze 26 1013 83 5000 1 70 17:45 21.01.2020
422 Haze 27 1013 83 5000 1 80 17:20 21.01.2020
423 Haze 26 1013 88 5000 0.5 0 16:59 21.01.2020
424 Haze 27 1013 83 5000 1.5 70 16:37 21.01.2020
425 Haze 27 1013 83 5000 1.5 70 16:19 21.01.2020
426 Haze 27 1013 83 5000 2.1 90 15:56 21.01.2020
427 Haze 28 1013 83 5000 1 60 15:36 21.01.2020
428 Haze 28 1013 83 5000 1 60 15:18 21.01.2020
429 Haze 28 1012 83 5000 1.5 70 14:38 21.01.2020
430 Haze 28 1012 83 5000 1.5 70 14:20 21.01.2020
431 Haze 28 1011 79 5000 2.6 40 13:40 21.01.2020
432 Haze 28 1011 79 5000 2.6 40 13:19 21.01.2020
433 Clouds 28 1011 79 8000 3.1 50 12:56 21.01.2020
434 Clouds 28 1010 79 8000 3.6 60 12:37 21.01.2020
435 Clouds 28 1010 79 8000 3.6 60 12:19 21.01.2020
436 Clouds 30 1010 74 9000 4.1 40 11:40 21.01.2020
437 Clouds 31 1010 74 9000 4.1 40 11:21 21.01.2020
438 Clouds 31 1009 70 10000 4.1 30 10:57 21.01.2020
439 Clouds 31 1009 70 10000 4.1 30 10:57 21.01.2020
440 Clouds 31 1009 66 10000 4.1 20 10:39 21.01.2020
441 Clouds 32 1009 66 10000 4.1 20 10:20 21.01.2020
442 Clouds 31 1009 70 10000 4.6 10 09:42 21.01.2020
443 Clouds 32 1009 70 10000 4.6 10 09:22 21.01.2020
444 Clouds 31 1010 70 8000 4.1 340 08:50 21.01.2020
445 Clouds 31 1010 74 8000 4.1 330 08:32 21.01.2020
446 Clouds 31 1011 79 8000 4.1 330 07:59 21.01.2020
447 Clouds 31 1012 79 7000 3.1 330 07:40 21.01.2020
448 Clouds 30 1012 79 7000 3.1 330 07:22 21.01.2020
449 Clouds 30 1012 83 7000 3.6 330 06:49 21.01.2020
450 Clouds 30 1012 88 7000 2.6 340 06:29 21.01.2020
451 Clouds 30 1012 88 7000 2.6 340 06:29 21.01.2020
452 Clouds 30 1012 88 7000 2.6 340 06:29 21.01.2020
453 Haze 29 1013 94 5000 1.5 350 05:42 21.01.2020
454 Rain 28 1014 83 5000 3.1 360 04:40 21.01.2020
455 Thunderstorm 29 1014 83 5000 4.6 290 02:57 21.01.2020
456 Haze 28 1013 83 5000 1.5 0 01:55 21.01.2020
457 Haze 26 1013 100 3000 2.27 336 01:26 21.01.2020
458 Mist 27 1012 88 5000 2.1 0 00:37 21.01.2020
459 Clouds 26 1012 94 6000 3.1 250 23:59 20.01.2020
460 Rain 26 1011 100 4000 1.5 300 23:41 20.01.2020
461 Rain 26 1011 100 4000 1.5 300 23:19 20.01.2020
462 Clouds 25 1011 94 5000 2.6 250 22:56 20.01.2020
463 Clouds 25 1011 94 5000 2.6 260 22:38 20.01.2020
464 Clouds 25 1011 94 5000 2.6 260 22:20 20.01.2020
465 Thunderstorm 25 1011 88 6000 2.6 300 21:57 20.01.2020
466 Clouds 25 1011 88 6000 2.1 310 21:37 20.01.2020
467 Clouds 25 1011 88 6000 2.1 310 21:19 20.01.2020
468 Rain 25 1011 88 5000 2.6 0 20:56 20.01.2020
469 Rain 25 1011 88 5000 2.6 0 20:56 20.01.2020
470 Rain 25 1011 94 5000 2.6 310 20:38 20.01.2020
471 Rain 25 1011 94 5000 2.6 310 20:18 20.01.2020
472 Thunderstorm 25 1012 88 5000 4.1 280 19:56 20.01.2020
473 Thunderstorm 26 1012 88 4000 3.6 260 19:37 20.01.2020
474 Thunderstorm 26 1012 88 4000 3.6 260 19:37 20.01.2020
475 Thunderstorm 26 1012 88 4000 3.6 260 19:18 20.01.2020
476 Thunderstorm 27 1013 83 5000 2.1 30 18:43 20.01.2020
477 Thunderstorm 27 1013 83 5000 2.1 30 18:43 20.01.2020
478 Thunderstorm 27 1013 83 5000 2.1 30 18:22 20.01.2020
479 Mist 27 1013 79 5000 1 0 17:41 20.01.2020
480 Mist 28 1013 79 5000 1 0 17:20 20.01.2020
481 Mist 28 1013 79 5000 1 0 17:20 20.01.2020
482 Mist 28 1013 83 3500 1 0 16:59 20.01.2020
483 Mist 28 1013 79 4000 1.5 50 16:37 20.01.2020
484 Mist 29 1013 79 4000 1.5 50 16:18 20.01.2020
485 Mist 29 1013 79 4000 1.5 50 16:18 20.01.2020
486 Mist 29 1013 79 4000 1.5 50 16:18 20.01.2020
487 Clouds 27 1012 83 7000 1.5 80 15:54 20.01.2020
488 Clouds 27 1012 79 8000 1 0 15:36 20.01.2020
489 Clouds 27 1012 79 8000 1 0 15:18 20.01.2020
490 Clouds 27 1011 79 8000 1.5 20 14:41 20.01.2020
491 Clouds 27 1011 79 8000 1.5 20 14:41 20.01.2020
492 Clouds 29 1011 79 8000 1.5 20 14:22 20.01.2020
493 Clouds 29 1011 79 8000 1 360 13:58 20.01.2020
494 Clouds 29 1011 79 8000 1.5 60 13:40 20.01.2020
495 Clouds 29 1011 79 8000 1.5 60 13:21 20.01.2020
496 Rain 29 1010 83 5000 1.5 360 12:46 20.01.2020
497 Clouds 30 1010 70 8000 2.6 10 12:27 20.01.2020
498 Clouds 30 1009 70 9000 3.1 20 11:57 20.01.2020
499 Rain 30 1009 74 5000 1.5 340 11:38 20.01.2020
500 Rain 30 1009 74 5000 1.5 340 11:19 20.01.2020
501 Thunderstorm 31 1009 62 9000 3.1 340 10:47 20.01.2020
502 Thunderstorm 32 1009 66 10000 3.1 10 10:21 20.01.2020
503 Clouds 30 1008 70 10000 4.1 360 09:54 20.01.2020
504 Clouds 30 1009 66 10000 4.1 360 09:36 20.01.2020
505 Clouds 30 1009 66 10000 4.1 360 09:18 20.01.2020
506 Clouds 31 1009 66 8000 4.6 360 08:42 20.01.2020
507 Haze 31 1010 74 5000 3.1 320 08:24 20.01.2020
508 Clouds 32 1010 70 8000 5.1 360 07:42 20.01.2020
509 Haze 31 1011 79 4000 2.6 350 07:23 20.01.2020
510 Clouds 31 1012 74 8000 4.1 340 06:45 20.01.2020
511 Clouds 31 1012 74 8000 4.1 340 06:25 20.01.2020
512 Haze 30 1012 83 4000 2.1 350 05:41 20.01.2020
513 Haze 30 1012 83 4000 2.1 350 05:21 20.01.2020
514 Thunderstorm 31 1012 94 3000 1.5 320 04:33 20.01.2020
515 Haze 29 1012 88 4000 1.5 130 02:55 20.01.2020
516 Haze 29 1012 88 4000 1.5 130 02:55 20.01.2020
517 Haze 27 1011 94 4000 2.5 297 01:42 20.01.2020
518 Haze 28 1011 94 4000 2.5 297 01:23 20.01.2020
519 Haze 27 1011 94 4000 2.39 305 00:43 20.01.2020
520 Haze 27 1010 94 4000 2.39 305 00:22 20.01.2020
521 Haze 27 1010 94 4000 2.39 305 23:39 19.01.2020
522 Haze 27 1010 94 4000 1.87 305 23:19 19.01.2020
523 Haze 27 1010 94 5000 1.87 305 22:56 19.01.2020
524 Haze 27 1010 94 5000 1.87 305 22:38 19.01.2020
525 Haze 27 1010 94 5000 1.87 305 22:38 19.01.2020
526 Haze 26 1010 94 5000 1.87 305 22:19 19.01.2020
527 Haze 26 1010 83 5000 1.5 220 21:56 19.01.2020
528 Haze 26 1010 83 5000 1.5 220 21:56 19.01.2020
529 Haze 26 1010 83 5000 2.1 210 21:38 19.01.2020
530 Haze 26 1010 83 5000 2.1 210 21:19 19.01.2020
531 Haze 26 1010 83 5000 2.6 200 20:57 19.01.2020
532 Haze 26 1010 83 5000 2.6 200 20:38 19.01.2020
533 Haze 26 1010 83 5000 2.6 200 20:20 19.01.2020
534 Haze 26 1010 83 5000 2.6 0 19:56 19.01.2020
535 Haze 26 1011 83 5000 1 320 19:37 19.01.2020
536 Haze 26 1011 83 5000 1 320 19:19 19.01.2020
537 Haze 26 1011 83 5000 1.5 310 18:55 19.01.2020
538 Haze 26 1011 83 5000 1.5 310 18:37 19.01.2020
539 Haze 26 1011 83 5000 1.5 310 18:19 19.01.2020
540 Clouds 26 1011 83 6000 1 260 17:58 19.01.2020
541 Clouds 26 1012 83 6000 1 300 17:39 19.01.2020
542 Clouds 28 1012 83 6000 1 300 17:20 19.01.2020
543 Clouds 28 1012 83 6000 1.5 320 16:57 19.01.2020
544 Clouds 28 1012 78 7000 1 300 16:38 19.01.2020
545 Clouds 28 1012 78 7000 1 300 16:19 19.01.2020
546 Clouds 28 1012 78 7000 1 0 15:57 19.01.2020
547 Clouds 27 1011 83 7000 2.6 280 15:37 19.01.2020
548 Clouds 27 1011 83 7000 2.6 280 15:37 19.01.2020
549 Clouds 27 1011 83 7000 2.6 280 15:19 19.01.2020
550 Clouds 29 1011 83 7000 1 280 14:57 19.01.2020
551 Clouds 27 1011 78 7000 1.5 320 14:38 19.01.2020
552 Clouds 29 1011 78 7000 1.5 320 14:18 19.01.2020
553 Clouds 29 1010 78 8000 1.5 320 13:55 19.01.2020
554 Clouds 29 1010 79 6000 2.6 320 13:37 19.01.2020
555 Clouds 28 1010 79 6000 2.6 320 13:18 19.01.2020
556 Clouds 28 1009 79 6000 3.6 330 12:54 19.01.2020
557 Clouds 28 1009 79 6000 3.1 350 12:36 19.01.2020
558 Clouds 30 1009 79 6000 3.1 350 12:18 19.01.2020
559 Clouds 30 1008 74 6000 3.6 320 11:39 19.01.2020
560 Clouds 31 1008 74 6000 3.6 320 11:20 19.01.2020
561 Clouds 30 1008 70 6000 4.1 340 10:55 19.01.2020
562 Clouds 31 1008 66 6000 5.1 10 10:37 19.01.2020
563 Clouds 31 1008 66 6000 5.1 10 10:37 19.01.2020
564 Clouds 31 1008 66 6000 5.1 10 10:18 19.01.2020
565 Clouds 31 1008 66 6000 5.1 10 10:18 19.01.2020
566 Clouds 31 1008 70 6000 5.1 30 09:44 19.01.2020
567 Clouds 31 1008 70 6000 5.1 30 09:25 19.01.2020
568 Clouds 32 1009 66 6000 4.6 10 08:58 19.01.2020
569 Haze 32 1009 66 5000 6.2 20 08:39 19.01.2020
570 Haze 33 1009 66 5000 6.2 20 08:20 19.01.2020
571 Rain 32 1010 70 4000 5.1 360 07:42 19.01.2020
572 Rain 32 1010 70 4000 5.1 360 07:21 19.01.2020
573 Rain 33 1010 62 4000 2.6 10 06:50 19.01.2020
574 Haze 32 1011 66 3000 3.1 20 05:21 19.01.2020
575 Haze 30 1012 83 3000 2.1 30 02:43 19.01.2020
576 Mist 29 1012 88 2000 1.5 300 02:21 19.01.2020
577 Mist 27 1011 100 2000 1.5 170 01:24 19.01.2020
578 Mist 26 1011 83 2000 1 0 00:45 19.01.2020
579 Mist 26 1010 88 2500 1 0 00:27 19.01.2020
580 Mist 25 1010 88 2500 1 0 23:56 18.01.2020
581 Mist 25 1010 88 2500 1 170 23:38 18.01.2020
582 Mist 25 1010 88 2500 1 170 23:18 18.01.2020
583 Mist 25 1010 88 2500 1.5 210 22:55 18.01.2020
584 Mist 25 1010 88 2500 2.1 250 22:36 18.01.2020
585 Mist 25 1010 88 2500 2.1 250 22:18 18.01.2020
586 Mist 25 1010 88 2500 2.1 280 21:56 18.01.2020
587 Mist 25 1010 88 3000 1.5 220 21:37 18.01.2020
588 Mist 25 1010 88 3000 1.5 220 21:18 18.01.2020
589 Haze 24 1010 83 4000 1 0 20:42 18.01.2020
590 Haze 26 1010 83 4000 1 0 20:21 18.01.2020
591 Haze 26 1010 83 4000 1 200 19:55 18.01.2020
592 Haze 26 1010 88 4000 1 340 19:37 18.01.2020
593 Haze 26 1010 88 4000 1 340 19:37 18.01.2020
594 Haze 26 1010 88 4000 1 340 19:19 18.01.2020
595 Haze 25 1011 88 4000 1 0 18:42 18.01.2020
596 Haze 25 1011 88 4000 1 0 18:21 18.01.2020
597 Haze 25 1011 88 4000 1.54 43 17:54 18.01.2020
598 Haze 25 1011 83 5000 1 330 17:36 18.01.2020
599 Haze 26 1011 83 5000 1 330 17:18 18.01.2020
600 Haze 26 1011 78 5000 1.5 10 16:41 18.01.2020
601 Haze 26 1011 78 5000 1.5 10 16:23 18.01.2020
602 Haze 26 1011 78 5000 1 70 15:59 18.01.2020
603 Haze 26 1011 78 5000 1 70 15:40 18.01.2020
604 Haze 26 1011 78 5000 1 70 15:22 18.01.2020
605 Clouds 27 1010 78 6000 1 350 14:44 18.01.2020
606 Clouds 27 1010 78 6000 1 350 14:24 18.01.2020
607 Clouds 27 1010 74 6000 0.5 0 13:59 18.01.2020
608 Clouds 27 1009 74 6000 1 320 13:41 18.01.2020
609 Clouds 29 1009 74 6000 1 320 13:21 18.01.2020
610 Clouds 29 1009 74 7000 2.1 330 12:55 18.01.2020
611 Clouds 29 1009 74 7000 2.1 330 12:55 18.01.2020
612 Clouds 29 1009 66 6000 1.5 10 12:37 18.01.2020
613 Clouds 29 1009 66 6000 1.5 10 12:19 18.01.2020
614 Clouds 30 1008 55 6000 1.5 340 11:44 18.01.2020
615 Clouds 31 1008 55 6000 1.5 340 11:21 18.01.2020
616 Clouds 31 1008 66 10000 2.6 340 10:54 18.01.2020
617 Clouds 31 1008 58 6000 1.5 320 10:36 18.01.2020
618 Clouds 30 1008 58 6000 1.5 320 10:18 18.01.2020
619 Haze 31 1009 70 5000 2.1 270 09:42 18.01.2020
620 Haze 31 1009 70 5000 2.1 270 09:20 18.01.2020
621 Clouds 31 1009 62 9000 4.1 360 08:55 18.01.2020
622 Rain 31 1010 74 4000 2.1 320 08:36 18.01.2020
623 Rain 31 1010 74 4000 2.1 320 08:18 18.01.2020
624 Rain 31 1010 70 4000 1.5 290 07:40 18.01.2020
625 Rain 31 1010 70 4000 1.5 290 07:20 18.01.2020
626 Clouds 31 1011 70 7000 4.1 340 06:45 18.01.2020
627 Clouds 31 1011 70 7000 4.1 340 06:45 18.01.2020
628 Clouds 28 1012 74 8000 2.1 0 05:53 18.01.2020
629 Rain 27 1013 94 4000 1.5 270 04:28 18.01.2020
630 Rain 26 1013 100 4000 2.1 160 02:49 18.01.2020
631 Thunderstorm 25 1012 100 4000 0.91 347 01:47 18.01.2020
632 Thunderstorm 25 1011 100 1000 1.5 270 00:40 18.01.2020
633 Thunderstorm 25 1011 100 1000 1.5 270 00:21 18.01.2020
634 Thunderstorm 25 1011 88 5000 5.1 320 23:59 17.01.2020
635 Rain 26 1010 100 3000 1.5 360 23:40 17.01.2020
636 Rain 26 1010 100 3000 1.5 360 23:18 17.01.2020
637 Thunderstorm 26 1010 88 5000 1 0 22:42 17.01.2020
638 Thunderstorm 26 1010 88 5000 1 0 22:20 17.01.2020
639 Rain 26 1009 94 5000 3.1 280 21:57 17.01.2020
640 Thunderstorm 26 1009 94 4000 1.5 0 21:38 17.01.2020
641 Thunderstorm 26 1009 94 4000 1.5 0 21:20 17.01.2020
642 Thunderstorm 26 1010 94 4000 2.1 350 20:55 17.01.2020
643 Thunderstorm 26 1010 94 5000 1.5 0 20:36 17.01.2020
644 Thunderstorm 26 1010 94 5000 1.5 0 20:18 17.01.2020
645 Thunderstorm 26 1010 94 4000 1.5 0 19:54 17.01.2020
646 Thunderstorm 26 1010 88 2500 2.1 0 19:36 17.01.2020
647 Thunderstorm 26 1010 88 2500 2.1 0 19:18 17.01.2020
648 Thunderstorm 26 1011 88 3000 4.1 170 18:44 17.01.2020
649 Thunderstorm 26 1011 88 3000 4.1 170 18:26 17.01.2020
650 Thunderstorm 27 1011 88 2500 4.6 140 17:56 17.01.2020
651 Rain 27 1011 83 5000 2.1 0 17:38 17.01.2020
652 Rain 27 1011 83 5000 2.1 0 17:19 17.01.2020
653 Clouds 27 1011 78 8000 2.1 0 16:41 17.01.2020
654 Clouds 27 1011 78 8000 2.1 0 16:20 17.01.2020
655 Clouds 27 1011 78 7000 1.5 0 15:48 17.01.2020
656 Clouds 28 1012 78 7000 1 250 15:27 17.01.2020
657 Clouds 29 1012 74 7000 1 0 14:56 17.01.2020
658 Clouds 29 1011 74 6000 1 0 14:37 17.01.2020
659 Clouds 29 1011 74 6000 1 0 14:19 17.01.2020
660 Haze 29 1010 79 5000 4.1 340 13:39 17.01.2020
661 Haze 29 1010 79 5000 4.1 340 13:20 17.01.2020
662 Clouds 27 1010 74 7000 2.6 10 12:45 17.01.2020
663 Haze 30 1009 79 5000 3.1 350 12:23 17.01.2020
664 Haze 29 1008 74 5000 3.6 350 11:41 17.01.2020
665 Haze 30 1008 74 5000 3.6 350 11:19 17.01.2020
666 Haze 30 1008 70 5000 4.1 360 10:54 17.01.2020
667 Haze 30 1008 70 5000 4.1 360 10:54 17.01.2020
668 Haze 30 1008 70 5000 4.1 360 10:54 17.01.2020
669 Haze 30 1008 70 5000 4.6 350 10:36 17.01.2020
670 Haze 30 1008 70 5000 4.6 350 10:18 17.01.2020
671 Clouds 31 1008 66 10000 5.1 10 09:41 17.01.2020
672 Clouds 31 1008 66 10000 5.1 10 09:20 17.01.2020
673 Clouds 32 1009 66 10000 5.7 10 08:55 17.01.2020
674 Haze 32 1009 66 5000 3.1 360 08:37 17.01.2020
675 Haze 32 1009 66 5000 3.1 360 08:18 17.01.2020
676 Haze 32 1009 70 4000 3.1 350 07:43 17.01.2020
677 Haze 32 1009 70 4000 3.1 350 07:24 17.01.2020
678 Clouds 33 1010 66 10000 4.6 330 06:47 17.01.2020
679 Clouds 33 1010 70 7000 4.6 340 06:29 17.01.2020
680 Rain 33 1012 60 0 0.89 138 04:26 17.01.2020
681 Rain 32 1005 72 0 4.23 315 02:56 17.01.2020
682 Rain 32 1013 70 0 0.45 331 02:32 17.01.2020
683 Rain 28 1012 77 0 0.45 335 01:33 17.01.2020
684 Rain 26 1012 80 0 2.91 312 00:59 17.01.2020
685 Rain 26 1012 80 0 2.91 312 00:59 17.01.2020
686 Rain 27 1012 86 0 2.91 312 00:35 17.01.2020
687 Mist 26 1010 100 2500 2.91 312 23:59 16.01.2020
688 Mist 26 1010 100 2500 2.91 312 23:41 16.01.2020
689 Mist 26 1010 100 2500 5.74 290 23:22 16.01.2020
690 Mist 26 1010 100 3000 5.74 290 22:41 16.01.2020
691 Mist 26 1010 100 3000 5.74 290 22:21 16.01.2020
692 Clouds 26 1010 83 6000 1 200 21:57 16.01.2020
693 Haze 25 1010 83 5000 1 200 21:38 16.01.2020
694 Haze 25 1010 83 5000 1 200 21:19 16.01.2020
695 Clouds 25 1010 83 5000 1 210 20:56 16.01.2020
696 Thunderstorm 25 1010 83 5000 1 0 20:38 16.01.2020
697 Thunderstorm 26 1010 83 5000 1 0 20:19 16.01.2020
698 Haze 26 1010 83 5000 1.5 200 19:56 16.01.2020
699 Haze 26 1011 83 5000 0.5 340 19:37 16.01.2020
700 Haze 27 1011 83 5000 0.5 340 19:19 16.01.2020
701 Haze 25 1011 78 5000 1 0 18:55 16.01.2020
702 Haze 25 1011 78 5000 1 0 18:36 16.01.2020
703 Haze 26 1011 78 5000 1 0 18:18 16.01.2020
704 Haze 25 1012 78 5000 1 0 17:41 16.01.2020
705 Haze 27 1012 78 5000 1 0 17:23 16.01.2020
706 Haze 27 1012 78 5000 1.5 180 16:57 16.01.2020
707 Haze 27 1012 78 5000 3.1 190 16:38 16.01.2020
708 Haze 27 1012 78 5000 3.1 190 16:19 16.01.2020
709 Haze 27 1012 78 5000 3.1 190 16:19 16.01.2020
710 Thunderstorm 26 1011 78 5000 1 310 15:44 16.01.2020
711 Thunderstorm 26 1011 78 9000 1.5 0 15:23 16.01.2020
712 Clouds 26 1011 78 5000 3.6 180 14:57 16.01.2020
713 Haze 26 1011 78 5000 3.1 190 14:39 16.01.2020
714 Haze 27 1011 78 5000 3.1 190 14:20 16.01.2020
715 Haze 27 1010 78 5000 2.1 0 13:45 16.01.2020
716 Haze 26 1010 94 3000 2.1 150 13:26 16.01.2020
717 Haze 26 1010 94 3000 2.1 170 12:47 16.01.2020
718 Haze 26 1010 94 3000 2.1 170 12:47 16.01.2020
719 Rain 26 1010 94 4000 2.1 150 12:28 16.01.2020
720 Thunderstorm 25 1009 100 3000 3.1 260 11:59 16.01.2020
721 Thunderstorm 26 1009 94 800 8.7 240 11:40 16.01.2020
722 Thunderstorm 27 1009 94 800 8.7 240 11:22 16.01.2020
723 Rain 29 1008 66 5000 5.7 10 10:40 16.01.2020
724 Rain 30 1008 66 5000 5.7 10 10:22 16.01.2020
725 Clouds 31 1008 66 6000 5.1 350 09:59 16.01.2020
726 Clouds 32 1008 66 6000 5.1 40 09:41 16.01.2020
727 Clouds 31 1008 66 6000 5.1 40 09:23 16.01.2020
728 Clouds 32 1008 66 6000 6.2 30 08:55 16.01.2020
729 Clouds 32 1009 70 6000 6.2 20 08:36 16.01.2020
730 Clouds 32 1009 70 6000 6.2 10 07:59 16.01.2020
731 Haze 32 1010 74 5000 3.6 330 07:41 16.01.2020
732 Haze 32 1010 74 5000 3.6 330 07:23 16.01.2020
733 Haze 33 1010 70 4000 4.1 30 06:46 16.01.2020
734 Haze 31 1010 79 4000 5.1 20 06:28 16.01.2020
735 Rain 32 1011 79 3000 5.1 30 05:46 16.01.2020
736 Haze 30 1011 70 4000 2.1 120 04:46 16.01.2020
737 Haze 30 1011 74 3000 1.5 270 03:29 16.01.2020
738 Haze 30 1011 88 3000 2.6 160 02:44 16.01.2020
739 Haze 27 1011 94 3000 2.6 220 01:24 16.01.2020
740 Mist 26 1010 94 3000 1.5 240 00:41 16.01.2020
741 Mist 26 1010 94 3000 1.5 240 00:19 16.01.2020
742 Mist 26 1010 94 3000 2.1 180 23:40 15.01.2020
743 Mist 26 1010 94 3000 2.1 180 23:20 15.01.2020
744 Mist 26 1010 94 3000 2.1 180 23:19 15.01.2020
745 Mist 26 1009 88 3500 1 280 22:56 15.01.2020
746 Haze 26 1009 83 5000 1 0 22:36 15.01.2020
747 Haze 27 1009 83 5000 1 0 22:18 15.01.2020
748 Clouds 26 1009 88 5000 0.5 0 21:55 15.01.2020
749 Haze 26 1009 88 5000 1 270 21:36 15.01.2020
750 Haze 26 1009 88 5000 1 270 21:18 15.01.2020
751 Haze 27 1009 88 5000 1.5 280 20:54 15.01.2020
752 Haze 27 1010 88 5000 1 290 20:36 15.01.2020
753 Haze 26 1010 88 5000 1 290 20:18 15.01.2020
754 Haze 26 1010 88 5000 1 270 19:54 15.01.2020
755 Haze 27 1010 83 5000 1 300 19:36 15.01.2020
756 Haze 27 1010 83 5000 1 300 19:36 15.01.2020
757 Haze 27 1010 83 5000 1 300 19:18 15.01.2020
758 Haze 27 1010 83 5000 1 300 18:55 15.01.2020
759 Haze 27 1010 83 5000 1 300 18:55 15.01.2020
760 Haze 25 1011 88 5000 1 290 18:36 15.01.2020
761 Haze 26 1011 88 5000 1 290 18:18 15.01.2020
762 Haze 26 1011 83 5000 1 310 17:40 15.01.2020
763 Haze 27 1011 83 5000 1 310 17:22 15.01.2020
764 Clouds 27 1011 83 6000 1 340 16:57 15.01.2020
765 Clouds 27 1011 83 6000 1.5 360 16:38 15.01.2020
766 Clouds 27 1011 83 6000 1.5 360 16:20 15.01.2020
767 Clouds 27 1011 83 6000 1.5 360 16:20 15.01.2020
768 Clouds 27 1010 83 6000 1 0 15:43 15.01.2020
769 Clouds 26 1010 83 6000 1 0 15:21 15.01.2020
770 Clouds 27 1010 78 6000 1 50 14:56 15.01.2020
771 Clouds 27 1010 83 6000 1 50 14:37 15.01.2020
772 Clouds 28 1010 83 6000 1 50 14:18 15.01.2020
773 Clouds 29 1009 83 6000 1.5 360 13:44 15.01.2020
774 Clouds 29 1009 83 6000 1.5 360 13:23 15.01.2020
775 Clouds 29 1009 74 9000 2.1 40 12:55 15.01.2020
776 Clouds 29 1008 74 6000 2.1 350 12:37 15.01.2020
777 Clouds 30 1008 74 6000 2.1 350 12:18 15.01.2020
778 Clouds 29 1008 74 10000 2.6 40 11:54 15.01.2020
779 Clouds 30 1008 66 6000 2.6 320 11:36 15.01.2020
780 Clouds 30 1008 66 6000 2.6 320 11:18 15.01.2020
781 Clouds 29 1008 70 10000 3.1 20 10:41 15.01.2020
782 Clouds 31 1008 70 10000 3.1 20 10:21 15.01.2020
783 Clouds 32 1008 66 10000 3.1 360 09:41 15.01.2020
784 -273 0 0 0 0 0 09:22 15.01.2020
785 Clouds 32 1008 66 10000 3.1 360 08:45 15.01.2020
786 Rain 30 1009 70 5000 2.1 320 08:27 15.01.2020
787 Clouds 31 1009 70 9000 3.6 340 07:56 15.01.2020
788 Rain 30 1009 74 5000 2.1 340 07:35 15.01.2020
789 Clouds 31 1010 70 9000 3.6 340 06:57 15.01.2020
790 Clouds 31 1010 70 9000 3.6 340 06:57 15.01.2020
791 Rain 30 1010 74 4000 2.1 310 06:38 15.01.2020
792 Clouds 30 1011 74 8000 3.1 340 05:43 15.01.2020
793 Haze 29 1011 88 5000 2.6 260 03:44 15.01.2020
794 Haze 26 1011 94 4000 2.6 240 01:50 15.01.2020
795 Haze 25 1010 94 4000 5.1 240 01:22 15.01.2020
796 Haze 25 1010 94 4000 5.1 220 00:44 15.01.2020
797 Haze 25 1010 94 4000 5.1 220 00:25 15.01.2020
798 Haze 25 1010 94 5000 4.1 230 23:47 14.01.2020
799 Haze 26 1009 94 5000 2.1 240 23:29 14.01.2020
800 Haze 26 1009 94 5000 2.1 290 22:58 14.01.2020
801 Rain 24 1009 94 5000 5.1 270 22:40 14.01.2020
802 Rain 24 1009 94 5000 5.1 270 22:19 14.01.2020
803 Clouds 24 1009 94 6000 2.6 280 21:58 14.01.2020
804 Clouds 24 1009 94 6000 2.6 270 21:39 14.01.2020
805 Clouds 24 1009 94 6000 2.6 270 21:20 14.01.2020
806 Clouds 25 1009 88 7000 2.1 280 20:56 14.01.2020
807 Clouds 25 1009 94 6000 2.1 0 20:38 14.01.2020
808 Clouds 24 1009 94 6000 2.1 0 20:19 14.01.2020
809 Clouds 24 1009 94 6000 2.1 0 19:55 14.01.2020
810 Rain 25 1010 88 5000 2.1 250 19:37 14.01.2020
811 Rain 25 1010 88 5000 2.1 250 19:18 14.01.2020
812 Rain 25 1010 88 3000 3.6 280 18:41 14.01.2020
813 Rain 25 1010 88 3000 3.6 280 18:20 14.01.2020
814 Rain 25 1010 88 3000 3.6 280 17:58 14.01.2020
815 Clouds 25 1010 83 6000 3.6 280 17:37 14.01.2020
816 Clouds 26 1010 83 6000 3.6 280 17:18 14.01.2020
817 Thunderstorm 26 1010 78 6000 3.1 330 16:54 14.01.2020
818 Thunderstorm 26 1010 78 6000 3.1 340 16:36 14.01.2020
819 Thunderstorm 26 1010 78 6000 3.1 340 16:18 14.01.2020
820 Clouds 26 1010 78 7000 3.1 30 15:42 14.01.2020
821 Clouds 26 1010 78 7000 3.1 30 15:19 14.01.2020
822 Clouds 27 1009 83 8000 3.1 30 14:46 14.01.2020
823 Clouds 27 1009 78 9000 3.6 30 14:22 14.01.2020
824 Clouds 28 1009 78 9000 4.6 30 13:58 14.01.2020
825 Clouds 28 1008 79 6000 3.1 350 13:39 14.01.2020
826 Clouds 28 1008 79 6000 3.1 350 13:19 14.01.2020
827 Clouds 28 1008 70 6000 3.6 350 12:42 14.01.2020
828 Clouds 29 1008 70 6000 3.6 350 12:22 14.01.2020
829 Clouds 29 1008 74 10000 3.1 20 11:56 14.01.2020
830 Clouds 29 1007 62 6000 2.6 340 11:37 14.01.2020
831 Clouds 29 1007 62 6000 2.6 340 11:37 14.01.2020
832 Clouds 30 1007 62 6000 2.6 340 11:19 14.01.2020
833 Clouds 31 1007 58 6000 4.6 350 10:41 14.01.2020
834 Clouds 31 1007 58 6000 4.6 350 10:20 14.01.2020
835 Clouds 31 1007 66 10000 4.1 350 09:59 14.01.2020
836 Clouds 31 1007 59 6000 7.7 360 09:40 14.01.2020
837 Clouds 32 1007 59 6000 7.7 360 09:21 14.01.2020
838 Clouds 31 1007 62 6000 4.1 330 08:56 14.01.2020
839 Clouds 30 1008 62 10000 5.7 340 08:38 14.01.2020
840 Clouds 31 1008 62 10000 5.7 340 08:19 14.01.2020
841 Clouds 30 1008 62 6000 2.6 330 07:37 14.01.2020
842 Clouds 31 1009 70 6000 2.1 270 06:59 14.01.2020
843 Clouds 32 1009 70 6000 3.1 330 06:40 14.01.2020
844 Clouds 31 1009 74 6000 1.5 320 05:33 14.01.2020
845 Clouds 30 1010 70 6000 3.6 230 04:23 14.01.2020
846 Clouds 31 1010 74 10000 3.6 340 03:43 14.01.2020
847 Clouds 28 1010 83 6000 2.6 300 02:26 14.01.2020
848 Clouds 27 1009 94 6000 2.1 240 01:18 14.01.2020
849 Clouds 26 1009 94 6000 5.46 295 00:39 14.01.2020
850 Clouds 26 1009 94 6000 5.46 295 00:21 14.01.2020
851 Clouds 26 1009 88 6000 5.46 295 23:38 13.01.2020
852 Clouds 26 1009 88 6000 5.34 270 23:18 13.01.2020
853 Clouds 25 1008 88 6000 5.34 270 22:54 13.01.2020
854 Clouds 26 1008 88 6000 5.34 270 22:36 13.01.2020
855 Clouds 26 1008 88 6000 5.34 270 22:18 13.01.2020
856 Clouds 26 1008 88 7000 1.5 330 21:54 13.01.2020
857 Clouds 26 1008 88 7000 1.5 330 21:54 13.01.2020
858 Clouds 26 1008 88 7000 1.5 330 21:54 13.01.2020
859 Clouds 26 1009 88 7000 1.5 330 21:36 13.01.2020
860 Clouds 26 1009 88 7000 1.5 330 21:18 13.01.2020
861 Clouds 26 1009 88 7000 2.1 310 20:41 13.01.2020
862 Clouds 26 1009 88 7000 2.1 310 20:22 13.01.2020
863 Clouds 26 1008 88 7000 2.1 320 19:59 13.01.2020
864 Clouds 26 1009 88 6000 1.5 280 19:40 13.01.2020
865 Clouds 26 1009 88 6000 1.5 280 19:20 13.01.2020
866 Rain 26 1009 94 6000 2.1 280 18:58 13.01.2020
867 Clouds 26 1009 88 6000 2.1 320 18:37 13.01.2020
868 Clouds 26 1009 88 6000 2.1 320 18:19 13.01.2020
869 Clouds 27 1009 94 6000 2.6 290 17:55 13.01.2020
870 Clouds 27 1009 78 6000 3.1 280 17:36 13.01.2020
871 Clouds 27 1009 78 6000 3.1 280 17:18 13.01.2020
872 Clouds 27 1011 72 0 0.89 36 16:40 13.01.2020
873 Clouds 28 1011 71 0 0.89 17 16:21 13.01.2020
874 Clouds 27 1011 71 0 0.89 314 15:55 13.01.2020
875 Clouds 27 1011 70 0 1.34 327 15:36 13.01.2020
876 Clouds 28 1003 69 0 5.57 264 15:18 13.01.2020
877 Clouds 27 1011 70 0 0.89 1 14:42 13.01.2020
878 Rain 27 1010 70 0 0.45 298 14:23 13.01.2020
879 Rain 28 1010 70 0 0.89 359 13:57 13.01.2020
880 Rain 28 1010 71 0 0.89 2 13:39 13.01.2020
881 Rain 28 1010 72 0 0.89 43 13:21 13.01.2020
882 Clouds 28 1006 74 6000 3.1 300 12:55 13.01.2020
883 Clouds 28 1006 74 6000 3.1 300 12:36 13.01.2020
884 Clouds 29 1006 74 6000 3.1 300 12:18 13.01.2020
885 Clouds 30 1006 70 6000 2.6 340 11:39 13.01.2020
886 Clouds 30 1006 70 6000 2.6 340 11:20 13.01.2020
887 Clouds 31 1006 70 6000 3.1 320 10:57 13.01.2020
888 Clouds 30 1006 74 6000 4.1 280 10:39 13.01.2020
889 Clouds 31 1006 74 6000 4.1 280 10:20 13.01.2020
890 Clouds 31 1006 74 6000 4.1 280 10:20 13.01.2020
891 Rain 30 1006 79 6000 4.6 310 09:56 13.01.2020
892 Rain 30 1006 70 6000 4.6 330 09:38 13.01.2020
893 Rain 30 1006 70 6000 4.6 330 09:19 13.01.2020
894 Clouds 31 1007 74 6000 4.1 20 08:39 13.01.2020
895 Clouds 31 1007 74 6000 4.1 20 08:20 13.01.2020
896 Clouds 30 1007 74 6000 4.1 340 07:46 13.01.2020
897 Clouds 30 1007 66 6000 5.1 250 07:27 13.01.2020
898 Clouds 29 1008 74 6000 4.6 270 06:42 13.01.2020
899 Clouds 29 1008 74 6000 4.6 270 06:20 13.01.2020
900 Rain 30 1008 74 5000 5.7 250 05:22 13.01.2020
901 Rain 29 1009 78 6000 2.6 0 03:52 13.01.2020
902 Rain 29 1009 83 5000 4.1 270 03:22 13.01.2020
903 Haze 28 1009 88 5000 3.1 250 02:44 13.01.2020
904 Haze 28 1009 88 5000 3.1 250 02:24 13.01.2020
905 Rain 26 1008 94 5000 2.1 320 01:18 13.01.2020
906 Mist 26 1013 94 2000 6.11 260 00:41 13.01.2020
907 Mist 26 1013 94 2000 6.11 260 00:22 13.01.2020
908 Mist 25 1013 94 2000 6.11 260 23:42 12.01.2020
909 Mist 25 1013 94 2000 6.69 259 23:23 12.01.2020
910 Clouds 25 1007 88 7000 1 280 22:58 12.01.2020
911 Clouds 26 1008 83 7000 2.1 300 22:39 12.01.2020
912 Clouds 26 1008 83 7000 2.1 300 22:21 12.01.2020
913 Clouds 25 1007 88 7000 3.1 280 21:55 12.01.2020
914 Clouds 25 1007 88 7000 3.1 280 21:55 12.01.2020
915 Clouds 26 1007 83 7000 2.6 290 21:37 12.01.2020
916 Clouds 26 1007 83 7000 2.6 290 21:19 12.01.2020
917 Clouds 26 1007 83 7000 3.1 280 20:56 12.01.2020
918 Clouds 26 1008 83 7000 3.1 300 20:37 12.01.2020
919 Clouds 26 1008 83 7000 3.1 300 20:19 12.01.2020
920 Clouds 26 1008 83 7000 3.1 280 19:55 12.01.2020
921 Clouds 26 1008 83 7000 3.6 260 19:37 12.01.2020
922 Clouds 26 1008 83 7000 3.6 260 19:18 12.01.2020
923 Clouds 26 1008 83 7000 3.6 260 19:18 12.01.2020
924 Clouds 26 1008 83 7000 2.1 280 18:57 12.01.2020
925 Clouds 26 1009 83 7000 3.1 300 18:38 12.01.2020
926 Clouds 26 1009 83 7000 3.1 300 18:20 12.01.2020
927 Clouds 26 1009 83 7000 3.1 270 17:42 12.01.2020
928 Clouds 26 1009 83 7000 3.1 270 17:23 12.01.2020
929 Clouds 27 1009 83 7000 3.1 270 16:59 12.01.2020
930 Clouds 26 1009 78 7000 3.1 260 16:39 12.01.2020
931 Clouds 27 1009 78 7000 3.1 260 16:20 12.01.2020
932 Clouds 27 1009 78 8000 3.1 250 15:57 12.01.2020
933 Clouds 27 1009 78 8000 4.1 250 15:38 12.01.2020
934 Clouds 27 1009 78 8000 4.1 250 15:20 12.01.2020
935 Clouds 27 1008 78 8000 3.1 290 14:43 12.01.2020
936 Clouds 28 1008 78 8000 3.1 290 14:24 12.01.2020
937 Clouds 28 1008 83 8000 1.5 0 13:57 12.01.2020
938 Clouds 28 1008 83 8000 1.5 0 13:57 12.01.2020
939 Clouds 28 1008 78 8000 2.6 320 13:39 12.01.2020
940 Clouds 29 1008 78 8000 2.6 320 13:20 12.01.2020
941 Clouds 29 1008 78 8000 2.6 320 13:20 12.01.2020
942 Clouds 29 1007 74 8000 3.6 340 12:57 12.01.2020
943 Clouds 29 1006 70 6000 2.6 290 12:37 12.01.2020
944 Clouds 30 1007 70 10000 3.6 330 12:19 12.01.2020
945 Clouds 30 1006 74 6000 3.1 320 11:42 12.01.2020
946 Clouds 31 1006 74 6000 3.1 320 11:22 12.01.2020
947 Clouds 30 1006 70 10000 4.1 340 10:57 12.01.2020
948 Clouds 30 1006 74 6000 4.1 360 10:39 12.01.2020
949 Clouds 30 1006 74 6000 4.1 360 10:39 12.01.2020
950 Clouds 31 1006 74 6000 4.1 360 10:20 12.01.2020
951 Clouds 31 1006 66 10000 5.1 330 09:42 12.01.2020
952 Clouds 32 1006 66 10000 5.1 330 09:23 12.01.2020
953 Clouds 33 1006 62 10000 5.7 340 08:48 12.01.2020
954 Clouds 32 1007 62 10000 5.1 330 08:24 12.01.2020
955 Clouds 31 1007 66 10000 7.2 330 07:56 12.01.2020
956 Rain 31 1008 79 6000 2.6 300 07:37 12.01.2020
957 Rain 31 1008 79 6000 2.6 300 07:19 12.01.2020
958 Clouds 32 1009 66 10000 5.7 330 06:38 12.01.2020
959 Clouds 32 1009 70 10000 6.2 340 05:58 12.01.2020
960 Clouds 31 1009 70 10000 6.2 310 04:56 12.01.2020
961 Clouds 32 1010 70 10000 5.1 280 03:44 12.01.2020
962 Clouds 31 1010 70 9000 5.1 280 02:52 12.01.2020
963 Clouds 29 1010 74 6000 4.1 240 02:27 12.01.2020
964 Clouds 27 1009 88 6000 3.1 210 01:35 12.01.2020
965 Clouds 26 1009 88 6000 1.5 240 00:57 12.01.2020
966 Clouds 26 1009 88 6000 2.1 240 00:37 12.01.2020
967 Clouds 25 1009 88 6000 2.1 240 00:18 12.01.2020
968 Haze 25 1008 88 5000 2.1 230 23:41 11.01.2020
969 Haze 25 1008 88 5000 2.1 230 23:19 11.01.2020
970 Clouds 25 1008 83 7000 3.6 240 22:56 11.01.2020
971 Clouds 25 1008 88 7000 3.6 230 22:38 11.01.2020
972 Clouds 25 1008 88 7000 3.6 230 22:20 11.01.2020
973 Clouds 25 1008 83 7000 3.6 240 21:54 11.01.2020
974 Clouds 25 1008 83 7000 3.6 240 21:36 11.01.2020
975 Clouds 25 1008 83 7000 3.6 240 21:18 11.01.2020
976 Clouds 25 1009 88 7000 4.1 250 20:39 11.01.2020
977 Clouds 26 1009 88 7000 4.1 250 20:20 11.01.2020
978 Clouds 26 1009 88 7000 4.1 250 19:58 11.01.2020
979 Clouds 26 1009 83 7000 4.6 250 19:38 11.01.2020
980 Clouds 26 1009 83 7000 4.6 250 19:20 11.01.2020
981 Clouds 26 1010 83 7000 4.1 260 18:56 11.01.2020
982 Clouds 26 1010 83 7000 5.1 240 18:37 11.01.2020
983 Clouds 26 1010 83 7000 5.1 240 18:19 11.01.2020
984 Clouds 26 1010 83 7000 5.1 240 18:19 11.01.2020
985 Clouds 26 1010 83 7000 4.6 240 17:57 11.01.2020
986 Clouds 26 1010 83 7000 2.6 280 17:39 11.01.2020
987 Clouds 27 1010 83 7000 2.6 280 17:18 11.01.2020
988 Clouds 26 1010 83 7000 3.6 270 16:44 11.01.2020
989 Clouds 26 1010 83 7000 3.6 270 16:25 11.01.2020
990 Clouds 27 1010 78 7000 4.1 250 15:57 11.01.2020
991 Clouds 27 1010 78 7000 5.1 240 15:39 11.01.2020
992 Clouds 27 1010 78 7000 5.1 240 15:20 11.01.2020
993 Clouds 27 1009 78 7000 6.2 240 14:47 11.01.2020
994 Clouds 27 1009 78 7000 6.2 250 14:26 11.01.2020
995 Clouds 27 1009 78 8000 5.7 250 13:59 11.01.2020
996 Clouds 27 1009 78 6000 3.6 260 13:38 11.01.2020
997 Clouds 27 1009 78 6000 3.6 260 13:20 11.01.2020
998 Clouds 27 1009 78 9000 5.7 260 12:56 11.01.2020
999 Clouds 28 1008 78 6000 3.1 260 12:38 11.01.2020
1000 Clouds 28 1008 78 6000 3.1 260 12:20 11.01.2020
1001 Clouds 28 1008 69 10000 6.7 270 11:45 11.01.2020
1002 Clouds 29 1008 74 6000 3.6 270 11:24 11.01.2020
1003 Clouds 29 1008 69 10000 6.7 260 10:50 11.01.2020
1004 Clouds 30 1007 70 6000 5.1 270 10:30 11.01.2020
1005 Clouds 30 1008 62 10000 7.2 260 09:44 11.01.2020
1006 Clouds 30 1007 74 6000 5.1 240 09:21 11.01.2020
1007 Clouds 30 1007 74 6000 5.1 240 09:21 11.01.2020
1008 Clouds 30 1007 74 6000 5.1 240 09:21 11.01.2020
1009 Clouds 30 1007 74 6000 5.1 240 09:21 11.01.2020
1010 Clouds 31 1008 58 10000 8.2 280 08:59 11.01.2020
1011 Clouds 31 1008 58 10000 8.7 290 08:41 11.01.2020
1012 Clouds 31 1008 58 10000 8.7 290 08:20 11.01.2020
1013 Rain 32 1009 70 5000 8.2 260 07:43 11.01.2020
1014 Rain 31 1009 70 5000 8.2 260 07:24 11.01.2020
1015 Rain 28 1010 83 5000 6.2 250 06:45 11.01.2020
1016 Haze 29 1010 74 5000 3.6 270 05:31 11.01.2020
1017 Haze 30 1010 79 5000 4.1 270 04:43 11.01.2020
1018 Haze 30 1010 79 5000 4.1 270 04:25 11.01.2020
1019 Haze 28 1010 88 5000 3.1 250 02:48 11.01.2020
1020 Haze 27 1010 94 5000 1.5 270 01:48 11.01.2020
1021 Haze 26 1010 94 4000 2.6 260 01:30 11.01.2020
1022 Haze 25 1009 94 5000 5.31 258 00:58 11.01.2020
1023 Haze 25 1009 94 5000 5.31 258 00:58 11.01.2020
1024 Haze 25 1009 100 5000 5.31 258 00:29 11.01.2020
1025 Mist 24 1009 100 4000 5.31 258 23:59 10.01.2020
1026 Mist 24 1009 100 4000 5.31 258 23:39 10.01.2020
1027 Mist 24 1009 100 4000 5.31 258 23:39 10.01.2020
1028 Mist 24 1009 100 4000 5.54 270 23:21 10.01.2020
1029 Mist 24 1009 100 4000 5.54 270 22:55 10.01.2020
1030 Mist 24 1009 100 4000 5.54 270 22:37 10.01.2020
1031 Mist 24 1009 100 4000 5.54 270 22:18 10.01.2020
1032 Mist 24 1009 94 3500 2.6 260 21:54 10.01.2020
1033 Mist 24 1009 94 3000 1.5 270 21:36 10.01.2020
1034 Mist 24 1009 94 3000 1.5 270 21:18 10.01.2020
1035 Mist 24 1009 94 4000 1.5 300 20:42 10.01.2020
1036 Mist 24 1009 94 4000 1.5 300 20:24 10.01.2020
1037 Mist 24 1009 94 4000 1.5 300 20:24 10.01.2020
1038 Mist 24 1009 94 4000 1.5 310 19:55 10.01.2020
1039 Mist 24 1009 94 4000 1.5 260 19:37 10.01.2020
1040 Mist 24 1009 94 4000 1.5 260 19:19 10.01.2020
1041 Rain 24 1010 94 4000 1.5 290 18:41 10.01.2020
1042 Rain 24 1010 94 4000 1.5 290 18:19 10.01.2020
1043 Mist 24 1010 94 4000 1 310 17:57 10.01.2020
1044 Rain 25 1011 88 4000 1.5 270 17:39 10.01.2020
1045 Rain 25 1011 88 4000 1.5 270 17:20 10.01.2020
1046 Rain 25 1011 88 4000 1.5 270 17:20 10.01.2020
1047 Rain 25 1010 88 4000 2.1 0 16:55 10.01.2020
1048 Rain 25 1010 94 4000 2.1 240 16:37 10.01.2020
1049 Rain 25 1010 94 4000 2.1 240 16:19 10.01.2020
1050 Rain 25 1010 94 4000 1.5 240 15:55 10.01.2020
1051 Rain 25 1010 94 4000 1 260 15:36 10.01.2020
1052 Rain 25 1010 94 4000 1 260 15:18 10.01.2020
1053 Rain 25 1010 94 4000 1 360 14:54 10.01.2020
1054 Rain 25 1010 88 4000 1.5 0 14:36 10.01.2020
1055 Rain 25 1010 88 4000 1.5 0 14:18 10.01.2020
1056 Haze 25 1009 94 4000 2.6 250 13:41 10.01.2020
1057 Haze 25 1009 94 4000 2.6 250 13:23 10.01.2020
1058 Haze 27 1009 94 4000 6.15 257 12:58 10.01.2020
1059 Haze 27 1008 94 5000 6.15 257 12:38 10.01.2020
1060 Haze 27 1008 94 5000 6.15 257 12:19 10.01.2020
1061 Rain 27 1008 94 5000 1.5 310 11:55 10.01.2020
1062 Rain 27 1008 94 5000 1.5 280 11:37 10.01.2020
1063 Rain 27 1008 94 5000 1.5 280 11:18 10.01.2020
1064 Rain 27 1008 94 2500 1.5 270 10:43 10.01.2020
1065 Rain 27 1008 94 2500 1.5 270 10:24 10.01.2020
1066 Rain 27 1008 94 4000 2.1 280 09:56 10.01.2020
1067 Rain 27 1008 94 5000 2.6 250 09:38 10.01.2020
1068 Rain 27 1008 94 5000 2.6 250 09:20 10.01.2020
1069 Rain 27 1008 88 5000 2.6 240 08:43 10.01.2020
1070 Rain 28 1008 88 5000 2.6 240 08:23 10.01.2020
1071 Rain 28 1008 83 7000 3.1 280 07:46 10.01.2020
1072 Rain 28 1009 83 10000 4.1 290 07:28 10.01.2020
1073 Rain 28 1009 88 6000 5.1 240 06:50 10.01.2020
1074 Rain 28 1010 83 6000 3.6 280 06:26 10.01.2020
1075 Rain 28 1010 83 7000 4.6 290 05:51 10.01.2020
1076 Rain 27 1010 94 5000 4.1 250 03:46 10.01.2020
1077 Rain 27 1010 94 5000 4.1 250 03:46 10.01.2020
1078 Rain 27 1010 94 5000 1.5 270 03:27 10.01.2020
1079 Rain 26 1010 94 5000 3.1 300 02:50 10.01.2020
1080 Rain 25 1010 94 6000 2.6 270 01:49 10.01.2020
1081 Rain 25 1009 100 5000 2.1 260 01:28 10.01.2020
1082 Clouds 24 1009 94 6000 3.1 270 00:44 10.01.2020
1083 Rain 24 1009 100 5000 2.6 260 00:19 10.01.2020
1084 Rain 24 1008 100 4000 4.1 280 23:39 09.01.2020
1085 Rain 24 1008 100 4000 4.1 280 23:39 09.01.2020
1086 Rain 24 1008 100 4000 4.1 280 23:39 09.01.2020
1087 Rain 24 1008 100 4000 4.1 280 23:20 09.01.2020
1088 Rain 24 1008 88 5000 5.1 250 22:58 09.01.2020
1089 Rain 24 1008 88 5000 5.1 250 22:58 09.01.2020
1090 Rain 24 1008 88 6000 5.1 250 22:39 09.01.2020
1091 Rain 24 1008 88 6000 5.1 250 22:19 09.01.2020
1092 Rain 24 1008 94 6000 5.1 260 21:57 09.01.2020
1093 Rain 24 1008 88 5000 6.2 260 21:38 09.01.2020
1094 Rain 24 1008 88 5000 6.2 260 21:20 09.01.2020
1095 Rain 24 1008 94 3000 6.7 270 20:58 09.01.2020
1096 Rain 24 1008 94 3000 6.7 270 20:39 09.01.2020
1097 Rain 24 1009 94 3000 7.7 260 20:20 09.01.2020
1098 Rain 24 1009 94 4000 4.6 260 19:58 09.01.2020
1099 Rain 25 1009 94 4000 5.1 250 19:39 09.01.2020
1100 Rain 25 1009 94 4000 5.1 250 19:20 09.01.2020
1101 Rain 25 1009 94 4000 6.2 270 18:56 09.01.2020
1102 Rain 25 1009 88 4000 7.2 270 18:37 09.01.2020
1103 Rain 25 1009 88 4000 7.2 270 18:19 09.01.2020
1104 Thunderstorm 26 1009 83 6000 7.2 250 17:41 09.01.2020
1105 Thunderstorm 26 1009 83 6000 7.2 250 17:19 09.01.2020
1106 Thunderstorm 26 1009 83 6000 7.2 240 16:56 09.01.2020
1107 Thunderstorm 26 1009 83 6000 6.7 260 16:37 09.01.2020
1108 Thunderstorm 26 1009 83 6000 6.7 260 16:19 09.01.2020
1109 Thunderstorm 26 1009 83 6000 6.7 260 15:42 09.01.2020
1110 Thunderstorm 27 1008 78 6000 4.1 240 15:21 09.01.2020
1111 Clouds 27 1008 83 6000 3.6 240 14:55 09.01.2020
1112 Clouds 27 1008 83 6000 4.1 240 14:37 09.01.2020
1113 Clouds 27 1008 83 6000 4.1 240 14:18 09.01.2020
1114 Clouds 28 1008 78 7000 4.1 230 13:55 09.01.2020
1115 Clouds 28 1008 78 8000 1 300 13:37 09.01.2020
1116 Clouds 28 1008 78 8000 1 300 13:18 09.01.2020
1117 Clouds 28 1007 74 8000 1.5 330 12:42 09.01.2020
1118 Clouds 28 1007 74 8000 1.5 330 12:42 09.01.2020
1119 Clouds 28 1007 74 8000 1.5 330 12:23 09.01.2020
1120 Clouds 29 1007 74 9000 1.5 330 11:59 09.01.2020
1121 Rain 29 1006 88 5000 2.1 170 11:41 09.01.2020
1122 Rain 29 1006 88 5000 2.1 170 11:23 09.01.2020
1123 Clouds 29 1006 74 9000 3.1 310 10:56 09.01.2020
1124 Rain 30 1006 88 5000 2.6 200 10:37 09.01.2020
1125 Rain 30 1006 88 5000 2.6 200 10:19 09.01.2020
1126 Rain 30 1006 88 5000 2.6 200 10:19 09.01.2020
1127 Clouds 30 1006 74 9000 3.1 310 09:41 09.01.2020
1128 Rain 30 1006 83 5000 2.6 240 09:22 09.01.2020
1129 Clouds 30 1007 74 8000 4.6 320 08:56 09.01.2020
1130 Rain 30 1007 79 5000 2.1 290 08:37 09.01.2020
1131 Rain 30 1007 79 5000 2.1 290 08:19 09.01.2020
1132 Clouds 29 1008 74 8000 5.1 340 07:44 09.01.2020
1133 Rain 29 1008 83 5000 2.6 300 07:24 09.01.2020
1134 Rain 29 1009 83 4000 3.6 310 06:39 09.01.2020
1135 Rain 29 1009 83 4000 3.6 310 06:21 09.01.2020
1136 Rain 29 1009 78 6000 4.6 320 05:50 09.01.2020
1137 Clouds 28 1009 78 6000 5.7 330 04:45 09.01.2020
1138 Clouds 29 1009 78 6000 6.2 320 03:54 09.01.2020
1139 Rain 28 1009 83 5000 5.7 320 03:26 09.01.2020
1140 Rain 27 1009 100 3000 3.1 270 02:30 09.01.2020
1141 Rain 27 1009 100 2000 2.1 220 01:40 09.01.2020
1142 Rain 26 1008 100 2500 1.5 230 00:44 09.01.2020
1143 Mist 26 1008 88 5000 4.1 310 00:22 09.01.2020
1144 Mist 26 1007 94 5000 3.6 330 23:56 08.01.2020
1145 Rain 26 1007 100 3000 1.5 280 23:37 08.01.2020
1146 Rain 26 1007 100 3000 1.5 280 23:19 08.01.2020
1147 Thunderstorm 26 1007 100 3000 2.1 240 22:40 08.01.2020
1148 Clouds 26 1007 88 6000 3.1 260 22:21 08.01.2020
1149 Mist 26 1007 94 5000 3.1 260 21:58 08.01.2020
1150 Thunderstorm 26 1007 94 5000 1.5 260 21:39 08.01.2020
1151 Thunderstorm 25 1007 94 5000 1.5 260 21:20 08.01.2020
1152 Rain 26 1007 88 5000 3.6 310 20:58 08.01.2020
1153 Rain 26 1007 94 5000 4.1 310 20:40 08.01.2020
1154 Rain 26 1007 94 5000 4.1 310 20:20 08.01.2020
1155 Rain 26 1007 94 5000 4.1 310 20:20 08.01.2020
1156 Rain 26 1007 94 4000 6.7 320 19:57 08.01.2020
1157 Rain 26 1008 94 3000 2.6 330 19:37 08.01.2020
1158 Rain 26 1008 94 3000 2.6 330 19:19 08.01.2020
1159 Haze 27 1008 83 2500 2.1 0 18:56 08.01.2020
1160 Haze 27 1008 88 2000 1 0 18:37 08.01.2020
1161 Haze 27 1008 88 2000 1 0 18:18 08.01.2020
1162 Haze 27 1009 83 3000 0.5 120 17:56 08.01.2020
1163 Haze 27 1009 83 3500 1 0 17:37 08.01.2020
1164 Haze 27 1009 83 3500 1 0 17:18 08.01.2020
1165 Haze 28 1009 78 3500 2.1 0 16:54 08.01.2020
1166 Haze 27 1009 83 2500 1.5 130 16:36 08.01.2020
1167 Haze 27 1009 83 2500 1.5 130 16:18 08.01.2020
1168 Haze 28 1008 78 3000 1.5 0 15:41 08.01.2020
1169 Haze 28 1009 78 2500 1.5 0 15:21 08.01.2020
1170 Haze 28 1009 83 2500 1.5 0 14:57 08.01.2020
1171 Haze 27 1008 83 3500 1.5 0 14:39 08.01.2020
1172 Haze 27 1008 83 3500 1.5 0 14:20 08.01.2020
1173 Haze 28 1008 83 5000 2.1 0 13:40 08.01.2020
1174 Haze 28 1008 78 5000 2.1 0 13:40 08.01.2020
1175 Haze 27 1008 83 5000 2.1 0 13:19 08.01.2020
1176 Haze 28 1007 78 5000 2.1 0 12:42 08.01.2020
1177 Haze 28 1007 83 2500 1.5 200 12:20 08.01.2020
1178 Clouds 28 1006 83 6000 2.6 0 11:59 08.01.2020
1179 Clouds 28 1006 83 6000 2.6 0 11:40 08.01.2020
1180 Haze 28 1006 83 3000 2.6 210 11:19 08.01.2020
1181 Haze 28 1006 88 3000 2.6 210 10:55 08.01.2020
1182 Haze 28 1006 94 3000 2.6 230 10:37 08.01.2020
1183 Haze 28 1006 94 3000 2.6 230 10:37 08.01.2020
1184 Haze 28 1006 94 3000 2.6 230 10:19 08.01.2020
1185 Haze 29 1006 88 3000 3.6 230 09:42 08.01.2020
1186 Clouds 28 1006 74 7000 2.6 310 09:19 08.01.2020
1187 Clouds 29 1006 78 7000 3.1 300 08:57 08.01.2020
1188 Haze 29 1007 88 4000 3.1 240 08:37 08.01.2020
1189 Haze 28 1007 88 4000 3.1 240 08:19 08.01.2020
1190 Clouds 28 1007 74 7000 4.6 330 07:49 08.01.2020
1191 Rain 29 1008 94 4000 2.1 290 07:30 08.01.2020
1192 Clouds 29 1008 74 7000 4.1 330 06:48 08.01.2020
1193 Thunderstorm 29 1009 74 7000 6.2 330 06:24 08.01.2020
1194 Clouds 29 1009 74 7000 5.7 330 05:53 08.01.2020
1195 Clouds 30 1009 74 7000 4.1 330 04:57 08.01.2020
1196 Rain 30 1009 83 6000 5.1 340 04:26 08.01.2020
1197 Clouds 30 1010 74 6000 2.6 0 02:45 08.01.2020
1198 Haze 29 1010 83 5000 2.1 230 02:22 08.01.2020
1199 Haze 28 1009 83 5000 1.5 220 01:50 08.01.2020
1200 Haze 27 1009 94 5000 1.5 250 01:23 08.01.2020
1201 Haze 26 1008 94 5000 1.5 270 00:38 08.01.2020
1202 Haze 26 1008 94 5000 1.5 270 00:20 08.01.2020
1203 Haze 26 1008 88 5000 5.48 283 23:43 07.01.2020
1204 Haze 26 1008 88 5000 1.5 220 23:20 07.01.2020
1205 Haze 26 1008 88 5000 1.5 220 23:20 07.01.2020
1206 Haze 26 1008 100 5000 2.1 270 22:40 07.01.2020
1207 Haze 26 1008 100 5000 2.1 270 22:20 07.01.2020
1208 Clouds 26 1008 88 6000 1.5 270 21:57 07.01.2020
1209 Clouds 26 1008 83 6000 1.5 270 21:38 07.01.2020
1210 Clouds 26 1008 83 6000 1.5 270 21:38 07.01.2020
1211 Clouds 26 1008 83 6000 1.5 270 21:20 07.01.2020
1212 Clouds 26 1008 83 6000 1.5 280 20:56 07.01.2020
1213 Clouds 26 1008 83 6000 2.1 270 20:38 07.01.2020
1214 Clouds 26 1008 83 6000 2.1 270 20:19 07.01.2020
1215 Clouds 26 1009 83 6000 1 310 19:38 07.01.2020
1216 Clouds 27 1009 83 6000 1 310 19:20 07.01.2020
1217 Clouds 26 1009 88 6000 2.1 260 18:58 07.01.2020
1218 Clouds 26 1009 83 7000 3.6 310 18:40 07.01.2020
1219 Clouds 27 1009 83 7000 3.6 310 18:19 07.01.2020
1220 Clouds 27 1010 83 7000 3.6 310 18:00 07.01.2020
1221 Clouds 27 1010 83 7000 3.6 290 17:39 07.01.2020
1222 Clouds 27 1010 83 7000 3.6 290 17:21 07.01.2020
1223 Clouds 27 1010 83 6000 3.6 280 16:57 07.01.2020
1224 Haze 27 1009 83 5000 4.1 250 16:38 07.01.2020
1225 Haze 27 1009 83 5000 4.1 250 16:19 07.01.2020
1226 Haze 27 1009 88 5000 4.6 250 15:58 07.01.2020
1227 Haze 27 1009 88 5000 4.1 260 15:40 07.01.2020
1228 Haze 27 1009 88 5000 4.1 260 15:22 07.01.2020
1229 Haze 27 1009 88 5000 4.1 260 15:22 07.01.2020
1230 Clouds 27 1009 83 6000 2.6 280 14:55 07.01.2020
1231 Haze 27 1009 88 5000 1.5 300 14:37 07.01.2020
1232 Haze 27 1009 88 5000 1.5 300 14:18 07.01.2020
1233 Rain 27 1008 88 5000 2.1 340 13:39 07.01.2020
1234 Rain 27 1008 88 5000 2.1 340 13:19 07.01.2020
1235 Haze 28 1008 79 5000 2.1 350 12:41 07.01.2020
1236 Haze 29 1008 79 5000 2.1 350 12:20 07.01.2020
1237 Haze 28 1007 79 5000 2.1 290 11:57 07.01.2020
1238 Haze 28 1007 79 5000 2.6 310 11:38 07.01.2020
1239 Haze 29 1007 79 5000 2.6 310 11:20 07.01.2020
1240 Haze 30 1007 79 5000 3.6 270 10:42 07.01.2020
1241 Haze 28 1006 83 5000 3.1 300 10:24 07.01.2020
1242 Haze 28 1006 83 5000 3.1 280 09:58 07.01.2020
1243 Rain 28 1006 94 4000 2.6 290 09:38 07.01.2020
1244 Rain 28 1006 94 4000 2.6 290 09:20 07.01.2020
1245 Thunderstorm 29 1007 100 4000 3.1 300 08:43 07.01.2020
1246 Thunderstorm 29 1007 83 3000 3.1 320 08:25 07.01.2020
1247 Thunderstorm 30 1008 83 5000 3.6 320 07:54 07.01.2020
1248 Rain 30 1008 88 5000 4.1 330 07:28 07.01.2020
1249 Rain 30 1008 88 5000 4.1 330 07:28 07.01.2020
1250 Rain 30 1008 70 5000 4.1 320 06:53 07.01.2020
1251 Rain 30 1008 70 6000 4.6 250 06:34 07.01.2020
1252 Rain 30 1009 70 6000 5.7 240 05:55 07.01.2020
1253 Clouds 29 1010 70 6000 4.6 300 04:41 07.01.2020
1254 Clouds 29 1010 70 6000 4.6 300 04:41 07.01.2020
1255 Clouds 28 1010 79 6000 6.2 260 03:29 07.01.2020
1256 Haze 26 1010 100 5000 5.69 293 02:22 07.01.2020
1257 Clouds 26 1010 88 6000 3.6 250 01:54 07.01.2020
1258 Haze 26 1010 100 5000 5.67 278 01:30 07.01.2020
1259 Rain 25 1010 94 4000 6.13 284 00:37 07.01.2020
1260 Rain 25 1010 94 4000 6.13 284 00:18 07.01.2020
1261 Thunderstorm 25 1009 94 5000 2.6 0 23:55 06.01.2020
1262 Thunderstorm 25 1009 88 3500 5.1 230 23:36 06.01.2020
1263 Thunderstorm 24 1009 88 3500 5.1 230 23:18 06.01.2020
1264 Clouds 24 1008 88 6000 4.6 230 22:42 06.01.2020
1265 Clouds 24 1008 88 6000 3.1 240 22:22 06.01.2020
1266 Clouds 24 1008 88 6000 4.6 220 21:56 06.01.2020
1267 Clouds 24 1008 94 6000 4.1 230 21:38 06.01.2020
1268 Clouds 24 1008 94 6000 4.1 230 21:19 06.01.2020
1269 Haze 25 1009 88 5000 4.1 240 20:56 06.01.2020
1270 Haze 25 1009 88 5000 2.6 250 20:37 06.01.2020
1271 Haze 25 1009 88 5000 2.6 250 20:19 06.01.2020
1272 Haze 25 1009 88 5000 2.1 230 19:55 06.01.2020
1273 Haze 25 1009 88 5000 3.1 250 19:37 06.01.2020
1274 Haze 25 1009 88 5000 3.1 250 19:19 06.01.2020
1275 Haze 26 1010 83 5000 2.1 0 18:45 06.01.2020
1276 Haze 26 1010 83 5000 2.1 0 18:21 06.01.2020
1277 Haze 26 1011 83 5000 1 320 17:56 06.01.2020
1278 Haze 26 1010 83 5000 2.1 0 17:37 06.01.2020
1279 Haze 26 1010 83 5000 2.1 0 17:18 06.01.2020
1280 Rain 26 1011 83 6000 3.1 280 16:42 06.01.2020
1281 Rain 26 1011 83 6000 3.1 280 16:42 06.01.2020
1282 Rain 26 1011 83 6000 3.1 280 16:23 06.01.2020
1283 Clouds 26 1011 83 6000 1 350 15:59 06.01.2020
1284 Clouds 26 1011 83 6000 1.5 20 15:38 06.01.2020
1285 Clouds 26 1011 83 6000 1.5 20 15:18 06.01.2020
1286 Thunderstorm 26 1011 88 5000 1.5 20 14:42 06.01.2020
1287 Thunderstorm 27 1010 83 5000 1.5 0 14:23 06.01.2020
1288 Thunderstorm 27 1010 83 5000 1.5 0 14:23 06.01.2020
1289 Thunderstorm 27 1009 78 5000 2.1 0 13:59 06.01.2020
1290 Thunderstorm 27 1009 88 5000 1 0 13:40 06.01.2020
1291 Thunderstorm 27 1009 88 5000 1 0 13:22 06.01.2020
1292 Haze 27 1009 78 5000 0.5 0 12:59 06.01.2020
1293 Thunderstorm 27 1009 94 5000 1.5 280 12:41 06.01.2020
1294 Thunderstorm 27 1009 94 5000 1.5 280 12:20 06.01.2020
1295 Haze 27 1008 83 5000 2.6 0 11:55 06.01.2020
1296 Rain 28 1008 79 6000 1.5 350 11:37 06.01.2020
1297 Rain 28 1008 79 6000 1.5 350 11:18 06.01.2020
1298 Rain 29 1007 79 5000 1 0 10:42 06.01.2020
1299 Rain 29 1007 79 5000 2.6 330 10:21 06.01.2020
1300 Rain 30 1008 83 3000 2.1 0 09:42 06.01.2020
1301 Rain 30 1008 79 5000 1.5 280 09:24 06.01.2020
1302 Clouds 30 1008 70 9000 6.7 340 08:58 06.01.2020
1303 Clouds 30 1008 70 9000 5.7 350 08:39 06.01.2020
1304 Clouds 31 1008 70 9000 5.7 350 08:21 06.01.2020
1305 Clouds 30 1009 70 8000 4.6 330 07:45 06.01.2020
1306 Clouds 30 1009 70 8000 6.7 330 06:55 06.01.2020
1307 Rain 30 1009 79 4000 3.1 250 06:35 06.01.2020
1308 Clouds 29 1010 74 8000 7.2 330 05:48 06.01.2020
1309 Rain 29 1010 83 1800 2.6 330 05:28 06.01.2020
1310 Rain 28 1011 94 4000 2.1 230 04:24 06.01.2020
1311 Rain 27 1011 94 4000 1.5 220 03:51 06.01.2020
1312 Rain 26 1011 100 5000 1.5 240 02:29 06.01.2020
1313 Rain 26 1011 100 4000 1.5 280 01:54 06.01.2020
1314 Rain 25 1010 100 4000 1.5 260 01:31 06.01.2020
1315 Thunderstorm 25 1009 88 5000 1.5 250 00:46 06.01.2020
1316 Thunderstorm 25 1010 100 2000 3.1 220 00:28 06.01.2020
1317 Thunderstorm 25 1010 94 4000 4.1 290 23:58 05.01.2020
1318 Thunderstorm 25 1009 100 2000 4.6 250 23:39 05.01.2020
1319 Thunderstorm 25 1009 100 2000 4.6 250 23:21 05.01.2020
1320 Haze 26 1009 94 3000 2.1 230 22:40 05.01.2020
1321 Haze 26 1008 94 3000 2.1 240 22:21 05.01.2020
1322 Thunderstorm 26 1008 88 4000 3.6 270 21:58 05.01.2020
1323 Haze 26 1008 94 4000 3.1 280 21:40 05.01.2020
1324 Haze 26 1008 94 4000 3.1 280 21:20 05.01.2020
1325 Haze 26 1008 94 4000 3.1 270 20:58 05.01.2020
1326 Haze 26 1008 94 5000 2.6 270 20:39 05.01.2020
1327 Haze 26 1008 94 5000 2.6 270 20:19 05.01.2020
1328 Haze 26 1009 94 5000 2.1 280 19:58 05.01.2020
1329 Haze 26 1009 94 5000 1.5 290 19:39 05.01.2020
1330 Haze 26 1009 94 5000 1.5 290 19:39 05.01.2020
1331 Haze 26 1009 94 5000 1.5 290 19:20 05.01.2020
1332 Haze 26 1009 94 5000 1.5 290 18:56 05.01.2020
1333 Haze 26 1010 94 5000 1.5 280 18:37 05.01.2020
1334 Haze 26 1010 94 5000 1.5 280 18:19 05.01.2020
1335 Haze 27 1010 88 5000 1.5 330 17:58 05.01.2020
1336 Haze 27 1010 94 5000 2.1 320 17:39 05.01.2020
1337 Haze 27 1010 94 5000 2.1 320 17:20 05.01.2020
1338 Haze 27 1010 94 5000 1.5 300 16:56 05.01.2020
1339 Haze 27 1011 88 5000 1.5 330 16:38 05.01.2020
1340 Haze 27 1011 88 5000 1.5 330 16:19 05.01.2020
1341 Clouds 27 1010 94 6000 2.1 280 15:39 05.01.2020
1342 Clouds 27 1010 94 6000 2.1 280 15:39 05.01.2020
1343 Clouds 27 1010 94 6000 2.1 280 15:20 05.01.2020
1344 Clouds 27 1010 88 6000 1.5 20 14:56 05.01.2020
1345 Thunderstorm 27 1010 88 6000 1.5 0 14:38 05.01.2020
1346 Thunderstorm 27 1010 88 6000 1.5 0 14:20 05.01.2020
1347 Thunderstorm 27 1009 88 5000 2.6 0 13:56 05.01.2020
1348 Rain 27 1009 88 4000 1.5 210 13:38 05.01.2020
1349 Rain 27 1009 88 4000 1.5 210 13:19 05.01.2020
1350 Thunderstorm 28 1009 88 4000 1.5 0 12:56 05.01.2020
1351 Haze 28 1008 83 5000 2.6 210 12:37 05.01.2020
1352 Haze 28 1008 83 5000 2.6 210 12:19 05.01.2020
1353 Clouds 29 1008 79 7000 2.6 290 11:44 05.01.2020
1354 Clouds 29 1008 79 7000 2.6 290 11:44 05.01.2020
1355 Haze 29 1008 88 5000 2.6 210 11:20 05.01.2020
1356 Haze 29 1008 88 5000 2.6 210 11:20 05.01.2020
1357 Clouds 29 1008 79 9000 1.5 0 10:59 05.01.2020
1358 Haze 29 1008 79 5000 1.5 260 10:40 05.01.2020
1359 Haze 29 1008 79 5000 1.5 260 10:19 05.01.2020
1360 Haze 30 1008 79 5000 2.6 290 09:42 05.01.2020
1361 Haze 30 1008 79 5000 2.6 280 09:22 05.01.2020
1362 Clouds 30 1008 74 8000 4.6 310 08:52 05.01.2020
1363 Clouds 30 1008 74 8000 3.6 320 08:32 05.01.2020
1364 Rain 29 1009 83 3000 2.1 250 07:59 05.01.2020
1365 Rain 29 1009 83 3000 2.1 260 07:39 05.01.2020
1366 Rain 29 1009 83 3000 2.1 260 07:20 05.01.2020
1367 Clouds 28 1009 78 8000 3.6 320 06:44 05.01.2020
1368 Rain 28 1010 94 3000 2.6 280 05:38 05.01.2020
1369 Rain 27 1010 88 5000 4.1 300 04:55 05.01.2020
1370 Rain 27 1011 94 3000 2.6 270 04:18 05.01.2020
1371 Rain 27 1011 94 3000 2.6 270 04:18 05.01.2020
1372 Thunderstorm 26 1011 100 3000 3.6 300 03:26 05.01.2020
1373 Clouds 26 1011 94 1000 2.6 330 02:32 05.01.2020
1374 Thunderstorm 26 1010 88 2000 7.2 340 01:49 05.01.2020
1375 Clouds 27 1010 88 6000 2.1 270 01:20 05.01.2020
1376 Thunderstorm 27 1009 94 5000 4.6 310 00:57 05.01.2020
1377 Haze 27 1008 88 5000 2.6 280 00:39 05.01.2020
1378 Haze 26 1008 88 5000 2.6 280 00:19 05.01.2020
1379 Thunderstorm 26 1008 88 7000 3.1 310 23:41 04.01.2020
1380 Thunderstorm 26 1008 88 7000 3.1 310 23:20 04.01.2020
1381 Clouds 26 1008 88 7000 1.5 330 22:55 04.01.2020
1382 Clouds 26 1007 88 7000 2.1 280 22:37 04.01.2020
1383 Clouds 26 1007 88 7000 2.1 280 22:19 04.01.2020
1384 Clouds 26 1007 94 7000 2.6 270 21:55 04.01.2020
1385 Clouds 26 1007 88 7000 3.1 280 21:36 04.01.2020
1386 Clouds 26 1007 88 7000 3.1 280 21:18 04.01.2020
1387 Clouds 26 1008 88 7000 2.1 320 20:41 04.01.2020
1388 Clouds 26 1008 88 7000 2.1 320 20:22 04.01.2020
1389 Clouds 27 1009 88 6000 2.1 10 19:57 04.01.2020
1390 Thunderstorm 27 1009 83 6000 3.6 360 19:39 04.01.2020
1391 Thunderstorm 27 1009 83 6000 3.6 360 19:20 04.01.2020
1392 Thunderstorm 27 1010 88 6000 3.6 350 18:56 04.01.2020
1393 Thunderstorm 28 1010 78 6000 2.6 10 18:38 04.01.2020
1394 Thunderstorm 28 1010 78 6000 2.6 10 18:19 04.01.2020
1395 Clouds 27 1010 83 6000 3.1 280 17:42 04.01.2020
1396 Clouds 27 1010 83 6000 3.1 280 17:24 04.01.2020
1397 Thunderstorm 27 1010 83 6000 3.6 270 16:59 04.01.2020
1398 Clouds 28 1010 74 7000 3.6 280 16:40 04.01.2020
1399 Clouds 28 1010 74 7000 3.6 280 16:22 04.01.2020
1400 Clouds 28 1010 74 7000 4.6 250 15:56 04.01.2020
1401 Clouds 28 1010 70 7000 4.6 240 15:38 04.01.2020
1402 Clouds 28 1010 70 7000 4.6 240 15:19 04.01.2020
1403 Clouds 28 1009 74 7000 3.1 220 14:54 04.01.2020
1404 Clouds 28 1009 78 6000 1 210 14:36 04.01.2020
1405 Clouds 28 1009 78 6000 1 210 14:18 04.01.2020
1406 Haze 28 1008 94 5000 1.5 280 13:39 04.01.2020
1407 Haze 28 1008 94 5000 1.5 280 13:39 04.01.2020
1408 Haze 29 1008 94 5000 1.5 280 13:20 04.01.2020
1409 Clouds 29 1007 74 7000 3.1 290 12:59 04.01.2020
1410 Rain 29 1007 88 4000 2.1 260 12:41 04.01.2020
1411 Rain 29 1007 88 4000 2.1 260 12:19 04.01.2020
1412 Clouds 30 1007 70 8000 3.6 290 11:57 04.01.2020
1413 Clouds 30 1007 74 6000 3.1 340 11:38 04.01.2020
1414 Clouds 30 1007 74 6000 3.1 340 11:19 04.01.2020
1415 Clouds 30 1006 70 6000 4.1 300 10:42 04.01.2020
1416 Clouds 31 1006 70 6000 4.1 300 10:23 04.01.2020
1417 Clouds 31 1006 70 9000 4.6 300 09:57 04.01.2020
1418 Clouds 31 1007 70 6000 4.1 270 09:39 04.01.2020
1419 Clouds 31 1007 70 6000 4.1 270 09:20 04.01.2020
1420 Clouds 31 1007 70 9000 6.2 290 08:40 04.01.2020
1421 Clouds 30 1007 74 8000 4.6 300 08:20 04.01.2020
1422 Rain 30 1009 79 5000 3.6 330 07:42 04.01.2020
1423 Rain 30 1009 79 5000 3.6 330 07:19 04.01.2020
1424 Haze 29 1009 79 5000 4.6 270 06:33 04.01.2020
1425 Rain 30 1010 83 5000 5.1 320 05:19 04.01.2020
1426 Rain 29 1010 88 4000 3.1 300 04:34 04.01.2020
1427 Clouds 29 1010 78 8000 5.1 330 03:43 04.01.2020
1428 Clouds 29 1010 78 8000 4.1 330 03:18 04.01.2020
1429 Haze 27 1010 88 5000 2.1 230 02:21 04.01.2020
1430 Haze 27 1010 88 5000 2.1 230 02:21 04.01.2020
1431 Haze 27 1010 88 5000 2.6 280 01:55 04.01.2020
1432 Haze 27 1010 88 5000 2.1 290 01:31 04.01.2020
1433 Haze 26 1009 88 5000 1.5 270 00:44 04.01.2020
1434 Haze 26 1009 94 5000 1.5 260 00:23 04.01.2020
1435 Haze 26 1009 94 5000 1.5 310 23:46 03.01.2020
1436 Clouds 26 1009 94 6000 1.5 300 23:25 03.01.2020
1437 Clouds 26 1009 94 6000 1.5 310 22:41 03.01.2020
1438 Clouds 26 1009 94 6000 1.5 290 22:20 03.01.2020
1439 Thunderstorm 26 1008 88 5000 1.5 330 21:59 03.01.2020
1440 Thunderstorm 26 1008 88 5000 1.5 0 21:39 03.01.2020
1441 Thunderstorm 26 1008 88 5000 1.5 0 21:19 03.01.2020
1442 Thunderstorm 26 1008 88 4000 2.1 290 20:59 03.01.2020
1443 Thunderstorm 26 1009 88 3700 3.1 290 20:41 03.01.2020
1444 Thunderstorm 26 1009 88 3700 3.1 290 20:19 03.01.2020
1445 Thunderstorm 26 1009 88 3500 1.5 290 19:57 03.01.2020
1446 Thunderstorm 27 1009 88 2900 1.5 300 19:39 03.01.2020
1447 Thunderstorm 27 1009 88 2900 1.5 300 19:21 03.01.2020
1448 Thunderstorm 27 1010 88 5000 2.6 300 18:44 03.01.2020
1449 Thunderstorm 27 1010 88 5000 2.6 300 18:44 03.01.2020
1450 Thunderstorm 27 1010 83 7000 3.1 280 18:26 03.01.2020
1451 Thunderstorm 27 1011 83 7000 2.1 290 17:56 03.01.2020
1452 Thunderstorm 27 1011 83 7000 3.1 270 17:38 03.01.2020
1453 Thunderstorm 28 1011 83 7000 3.1 270 17:19 03.01.2020
1454 Thunderstorm 28 1011 83 7000 3.1 280 16:42 03.01.2020
1455 Thunderstorm 28 1011 83 7000 3.6 280 16:24 03.01.2020
1456 Clouds 28 1011 83 8000 3.6 260 15:58 03.01.2020
1457 Clouds 28 1010 78 9000 3.6 250 15:40 03.01.2020
1458 Clouds 28 1010 78 9000 3.6 250 15:18 03.01.2020
1459 Clouds 28 1010 83 8000 2.6 280 14:39 03.01.2020
1460 Clouds 28 1010 83 8000 2.6 280 14:19 03.01.2020
1461 Clouds 28 1010 83 8000 2.1 310 13:56 03.01.2020
1462 Haze 28 1009 88 5000 1.5 300 13:37 03.01.2020
1463 Haze 29 1009 88 5000 1.5 300 13:19 03.01.2020
1464 Haze 29 1008 83 5000 2.6 350 12:39 03.01.2020
1465 Haze 29 1008 83 5000 2.6 350 12:21 03.01.2020
1466 Haze 29 1008 79 5000 3.1 350 11:48 03.01.2020
1467 Clouds 30 1007 70 6000 2.1 290 11:29 03.01.2020
1468 Clouds 31 1007 70 6000 3.1 250 10:47 03.01.2020
1469 Clouds 31 1008 66 6000 4.6 290 10:27 03.01.2020
1470 Clouds 31 1008 66 6000 3.6 290 09:59 03.01.2020
1471 Clouds 31 1008 70 6000 3.6 280 09:41 03.01.2020
1472 Clouds 31 1008 70 6000 3.6 280 09:22 03.01.2020
1473 Clouds 30 1008 66 6000 3.1 320 08:57 03.01.2020
1474 Haze 30 1009 74 5000 2.1 310 08:38 03.01.2020
1475 Haze 31 1009 74 5000 2.1 310 08:20 03.01.2020
1476 Rain 31 1009 74 5000 2.1 290 07:41 03.01.2020
1477 Haze 30 1010 74 5000 2.6 330 07:19 03.01.2020
1478 Clouds 30 1011 74 9000 4.6 330 06:54 03.01.2020
1479 Clouds 30 1011 83 8000 3.6 320 06:35 03.01.2020
1480 Rain 29 1012 79 6000 3.1 280 05:47 03.01.2020
1481 Haze 29 1012 74 5000 3.1 270 04:31 03.01.2020
1482 Clouds 30 1012 79 6000 4.1 250 03:18 03.01.2020
1483 Clouds 29 1012 83 6000 4.1 250 02:45 03.01.2020
1484 Clouds 27 1012 78 8000 4.6 260 01:45 03.01.2020
1485 Haze 26 1011 94 4000 3.1 260 00:56 03.01.2020
1486 Haze 26 1011 94 4000 3.1 240 00:32 03.01.2020
1487 Haze 26 1010 88 4000 2.1 250 23:58 02.01.2020
1488 Haze 26 1010 88 4000 2.6 240 23:39 02.01.2020
1489 Haze 26 1010 88 4000 2.6 240 23:19 02.01.2020
1490 Haze 26 1010 94 4000 2.6 250 22:58 02.01.2020
1491 Haze 25 1010 88 4000 3.1 280 22:39 02.01.2020
1492 Haze 25 1010 88 4000 3.1 280 22:19 02.01.2020
1493 Haze 25 1010 88 4000 2.6 280 21:54 02.01.2020
1494 Haze 25 1010 88 4000 3.1 270 21:36 02.01.2020
1495 Haze 25 1010 88 4000 3.1 270 21:36 02.01.2020
1496 Haze 25 1010 88 4000 3.1 270 21:18 02.01.2020
1497 Haze 25 1011 88 4000 2.6 290 20:40 02.01.2020
1498 Haze 25 1011 88 4000 2.6 290 20:21 02.01.2020
1499 Haze 25 1011 88 5000 3.1 280 19:56 02.01.2020
1500 Haze 25 1011 88 5000 3.1 280 19:56 02.01.2020
1501 Haze 25 1012 88 5000 3.6 260 19:38 02.01.2020
1502 Haze 25 1012 88 5000 3.6 260 19:19 02.01.2020
1503 Rain 25 1012 88 5000 2.6 290 18:59 02.01.2020
1504 Clouds 25 1013 83 6000 2.6 280 18:40 02.01.2020
1505 Clouds 26 1013 83 6000 2.6 280 18:22 02.01.2020
1506 Clouds 26 1013 83 6000 2.1 280 17:57 02.01.2020
1507 Clouds 26 1013 83 6000 1.5 300 17:37 02.01.2020
1508 Clouds 26 1013 83 6000 1.5 300 17:19 02.01.2020
1509 Clouds 26 1013 83 7000 3.6 270 16:57 02.01.2020
1510 Clouds 26 1013 83 7000 3.1 250 16:38 02.01.2020
1511 Clouds 26 1013 83 7000 3.1 250 16:20 02.01.2020
1512 Clouds 26 1013 83 7000 2.6 260 15:56 02.01.2020
1513 Clouds 26 1013 83 7000 2.6 260 15:37 02.01.2020
1514 Clouds 26 1012 78 7000 3.6 230 15:19 02.01.2020
1515 Clouds 25 1012 78 7000 3.6 230 14:54 02.01.2020
1516 Clouds 25 1012 78 7000 3.6 230 14:54 02.01.2020
1517 Clouds 26 1012 78 7000 3.6 230 14:36 02.01.2020
1518 Clouds 27 1012 83 8000 2.6 240 14:18 02.01.2020
1519 Haze 27 1011 88 5000 1.5 240 13:45 02.01.2020
1520 Haze 27 1011 88 5000 1.5 240 13:26 02.01.2020
1521 Clouds 27 1011 74 8000 6.2 300 12:43 02.01.2020
1522 Clouds 28 1011 70 9000 3.1 320 12:24 02.01.2020
1523 Clouds 28 1011 70 9000 3.1 320 12:24 02.01.2020
1524 Rain 28 1010 70 5000 2.1 330 11:43 02.01.2020
1525 Rain 29 1010 70 5000 2.1 330 11:24 02.01.2020
1526 Clouds 29 1010 70 9000 3.1 340 10:56 02.01.2020
1527 Clouds 29 1010 66 6000 2.1 300 10:37 02.01.2020
1528 Clouds 31 1010 66 6000 2.1 300 10:18 02.01.2020
1529 Clouds 31 1010 66 6000 2.6 330 09:41 02.01.2020
1530 Clouds 31 1010 66 6000 2.6 330 09:22 02.01.2020
1531 Clouds 31 1010 62 9000 4.6 340 08:44 02.01.2020
1532 Clouds 31 1011 66 6000 2.1 340 08:25 02.01.2020
1533 Clouds 31 1011 66 6000 2.1 340 07:48 02.01.2020
1534 Clouds 31 1012 66 8000 6.7 330 07:28 02.01.2020
1535 Clouds 31 1013 70 8000 5.1 340 06:43 02.01.2020
1536 Haze 30 1013 70 5000 1.5 300 05:58 02.01.2020
1537 Haze 29 1014 79 5000 2.1 270 04:40 02.01.2020
1538 Haze 29 1014 79 5000 2.1 270 04:21 02.01.2020
1539 Haze 29 1014 79 5000 2.1 270 04:21 02.01.2020
1540 Haze 27 1014 94 4000 2.6 230 02:28 02.01.2020
1541 Haze 26 1014 100 4000 2.6 220 01:58 02.01.2020
1542 Mist 26 1014 100 4000 2.1 210 01:32 02.01.2020
1543 Mist 25 1013 88 5000 2.6 210 00:53 02.01.2020
1544 Haze 25 1013 94 5000 2.1 200 00:33 02.01.2020
1545 Mist 25 1013 100 3000 1.5 210 23:49 01.01.2020
1546 Mist 25 1012 100 3000 7.51 287 23:26 01.01.2020
1547 Mist 25 1012 100 3000 7.51 287 22:56 01.01.2020
1548 Mist 25 1012 100 3000 7.51 287 22:37 01.01.2020
1549 Mist 25 1012 100 3000 7.51 287 22:19 01.01.2020
1550 Mist 24 1012 94 5000 2.6 250 21:55 01.01.2020
1551 Rain 24 1012 94 4000 2.6 240 21:37 01.01.2020
1552 Rain 24 1012 94 4000 2.6 240 21:18 01.01.2020
1553 Rain 24 1012 94 3000 2.1 260 20:42 01.01.2020
1554 Rain 24 1012 94 3000 3.1 240 20:22 01.01.2020
1555 Rain 24 1012 94 4000 2.6 240 19:58 01.01.2020
1556 Rain 24 1013 94 4000 3.1 260 19:39 01.01.2020
1557 Rain 24 1013 94 4000 3.1 260 19:20 01.01.2020
1558 Rain 24 1013 94 4000 2.1 260 18:57 01.01.2020
1559 Thunderstorm 24 1013 94 4000 3.1 280 18:39 01.01.2020
1560 Thunderstorm 24 1013 94 4000 3.1 280 18:20 01.01.2020
1561 Thunderstorm 24 1014 94 3000 3.1 240 17:59 01.01.2020
1562 Thunderstorm 24 1014 88 3000 7.7 280 17:40 01.01.2020
1563 Thunderstorm 25 1014 88 3000 7.7 280 17:20 01.01.2020
1564 Thunderstorm 26 1014 88 3000 3.6 350 16:59 01.01.2020
1565 Haze 27 1014 94 4000 1.28 226 16:38 01.01.2020
1566 Haze 27 1014 94 4000 1.28 226 16:20 01.01.2020
1567 Haze 26 1014 83 5000 2.1 150 15:57 01.01.2020
1568 Clouds 26 1013 83 6000 1 0 15:38 01.01.2020
1569 Clouds 26 1013 83 6000 1 0 15:20 01.01.2020
1570 Clouds 26 1013 78 6000 1 0 14:56 01.01.2020
1571 Clouds 26 1013 83 7000 1 0 14:37 01.01.2020
1572 Clouds 27 1013 83 7000 1 0 14:19 01.01.2020
1573 Clouds 27 1013 83 7000 1 0 14:19 01.01.2020
1574 Clouds 27 1012 78 7000 1 320 13:55 01.01.2020
1575 Haze 27 1012 88 5000 2.1 180 13:36 01.01.2020
1576 Haze 27 1012 88 5000 2.1 180 13:18 01.01.2020
1577 Haze 27 1012 88 5000 1.5 220 12:54 01.01.2020
1578 Haze 28 1011 88 5000 1.5 190 12:36 01.01.2020
1579 Haze 28 1011 88 5000 1.5 190 12:18 01.01.2020
1580 Haze 27 1011 83 5000 2.1 200 11:41 01.01.2020
1581 Haze 28 1011 83 5000 2.1 200 11:21 01.01.2020
1582 Haze 28 1011 83 5000 2.1 200 11:21 01.01.2020
1583 Clouds 28 1010 74 8000 2.1 320 10:56 01.01.2020
1584 Clouds 28 1010 78 8000 2.6 320 10:38 01.01.2020
1585 Clouds 27 1010 78 8000 2.6 320 10:19 01.01.2020
1586 Clouds 28 1010 78 8000 2.6 310 09:40 01.01.2020
1587 Clouds 28 1010 78 8000 2.6 310 09:22 01.01.2020
1588 Clouds 28 1011 74 8000 3.6 320 08:57 01.01.2020
1589 Clouds 28 1011 78 7000 4.1 320 08:38 01.01.2020
1590 Clouds 28 1011 78 7000 4.1 320 08:20 01.01.2020
1591 Clouds 28 1011 88 7000 2.6 0 07:58 01.01.2020
1592 Rain 27 1012 94 4000 4.6 260 07:40 01.01.2020
1593 Rain 27 1012 94 4000 4.6 260 07:19 01.01.2020
1594 Rain 26 1013 94 4000 5.1 230 06:36 01.01.2020
1595 Rain 26 1013 94 4000 5.1 230 06:18 01.01.2020
1596 Rain 25 1014 100 2500 5.7 270 04:36 01.01.2020
1597 Thunderstorm 26 1014 100 3000 1.5 270 03:39 01.01.2020
1598 Thunderstorm 26 1014 100 3000 1.5 270 03:21 01.01.2020
1599 Rain 25 1013 94 5000 4.1 290 02:43 01.01.2020
1600 Thunderstorm 25 1013 100 3000 2.6 240 02:24 01.01.2020
1601 Thunderstorm 26 1013 100 3000 2.6 240 01:45 01.01.2020
1602 Thunderstorm 26 1012 100 3000 2.1 270 01:23 01.01.2020
1603 Thunderstorm 25 1012 94 2500 2.6 0 00:45 01.01.2020
1604 Thunderstorm 25 1011 100 1200 3.6 260 00:26 01.01.2020
1605 Thunderstorm 25 1012 100 1800 1.5 60 23:58 31.12.2019
1606 Thunderstorm 25 1011 100 0 3.1 270 23:38 31.12.2019
1607 Thunderstorm 25 1011 100 0 3.1 270 23:18 31.12.2019
1608 Thunderstorm 26 1010 94 2000 2.1 0 22:56 31.12.2019
1609 Thunderstorm 26 1010 94 2000 2.1 0 22:37 31.12.2019
1610 Thunderstorm 26 1010 94 2000 2.1 0 22:18 31.12.2019
1611 Thunderstorm 25 1010 100 2000 3.6 330 21:43 31.12.2019
1612 Thunderstorm 25 1010 94 3000 2.1 0 21:25 31.12.2019
1613 Thunderstorm 25 1011 94 4000 4.6 290 20:57 31.12.2019
1614 Thunderstorm 25 1011 100 2500 6.2 310 20:39 31.12.2019
1615 Thunderstorm 25 1011 100 2500 6.2 310 20:21 31.12.2019
1616 Thunderstorm 26 1011 94 2000 5.7 330 19:58 31.12.2019
1617 Thunderstorm 27 1011 94 5000 4.1 340 19:40 31.12.2019
1618 Thunderstorm 27 1011 94 5000 4.1 340 19:21 31.12.2019
1619 Rain 27 1012 94 5000 3.6 300 18:57 31.12.2019
1620 Thunderstorm 27 1012 94 5000 2.6 310 18:38 31.12.2019
1621 Thunderstorm 27 1012 94 5000 2.6 310 18:19 31.12.2019
1622 Thunderstorm 27 1012 94 5000 3.1 310 17:56 31.12.2019
1623 Thunderstorm 27 1012 94 5000 3.1 310 17:56 31.12.2019
1624 Thunderstorm 27 1012 94 5000 2.6 0 17:36 31.12.2019
1625 Thunderstorm 27 1012 94 5000 2.6 0 17:18 31.12.2019
1626 Thunderstorm 27 1012 94 4000 2.1 0 16:56 31.12.2019
1627 Thunderstorm 27 1013 94 5000 2.6 0 16:37 31.12.2019
1628 Thunderstorm 27 1013 94 5000 2.6 0 16:18 31.12.2019
1629 Rain 28 1013 89 6000 1 0 15:56 31.12.2019
1630 Rain 27 1013 94 6000 2.6 0 15:38 31.12.2019
1631 Rain 27 1013 94 6000 2.6 0 15:19 31.12.2019
1632 Thunderstorm 27 1012 94 6000 2.1 0 14:55 31.12.2019
1633 Thunderstorm 27 1011 94 7000 2.6 170 14:37 31.12.2019
1634 Thunderstorm 27 1011 94 7000 2.6 170 14:18 31.12.2019
1635 Rain 27 1011 88 8000 2.6 0 13:56 31.12.2019
1636 Thunderstorm 26 1011 100 2000 2.1 120 13:38 31.12.2019
1637 Thunderstorm 26 1011 100 2000 2.1 120 13:19 31.12.2019
1638 Rain 26 1010 88 8000 2.1 0 12:55 31.12.2019
1639 Rain 26 1010 88 8000 2.1 0 12:55 31.12.2019
1640 Thunderstorm 26 1011 100 1500 1.5 270 12:37 31.12.2019
1641 Thunderstorm 26 1011 100 1500 1.5 270 12:37 31.12.2019
1642 Thunderstorm 26 1011 100 1500 1.5 270 12:18 31.12.2019
1643 Thunderstorm 26 1011 100 1500 2.1 260 11:55 31.12.2019
1644 Thunderstorm 26 1010 94 0 6.2 240 11:37 31.12.2019
1645 Thunderstorm 26 1010 94 0 6.2 240 11:19 31.12.2019
1646 Clouds 27 1009 74 7000 3.6 270 10:55 31.12.2019
1647 Clouds 27 1009 74 9000 4.6 290 10:37 31.12.2019
1648 Clouds 28 1009 74 9000 4.6 290 10:19 31.12.2019
1649 Clouds 29 1009 74 9000 5.1 290 09:57 31.12.2019
1650 Clouds 31 1008 70 6000 2.1 330 09:38 31.12.2019
1651 Clouds 31 1008 70 6000 2.1 330 09:19 31.12.2019
1652 Clouds 31 1008 79 9000 6.7 310 08:42 31.12.2019
1653 Thunderstorm 31 1008 79 9000 6.2 310 08:23 31.12.2019
1654 Thunderstorm 32 1009 74 9000 4.6 320 07:57 31.12.2019
1655 Rain 32 1010 70 5000 2.6 320 07:38 31.12.2019
1656 Rain 31 1010 70 5000 2.6 320 07:18 31.12.2019
1657 Haze 31 1010 70 5000 3.6 260 06:40 31.12.2019
1658 Rain 31 1011 74 5000 2.1 330 05:28 31.12.2019
1659 Rain 30 1012 74 5000 1.5 330 04:25 31.12.2019
1660 Clouds 31 1012 79 10000 4.1 260 02:59 31.12.2019
1661 Haze 31 1012 83 4000 2.1 220 02:34 31.12.2019
1662 Haze 29 1012 78 5000 1 0 01:51 31.12.2019
1663 Haze 28 1011 88 4000 2.1 230 01:32 31.12.2019
1664 Haze 27 1011 94 4000 1.5 220 00:54 31.12.2019
1665 Haze 27 1010 94 4000 1.5 220 00:36 31.12.2019
1666 Haze 26 1010 94 4000 1.5 220 00:18 31.12.2019
1667 Haze 26 1010 94 4000 1.5 200 23:54 30.12.2019
1668 Haze 26 1009 94 4000 1.5 260 23:36 30.12.2019
1669 Haze 26 1009 94 4000 1.5 260 23:18 30.12.2019
1670 Haze 26 1009 94 4000 1.5 230 22:54 30.12.2019
1671 Haze 26 1010 88 4000 1.5 190 22:36 30.12.2019
1672 Haze 26 1010 88 4000 1.5 190 22:18 30.12.2019
1673 Haze 26 1010 88 4000 1 170 21:55 30.12.2019
1674 Haze 27 1010 83 4000 1 210 21:36 30.12.2019
1675 Haze 27 1010 83 4000 1 210 21:18 30.12.2019
1676 Haze 27 1010 83 4000 1.75 288 20:41 30.12.2019
1677 Haze 27 1010 83 4000 1 150 20:20 30.12.2019
1678 Haze 27 1011 83 4000 1 0 19:59 30.12.2019
1679 Haze 27 1011 83 4000 0.5 0 19:40 30.12.2019
1680 Haze 27 1011 83 4000 0.5 0 19:20 30.12.2019
1681 Haze 27 1011 83 4000 1 0 18:59 30.12.2019
1682 Haze 27 1011 83 4000 0.5 0 18:41 30.12.2019
1683 Haze 27 1011 83 4000 0.5 0 18:21 30.12.2019
1684 Haze 27 1011 78 5000 1 140 17:58 30.12.2019
1685 Haze 27 1011 78 5000 1 0 17:40 30.12.2019
1686 Haze 27 1011 78 5000 1 0 17:19 30.12.2019
1687 Haze 27 1011 83 5000 2.1 160 16:59 30.12.2019
1688 Haze 27 1011 83 5000 0.5 0 16:39 30.12.2019
1689 Haze 27 1011 83 5000 0.5 0 16:20 30.12.2019
1690 Haze 27 1011 83 5000 0.5 0 15:56 30.12.2019
1691 Haze 27 1012 83 5000 0.5 0 15:38 30.12.2019
1692 Haze 28 1012 83 5000 0.5 0 15:19 30.12.2019
1693 Clouds 28 1011 79 6000 0.5 0 14:43 30.12.2019
1694 Clouds 29 1011 79 6000 0.5 0 14:21 30.12.2019
1695 Clouds 29 1010 79 6000 1.5 0 13:59 30.12.2019
1696 Clouds 29 1010 79 6000 1.5 350 13:41 30.12.2019
1697 Clouds 29 1010 79 6000 1.5 350 13:22 30.12.2019
1698 Clouds 29 1009 83 6000 2.6 360 12:57 30.12.2019
1699 Clouds 29 1009 74 6000 2.6 330 12:38 30.12.2019
1700 Clouds 29 1009 74 6000 2.6 330 12:19 30.12.2019
1701 Clouds 30 1009 74 6000 3.6 350 11:56 30.12.2019
1702 Clouds 30 1008 70 6000 4.1 30 11:37 30.12.2019
1703 Clouds 31 1008 70 6000 4.1 30 11:18 30.12.2019
1704 Clouds 31 1008 62 6000 3.6 350 10:40 30.12.2019
1705 Clouds 32 1008 62 6000 3.6 350 10:20 30.12.2019
1706 Clouds 32 1008 62 6000 3.1 320 09:44 30.12.2019
1707 Rain 32 1008 70 6000 2.6 350 09:21 30.12.2019
1708 Clouds 31 1008 66 6000 3.1 350 08:57 30.12.2019
1709 Clouds 32 1008 66 6000 2.1 350 08:39 30.12.2019
1710 Clouds 32 1008 66 6000 2.1 350 08:21 30.12.2019
1711 Clouds 32 1009 74 10000 6.7 330 07:49 30.12.2019
1712 Rain 32 1009 62 6000 3.6 330 07:25 30.12.2019
1713 Clouds 32 1010 66 6000 2.6 350 06:39 30.12.2019
1714 Clouds 31 1011 70 6000 1.5 90 04:31 30.12.2019
1715 Clouds 33 1011 70 6000 2.1 260 03:51 30.12.2019
1716 Clouds 32 1011 74 7000 1 0 02:47 30.12.2019
1717 Haze 30 1011 79 5000 2.6 180 02:27 30.12.2019
1718 Haze 28 1010 88 3000 2.1 200 01:39 30.12.2019
1719 Haze 28 1010 88 3000 2.1 200 01:18 30.12.2019
1720 Haze 26 1010 88 5000 2.1 160 00:42 30.12.2019
1721 Haze 26 1010 88 5000 2.1 140 23:58 29.12.2019
1722 Haze 26 1010 94 4000 1.47 310 23:37 29.12.2019
1723 Haze 26 1010 94 4000 2.2 7 23:19 29.12.2019
1724 Rain 26 1009 88 3500 1.5 0 22:41 29.12.2019
1725 Rain 26 1009 88 3500 1.5 0 22:22 29.12.2019
1726 Thunderstorm 26 1009 94 3500 2.6 0 21:56 29.12.2019
1727 Thunderstorm 26 1010 88 3600 1.5 150 21:38 29.12.2019
1728 Thunderstorm 26 1010 88 3600 1.5 150 21:19 29.12.2019
1729 Thunderstorm 26 1010 88 3600 1.5 150 21:19 29.12.2019
1730 Haze 26 1010 94 3500 2.1 160 20:55 29.12.2019
1731 Haze 27 1010 88 5000 2.1 160 20:37 29.12.2019
1732 Haze 27 1010 88 5000 2.1 160 20:18 29.12.2019
1733 Haze 27 1011 88 5000 1.5 170 19:56 29.12.2019
1734 Haze 27 1011 88 5000 1 150 19:38 29.12.2019
1735 Haze 27 1011 88 5000 1 150 19:19 29.12.2019
1736 Haze 27 1011 88 5000 1 150 18:55 29.12.2019
1737 Clouds 27 1011 88 6000 1 0 18:37 29.12.2019
1738 Clouds 28 1011 88 6000 1 0 18:18 29.12.2019
1739 Clouds 28 1012 88 6000 1 0 17:56 29.12.2019
1740 Clouds 28 1012 88 6000 1.5 40 17:38 29.12.2019
1741 Clouds 28 1012 88 6000 1.5 40 17:19 29.12.2019
1742 Clouds 28 1012 88 6000 1 60 16:55 29.12.2019
1743 Clouds 28 1012 88 6000 1 60 16:36 29.12.2019
1744 Clouds 28 1012 88 6000 1 60 16:18 29.12.2019
1745 Clouds 28 1011 88 6000 1 70 15:56 29.12.2019
1746 Clouds 28 1011 88 7000 1 130 15:38 29.12.2019
1747 Clouds 28 1011 88 7000 1 130 15:18 29.12.2019
1748 Clouds 28 1010 88 7000 1 250 14:55 29.12.2019
1749 Clouds 27 1010 88 7000 1 150 14:37 29.12.2019
1750 Clouds 27 1010 88 7000 1 150 14:18 29.12.2019
1751 Clouds 27 1010 83 8000 0.5 100 13:41 29.12.2019
1752 Clouds 27 1010 83 8000 0.5 100 13:41 29.12.2019
1753 Clouds 28 1009 78 6000 3.6 344 13:22 29.12.2019
1754 Clouds 28 1009 79 10000 1.5 0 12:59 29.12.2019
1755 Clouds 28 1009 79 10000 1.5 0 12:41 29.12.2019
1756 Clouds 29 1009 70 6000 2.1 330 12:22 29.12.2019
1757 Clouds 30 1009 74 10000 2.1 0 11:54 29.12.2019
1758 Clouds 30 1008 70 6000 2.1 320 11:36 29.12.2019
1759 Clouds 30 1008 70 6000 2.1 320 11:18 29.12.2019
1760 Clouds 31 1008 70 6000 1.5 300 10:41 29.12.2019
1761 Clouds 31 1008 70 6000 1.5 300 10:20 29.12.2019
1762 Clouds 30 1008 79 10000 2.1 0 09:54 29.12.2019
1763 Clouds 30 1008 70 6000 3.6 280 09:36 29.12.2019
1764 Clouds 30 1008 70 6000 3.6 280 09:18 29.12.2019
1765 Clouds 30 1009 79 10000 2.6 0 08:44 29.12.2019
1766 Clouds 29 1009 83 10000 4.1 260 08:24 29.12.2019
1767 Clouds 29 1010 83 10000 3.6 260 07:54 29.12.2019
1768 Clouds 29 1010 70 6000 2.6 290 07:27 29.12.2019
1769 Rain 29 1011 83 8000 3.6 260 06:53 29.12.2019
1770 Haze 30 1011 74 5000 2.1 240 06:23 29.12.2019
1771 Clouds 30 1012 83 9000 2.1 230 05:48 29.12.2019
1772 Haze 29 1012 88 3000 1.5 210 04:34 29.12.2019
1773 Haze 28 1012 94 3000 1.5 280 03:40 29.12.2019
1774 Haze 27 1012 94 3000 1.5 280 03:19 29.12.2019
1775 Rain 26 1012 100 3000 1.5 310 02:19 29.12.2019
1776 Rain 26 1011 100 2000 2.1 110 01:31 29.12.2019
1777 Rain 26 1011 100 1500 2.1 30 00:51 29.12.2019
1778 Mist 26 1011 100 2000 1.5 50 00:27 29.12.2019
1779 Mist 26 1010 100 4000 1.5 330 23:57 28.12.2019
1780 Mist 26 1010 94 4000 1.5 250 23:39 28.12.2019
1781 Mist 26 1010 94 4000 1.5 250 23:18 28.12.2019
1782 Haze 26 1009 94 4000 1.5 160 22:39 28.12.2019
1783 Haze 26 1009 94 4000 1.5 160 22:19 28.12.2019
1784 Thunderstorm 26 1009 88 6000 2.1 150 21:57 28.12.2019
1785 Haze 26 1009 88 5000 1.5 150 21:38 28.12.2019
1786 Haze 26 1009 88 5000 1.5 150 21:20 28.12.2019
1787 Thunderstorm 26 1009 88 5000 1.5 140 20:56 28.12.2019
1788 Thunderstorm 26 1009 88 4000 1.5 0 20:37 28.12.2019
1789 Thunderstorm 26 1009 88 4000 1.5 0 20:18 28.12.2019
1790 Thunderstorm 27 1010 88 4000 1 170 19:55 28.12.2019
1791 Thunderstorm 27 1010 88 5000 1.5 160 19:37 28.12.2019
1792 Thunderstorm 27 1010 88 5000 1.5 160 19:18 28.12.2019
1793 Thunderstorm 27 1010 94 5000 0.5 0 18:56 28.12.2019
1794 Thunderstorm 27 1011 94 5000 2.1 160 18:38 28.12.2019
1795 Thunderstorm 27 1011 94 5000 2.1 160 18:18 28.12.2019
1796 Haze 27 1011 88 5000 1.5 170 17:42 28.12.2019
1797 Haze 27 1011 94 5000 2.1 170 17:42 28.12.2019
1798 Haze 27 1011 88 5000 1.5 170 17:21 28.12.2019
1799 Haze 27 1011 88 5000 1.5 170 16:58 28.12.2019
1800 Clouds 27 1011 88 6000 1 190 16:40 28.12.2019
1801 Clouds 27 1011 88 6000 1 190 16:21 28.12.2019
1802 Clouds 28 1011 83 6000 1 110 15:43 28.12.2019
1803 Clouds 28 1011 83 6000 1 110 15:23 28.12.2019
1804 Clouds 28 1011 83 6000 1 130 14:56 28.12.2019
1805 Clouds 28 1010 83 7000 1 0 14:37 28.12.2019
1806 Clouds 28 1010 83 7000 1 0 14:19 28.12.2019
1807 Clouds 28 1010 83 9000 2.1 0 13:42 28.12.2019
1808 Thunderstorm 28 1010 78 6000 2.1 10 13:21 28.12.2019
1809 Thunderstorm 28 1009 78 5000 3.1 10 12:59 28.12.2019
1810 Thunderstorm 28 1009 78 5000 3.1 10 12:40 28.12.2019
1811 Thunderstorm 29 1009 78 6000 4.1 360 12:21 28.12.2019
1812 Rain 29 1009 78 6000 3.6 20 11:54 28.12.2019
1813 Rain 29 1008 70 6000 2.1 360 11:36 28.12.2019
1814 Rain 29 1008 70 6000 2.1 360 11:18 28.12.2019
1815 Clouds 30 1008 79 10000 3.6 360 10:41 28.12.2019
1816 Clouds 29 1008 70 6000 2.1 250 10:20 28.12.2019
1817 Clouds 30 1008 70 6000 1.5 320 09:55 28.12.2019
1818 Clouds 30 1008 70 6000 1.5 320 09:55 28.12.2019
1819 Clouds 30 1008 74 6000 2.1 150 09:37 28.12.2019
1820 Clouds 30 1008 74 6000 2.1 150 09:18 28.12.2019
1821 Clouds 31 1008 70 6000 2.1 300 08:43 28.12.2019
1822 Clouds 31 1008 74 6000 3.1 300 08:25 28.12.2019
1823 Clouds 30 1009 83 10000 3.1 320 07:49 28.12.2019
1824 Rain 30 1010 74 6000 4.1 320 07:25 28.12.2019
1825 Rain 28 1011 78 5000 4.6 350 05:52 28.12.2019
1826 Haze 30 1011 79 3000 2.6 30 03:52 28.12.2019
1827 Haze 29 1011 88 3000 2.64 326 03:33 28.12.2019
1828 Haze 29 1011 88 3000 2.64 326 02:43 28.12.2019
1829 Clouds 28 1011 88 8000 1.5 0 01:59 28.12.2019
1830 Mist 26 1010 100 2000 0.83 64 01:25 28.12.2019
1831 Clouds 27 1010 88 7000 1.5 0 00:51 28.12.2019
1832 Clouds 26 1010 88 6000 2.1 0 00:32 28.12.2019
1833 Clouds 26 1010 88 6000 2.1 0 00:32 28.12.2019
1834 Haze 26 1010 88 5000 1.5 0 23:59 27.12.2019
1835 Haze 26 1010 88 5000 1.5 0 23:41 27.12.2019
1836 Mist 26 1009 100 2000 1.38 166 23:19 27.12.2019
1837 Mist 26 1009 94 5000 1.5 0 22:57 27.12.2019
1838 Mist 26 1009 94 4500 1 150 22:38 27.12.2019
1839 Mist 26 1009 94 4500 1 150 22:20 27.12.2019
1840 Mist 26 1009 94 4500 1 0 21:44 27.12.2019
1841 Haze 26 1009 94 4500 1.5 130 21:25 27.12.2019
1842 Haze 26 1009 94 5000 1 120 20:58 27.12.2019
1843 Haze 26 1009 94 5000 1 0 20:40 27.12.2019
1844 Haze 26 1009 94 5000 1 0 20:21 27.12.2019
1845 Haze 25 1009 94 5000 1 220 19:42 27.12.2019
1846 Haze 25 1010 94 5000 1 0 19:20 27.12.2019
1847 Haze 26 1010 94 5000 1 0 18:58 27.12.2019
1848 Haze 26 1010 94 5000 1 150 18:37 27.12.2019
1849 Haze 25 1010 94 5000 1 150 18:19 27.12.2019
1850 Haze 26 1010 94 5000 1 130 17:56 27.12.2019
1851 Haze 26 1011 94 5000 1 160 17:38 27.12.2019
1852 Haze 26 1011 94 5000 1 160 17:18 27.12.2019
1853 Haze 26 1011 88 5000 1 0 16:56 27.12.2019
1854 Clouds 26 1011 94 6000 1.5 0 16:37 27.12.2019
1855 Clouds 26 1011 94 6000 1.5 0 16:19 27.12.2019
1856 Clouds 26 1010 94 6000 1 160 15:43 27.12.2019
1857 Clouds 25 1010 94 6000 1 0 15:20 27.12.2019
1858 Clouds 25 1011 94 6000 1 0 14:57 27.12.2019
1859 Thunderstorm 25 1011 100 3000 1.5 100 14:38 27.12.2019
1860 Thunderstorm 25 1011 100 3000 1.5 100 14:20 27.12.2019
1861 Rain 26 1010 94 8000 1.5 80 13:48 27.12.2019
1862 Thunderstorm 26 1010 94 3000 2.83 301 13:25 27.12.2019
1863 Thunderstorm 26 1010 94 3000 2.83 301 13:25 27.12.2019
1864 Thunderstorm 25 1010 88 8000 2.1 80 12:58 27.12.2019
1865 Thunderstorm 25 1010 100 3000 2.83 301 12:39 27.12.2019
1866 Thunderstorm 25 1010 100 3000 2.83 301 12:21 27.12.2019
1867 Thunderstorm 25 1009 94 4000 2.1 0 11:45 27.12.2019
1868 Thunderstorm 25 1009 100 3000 3.1 130 11:26 27.12.2019
1869 Thunderstorm 27 1008 79 7000 3.1 300 10:56 27.12.2019
1870 Thunderstorm 27 1009 94 1700 2.6 250 10:38 27.12.2019
1871 Thunderstorm 27 1009 94 1700 2.6 250 10:20 27.12.2019
1872 Thunderstorm 27 1008 100 1000 9.3 250 09:43 27.12.2019
1873 Thunderstorm 29 1007 74 5000 4.1 360 09:21 27.12.2019
1874 Clouds 30 1007 74 9000 5.1 350 08:58 27.12.2019
1875 Rain 31 1008 62 5000 4.6 360 08:36 27.12.2019
1876 Clouds 32 1008 70 10000 5.1 340 07:51 27.12.2019
1877 Haze 32 1008 66 5000 2.1 30 07:32 27.12.2019
1878 Clouds 33 1009 66 10000 4.1 20 06:37 27.12.2019
1879 Haze 32 1010 70 5000 1.5 70 05:37 27.12.2019
1880 Clouds 29 1010 74 8000 2.6 0 03:44 27.12.2019
1881 Haze 28 1010 88 4000 1.5 230 02:21 27.12.2019
1882 Mist 27 1010 100 3000 3.1 200 01:38 27.12.2019
1883 Mist 27 1010 100 3000 3.1 200 01:19 27.12.2019
1884 Mist 26 1010 100 3000 1.5 230 00:43 27.12.2019
1885 Mist 26 1010 100 3000 1.5 240 00:24 27.12.2019
1886 Rain 26 1010 100 3000 2.6 210 23:42 26.12.2019
1887 Rain 25 1009 100 3000 2.1 220 23:23 26.12.2019
1888 Rain 26 1010 100 3000 1.5 300 22:57 26.12.2019
1889 Rain 25 1010 100 3000 3.1 270 22:37 26.12.2019
1890 Rain 26 1010 100 3000 3.1 270 22:18 26.12.2019
1891 Mist 26 1010 94 2500 2.6 300 21:39 26.12.2019
1892 Mist 26 1010 94 2500 2.6 300 21:21 26.12.2019
1893 Mist 26 1010 94 2500 2.6 300 21:21 26.12.2019
1894 Mist 26 1010 88 2200 2.1 270 20:47 26.12.2019
1895 Mist 26 1010 94 2000 2.1 270 20:24 26.12.2019
1896 Mist 26 1010 94 2500 2.6 290 19:59 26.12.2019
1897 Mist 26 1010 88 2500 2.1 280 19:40 26.12.2019
1898 Mist 26 1010 94 2500 2.6 290 19:40 26.12.2019
1899 Mist 26 1010 88 2500 2.1 280 19:22 26.12.2019
1900 Thunderstorm 26 1010 88 3500 2.6 280 18:58 26.12.2019
1901 Mist 26 1011 94 4500 1 300 18:40 26.12.2019
1902 Mist 26 1011 94 4500 1 300 18:20 26.12.2019
1903 Haze 26 1010 94 3500 1.5 280 17:57 26.12.2019
1904 Haze 26 1011 88 5000 3.1 240 17:39 26.12.2019
1905 Haze 26 1011 88 5000 3.1 240 17:39 26.12.2019
1906 Haze 26 1011 88 5000 3.1 240 17:19 26.12.2019
1907 Clouds 26 1011 88 6000 1.5 0 16:45 26.12.2019
1908 Haze 25 1011 100 4000 1.5 240 16:24 26.12.2019
1909 Clouds 25 1011 94 6000 2.1 200 15:56 26.12.2019
1910 Rain 25 1011 94 5000 2.6 230 15:38 26.12.2019
1911 Rain 25 1011 94 5000 2.6 230 15:18 26.12.2019
1912 Rain 26 1010 100 4000 3.1 250 14:41 26.12.2019
1913 Rain 26 1010 100 4000 3.1 250 14:22 26.12.2019
1914 Rain 26 1010 88 5000 2.6 220 13:45 26.12.2019
1915 Thunderstorm 26 1011 94 4000 2.1 160 13:23 26.12.2019
1916 Thunderstorm 27 1010 94 3000 3.6 200 12:58 26.12.2019
1917 Rain 28 1009 88 4000 3.6 200 12:40 26.12.2019
1918 Rain 27 1009 88 4000 3.6 200 12:21 26.12.2019
1919 Thunderstorm 27 1009 94 4000 4.6 200 11:58 26.12.2019
1920 Thunderstorm 28 1009 79 4000 2.6 300 11:39 26.12.2019
1921 Thunderstorm 29 1009 79 4000 2.6 300 11:20 26.12.2019
1922 Thunderstorm 29 1008 79 4000 3.6 330 10:49 26.12.2019
1923 Rain 30 1007 66 5000 6.2 20 10:20 26.12.2019
1924 Clouds 31 1007 70 6000 3.6 360 09:54 26.12.2019
1925 Clouds 32 1008 66 10000 4.1 10 09:32 26.12.2019
1926 Clouds 32 1008 66 6000 4.6 340 08:57 26.12.2019
1927 Clouds 31 1008 70 6000 3.6 350 08:38 26.12.2019
1928 Clouds 31 1008 70 6000 3.6 350 08:20 26.12.2019
1929 Clouds 31 1008 70 6000 3.6 350 08:20 26.12.2019
1930 Clouds 31 1009 70 10000 3.1 350 07:31 26.12.2019
1931 Haze 31 1009 66 4000 2.1 330 06:56 26.12.2019
1932 Haze 31 1010 70 4000 2.6 300 06:34 26.12.2019
1933 Haze 32 1010 70 5000 2.1 320 05:57 26.12.2019
1934 Haze 32 1010 66 5000 2.1 40 05:38 26.12.2019
1935 Clouds 32 1011 74 6000 2.6 260 04:32 26.12.2019
1936 Haze 31 1011 79 5000 2.1 210 03:31 26.12.2019
1937 Haze 30 1011 79 4000 2.6 200 02:46 26.12.2019
1938 Haze 29 1011 83 4000 2.6 250 02:25 26.12.2019
1939 Haze 28 1011 88 3000 1.5 220 01:44 26.12.2019
1940 Haze 27 1011 83 3000 1.5 210 01:24 26.12.2019
1941 Haze 26 1010 94 3000 1.5 250 00:43 26.12.2019
1942 Mist 25 1010 94 3000 1.5 200 00:22 26.12.2019
1943 Mist 25 1010 94 3000 1.5 200 00:22 26.12.2019
1944 Haze 25 1010 88 2500 1.5 0 23:56 25.12.2019
1945 Haze 25 1010 94 5000 1.5 260 23:36 25.12.2019
1946 Haze 25 1010 94 5000 1.5 260 23:18 25.12.2019
1947 Haze 25 1009 88 2500 1 250 22:55 25.12.2019
1948 Haze 25 1009 88 2500 1 250 22:55 25.12.2019
1949 Haze 25 1009 88 2500 1.5 310 22:36 25.12.2019
1950 Haze 25 1009 88 2500 1.5 310 22:18 25.12.2019
1951 Mist 25 1009 94 2500 1.5 300 21:40 25.12.2019
1952 Mist 25 1009 94 2500 1.5 300 21:22 25.12.2019
1953 Mist 25 1009 94 2500 1.5 240 20:58 25.12.2019
1954 Haze 25 1009 88 3500 1 0 20:40 25.12.2019
1955 Haze 25 1009 88 3500 1 0 20:19 25.12.2019
1956 Haze 25 1009 88 3500 1 0 19:57 25.12.2019
1957 Haze 25 1010 88 4000 1.5 100 19:39 25.12.2019
1958 Haze 25 1010 88 4000 1.5 100 19:21 25.12.2019
1959 Haze 25 1010 83 5000 0.5 0 18:39 25.12.2019
1960 Haze 25 1010 83 5000 0.5 0 18:20 25.12.2019
1961 Rain 25 1011 88 5000 1.5 0 17:43 25.12.2019
1962 Rain 25 1011 88 5000 1.5 0 17:21 25.12.2019
1963 Rain 25 1011 88 4500 1.5 0 16:59 25.12.2019
1964 Rain 25 1011 88 4000 2.6 0 16:39 25.12.2019
1965 Rain 25 1011 88 4000 2.6 0 16:19 25.12.2019
1966 Rain 25 1011 88 4000 2.6 0 16:19 25.12.2019
1967 Thunderstorm 26 1012 88 4000 1.5 0 15:58 25.12.2019
1968 Thunderstorm 26 1012 88 4000 1 0 15:39 25.12.2019
1969 Thunderstorm 26 1012 88 4000 1 0 15:39 25.12.2019
1970 Thunderstorm 26 1012 88 4000 1 0 15:21 25.12.2019
1971 Thunderstorm 26 1012 88 4000 1 80 14:58 25.12.2019
1972 Thunderstorm 26 1011 83 2000 2.1 60 14:40 25.12.2019
1973 Thunderstorm 26 1011 83 2000 2.1 60 14:21 25.12.2019
1974 Thunderstorm 26 1011 83 2000 2.1 60 14:21 25.12.2019
1975 Thunderstorm 26 1011 83 2000 2.1 60 14:21 25.12.2019
1976 Thunderstorm 26 1011 83 2000 2.1 60 14:21 25.12.2019
1977 Thunderstorm 26 1011 83 2000 2.1 60 14:21 25.12.2019
1978 Thunderstorm 26 1011 83 7000 0.5 0 13:57 25.12.2019
1979 Clouds 26 1010 88 6000 1.5 320 13:38 25.12.2019
1980 Clouds 26 1010 88 6000 1.5 320 13:19 25.12.2019
1981 Thunderstorm 27 1010 74 8000 4.6 250 12:40 25.12.2019
1982 Clouds 28 1009 83 6000 2.1 330 12:20 25.12.2019
1983 Thunderstorm 28 1009 83 9000 2.6 60 11:55 25.12.2019
1984 Thunderstorm 28 1009 83 9000 2.6 60 11:55 25.12.2019
1985 Clouds 28 1009 79 6000 2.1 310 11:37 25.12.2019
1986 Clouds 28 1009 79 6000 2.1 310 11:18 25.12.2019
1987 Clouds 28 1008 79 6000 2.1 310 10:38 25.12.2019
1988 Clouds 28 1008 79 6000 2.1 310 10:19 25.12.2019
1989 Clouds 28 1008 83 10000 1 0 09:50 25.12.2019
1990 Clouds 29 1008 83 10000 1.5 0 09:32 25.12.2019
1991 Clouds 28 1008 88 10000 1 0 08:51 25.12.2019
1992 Clouds 28 1008 83 9000 1 0 08:30 25.12.2019
1993 Clouds 28 1009 88 8000 1.5 0 07:50 25.12.2019
1994 Rain 28 1010 83 7000 2.1 0 07:32 25.12.2019
1995 Rain 27 1010 88 7000 2.1 80 06:51 25.12.2019
1996 Rain 27 1011 94 5000 1.5 360 06:23 25.12.2019
1997 Rain 26 1012 94 5000 1.5 310 05:18 25.12.2019
1998 Haze 26 1012 94 5000 1.5 350 04:39 25.12.2019
1999 Haze 26 1012 94 5000 1.5 350 04:20 25.12.2019
2000 Thunderstorm 26 1012 94 3000 3.6 290 03:42 25.12.2019
2001 Thunderstorm 26 1012 94 3500 3.1 40 02:54 25.12.2019
2002 Haze 26 1011 100 4000 1.5 270 02:27 25.12.2019
2003 Rain 25 1011 94 4000 1.5 250 01:25 25.12.2019
2004 Thunderstorm 25 1011 94 3000 1.5 0 00:54 25.12.2019
2005 Thunderstorm 25 1011 94 3000 1.5 0 00:54 25.12.2019
2006 Rain 25 1010 100 3000 1.5 210 00:32 25.12.2019
2007 Rain 25 1010 100 3000 2.1 230 23:57 24.12.2019
2008 Rain 25 1009 100 3000 1.5 350 23:38 24.12.2019
2009 Rain 25 1009 100 3000 1.5 350 23:20 24.12.2019
2010 Rain 25 1009 100 3000 1.5 260 22:41 24.12.2019
2011 Rain 25 1009 100 3000 1.5 260 22:41 24.12.2019
2012 Thunderstorm 25 1009 100 3000 1.5 270 22:23 24.12.2019
2013 Thunderstorm 26 1009 88 4000 4.6 230 21:44 24.12.2019
2014 Thunderstorm 26 1009 88 4000 4.1 240 21:23 24.12.2019
2015 Thunderstorm 26 1009 83 5000 4.1 280 20:59 24.12.2019
2016 Thunderstorm 27 1009 83 5000 4.1 300 20:41 24.12.2019
2017 Thunderstorm 27 1009 83 5000 4.1 300 20:19 24.12.2019
2018 Thunderstorm 27 1009 83 5000 4.1 300 20:19 24.12.2019
2019 Thunderstorm 28 1009 78 5000 4.1 280 19:45 24.12.2019
2020 Clouds 27 1010 78 6000 2.1 260 19:21 24.12.2019
2021 Haze 27 1010 69 5000 1.5 290 18:58 24.12.2019
2022 Haze 27 1010 74 5000 2.1 290 18:40 24.12.2019
2023 Haze 27 1010 74 5000 2.1 290 18:18 24.12.2019
2024 Haze 27 1010 78 4000 3.1 320 17:42 24.12.2019
2025 Clouds 28 1010 74 7000 2.1 0 17:21 24.12.2019
2026 Clouds 28 1011 78 6000 1.5 180 16:58 24.12.2019
2027 Clouds 28 1011 88 6000 1 190 16:39 24.12.2019
2028 Clouds 28 1011 88 6000 1 190 16:20 24.12.2019
2029 Haze 27 1011 78 5000 1 0 15:56 24.12.2019
2030 Clouds 28 1011 74 6000 1 330 15:36 24.12.2019
2031 Clouds 28 1011 74 6000 1 330 15:18 24.12.2019
2032 Haze 28 1010 74 5000 1.5 200 14:57 24.12.2019
2033 Haze 28 1010 74 5000 1.5 200 14:57 24.12.2019
2034 Haze 28 1010 74 4500 1 0 14:38 24.12.2019
2035 Haze 29 1010 74 4500 1 0 14:20 24.12.2019
2036 Haze 29 1010 74 5000 0.5 0 13:55 24.12.2019
2037 Clouds 29 1010 83 6000 1.5 360 13:37 24.12.2019
2038 Clouds 30 1010 83 6000 1.5 360 13:19 24.12.2019
2039 Clouds 30 1009 83 6000 2.1 30 12:55 24.12.2019
2040 Clouds 30 1008 79 6000 2.1 10 12:36 24.12.2019
2041 Clouds 30 1008 79 6000 2.1 10 12:18 24.12.2019
2042 Clouds 30 1008 74 6000 2.6 20 11:55 24.12.2019
2043 Clouds 30 1007 74 6000 4.1 40 11:37 24.12.2019
2044 Clouds 31 1007 74 6000 4.1 40 11:18 24.12.2019
2045 Clouds 32 1007 70 6000 4.6 360 10:56 24.12.2019
2046 Thunderstorm 32 1007 62 6000 5.1 30 10:37 24.12.2019
2047 Thunderstorm 32 1007 62 6000 5.1 30 10:19 24.12.2019
2048 Clouds 32 1006 62 6000 6.7 30 09:55 24.12.2019
2049 Clouds 33 1007 66 6000 5.1 30 09:37 24.12.2019
2050 Clouds 33 1007 66 6000 5.1 30 09:37 24.12.2019
2051 Clouds 33 1007 66 6000 5.1 30 09:18 24.12.2019
2052 Clouds 33 1007 63 6000 4.6 30 08:45 24.12.2019
2053 Clouds 33 1007 59 6000 4.1 20 08:24 24.12.2019
2054 Clouds 33 1008 63 6000 3.6 30 07:46 24.12.2019
2055 Clouds 33 1008 55 6000 3.1 40 07:26 24.12.2019
2056 Clouds 34 1009 59 6000 3.1 40 06:58 24.12.2019
2057 Haze 34 1009 59 5000 4.1 20 06:38 24.12.2019
2058 Haze 33 1009 59 5000 4.1 20 06:19 24.12.2019
2059 Haze 34 1010 66 5000 3.1 40 05:40 24.12.2019
2060 Haze 33 1010 66 5000 3.1 40 05:18 24.12.2019
2061 Haze 32 1011 70 5000 3.1 120 03:50 24.12.2019
2062 Haze 32 1011 74 4000 2.1 120 03:25 24.12.2019
2063 Haze 30 1011 78 4000 1.5 140 02:25 24.12.2019
2064 Clouds 28 1011 74 8000 3.1 200 01:52 24.12.2019
2065 Haze 27 1010 94 4000 1.82 81 01:23 24.12.2019
2066 Haze 26 1010 83 5000 2.1 220 00:47 24.12.2019
2067 Mist 26 1010 100 3000 1.82 81 00:26 24.12.2019
2068 Haze 27 1009 78 5000 2.6 200 23:59 23.12.2019
2069 Haze 26 1009 78 5000 2.6 200 23:41 23.12.2019
2070 Clouds 26 1009 78 6000 2.6 200 23:23 23.12.2019
2071 Clouds 26 1009 78 7000 2.6 170 22:56 23.12.2019
2072 Clouds 26 1009 78 7000 2.6 170 22:56 23.12.2019
2073 Clouds 26 1009 78 7000 2.6 170 22:56 23.12.2019
2074 Clouds 26 1008 78 8000 1.5 150 22:37 23.12.2019
2075 Clouds 26 1008 78 8000 1.5 150 22:19 23.12.2019
2076 Clouds 26 1008 78 8000 1 0 21:55 23.12.2019
2077 Clouds 26 1009 78 10000 2.1 200 21:36 23.12.2019
2078 Clouds 26 1009 78 10000 2.1 200 21:36 23.12.2019
2079 Clouds 26 1009 78 10000 2.1 200 21:36 23.12.2019
2080 Clouds 26 1009 78 10000 2.1 200 21:18 23.12.2019
2081 Clouds 26 1009 78 8000 2.6 170 20:57 23.12.2019
2082 Clouds 26 1009 78 8000 1 190 20:39 23.12.2019
2083 Clouds 26 1009 78 8000 1 190 20:18 23.12.2019
2084 Clouds 26 1010 74 7000 1 190 19:56 23.12.2019
2085 Clouds 26 1010 74 7000 1 190 19:56 23.12.2019
2086 Clouds 27 1010 74 7000 1 190 19:38 23.12.2019
2087 Clouds 27 1010 74 7000 1 190 19:19 23.12.2019
2088 Clouds 27 1010 74 7000 1.5 0 18:57 23.12.2019
2089 Clouds 27 1010 74 7000 2.1 0 18:38 23.12.2019
2090 Clouds 27 1010 74 7000 2.1 0 18:20 23.12.2019
2091 Clouds 26 1011 69 6000 1.5 0 17:56 23.12.2019
2092 Clouds 26 1011 69 6000 2.1 0 17:37 23.12.2019
2093 Clouds 26 1011 69 6000 2.1 0 17:19 23.12.2019
2094 Clouds 27 1011 74 6000 1 0 16:54 23.12.2019
2095 Clouds 26 1011 74 7000 1.5 0 16:36 23.12.2019
2096 Clouds 26 1011 74 7000 1.5 0 16:18 23.12.2019
2097 Clouds 26 1011 78 7000 1.5 290 15:55 23.12.2019
2098 Clouds 26 1010 69 7000 1 0 15:36 23.12.2019
2099 Clouds 26 1010 69 7000 1 0 15:18 23.12.2019
2100 Clouds 26 1010 74 8000 1.5 0 14:42 23.12.2019
2101 Clouds 26 1010 61 8000 1 0 14:24 23.12.2019
2102 Clouds 26 1010 65 9000 2.6 100 13:59 23.12.2019
2103 Clouds 26 1010 65 9000 2.6 100 13:41 23.12.2019
2104 Haze 26 1009 94 4000 4.1 70 13:22 23.12.2019
2105 Clouds 26 1009 74 9000 4.1 140 12:58 23.12.2019
2106 Clouds 26 1009 74 9000 4.1 140 12:58 23.12.2019
2107 Thunderstorm 26 1009 100 2000 3.6 270 12:39 23.12.2019
2108 Thunderstorm 28 1009 100 2000 3.6 270 12:20 23.12.2019
2109 Clouds 29 1008 55 9000 2.6 240 11:55 23.12.2019
2110 Thunderstorm 29 1008 78 3000 7.7 140 11:37 23.12.2019
2111 Thunderstorm 30 1008 78 3000 7.7 140 11:18 23.12.2019
2112 Clouds 31 1007 74 9000 5.1 330 10:54 23.12.2019
2113 Haze 32 1007 74 5000 4.1 360 10:36 23.12.2019
2114 Haze 32 1007 74 5000 4.1 360 10:18 23.12.2019
2115 Clouds 32 1007 66 10000 5.1 350 09:40 23.12.2019
2116 Clouds 33 1007 66 10000 5.1 350 09:22 23.12.2019
2117 Clouds 33 1008 74 10000 4.6 340 08:58 23.12.2019
2118 Haze 33 1008 66 5000 2.6 330 08:40 23.12.2019
2119 Haze 32 1008 66 5000 2.6 330 08:22 23.12.2019
2120 Clouds 32 1008 70 10000 5.7 340 07:48 23.12.2019
2121 Haze 32 1009 59 5000 2.6 330 07:21 23.12.2019
2122 Clouds 32 1010 66 10000 4.1 350 06:57 23.12.2019
2123 Haze 33 1010 56 5000 1.5 150 06:27 23.12.2019
2124 Clouds 33 1011 59 10000 2.1 0 05:56 23.12.2019
2125 Haze 32 1011 62 5000 1.5 120 05:29 23.12.2019
2126 Haze 30 1012 74 4000 1.5 90 04:34 23.12.2019
2127 Haze 31 1012 83 4000 1.5 140 03:26 23.12.2019
2128 Clouds 30 1012 78 8000 3.1 290 02:42 23.12.2019
2129 Haze 29 1012 88 4000 2.1 110 02:19 23.12.2019
2130 Clouds 28 1011 83 6000 2.6 270 01:43 23.12.2019
2131 Haze 27 1011 88 5000 1 320 01:25 23.12.2019
2132 Mist 26 1010 100 4000 1.5 240 00:44 23.12.2019
2133 Mist 26 1010 100 4000 1.5 240 00:23 23.12.2019
2134 Haze 25 1009 88 5000 2.1 260 23:40 22.12.2019
2135 Haze 25 1009 88 5000 2.1 260 23:22 22.12.2019
2136 Haze 25 1009 88 5000 2.1 270 22:58 22.12.2019
2137 Mist 25 1009 100 4000 1.5 270 22:40 22.12.2019
2138 Mist 25 1009 100 4000 1.5 270 22:22 22.12.2019
2139 Haze 26 1008 83 5000 2.6 280 21:58 22.12.2019
2140 Haze 26 1009 83 5000 2.1 280 21:40 22.12.2019
2141 Haze 26 1009 83 5000 2.1 280 21:21 22.12.2019
2142 Haze 26 1009 83 5000 2.1 280 21:21 22.12.2019
2143 Haze 26 1009 83 5000 1 0 20:58 22.12.2019
2144 Haze 26 1009 88 5000 1 0 20:39 22.12.2019
2145 Haze 26 1009 88 5000 1 0 20:19 22.12.2019
2146 Haze 26 1009 83 5000 1.5 0 19:57 22.12.2019
2147 Haze 26 1010 88 5000 2.1 290 19:39 22.12.2019
2148 Haze 26 1010 88 5000 2.1 290 19:19 22.12.2019
2149 Haze 26 1010 83 5000 1 0 18:42 22.12.2019
2150 Haze 26 1010 83 5000 1 0 18:24 22.12.2019
2151 Haze 26 1011 83 5000 1 360 17:56 22.12.2019
2152 Clouds 26 1011 83 6000 1 0 17:38 22.12.2019
2153 Clouds 26 1011 83 6000 1 0 17:19 22.12.2019
2154 Clouds 26 1011 83 6000 1.5 290 16:57 22.12.2019
2155 Clouds 26 1011 83 6000 1.5 0 16:39 22.12.2019
2156 Clouds 26 1011 83 6000 1.5 0 16:21 22.12.2019
2157 Clouds 26 1010 88 6000 1.5 100 15:56 22.12.2019
2158 Clouds 26 1011 88 6000 1 0 15:38 22.12.2019
2159 Clouds 26 1011 88 6000 1 0 15:20 22.12.2019
2160 Clouds 26 1010 88 7000 1.5 0 14:55 22.12.2019
2161 Clouds 26 1010 88 7000 1.5 0 14:55 22.12.2019
2162 Clouds 25 1010 88 7000 2.1 0 14:37 22.12.2019
2163 Clouds 25 1010 88 7000 2.1 0 14:18 22.12.2019
2164 Clouds 25 1010 88 7000 2.1 0 14:18 22.12.2019
2165 Clouds 25 1010 88 7000 2.1 0 14:18 22.12.2019
2166 Clouds 25 1010 88 7000 2.6 0 13:55 22.12.2019
2167 Rain 25 1009 100 5000 3.1 200 13:37 22.12.2019
2168 Rain 25 1009 100 5000 3.1 200 13:18 22.12.2019
2169 Rain 25 1009 88 6000 3.6 210 12:56 22.12.2019
2170 Rain 25 1009 100 4000 3.6 200 12:37 22.12.2019
2171 Rain 26 1009 100 4000 3.6 200 12:18 22.12.2019
2172 Thunderstorm 26 1008 88 5000 2.1 0 11:56 22.12.2019
2173 Thunderstorm 26 1008 88 5000 2.1 0 11:56 22.12.2019
2174 Rain 26 1008 88 5000 3.6 130 11:37 22.12.2019
2175 Rain 26 1008 88 5000 3.6 130 11:18 22.12.2019
2176 Thunderstorm 27 1008 83 5000 4.1 170 10:54 22.12.2019
2177 Thunderstorm 27 1009 83 500 6.2 180 10:36 22.12.2019
2178 Thunderstorm 27 1009 83 500 6.2 180 10:18 22.12.2019
2179 Thunderstorm 27 1008 74 7000 6.7 260 09:56 22.12.2019
2180 Thunderstorm 29 1006 66 6000 4.1 360 09:37 22.12.2019
2181 Thunderstorm 29 1006 66 6000 4.1 360 09:19 22.12.2019
2182 Thunderstorm 31 1007 70 6000 5.1 10 08:39 22.12.2019
2183 Thunderstorm 32 1007 70 6000 5.1 10 08:21 22.12.2019
2184 Clouds 33 1008 70 10000 4.6 360 07:40 22.12.2019
2185 Clouds 33 1008 70 10000 4.1 350 07:21 22.12.2019
2186 Clouds 33 1009 66 10000 4.1 340 06:42 22.12.2019
2187 Clouds 33 1009 66 10000 3.1 340 06:21 22.12.2019
2188 Clouds 33 1010 62 6000 2.1 350 05:29 22.12.2019
2189 Clouds 31 1011 66 10000 2.6 0 04:45 22.12.2019
2190 Clouds 31 1010 70 6000 1.5 240 04:22 22.12.2019
2191 Haze 30 1010 83 5000 2.1 250 02:43 22.12.2019
2192 Haze 30 1010 83 5000 2.1 250 02:43 22.12.2019
2193 Clouds 28 1011 83 6000 3.6 280 01:57 22.12.2019
2194 Mist 28 1010 94 2000 1 250 01:31 22.12.2019
2195 Mist 26 1010 83 5000 4.1 240 00:48 22.12.2019
2196 Mist 25 1010 88 5000 2.6 250 00:29 22.12.2019
2197 Mist 25 1009 88 4500 3.6 230 23:59 21.12.2019
2198 Mist 25 1009 88 4500 3.6 240 23:40 21.12.2019
2199 Mist 25 1009 88 4500 3.6 240 23:20 21.12.2019
2200 Mist 25 1009 88 3000 3.1 250 22:47 21.12.2019
2201 Mist 25 1008 94 2500 2.6 240 22:20 21.12.2019
2202 Mist 25 1008 94 2500 2.1 260 21:58 21.12.2019
2203 Mist 25 1008 94 3000 2.1 240 21:40 21.12.2019
2204 Mist 25 1008 94 3000 2.1 240 21:21 21.12.2019
2205 Mist 25 1009 88 3000 2.6 270 20:59 21.12.2019
2206 Mist 25 1009 88 3000 2.6 270 20:59 21.12.2019
2207 Mist 25 1009 88 5000 3.1 240 20:41 21.12.2019
2208 Mist 25 1009 88 5000 3.1 240 20:22 21.12.2019
2209 Clouds 25 1009 88 5000 2.6 260 19:59 21.12.2019
2210 Clouds 25 1009 88 5000 2.6 260 19:59 21.12.2019
2211 Clouds 25 1009 83 6000 2.6 0 19:41 21.12.2019
2212 Clouds 25 1009 83 6000 2.6 0 19:20 21.12.2019
2213 Clouds 25 1009 83 6000 2.6 0 18:59 21.12.2019
2214 Clouds 25 1009 83 6000 2.6 0 18:40 21.12.2019
2215 Clouds 25 1009 83 6000 2.6 0 18:22 21.12.2019
2216 Rain 24 1010 83 6000 3.1 250 17:55 21.12.2019
2217 Thunderstorm 24 1010 88 5000 2.1 0 17:37 21.12.2019
2218 Thunderstorm 24 1010 88 5000 2.1 0 17:18 21.12.2019
2219 Thunderstorm 24 1011 88 4000 2.1 0 16:54 21.12.2019
2220 Thunderstorm 24 1010 88 4000 4.6 50 16:36 21.12.2019
2221 Thunderstorm 25 1010 88 4000 4.6 50 16:36 21.12.2019
2222 Thunderstorm 25 1010 88 4000 4.6 50 16:18 21.12.2019
2223 Thunderstorm 26 1011 88 3000 8.7 140 15:54 21.12.2019
2224 Thunderstorm 26 1011 78 6000 2.6 0 15:36 21.12.2019
2225 Thunderstorm 26 1011 78 6000 2.6 0 15:18 21.12.2019
2226 Thunderstorm 26 1009 78 5000 2.1 300 14:40 21.12.2019
2227 Thunderstorm 26 1009 78 5000 2.1 300 14:40 21.12.2019
2228 Thunderstorm 27 1009 78 5000 2.1 300 14:22 21.12.2019
2229 Thunderstorm 27 1009 78 5000 2.1 300 14:22 21.12.2019
2230 Thunderstorm 26 1009 88 5000 4.1 260 13:57 21.12.2019
2231 Rain 26 1009 83 6000 2.6 170 13:39 21.12.2019
2232 Rain 26 1009 83 6000 2.6 170 13:19 21.12.2019
2233 Thunderstorm 27 1008 74 7000 5.1 230 12:56 21.12.2019
2234 Rain 27 1007 70 5000 4.1 200 12:38 21.12.2019
2235 Rain 27 1007 70 5000 4.1 200 12:38 21.12.2019
2236 Rain 28 1007 70 5000 4.1 200 12:19 21.12.2019
2237 Clouds 29 1007 70 8000 2.1 350 11:45 21.12.2019
2238 Clouds 29 1007 70 9000 3.6 350 11:26 21.12.2019
2239 Clouds 30 1006 70 10000 4.1 360 10:57 21.12.2019
2240 Clouds 31 1006 66 9000 4.6 10 10:39 21.12.2019
2241 Clouds 31 1006 66 9000 4.6 10 10:21 21.12.2019
2242 Clouds 31 1006 66 9000 4.6 10 09:57 21.12.2019
2243 Clouds 32 1006 66 7000 5.1 360 09:39 21.12.2019
2244 Clouds 32 1006 66 7000 5.1 360 09:19 21.12.2019
2245 Clouds 32 1006 62 9000 5.7 350 08:46 21.12.2019
2246 Clouds 32 1007 66 6000 3.1 360 08:26 21.12.2019
2247 Clouds 32 1008 62 10000 5.7 340 07:47 21.12.2019
2248 Haze 33 1008 66 5000 5.1 10 07:23 21.12.2019
2249 Clouds 33 1008 66 10000 5.1 340 06:47 21.12.2019
2250 Haze 33 1008 63 5000 2.1 280 06:28 21.12.2019
2251 Clouds 33 1009 66 9000 4.6 350 05:59 21.12.2019
2252 Clouds 32 1010 66 6000 4.1 330 04:59 21.12.2019
2253 Haze 31 1010 70 5000 2.6 280 04:33 21.12.2019
2254 Clouds 31 1011 70 7000 2.1 0 03:56 21.12.2019
2255 Haze 30 1010 70 5000 2.1 0 02:23 21.12.2019
2256 Haze 29 1010 70 5000 2.1 0 01:42 21.12.2019
2257 Mist 28 1010 88 3000 1.5 260 01:23 21.12.2019
2258 Haze 27 1009 78 5000 2.6 220 00:39 21.12.2019
2259 Haze 27 1009 78 5000 2.6 220 00:20 21.12.2019
2260 Haze 26 1008 94 5000 1.5 190 23:39 20.12.2019
2261 Haze 26 1008 94 5000 1.5 190 23:20 20.12.2019
2262 Haze 27 1008 78 4000 2.1 160 22:57 20.12.2019
2263 Haze 27 1008 78 4000 1 200 22:38 20.12.2019
2264 Haze 27 1008 78 4000 1 200 22:18 20.12.2019
2265 Haze 26 1008 83 4000 2.6 270 21:41 20.12.2019
2266 Haze 26 1008 83 4000 2.6 270 21:21 20.12.2019
2267 Haze 26 1008 78 4000 1.5 0 20:57 20.12.2019
2268 Haze 27 1008 78 5000 1.5 0 20:38 20.12.2019
2269 Haze 27 1008 78 5000 1.5 0 20:19 20.12.2019
2270 Clouds 27 1009 78 6000 1.5 0 19:42 20.12.2019
2271 Clouds 27 1009 78 6000 1.5 0 19:21 20.12.2019
2272 Clouds 27 1009 74 6000 2.1 0 18:58 20.12.2019
2273 Clouds 27 1009 69 6000 2.1 0 18:39 20.12.2019
2274 Clouds 27 1009 69 6000 2.1 0 18:21 20.12.2019
2275 Clouds 27 1009 69 6000 2.1 0 18:21 20.12.2019
2276 Clouds 28 1009 69 7000 2.6 210 17:56 20.12.2019
2277 Clouds 28 1009 69 7000 2.6 210 17:56 20.12.2019
2278 Clouds 27 1009 69 7000 2.6 210 17:38 20.12.2019
2279 Clouds 27 1009 69 7000 2.6 210 17:20 20.12.2019
2280 Clouds 27 1009 69 7000 1.5 200 16:56 20.12.2019
2281 Clouds 27 1010 69 7000 3.1 200 16:37 20.12.2019
2282 Clouds 27 1010 69 7000 3.1 200 16:19 20.12.2019
2283 Clouds 27 1010 69 7000 3.1 200 15:54 20.12.2019
2284 Clouds 27 1010 69 7000 3.1 200 15:54 20.12.2019
2285 Clouds 27 1009 65 7000 3.1 200 15:36 20.12.2019
2286 Clouds 27 1009 65 7000 3.1 200 15:36 20.12.2019
2287 Clouds 27 1009 65 7000 3.1 200 15:18 20.12.2019
2288 Clouds 27 1009 62 0 3.1 230 14:42 20.12.2019
2289 Clouds 27 1009 62 0 3.1 230 14:23 20.12.2019
2290 Clouds 28 1008 74 7000 2.6 0 13:56 20.12.2019
2291 Thunderstorm 28 1008 74 5000 2.6 180 13:37 20.12.2019
2292 Thunderstorm 28 1008 74 5000 2.6 180 13:18 20.12.2019
2293 Clouds 29 1008 70 9000 1.5 10 12:55 20.12.2019
2294 Clouds 29 1007 70 9000 3.1 30 12:36 20.12.2019
2295 Clouds 30 1007 70 9000 3.1 30 12:18 20.12.2019
2296 Clouds 30 1007 62 9000 3.6 30 11:57 20.12.2019
2297 Clouds 31 1006 70 6000 3.1 20 11:38 20.12.2019
2298 Clouds 31 1006 70 6000 3.1 20 11:18 20.12.2019
2299 Clouds 32 1006 59 10000 3.6 20 10:55 20.12.2019
2300 Clouds 32 1006 66 6000 3.6 360 10:37 20.12.2019
2301 Clouds 32 1006 66 6000 3.6 360 10:18 20.12.2019
2302 Clouds 32 1006 66 6000 4.6 350 09:42 20.12.2019
2303 Clouds 32 1006 66 6000 4.6 350 09:21 20.12.2019
2304 Clouds 33 1006 62 10000 4.6 50 08:54 20.12.2019
2305 Clouds 32 1007 62 10000 4.1 20 08:36 20.12.2019
2306 Clouds 33 1007 62 10000 4.1 20 08:18 20.12.2019
2307 Haze 33 1008 59 5000 3.1 50 07:41 20.12.2019
2308 Haze 33 1008 59 5000 3.1 50 07:23 20.12.2019
2309 Clouds 33 1008 55 10000 4.6 20 06:55 20.12.2019
2310 Haze 33 1009 62 5000 2.6 20 06:36 20.12.2019
2311 Haze 33 1009 62 5000 2.6 20 06:18 20.12.2019
2312 Clouds 33 1009 52 10000 4.1 50 05:45 20.12.2019
2313 Haze 32 1010 66 5000 2.6 60 04:46 20.12.2019
2314 Haze 31 1010 66 5000 2.6 0 03:33 20.12.2019
2315 Haze 29 1010 78 3000 1.5 120 02:45 20.12.2019
2316 Haze 28 1010 74 5000 1.5 0 01:55 20.12.2019
2317 Haze 28 1010 94 3000 1.62 89 01:35 20.12.2019
2318 Haze 27 1010 78 5000 1.5 0 00:53 20.12.2019
2319 Haze 26 1009 83 5000 2.1 0 00:34 20.12.2019
2320 Haze 26 1009 83 5000 3.1 180 23:57 19.12.2019
2321 Haze 26 1009 94 4000 1.02 120 23:39 19.12.2019
2322 Haze 26 1009 94 4000 1.02 120 23:39 19.12.2019
2323 Haze 26 1009 94 4000 1.96 220 23:19 19.12.2019
2324 Haze 26 1009 94 4000 1.96 220 23:19 19.12.2019
2325 Haze 26 1008 83 5000 2.6 200 22:38 19.12.2019
2326 Haze 26 1008 83 5000 2.6 200 22:20 19.12.2019
2327 Haze 26 1008 83 3500 2.6 220 21:56 19.12.2019
2328 Haze 26 1008 78 3000 2.1 280 21:38 19.12.2019
2329 Haze 26 1008 78 3000 2.1 280 21:19 19.12.2019
2330 Haze 26 1008 78 4000 2.1 230 20:56 19.12.2019
2331 Haze 26 1009 78 4500 2.1 0 20:37 19.12.2019
2332 Haze 26 1009 78 4500 2.1 0 20:19 19.12.2019
2333 Haze 25 1009 83 4000 2.1 270 19:58 19.12.2019
2334 Haze 26 1009 78 5000 2.1 290 19:39 19.12.2019
2335 Haze 26 1009 78 5000 2.1 290 19:19 19.12.2019
2336 Haze 26 1009 78 5000 2.1 290 19:19 19.12.2019
2337 Clouds 26 1009 78 6000 2.1 280 18:57 19.12.2019
2338 Clouds 26 1010 78 7000 2.1 250 18:38 19.12.2019
2339 Clouds 26 1010 78 7000 2.1 250 18:19 19.12.2019
2340 Clouds 26 1010 78 7000 2.6 210 17:55 19.12.2019
2341 Clouds 26 1011 74 7000 2.6 0 17:37 19.12.2019
2342 Clouds 27 1011 74 7000 2.6 0 17:18 19.12.2019
2343 Clouds 27 1011 74 7000 2.1 0 16:55 19.12.2019
2344 Clouds 27 1011 78 7000 3.1 220 16:37 19.12.2019
2345 Clouds 27 1011 78 7000 3.1 220 16:19 19.12.2019
2346 Clouds 27 1011 74 7000 2.6 240 15:55 19.12.2019
2347 Clouds 27 1011 74 8000 2.6 0 15:37 19.12.2019
2348 Clouds 27 1011 74 8000 2.6 0 15:18 19.12.2019
2349 Clouds 28 1010 69 8000 3.6 240 14:42 19.12.2019
2350 Clouds 28 1010 69 8000 3.6 240 14:20 19.12.2019
2351 Clouds 27 1010 74 8000 4.6 250 13:58 19.12.2019
2352 Clouds 27 1010 74 8000 4.6 250 13:58 19.12.2019
2353 Rain 27 1010 74 6000 3.1 220 13:38 19.12.2019
2354 Rain 28 1010 74 6000 3.1 220 13:19 19.12.2019
2355 Clouds 28 1009 74 9000 2.6 310 12:57 19.12.2019
2356 Rain 28 1008 70 6000 3.1 320 12:39 19.12.2019
2357 Rain 28 1008 70 6000 3.1 320 12:39 19.12.2019
2358 Rain 29 1008 70 6000 3.1 320 12:19 19.12.2019
2359 Clouds 30 1008 66 10000 4.1 350 11:58 19.12.2019
2360 Clouds 30 1007 62 6000 3.6 10 11:40 19.12.2019
2361 Clouds 31 1007 62 6000 3.6 10 11:18 19.12.2019
2362 Clouds 31 1007 66 10000 4.1 330 10:56 19.12.2019
2363 Clouds 31 1007 62 6000 2.6 360 10:38 19.12.2019
2364 Clouds 32 1007 62 6000 2.6 360 10:19 19.12.2019
2365 Clouds 31 1007 62 10000 3.1 340 09:54 19.12.2019
2366 Clouds 31 1007 62 10000 3.1 350 09:36 19.12.2019
2367 Clouds 31 1008 66 10000 4.1 340 09:18 19.12.2019
2368 Clouds 31 1008 62 6000 4.1 30 08:41 19.12.2019
2369 Clouds 31 1008 62 6000 4.1 30 08:19 19.12.2019
2370 Clouds 31 1009 66 10000 4.1 340 07:58 19.12.2019
2371 Clouds 31 1009 70 6000 3.6 30 07:38 19.12.2019
2372 Clouds 30 1009 70 6000 3.6 30 07:20 19.12.2019
2373 Clouds 30 1010 70 10000 4.6 340 06:50 19.12.2019
2374 Clouds 32 1010 70 6000 4.1 10 06:30 19.12.2019
2375 Clouds 32 1011 70 10000 4.1 350 05:55 19.12.2019
2376 Rain 32 1011 74 5000 3.6 20 05:36 19.12.2019
2377 Clouds 31 1011 70 9000 3.6 350 04:52 19.12.2019
2378 Clouds 31 1011 70 8000 3.6 330 03:45 19.12.2019
2379 Haze 28 1012 83 4000 2.6 200 02:24 19.12.2019
2380 Haze 27 1011 83 3000 2.6 250 01:23 19.12.2019
2381 Haze 26 1010 94 4000 1.5 240 00:44 19.12.2019
2382 Haze 26 1010 94 4000 1.5 240 00:25 19.12.2019
2383 Haze 25 1010 83 5000 3.1 220 23:59 18.12.2019
2384 Haze 25 1010 94 5000 1.5 220 23:41 18.12.2019
2385 Haze 25 1010 94 5000 1.5 220 23:19 18.12.2019
2386 Haze 26 1010 83 5000 1.5 210 22:56 18.12.2019
2387 Haze 25 1009 88 4500 2.6 240 22:37 18.12.2019
2388 Haze 25 1009 88 4500 2.6 240 22:19 18.12.2019
2389 Haze 25 1009 83 4000 2.6 220 21:57 18.12.2019
2390 Haze 25 1009 88 3000 2.6 250 21:39 18.12.2019
2391 Haze 25 1009 88 3000 2.6 250 21:19 18.12.2019
2392 Haze 26 1009 83 5000 2.6 250 20:55 18.12.2019
2393 Haze 26 1009 83 4500 2.6 250 20:37 18.12.2019
2394 Haze 26 1009 83 5000 2.6 230 20:19 18.12.2019
2395 Haze 26 1009 83 5000 2.6 230 19:55 18.12.2019
2396 Haze 26 1009 83 5000 2.6 240 19:37 18.12.2019
2397 Clouds 26 1010 83 6000 2.6 220 19:18 18.12.2019
2398 Clouds 26 1010 78 7000 2.6 200 18:45 18.12.2019
2399 Clouds 26 1010 78 7000 2.6 200 18:25 18.12.2019
2400 Clouds 26 1010 78 7000 2.1 0 17:57 18.12.2019
2401 Clouds 26 1010 78 8000 2.6 0 17:39 18.12.2019
2402 Clouds 26 1010 78 8000 2.6 0 17:20 18.12.2019
2403 Clouds 26 1010 78 8000 2.6 0 17:20 18.12.2019
2404 Clouds 26 1011 74 7000 2.1 0 16:57 18.12.2019
2405 Clouds 27 1011 74 7000 2.1 0 16:39 18.12.2019
2406 Clouds 27 1011 78 7000 2.1 220 16:20 18.12.2019
2407 Clouds 27 1010 74 8000 2.1 0 15:56 18.12.2019
2408 Clouds 27 1010 74 8000 2.6 0 15:37 18.12.2019
2409 Clouds 27 1010 74 8000 2.6 0 15:19 18.12.2019
2410 Clouds 27 1010 78 7000 2.6 0 14:43 18.12.2019
2411 Clouds 27 1010 78 7000 2.6 0 14:22 18.12.2019
2412 Clouds 27 1010 78 7000 3.6 210 13:58 18.12.2019
2413 Clouds 27 1009 74 8000 4.6 200 13:39 18.12.2019
2414 Clouds 27 1009 74 8000 4.6 200 13:21 18.12.2019
2415 Clouds 27 1009 74 8000 4.1 220 12:59 18.12.2019
2416 Rain 27 1009 78 5000 3.1 170 12:40 18.12.2019
2417 Rain 27 1009 78 5000 3.1 170 12:21 18.12.2019
2418 Thunderstorm 28 1008 70 8000 5.7 270 11:56 18.12.2019
2419 Rain 28 1008 70 6000 2.1 340 11:38 18.12.2019
2420 Rain 29 1008 70 6000 2.1 340 11:20 18.12.2019
2421 Clouds 30 1008 58 10000 4.1 330 10:57 18.12.2019
2422 Rain 30 1007 62 6000 4.1 20 10:39 18.12.2019
2423 Rain 31 1007 62 6000 4.1 20 10:20 18.12.2019
2424 Clouds 31 1007 55 10000 4.1 10 09:57 18.12.2019
2425 Clouds 32 1007 62 6000 4.6 40 09:19 18.12.2019
2426 Clouds 33 1007 52 10000 5.7 40 08:42 18.12.2019
2427 Clouds 33 1008 52 10000 3.1 50 08:24 18.12.2019
2428 Clouds 33 1008 49 10000 5.7 50 07:57 18.12.2019
2429 Clouds 34 1008 49 10000 5.1 60 07:39 18.12.2019
2430 Clouds 33 1008 49 10000 5.1 60 07:19 18.12.2019
2431 Clouds 33 1009 52 10000 4.1 70 06:51 18.12.2019
2432 Clouds 34 1010 59 6000 4.1 20 06:23 18.12.2019
2433 Clouds 33 1011 59 6000 2.1 90 05:35 18.12.2019
2434 Clouds 32 1011 62 10000 1.5 0 03:49 18.12.2019
2435 Clouds 30 1011 70 10000 1.5 0 02:46 18.12.2019
2436 Haze 29 1011 88 5000 3.9 269 02:27 18.12.2019
2437 Clouds 28 1011 83 7000 1.5 0 01:44 18.12.2019
2438 Mist 26 1010 100 3000 3.69 270 01:25 18.12.2019
2439 Mist 25 1010 100 2500 3.69 270 00:42 18.12.2019
2440 Mist 25 1010 100 2500 3.69 270 00:24 18.12.2019
2441 Clouds 25 1009 88 7000 2.6 230 23:59 17.12.2019
2442 Mist 25 1009 100 4000 3.69 270 23:40 17.12.2019
2443 Mist 24 1009 100 4000 4.07 256 23:21 17.12.2019
2444 Clouds 24 1009 88 6000 3.6 230 22:57 17.12.2019
2445 Clouds 24 1008 88 6000 3.6 240 22:39 17.12.2019
2446 Clouds 24 1008 88 6000 3.6 240 22:19 17.12.2019
2447 Haze 24 1008 88 5000 3.1 230 21:57 17.12.2019
2448 Haze 24 1008 88 5000 2.6 220 21:39 17.12.2019
2449 Haze 24 1008 88 5000 2.6 220 21:20 17.12.2019
2450 Haze 24 1008 88 5000 2.6 240 20:59 17.12.2019
2451 Haze 24 1009 88 5000 2.6 0 20:40 17.12.2019
2452 Haze 24 1009 88 5000 2.6 0 20:19 17.12.2019
2453 Haze 24 1009 88 5000 2.6 260 19:57 17.12.2019
2454 Haze 24 1009 88 5000 2.1 0 19:39 17.12.2019
2455 Haze 24 1009 88 5000 2.1 0 19:20 17.12.2019
2456 Haze 24 1009 83 5000 2.6 0 18:57 17.12.2019
2457 Haze 24 1010 88 5000 2.6 250 18:38 17.12.2019
2458 Haze 24 1010 88 5000 3.1 260 18:20 17.12.2019
2459 Haze 24 1010 88 5000 3.1 260 17:55 17.12.2019
2460 Haze 24 1010 94 5000 1.5 290 17:37 17.12.2019
2461 Haze 24 1010 94 5000 1.5 290 17:18 17.12.2019
2462 Haze 24 1011 94 5000 1.5 320 16:55 17.12.2019
2463 Haze 24 1011 94 5000 2.1 270 16:36 17.12.2019
2464 Haze 24 1011 94 5000 2.1 270 16:18 17.12.2019
2465 Haze 24 1011 94 5000 2.1 270 16:18 17.12.2019
2466 Clouds 24 1011 94 6000 3.1 280 15:38 17.12.2019
2467 Clouds 24 1011 94 6000 3.1 280 15:20 17.12.2019
2468 Clouds 24 1011 83 6000 2.6 240 14:56 17.12.2019
2469 Clouds 25 1010 83 6000 2.6 220 14:38 17.12.2019
2470 Clouds 25 1010 83 6000 2.6 220 14:19 17.12.2019
2471 Clouds 25 1010 83 6000 2.6 210 13:58 17.12.2019
2472 Rain 25 1010 100 3000 2.6 140 13:39 17.12.2019
2473 Rain 25 1010 100 3000 2.6 140 13:19 17.12.2019
2474 Rain 25 1010 88 6000 3.6 200 12:59 17.12.2019
2475 Rain 24 1010 100 3000 3.6 150 12:38 17.12.2019
2476 Rain 25 1009 88 5000 4.1 190 12:18 17.12.2019
2477 Rain 25 1009 88 5000 4.1 190 11:57 17.12.2019
2478 Rain 25 1009 100 3000 2.1 210 11:37 17.12.2019
2479 Rain 25 1008 88 5000 2.6 0 11:18 17.12.2019
2480 Rain 25 1008 88 5000 2.6 0 10:57 17.12.2019
2481 Rain 25 1009 100 3000 2.1 300 10:38 17.12.2019
2482 Rain 25 1009 100 3000 2.1 300 10:19 17.12.2019
2483 Rain 25 1009 100 3000 2.1 300 10:19 17.12.2019
2484 Thunderstorm 24 1008 88 4000 3.1 210 09:56 17.12.2019
2485 Thunderstorm 25 1008 88 5000 3.6 180 09:38 17.12.2019
2486 Thunderstorm 26 1008 88 5000 3.6 180 09:18 17.12.2019
2487 Thunderstorm 27 1008 88 5000 3.6 230 08:54 17.12.2019
2488 Thunderstorm 28 1008 83 4000 8.2 240 08:36 17.12.2019
2489 Thunderstorm 28 1008 83 4000 8.2 240 08:18 17.12.2019
2490 Clouds 30 1008 66 10000 6.2 340 07:42 17.12.2019
2491 Clouds 31 1008 66 10000 6.2 340 07:22 17.12.2019
2492 Clouds 31 1009 62 10000 4.1 330 06:53 17.12.2019
2493 Clouds 31 1009 62 10000 4.1 290 06:32 17.12.2019
2494 Clouds 31 1010 62 10000 5.1 310 05:50 17.12.2019
2495 Clouds 31 1010 62 10000 5.1 310 05:50 17.12.2019
2496 Clouds 31 1010 62 10000 5.1 310 05:31 17.12.2019
2497 Clouds 29 1011 70 9000 4.1 270 04:00 17.12.2019
2498 Haze 28 1011 88 4000 3.1 270 02:27 17.12.2019
2499 Haze 26 1010 100 4000 1.5 270 01:34 17.12.2019
2500 Clouds 25 1010 88 6000 2.1 290 00:48 17.12.2019
2501 Clouds 25 1010 88 5000 1.5 0 00:22 17.12.2019
2502 Clouds 25 1010 88 5000 2.6 280 23:58 16.12.2019
2503 Mist 25 1010 100 2000 4.89 342 23:40 16.12.2019
2504 Mist 25 1010 100 2000 5.43 73 23:18 16.12.2019
2505 Haze 25 1010 88 4400 2.6 280 22:55 16.12.2019
2506 Mist 25 1009 100 2000 5.43 73 22:36 16.12.2019
2507 Mist 25 1009 100 2000 5.43 73 22:18 16.12.2019
2508 Clouds 25 1009 88 4000 2.6 290 21:54 16.12.2019
2509 Haze 25 1009 94 3000 2.6 280 21:36 16.12.2019
2510 Haze 25 1009 94 3000 2.6 280 21:18 16.12.2019
2511 Rain 26 1009 88 2500 2.1 280 20:56 16.12.2019
2512 Rain 26 1009 88 3000 0.5 0 20:37 16.12.2019
2513 Rain 26 1009 88 3000 0.5 0 20:37 16.12.2019
2514 Rain 26 1009 88 3000 0.5 0 20:18 16.12.2019
2515 Rain 26 1010 88 3500 2.1 200 19:55 16.12.2019
2516 Rain 26 1010 88 3500 1 230 19:36 16.12.2019
2517 Rain 26 1010 88 3500 1 230 19:18 16.12.2019
2518 Thunderstorm 27 1010 83 3500 3.1 220 18:55 16.12.2019
2519 Haze 27 1010 83 4000 2.6 210 18:37 16.12.2019
2520 Haze 26 1010 83 4000 2.6 210 18:18 16.12.2019
2521 Clouds 27 1010 83 6000 2.1 0 17:56 16.12.2019
2522 Clouds 27 1011 83 8000 3.1 220 17:37 16.12.2019
2523 Clouds 27 1011 83 8000 3.1 230 17:19 16.12.2019
2524 Clouds 27 1011 83 8000 3.1 230 16:54 16.12.2019
2525 Clouds 27 1010 78 8000 2.6 250 16:36 16.12.2019
2526 Clouds 27 1010 78 8000 2.6 250 16:18 16.12.2019
2527 Clouds 27 1011 83 8000 3.6 240 15:55 16.12.2019
2528 Clouds 27 1010 78 8000 3.6 260 15:37 16.12.2019
2529 Clouds 27 1010 78 8000 3.6 260 15:18 16.12.2019
2530 Clouds 27 1010 83 7000 5.1 250 14:54 16.12.2019
2531 Clouds 27 1010 83 6000 5.7 250 14:36 16.12.2019
2532 Clouds 27 1010 83 6000 5.7 250 14:18 16.12.2019
2533 Thunderstorm 27 1009 94 4000 1.5 270 13:38 16.12.2019
2534 Thunderstorm 27 1009 94 4000 1.5 270 13:20 16.12.2019
2535 Clouds 27 1008 74 7000 3.1 280 12:58 16.12.2019
2536 Clouds 27 1008 74 7000 3.1 280 12:58 16.12.2019
2537 Thunderstorm 27 1008 78 5000 2.1 240 12:40 16.12.2019
2538 Thunderstorm 27 1008 78 5000 2.1 240 12:20 16.12.2019
2539 Clouds 28 1008 74 8000 5.7 280 11:59 16.12.2019
2540 Clouds 28 1008 74 8000 5.7 280 11:59 16.12.2019
2541 Rain 28 1007 74 5000 3.1 300 11:41 16.12.2019
2542 Rain 28 1007 74 5000 3.1 300 11:22 16.12.2019
2543 Clouds 29 1007 70 8000 5.7 270 10:59 16.12.2019
2544 Rain 29 1006 74 4000 2.6 360 10:40 16.12.2019
2545 Rain 30 1006 74 4000 2.6 360 10:21 16.12.2019
2546 Clouds 30 1007 70 10000 5.7 340 09:47 16.12.2019
2547 Rain 31 1006 74 5000 1.5 330 09:29 16.12.2019
2548 Clouds 31 1006 66 10000 5.1 350 08:58 16.12.2019
2549 Rain 31 1006 74 4000 2.6 360 08:38 16.12.2019
2550 Rain 31 1006 74 4000 2.6 360 08:19 16.12.2019
2551 Clouds 32 1007 66 10000 2.6 340 07:51 16.12.2019
2552 Clouds 31 1007 62 9000 6.2 340 07:31 16.12.2019
2553 Clouds 31 1007 62 9000 6.2 340 07:31 16.12.2019
2554 Haze 31 1008 70 4000 3.1 270 06:48 16.12.2019
2555 Haze 31 1008 70 4000 3.1 270 06:27 16.12.2019
2556 Clouds 31 1009 62 9000 4.6 340 05:58 16.12.2019
2557 Haze 31 1009 70 3000 1.5 270 05:39 16.12.2019
2558 Haze 31 1009 70 3000 1.5 270 05:21 16.12.2019
2559 Haze 28 1010 78 3000 2.6 300 02:59 16.12.2019
2560 Haze 27 1010 83 3000 2.1 0 01:45 16.12.2019
2561 Haze 26 1009 88 4000 1.5 300 00:56 16.12.2019
2562 Mist 26 1008 100 2500 1.7 267 00:38 16.12.2019
2563 Mist 26 1008 100 2500 1.7 267 00:18 16.12.2019
2564 Haze 26 1008 94 4000 1.7 267 23:41 15.12.2019
2565 Haze 26 1008 94 4000 3.23 265 23:22 15.12.2019
2566 Haze 26 1008 83 5000 1 0 22:57 15.12.2019
2567 Thunderstorm 26 1008 83 6000 1.5 200 22:38 15.12.2019
2568 Thunderstorm 26 1008 83 6000 1.5 200 22:19 15.12.2019
2569 Clouds 26 1008 83 6000 2.1 230 21:58 15.12.2019
2570 Clouds 26 1008 78 6000 2.1 220 21:38 15.12.2019
2571 Clouds 27 1008 78 6000 2.1 220 21:20 15.12.2019
2572 Clouds 27 1008 78 6000 2.6 240 20:58 15.12.2019
2573 Clouds 26 1008 83 6000 3.1 240 20:39 15.12.2019
2574 Clouds 26 1008 83 6000 3.1 240 20:39 15.12.2019
2575 Clouds 26 1008 83 6000 3.1 240 20:21 15.12.2019
2576 Clouds 26 1008 83 6000 3.1 240 19:58 15.12.2019
2577 Clouds 26 1008 83 6000 3.6 250 19:40 15.12.2019
2578 Clouds 26 1008 83 6000 3.6 250 19:19 15.12.2019
2579 Clouds 27 1008 78 6000 2.6 250 18:57 15.12.2019
2580 Clouds 27 1009 78 6000 2.6 260 18:39 15.12.2019
2581 Clouds 27 1009 78 6000 2.6 260 18:19 15.12.2019
2582 Clouds 27 1009 78 6000 2.1 0 17:56 15.12.2019
2583 Clouds 27 1009 78 6000 2.1 0 17:37 15.12.2019
2584 Clouds 27 1009 78 6000 2.6 230 17:19 15.12.2019
2585 Clouds 27 1009 78 6000 2.6 230 16:57 15.12.2019
2586 Clouds 27 1009 78 7000 2.1 280 16:39 15.12.2019
2587 Clouds 27 1009 78 7000 2.1 280 16:20 15.12.2019
2588 Clouds 26 1009 78 7000 2.6 250 15:55 15.12.2019
2589 Clouds 26 1009 78 7000 2.6 260 15:37 15.12.2019
2590 Clouds 26 1009 78 7000 2.6 260 15:18 15.12.2019
2591 Clouds 27 1009 74 7000 3.6 250 14:55 15.12.2019
2592 Clouds 27 1009 74 7000 4.1 260 14:37 15.12.2019
2593 Clouds 27 1009 74 7000 4.1 260 14:18 15.12.2019
2594 Clouds 27 1008 78 8000 4.1 270 13:56 15.12.2019
2595 Clouds 27 1008 78 6000 3.1 210 13:37 15.12.2019
2596 Clouds 28 1008 78 6000 3.1 210 13:19 15.12.2019
2597 Clouds 28 1008 78 6000 3.1 210 13:19 15.12.2019
2598 Clouds 28 1008 74 8000 4.1 270 12:56 15.12.2019
2599 Rain 28 1007 78 5000 3.6 270 12:38 15.12.2019
2600 Rain 28 1007 78 5000 3.6 270 12:20 15.12.2019
2601 Clouds 29 1007 70 8000 4.6 270 11:55 15.12.2019
2602 Haze 29 1006 79 5000 2.1 260 11:36 15.12.2019
2603 Clouds 30 1007 66 10000 4.6 340 11:18 15.12.2019
2604 Clouds 30 1007 66 10000 4.6 340 10:54 15.12.2019
2605 Haze 30 1006 79 5000 2.1 310 10:36 15.12.2019
2606 Haze 31 1006 79 5000 2.1 310 10:18 15.12.2019
2607 Clouds 31 1007 66 9000 5.1 340 09:39 15.12.2019
2608 Clouds 31 1007 66 9000 5.1 340 09:20 15.12.2019
2609 Clouds 31 1007 66 9000 5.1 340 09:20 15.12.2019
2610 Clouds 30 1007 66 9000 4.1 330 08:57 15.12.2019
2611 Thunderstorm 30 1007 83 5000 3.6 280 08:39 15.12.2019
2612 Thunderstorm 30 1007 83 5000 3.6 280 08:20 15.12.2019
2613 Thunderstorm 30 1008 66 8000 5.1 340 07:55 15.12.2019
2614 Rain 31 1008 70 5000 3.1 300 07:34 15.12.2019
2615 Haze 32 1009 62 5000 2.6 310 06:39 15.12.2019
2616 Clouds 32 1009 66 8000 4.6 340 06:19 15.12.2019
2617 Haze 32 1009 62 5000 3.1 220 05:25 15.12.2019
2618 Haze 32 1009 62 5000 3.1 220 05:25 15.12.2019
2619 Clouds 32 1010 58 8000 4.1 340 04:47 15.12.2019
2620 Haze 31 1011 70 5000 1.5 270 03:22 15.12.2019
2621 Clouds 30 1010 78 5000 2.1 250 02:33 15.12.2019
2622 Clouds 28 1010 74 6000 2.6 230 01:46 15.12.2019
2623 Haze 27 1010 88 4000 2.1 240 01:28 15.12.2019
2624 Haze 26 1010 83 4500 2.6 220 00:54 15.12.2019
2625 Haze 25 1009 88 5000 1.64 78 00:35 15.12.2019
2626 Clouds 25 1009 83 4500 1 240 23:58 14.12.2019
2627 Haze 25 1009 88 5000 1.5 280 23:39 14.12.2019
2628 Haze 25 1008 83 4000 1.5 0 23:19 14.12.2019
2629 Haze 25 1008 83 4000 1.5 0 22:57 14.12.2019
2630 Haze 25 1008 88 5000 1.5 260 22:39 14.12.2019
2631 Haze 25 1008 88 5000 1.5 260 22:20 14.12.2019
2632 Haze 25 1009 83 5000 1.5 210 21:55 14.12.2019
2633 Haze 26 1009 78 5000 1.5 200 21:37 14.12.2019
2634 Haze 26 1009 78 5000 1.5 200 21:18 14.12.2019
2635 Haze 26 1009 78 5000 2.1 170 20:55 14.12.2019
2636 Haze 26 1009 78 5000 2.1 170 20:55 14.12.2019
2637 Haze 26 1009 78 5000 1.5 210 20:37 14.12.2019
2638 Haze 26 1009 78 5000 1.5 210 20:37 14.12.2019
2639 Haze 26 1009 78 5000 1.5 210 20:19 14.12.2019
2640 Haze 26 1009 78 5000 1.5 220 19:40 14.12.2019
2641 Haze 26 1010 74 5000 2.1 0 19:21 14.12.2019
2642 Haze 27 1010 74 5000 2.1 0 18:59 14.12.2019
2643 Clouds 27 1010 74 6000 3.1 190 18:40 14.12.2019
2644 Clouds 27 1010 74 6000 3.1 190 18:22 14.12.2019
2645 Clouds 26 1010 78 7000 2.1 0 17:59 14.12.2019
2646 Clouds 26 1010 74 7000 2.6 0 17:41 14.12.2019
2647 Clouds 27 1010 74 7000 2.6 0 17:22 14.12.2019
2648 Clouds 27 1010 74 8000 3.1 170 16:42 14.12.2019
2649 Clouds 27 1010 74 8000 3.1 170 16:20 14.12.2019
2650 Clouds 27 1010 74 8000 2.6 0 15:57 14.12.2019
2651 Clouds 27 1010 74 8000 4.1 190 15:38 14.12.2019
2652 Clouds 27 1010 74 8000 4.1 190 15:20 14.12.2019
2653 Clouds 27 1010 74 8000 4.1 190 14:57 14.12.2019
2654 Clouds 27 1010 74 8000 3.6 180 14:38 14.12.2019
2655 Clouds 27 1010 74 8000 3.6 180 14:19 14.12.2019
2656 Clouds 26 1009 74 8000 4.6 200 13:45 14.12.2019
2657 Clouds 27 1009 70 8000 2.6 280 13:20 14.12.2019
2658 Clouds 28 1009 66 8000 2.1 0 12:58 14.12.2019
2659 Rain 28 1008 62 6000 1.5 350 12:40 14.12.2019
2660 Clouds 29 1008 66 9000 3.1 350 12:21 14.12.2019
2661 Clouds 29 1008 66 9000 3.1 350 11:58 14.12.2019
2662 Clouds 30 1007 66 6000 3.1 340 11:39 14.12.2019
2663 Clouds 31 1007 62 10000 4.6 340 11:19 14.12.2019
2664 Clouds 31 1007 62 10000 4.6 340 10:57 14.12.2019
2665 Clouds 31 1006 59 6000 3.6 350 10:39 14.12.2019
2666 Clouds 32 1006 59 6000 3.6 350 10:21 14.12.2019
2667 Clouds 31 1007 62 10000 4.1 320 09:57 14.12.2019
2668 Rain 31 1007 55 6000 4.6 350 09:38 14.12.2019
2669 Rain 32 1007 55 6000 4.6 350 09:18 14.12.2019
2670 Rain 32 1007 66 6000 4.6 330 08:43 14.12.2019
2671 Rain 32 1007 66 6000 4.6 330 08:20 14.12.2019
2672 Clouds 31 1008 66 10000 5.7 330 07:44 14.12.2019
2673 Rain 32 1008 66 5000 2.6 340 07:23 14.12.2019
2674 Clouds 32 1009 66 10000 5.1 340 06:57 14.12.2019
2675 Haze 32 1009 62 5000 3.1 320 06:37 14.12.2019
2676 Clouds 32 1010 62 9000 5.7 330 05:59 14.12.2019
2677 Clouds 32 1011 66 9000 4.6 350 04:48 14.12.2019
2678 Haze 31 1011 74 5000 1.5 150 02:35 14.12.2019
2679 Clouds 29 1011 66 6000 3.1 170 01:56 14.12.2019
2680 Haze 28 1011 88 4000 1.5 220 01:37 14.12.2019
2681 Haze 26 1010 78 5000 3.6 200 00:49 14.12.2019
2682 Haze 26 1010 94 4000 2.1 210 00:28 14.12.2019
2683 Haze 25 1010 78 5000 3.6 180 23:57 13.12.2019
2684 Haze 25 1010 94 4000 0.94 38 23:37 13.12.2019
2685 Haze 25 1010 83 5000 3.1 180 23:18 13.12.2019
2686 Haze 25 1009 83 5000 3.6 190 22:41 13.12.2019
2687 Haze 25 1009 83 5000 3.6 190 22:19 13.12.2019
2688 Haze 25 1010 83 5000 4.1 190 21:56 13.12.2019
2689 Haze 25 1010 83 5000 2.1 0 21:38 13.12.2019
2690 Haze 25 1010 83 5000 2.1 0 21:20 13.12.2019
2691 Clouds 26 1010 78 6000 1.5 0 20:42 13.12.2019
2692 Clouds 26 1010 78 6000 1.5 0 20:23 13.12.2019
2693 Clouds 26 1010 78 6000 1.5 0 19:59 13.12.2019
2694 Clouds 26 1010 78 6000 2.1 0 19:41 13.12.2019
2695 Clouds 26 1010 78 6000 2.1 0 19:22 13.12.2019
2696 Clouds 26 1011 78 7000 0.5 0 18:59 13.12.2019
2697 Clouds 26 1011 78 7000 1 0 18:40 13.12.2019
2698 Clouds 26 1011 78 7000 1 0 18:19 13.12.2019
2699 Clouds 26 1011 78 7000 1.5 0 17:55 13.12.2019
2700 Clouds 26 1011 78 7000 2.1 0 17:37 13.12.2019
2701 Clouds 26 1011 78 7000 2.1 0 17:18 13.12.2019
2702 Clouds 26 1011 74 7000 2.6 210 16:54 13.12.2019
2703 Clouds 26 1011 74 7000 2.6 220 16:36 13.12.2019
2704 Clouds 26 1011 74 7000 3.6 200 16:18 13.12.2019
2705 Clouds 26 1011 74 7000 3.6 170 15:38 13.12.2019
2706 Clouds 26 1011 74 7000 3.6 170 15:20 13.12.2019
2707 Clouds 26 1011 69 7000 4.1 190 14:41 13.12.2019
2708 Clouds 27 1011 69 7000 4.1 190 14:21 13.12.2019
2709 Thunderstorm 26 1011 69 7000 4.1 210 13:58 13.12.2019
2710 Thunderstorm 26 1011 69 7000 4.1 210 13:58 13.12.2019
2711 Thunderstorm 27 1011 74 5000 8.2 180 13:39 13.12.2019
2712 Thunderstorm 27 1011 74 5000 8.2 180 13:21 13.12.2019
2713 Thunderstorm 27 1011 74 5000 8.2 180 13:21 13.12.2019
2714 Rain 28 1009 70 6000 3.6 10 12:43 13.12.2019
2715 Rain 28 1009 70 6000 3.6 10 12:20 13.12.2019
2716 Clouds 30 1008 70 10000 3.6 20 11:58 13.12.2019
2717 Clouds 30 1008 66 6000 4.1 340 11:40 13.12.2019
2718 Clouds 30 1008 66 6000 4.1 340 11:22 13.12.2019
2719 Clouds 31 1008 66 10000 3.6 10 10:55 13.12.2019
2720 Clouds 31 1007 59 6000 3.1 360 10:37 13.12.2019
2721 Clouds 31 1007 59 6000 3.1 360 10:19 13.12.2019
2722 Haze 32 1007 62 5000 3.6 360 09:39 13.12.2019
2723 Haze 32 1007 62 5000 3.6 360 09:20 13.12.2019
2724 Haze 32 1007 62 5000 3.6 360 09:20 13.12.2019
2725 Clouds 32 1008 59 10000 3.6 360 08:44 13.12.2019
2726 Clouds 32 1008 59 10000 3.6 360 08:25 13.12.2019
2727 Clouds 32 1009 55 10000 4.1 10 07:47 13.12.2019
2728 Clouds 32 1009 59 10000 3.6 10 07:24 13.12.2019
2729 Clouds 31 1010 62 10000 2.6 0 06:55 13.12.2019
2730 Clouds 31 1010 59 10000 2.6 0 06:29 13.12.2019
2731 Clouds 30 1011 66 10000 1.5 0 05:51 13.12.2019
2732 Clouds 31 1011 66 10000 1.5 0 05:30 13.12.2019
2733 Clouds 29 1012 66 9000 2.1 0 04:46 13.12.2019
2734 Clouds 30 1012 70 9000 1.5 0 03:48 13.12.2019
2735 Clouds 28 1012 78 6000 1.5 0 02:34 13.12.2019
2736 Clouds 28 1011 78 6000 2.1 0 01:49 13.12.2019
2737 Haze 27 1011 78 4000 2.6 0 01:19 13.12.2019
2738 Mist 26 1010 83 3500 2.6 0 00:45 13.12.2019
2739 Mist 26 1010 83 3500 2.6 0 00:22 13.12.2019
2740 Mist 25 1010 88 3000 2.6 150 23:41 12.12.2019
2741 Mist 25 1010 88 3000 2.6 150 23:22 12.12.2019
2742 Mist 25 1010 88 3000 2.1 0 22:56 12.12.2019
2743 Mist 25 1010 88 2500 2.6 180 22:38 12.12.2019
2744 Mist 25 1010 88 2500 2.6 180 22:19 12.12.2019
2745 Mist 25 1010 88 2500 2.6 180 22:19 12.12.2019
2746 Mist 25 1009 88 2500 2.1 0 21:55 12.12.2019
2747 Mist 25 1009 88 2500 1.5 200 21:37 12.12.2019
2748 Mist 25 1009 88 2500 1.5 200 21:19 12.12.2019
2749 Mist 25 1009 88 2500 2.1 250 20:57 12.12.2019
2750 Mist 25 1010 88 2500 1.5 250 20:38 12.12.2019
2751 Mist 25 1010 88 2500 1.5 250 20:20 12.12.2019
2752 Mist 25 1010 88 4600 1.5 270 19:55 12.12.2019
2753 Mist 25 1010 83 4500 1.5 280 19:37 12.12.2019
2754 Mist 25 1010 83 4500 1.5 280 19:18 12.12.2019
2755 Mist 25 1010 88 3500 1.5 280 18:55 12.12.2019
2756 Mist 25 1011 88 3000 2.1 270 18:36 12.12.2019
2757 Mist 25 1011 88 3000 2.1 270 18:18 12.12.2019
2758 Haze 25 1011 88 3000 2.1 280 17:55 12.12.2019
2759 Haze 25 1011 88 3000 2.1 280 17:55 12.12.2019
2760 Haze 25 1011 88 4000 1.5 280 17:37 12.12.2019
2761 Haze 25 1011 88 4000 1.5 280 17:18 12.12.2019
2762 Haze 26 1011 83 3500 1.5 300 16:54 12.12.2019
2763 Haze 26 1011 83 3500 1.5 290 16:36 12.12.2019
2764 Haze 26 1011 83 3500 1.5 290 16:18 12.12.2019
2765 Haze 26 1011 83 4000 1.5 310 15:42 12.12.2019
2766 Haze 26 1011 83 4000 1.5 310 15:19 12.12.2019
2767 Haze 26 1010 83 4500 2.1 310 14:57 12.12.2019
2768 Clouds 26 1010 83 6000 2.1 300 14:36 12.12.2019
2769 Clouds 26 1010 83 6000 2.1 300 14:18 12.12.2019
2770 Clouds 26 1009 83 9000 2.1 300 13:55 12.12.2019
2771 Clouds 26 1009 78 9000 2.6 300 13:36 12.12.2019
2772 Clouds 26 1009 78 9000 2.6 300 13:18 12.12.2019
2773 Clouds 26 1008 78 8000 2.1 340 12:42 12.12.2019
2774 Clouds 26 1008 78 8000 2.1 340 12:23 12.12.2019
2775 Clouds 27 1008 74 9000 1.5 0 11:59 12.12.2019
2776 Clouds 28 1008 74 9000 2.6 340 11:40 12.12.2019
2777 Clouds 28 1008 74 9000 2.6 340 11:22 12.12.2019
2778 Clouds 28 1008 78 9000 2.1 0 10:59 12.12.2019
2779 Clouds 28 1008 78 9000 2.1 0 10:59 12.12.2019
2780 Clouds 28 1009 78 7000 2.1 340 10:41 12.12.2019
2781 Clouds 28 1009 78 7000 2.1 340 10:22 12.12.2019
2782 Clouds 28 1009 74 6000 2.1 0 09:56 12.12.2019
2783 Clouds 28 1009 74 6000 2.1 0 09:56 12.12.2019
2784 Rain 28 1009 74 6000 2.6 360 09:38 12.12.2019
2785 Rain 28 1009 74 6000 2.6 360 09:20 12.12.2019
2786 Rain 28 1009 83 5000 2.1 0 08:50 12.12.2019
2787 Rain 28 1010 83 6000 1.5 0 08:29 12.12.2019
2788 Clouds 27 1010 83 9000 1.5 0 07:59 12.12.2019
2789 Clouds 28 1010 83 8000 1.5 350 07:39 12.12.2019
2790 Clouds 28 1010 83 8000 1.5 350 07:21 12.12.2019
2791 Rain 27 1011 83 6000 2.6 340 06:42 12.12.2019
2792 Rain 26 1011 83 6000 2.6 340 06:23 12.12.2019
2793 Thunderstorm 26 1012 83 6000 3.1 10 05:34 12.12.2019
2794 Thunderstorm 27 1012 83 5000 4.6 60 04:49 12.12.2019
2795 Haze 29 1011 83 3000 1.5 130 02:44 12.12.2019
2796 Haze 29 1011 83 3000 1.5 130 02:26 12.12.2019
2797 Clouds 28 1010 74 6000 3.1 180 01:59 12.12.2019
2798 Clouds 28 1010 78 6000 2.6 0 01:36 12.12.2019
2799 Haze 26 1010 78 5000 1.5 0 00:58 12.12.2019
2800 Haze 26 1009 74 5000 2.1 0 00:38 12.12.2019
2801 Haze 25 1009 78 5000 1.5 0 00:18 12.12.2019
2802 Haze 25 1009 83 5000 2.6 190 23:40 11.12.2019
2803 Haze 25 1009 83 5000 2.6 190 23:20 11.12.2019
2804 Haze 25 1008 78 5000 1.5 0 22:57 11.12.2019
2805 Haze 25 1008 78 5000 1 0 22:38 11.12.2019
2806 Haze 25 1008 78 5000 1 0 22:19 11.12.2019
2807 Haze 25 1008 78 5000 1.5 0 21:55 11.12.2019
2808 Haze 25 1009 74 5000 1.5 0 21:37 11.12.2019
2809 Haze 26 1009 74 5000 1.5 0 21:19 11.12.2019
2810 Haze 26 1009 74 5000 1.5 0 20:55 11.12.2019
2811 Haze 26 1009 74 5000 1 220 20:37 11.12.2019
2812 Haze 26 1009 74 5000 1 220 20:18 11.12.2019
2813 Haze 25 1009 78 5000 2.1 200 19:55 11.12.2019
2814 Clouds 25 1009 78 6000 1 0 19:36 11.12.2019
2815 Clouds 25 1009 78 6000 1 0 19:18 11.12.2019
2816 Clouds 25 1010 74 6000 1.5 160 18:40 11.12.2019
2817 Clouds 25 1010 74 6000 1.5 160 18:21 11.12.2019
2818 Clouds 25 1010 74 6000 1.5 160 18:21 11.12.2019
2819 Clouds 25 1010 78 6000 1 0 17:57 11.12.2019
2820 Clouds 25 1010 78 6000 1.5 0 17:38 11.12.2019
2821 Clouds 25 1010 78 6000 1.5 0 17:18 11.12.2019
2822 Clouds 25 1010 78 6000 2.1 0 16:56 11.12.2019
2823 Clouds 25 1010 78 6000 2.1 0 16:56 11.12.2019
2824 Clouds 25 1010 78 7000 2.1 0 16:38 11.12.2019
2825 Clouds 25 1010 78 7000 2.1 0 16:19 11.12.2019
2826 Clouds 25 1010 78 7000 2.6 200 15:57 11.12.2019
2827 Clouds 25 1010 78 7000 3.6 210 15:38 11.12.2019
2828 Clouds 25 1010 78 7000 3.6 210 15:20 11.12.2019
2829 Clouds 25 1010 78 8000 3.6 190 14:55 11.12.2019
2830 Clouds 25 1009 78 8000 2.6 0 14:37 11.12.2019
2831 Clouds 25 1009 78 8000 2.6 0 14:37 11.12.2019
2832 Clouds 25 1009 78 8000 3.6 200 14:19 11.12.2019
2833 Clouds 25 1009 78 8000 3.6 200 13:54 11.12.2019
2834 Clouds 25 1009 78 8000 2.6 0 13:36 11.12.2019
2835 Clouds 25 1009 78 8000 2.6 0 13:18 11.12.2019
2836 Clouds 25 1008 73 8000 3.1 190 12:54 11.12.2019
2837 Clouds 25 1008 78 7000 2.1 0 12:36 11.12.2019
2838 Clouds 25 1008 78 7000 2.1 0 12:36 11.12.2019
2839 Rain 24 1008 83 6000 5.1 160 12:18 11.12.2019
2840 Rain 24 1008 83 6000 5.1 160 11:54 11.12.2019
2841 Rain 27 1008 65 5000 7.7 180 11:36 11.12.2019
2842 Clouds 31 1007 62 8000 2.6 0 11:18 11.12.2019
2843 Clouds 31 1007 62 9000 3.1 360 10:40 11.12.2019
2844 Clouds 30 1007 62 9000 3.1 360 10:22 11.12.2019
2845 Clouds 31 1006 62 9000 4.6 350 09:58 11.12.2019
2846 Clouds 32 1006 59 10000 5.1 10 09:38 11.12.2019
2847 Clouds 32 1006 59 10000 5.1 10 09:20 11.12.2019
2848 Clouds 32 1007 59 10000 6.7 350 08:56 11.12.2019
2849 Clouds 33 1007 59 9000 6.2 10 08:37 11.12.2019
2850 Clouds 33 1007 59 9000 6.2 10 08:18 11.12.2019
2851 Clouds 33 1008 55 9000 5.1 10 07:44 11.12.2019
2852 Clouds 33 1008 55 9000 5.1 10 07:25 11.12.2019
2853 Clouds 33 1009 59 8000 5.1 10 06:46 11.12.2019
2854 Clouds 33 1009 59 7000 4.6 20 06:25 11.12.2019
2855 Clouds 34 1009 59 7000 3.6 360 05:56 11.12.2019
2856 Clouds 33 1010 59 8000 4.1 20 05:36 11.12.2019
2857 Clouds 32 1010 59 9000 3.6 30 04:53 11.12.2019
2858 Clouds 33 1011 62 9000 2.1 0 03:41 11.12.2019
2859 Clouds 31 1010 70 6000 2.6 0 02:39 11.12.2019
2860 Clouds 27 1010 78 5000 1 0 01:22 11.12.2019
2861 Haze 26 1009 88 3000 2.6 0 00:45 11.12.2019
2862 Haze 26 1009 88 3000 2.6 0 00:19 11.12.2019
2863 Haze 25 1009 88 3000 2.6 210 23:46 10.12.2019
2864 Haze 25 1009 88 3000 2.6 210 23:27 10.12.2019
2865 Haze 25 1008 88 3500 2.1 0 22:57 10.12.2019
2866 Haze 25 1008 83 4600 2.1 220 22:39 10.12.2019
2867 Haze 25 1008 83 4600 2.1 220 22:21 10.12.2019
2868 Haze 25 1008 83 4500 1 220 21:54 10.12.2019
2869 Haze 25 1008 83 4500 1 220 21:54 10.12.2019
2870 Haze 25 1008 83 4000 1 220 21:36 10.12.2019
2871 Haze 25 1008 83 4000 1 220 21:18 10.12.2019
2872 Haze 25 1009 83 4000 1.5 260 20:56 10.12.2019
2873 Clouds 25 1009 83 6000 2.1 230 20:37 10.12.2019
2874 Clouds 25 1009 83 6000 2.1 230 20:18 10.12.2019
2875 Haze 25 1009 83 4000 2.6 200 19:44 10.12.2019
2876 Clouds 26 1009 78 5000 3.1 230 19:26 10.12.2019
2877 Clouds 26 1009 78 6000 3.1 240 18:59 10.12.2019
2878 Clouds 26 1010 83 7000 3.6 240 18:39 10.12.2019
2879 Clouds 26 1010 83 7000 3.6 240 18:20 10.12.2019
2880 Clouds 26 1010 83 7000 2.6 260 17:57 10.12.2019
2881 Clouds 26 1010 88 7000 3.1 250 17:39 10.12.2019
2882 Clouds 26 1010 88 7000 3.1 250 17:19 10.12.2019
2883 Clouds 26 1010 83 7000 2.1 310 16:43 10.12.2019
2884 Clouds 26 1010 83 7000 2.1 310 16:20 10.12.2019
2885 Clouds 27 1010 78 7000 1.5 320 15:58 10.12.2019
2886 Clouds 27 1010 78 8000 1 0 15:37 10.12.2019
2887 Clouds 27 1010 78 8000 1 0 15:18 10.12.2019
2888 Clouds 27 1010 78 8000 1 0 14:55 10.12.2019
2889 Clouds 26 1010 78 8000 1 0 14:37 10.12.2019
2890 Clouds 26 1010 78 8000 1 0 14:19 10.12.2019
2891 Clouds 27 1009 74 8000 1 10 13:56 10.12.2019
2892 Clouds 27 1009 69 8000 1.5 0 13:38 10.12.2019
2893 Clouds 27 1009 69 8000 1.5 0 13:18 10.12.2019
2894 Clouds 27 1008 69 9000 1.5 0 12:40 10.12.2019
2895 Clouds 27 1008 69 9000 1.5 0 12:22 10.12.2019
2896 Clouds 28 1008 69 10000 1 0 11:44 10.12.2019
2897 Clouds 28 1008 66 10000 1.5 310 11:25 10.12.2019
2898 Clouds 28 1008 69 10000 1.5 0 10:57 10.12.2019
2899 Clouds 28 1008 69 10000 2.6 290 10:39 10.12.2019
2900 Clouds 28 1008 69 10000 2.6 290 10:39 10.12.2019
2901 Clouds 28 1008 69 10000 2.6 290 10:21 10.12.2019
2902 Clouds 29 1008 69 10000 1.5 0 09:56 10.12.2019
2903 Clouds 29 1008 69 10000 2.1 310 09:38 10.12.2019
2904 Clouds 29 1008 69 10000 2.1 310 09:38 10.12.2019
2905 Clouds 29 1008 69 10000 2.1 310 09:38 10.12.2019
2906 Clouds 29 1008 69 10000 2.1 310 09:20 10.12.2019
2907 Clouds 29 1008 69 10000 1.5 360 08:57 10.12.2019
2908 Clouds 29 1008 69 10000 2.1 20 08:38 10.12.2019
2909 Clouds 29 1008 69 10000 2.1 20 08:19 10.12.2019
2910 Clouds 28 1009 78 10000 2.1 10 07:44 10.12.2019
2911 Clouds 28 1009 78 10000 3.1 10 07:26 10.12.2019
2912 Clouds 27 1010 83 10000 3.1 350 06:49 10.12.2019
2913 Clouds 27 1011 78 10000 5.1 30 06:24 10.12.2019
2914 Clouds 28 1011 69 9000 2.1 0 05:55 10.12.2019
2915 Rain 28 1011 74 5000 6.2 360 04:58 10.12.2019
2916 Rain 31 1011 83 3000 4.1 250 03:47 10.12.2019
2917 Haze 30 1011 74 5000 1.5 0 02:48 10.12.2019
2918 Haze 29 1011 70 4000 0.5 0 01:51 10.12.2019
2919 Haze 28 1011 83 3500 2.1 0 01:26 10.12.2019
2920 Haze 28 1010 78 4000 2.1 220 00:49 10.12.2019
2921 Haze 28 1010 78 4000 2.6 210 00:24 10.12.2019
2922 Haze 27 1010 83 4500 2.1 210 23:43 09.12.2019
2923 Haze 27 1010 83 4500 2.1 210 23:24 09.12.2019
2924 Haze 27 1010 88 4500 1.5 220 22:59 09.12.2019
2925 Haze 27 1010 83 4500 1 220 22:40 09.12.2019
2926 Haze 27 1010 83 4500 1 220 22:21 09.12.2019
2927 Haze 27 1009 83 5000 1.5 190 21:58 09.12.2019
2928 Haze 27 1009 83 5000 1.5 240 21:39 09.12.2019
2929 Haze 27 1009 83 5000 1.5 240 21:19 09.12.2019
2930 Haze 27 1010 83 5000 1.5 230 20:57 09.12.2019
2931 Haze 27 1010 83 5000 2.1 200 20:39 09.12.2019
2932 Haze 27 1010 83 5000 2.1 200 20:20 09.12.2019
2933 Haze 28 1010 78 5000 1 220 19:57 09.12.2019
2934 Haze 28 1010 78 5000 0.5 200 19:39 09.12.2019
2935 Haze 28 1010 78 5000 0.5 200 19:20 09.12.2019
2936 Haze 28 1010 78 5000 2.1 190 18:59 09.12.2019
2937 Haze 28 1011 78 5000 1.5 200 18:40 09.12.2019
2938 Haze 28 1011 78 5000 1.5 200 18:20 09.12.2019
2939 Haze 28 1011 78 5000 2.1 210 17:59 09.12.2019
2940 Haze 28 1011 78 4000 2.1 190 17:40 09.12.2019
2941 Haze 28 1011 78 4000 2.1 190 17:21 09.12.2019
2942 Haze 27 1011 78 3500 2.1 190 16:56 09.12.2019
2943 Haze 28 1011 74 3500 1.5 0 16:38 09.12.2019
2944 Haze 28 1011 74 3500 1.5 0 16:20 09.12.2019
2945 Haze 28 1011 74 3500 1.5 0 16:20 09.12.2019
2946 Haze 27 1011 78 3500 1 250 15:56 09.12.2019
2947 Haze 27 1011 78 3500 1 250 15:56 09.12.2019
2948 Haze 27 1011 74 3500 1.5 260 15:37 09.12.2019
2949 Haze 28 1011 74 3500 1.5 260 15:19 09.12.2019
2950 Haze 28 1010 74 4000 2.6 260 14:58 09.12.2019
2951 Haze 28 1010 74 4000 1.5 280 14:39 09.12.2019
2952 Haze 28 1010 74 4000 1.5 280 14:18 09.12.2019
2953 Haze 28 1010 74 4000 2.1 270 13:55 09.12.2019
2954 Haze 28 1009 74 4500 2.6 0 13:36 09.12.2019
2955 Haze 27 1009 74 4500 2.6 0 13:18 09.12.2019
2956 Haze 27 1009 78 5000 2.1 0 12:54 09.12.2019
2957 Thunderstorm 27 1009 74 6000 3.1 260 12:36 09.12.2019
2958 Clouds 28 1008 74 8000 2.6 310 12:18 09.12.2019
2959 Clouds 28 1008 74 9000 3.1 290 11:40 09.12.2019
2960 Clouds 28 1008 74 9000 3.1 290 11:21 09.12.2019
2961 Clouds 28 1008 70 10000 3.1 300 10:57 09.12.2019
2962 Clouds 29 1007 70 10000 3.1 330 10:38 09.12.2019
2963 Clouds 29 1007 70 10000 4.1 340 10:19 09.12.2019
2964 Clouds 29 1008 70 10000 5.1 340 09:44 09.12.2019
2965 Clouds 30 1008 70 10000 5.1 340 09:25 09.12.2019
2966 Clouds 30 1008 66 10000 5.7 330 08:57 09.12.2019
2967 Clouds 30 1009 70 10000 4.6 350 08:39 09.12.2019
2968 Clouds 30 1009 70 10000 4.6 350 08:20 09.12.2019
2969 Clouds 31 1009 66 10000 4.1 20 07:52 09.12.2019
2970 Clouds 31 1009 55 10000 6.7 20 07:33 09.12.2019
2971 Clouds 31 1009 59 10000 6.7 20 06:58 09.12.2019
2972 Clouds 31 1010 55 10000 5.1 20 06:31 09.12.2019
2973 Clouds 33 1010 55 9000 3.6 360 05:48 09.12.2019
2974 Clouds 31 1010 55 7000 1.5 190 05:23 09.12.2019
2975 Clouds 31 1011 59 8000 1.5 0 04:28 09.12.2019
2976 Haze 30 1012 66 5000 2.6 0 02:29 09.12.2019
2977 Haze 28 1012 74 5000 2.6 0 01:47 09.12.2019
2978 Haze 27 1011 74 5000 1.5 0 00:58 09.12.2019
2979 Haze 27 1011 78 5000 2.1 180 00:33 09.12.2019
2980 Haze 26 1011 78 5000 2.6 180 23:57 08.12.2019
2981 Haze 26 1011 78 5000 1 190 23:37 08.12.2019
2982 Haze 26 1011 78 5000 1 190 23:19 08.12.2019
2983 Haze 26 1010 78 5000 1.5 200 22:56 08.12.2019
2984 Haze 26 1010 78 4500 1 190 22:38 08.12.2019
2985 Haze 26 1010 78 4500 1 190 22:18 08.12.2019
2986 Haze 26 1010 78 5000 1 200 21:56 08.12.2019
2987 Haze 26 1010 78 5000 1 190 21:37 08.12.2019
2988 Haze 26 1010 78 5000 1 190 21:19 08.12.2019
2989 Haze 26 1010 78 5000 1.5 180 20:56 08.12.2019
2990 Haze 26 1010 78 5000 1.5 210 20:37 08.12.2019
2991 Haze 26 1010 78 5000 1.5 210 20:19 08.12.2019
2992 Haze 26 1010 78 5000 1.5 210 20:19 08.12.2019
2993 Haze 26 1011 78 5000 2.1 220 19:55 08.12.2019
2994 Haze 26 1011 78 5000 1.5 210 19:37 08.12.2019
2995 Haze 26 1011 78 5000 1.5 210 19:19 08.12.2019
2996 Haze 27 1011 78 5000 2.1 240 18:54 08.12.2019
2997 Haze 27 1011 78 5000 1.5 270 18:36 08.12.2019
2998 Haze 27 1011 78 5000 1.5 270 18:18 08.12.2019
2999 Haze 27 1012 78 5000 1 0 17:55 08.12.2019
3000 Haze 27 1012 78 5000 1.5 0 17:37 08.12.2019
3001 Haze 26 1012 78 5000 1.5 0 17:19 08.12.2019
3002 Haze 26 1012 78 5000 1.5 220 16:55 08.12.2019
3003 Clouds 26 1012 78 6000 1.5 0 16:37 08.12.2019
3004 Clouds 26 1012 78 6000 1.5 0 16:18 08.12.2019
3005 Clouds 26 1012 83 6000 1 270 15:38 08.12.2019
3006 Clouds 26 1012 83 6000 1 270 15:19 08.12.2019
3007 Clouds 26 1012 83 6000 1 270 15:19 08.12.2019
3008 Clouds 26 1012 78 6000 1.5 0 14:58 08.12.2019
3009 Clouds 26 1012 74 6000 1 360 14:39 08.12.2019
3010 Clouds 27 1012 74 6000 1 360 14:21 08.12.2019
3011 Clouds 27 1011 74 6000 1 50 13:54 08.12.2019
3012 Clouds 27 1011 74 9000 0.5 0 13:36 08.12.2019
3013 Clouds 27 1011 74 9000 0.5 0 13:18 08.12.2019
3014 Clouds 27 1010 74 7000 2.1 340 12:41 08.12.2019
3015 Clouds 28 1010 74 7000 2.1 340 12:23 08.12.2019
3016 Clouds 28 1010 74 9000 2.6 360 11:59 08.12.2019
3017 Clouds 28 1009 70 10000 4.1 350 11:38 08.12.2019
3018 Clouds 29 1009 70 10000 4.1 350 11:19 08.12.2019
3019 Clouds 29 1009 70 10000 3.6 320 10:58 08.12.2019
3020 Clouds 30 1008 70 6000 2.1 360 10:38 08.12.2019
3021 Clouds 30 1008 70 6000 2.1 360 10:19 08.12.2019
3022 Clouds 31 1009 66 10000 4.1 340 09:56 08.12.2019
3023 Clouds 31 1009 66 10000 4.1 320 09:37 08.12.2019
3024 Clouds 31 1009 66 10000 4.1 320 09:37 08.12.2019
3025 Clouds 31 1009 66 10000 4.1 320 09:19 08.12.2019
3026 Clouds 31 1009 66 10000 4.1 320 09:19 08.12.2019
3027 Clouds 31 1009 70 10000 4.1 340 08:57 08.12.2019
3028 Clouds 31 1009 70 10000 4.1 340 08:57 08.12.2019
3029 Clouds 30 1009 70 10000 4.6 340 08:36 08.12.2019
3030 Clouds 30 1009 70 10000 4.6 340 08:18 08.12.2019
3031 Clouds 32 1010 70 10000 5.1 340 07:42 08.12.2019
3032 Clouds 32 1010 70 10000 5.1 340 07:19 08.12.2019
3033 Clouds 32 1010 70 10000 4.6 330 06:47 08.12.2019
3034 Clouds 31 1011 70 10000 5.1 320 06:22 08.12.2019
3035 Clouds 31 1011 70 10000 4.6 330 05:35 08.12.2019
3036 Clouds 31 1012 70 10000 3.6 330 04:59 08.12.2019
3037 Clouds 31 1012 74 10000 3.1 340 03:47 08.12.2019
3038 Clouds 31 1012 74 10000 3.1 330 03:21 08.12.2019
3039 Clouds 30 1012 83 9000 1 0 02:34 08.12.2019
3040 Clouds 28 1012 83 7000 2.1 0 01:54 08.12.2019
3041 Clouds 27 1012 88 6000 2.6 240 01:19 08.12.2019
3042 Haze 26 1011 94 5000 1.5 210 00:39 08.12.2019
3043 Haze 26 1011 94 5000 1.5 210 00:19 08.12.2019
3044 Haze 25 1011 94 5000 1 260 23:40 07.12.2019
3045 Haze 25 1011 94 5000 1 260 23:21 07.12.2019
3046 Haze 25 1010 94 5000 1.5 310 22:56 07.12.2019
3047 Thunderstorm 25 1010 94 5000 2.6 260 22:38 07.12.2019
3048 Thunderstorm 24 1010 94 5000 2.6 260 22:20 07.12.2019
3049 Thunderstorm 26 1011 83 5000 3.6 310 21:56 07.12.2019
3050 Thunderstorm 26 1010 88 4000 4.6 310 21:38 07.12.2019
3051 Thunderstorm 26 1010 88 4000 4.6 310 21:38 07.12.2019
3052 Thunderstorm 26 1010 88 4000 4.6 310 21:38 07.12.2019
3053 Thunderstorm 26 1010 88 4000 4.6 310 21:19 07.12.2019
3054 Mist 26 1010 88 3300 1.5 0 20:59 07.12.2019
3055 Mist 26 1010 88 3400 1.5 190 20:36 07.12.2019
3056 Mist 26 1010 88 3400 1.5 190 20:18 07.12.2019
3057 Mist 26 1010 88 3600 1.5 190 19:56 07.12.2019
3058 Mist 26 1011 88 3500 2.6 170 19:38 07.12.2019
3059 Mist 26 1011 88 3500 2.6 170 19:20 07.12.2019
3060 Mist 26 1011 88 3100 2.6 170 18:44 07.12.2019
3061 Mist 26 1011 88 3000 2.6 180 18:19 07.12.2019
3062 Mist 26 1012 88 3500 2.6 190 17:58 07.12.2019
3063 Haze 26 1012 83 3500 2.1 0 17:40 07.12.2019
3064 Haze 27 1012 83 3500 2.1 0 17:21 07.12.2019
3065 Haze 27 1012 83 3500 1.5 0 16:56 07.12.2019
3066 Rain 27 1012 83 5000 1.5 0 16:38 07.12.2019
3067 Rain 27 1012 83 5000 1.5 0 16:19 07.12.2019
3068 Haze 27 1012 83 4000 1 0 15:56 07.12.2019
3069 Haze 27 1013 83 4000 0.5 0 15:38 07.12.2019
3070 Haze 27 1013 83 4000 0.5 0 15:18 07.12.2019
3071 Clouds 26 1012 83 7000 1.5 0 14:42 07.12.2019
3072 Clouds 27 1012 83 7000 1.5 0 14:19 07.12.2019
3073 Clouds 27 1011 83 7000 1.5 0 13:55 07.12.2019
3074 Clouds 27 1011 83 7000 1 0 13:37 07.12.2019
3075 Clouds 26 1011 83 7000 1 0 13:18 07.12.2019
3076 Clouds 26 1010 83 7000 1.5 0 12:41 07.12.2019
3077 Clouds 26 1010 83 7000 1.5 0 12:22 07.12.2019
3078 Clouds 26 1010 83 7000 1.5 0 11:58 07.12.2019
3079 Clouds 26 1009 83 7000 2.6 0 11:40 07.12.2019
3080 Clouds 26 1009 83 7000 2.6 0 11:21 07.12.2019
3081 Clouds 26 1009 88 6000 2.6 320 10:38 07.12.2019
3082 Clouds 26 1009 88 6000 2.6 320 10:20 07.12.2019
3083 Rain 26 1009 88 6000 4.1 320 09:58 07.12.2019
3084 Thunderstorm 26 1009 94 5000 5.1 330 09:37 07.12.2019
3085 Thunderstorm 29 1009 74 8000 4.6 300 09:18 07.12.2019
3086 Clouds 29 1010 66 9000 6.7 310 08:41 07.12.2019
3087 Clouds 30 1010 66 9000 6.7 310 08:21 07.12.2019
3088 Clouds 30 1010 70 9000 6.7 320 07:46 07.12.2019
3089 Clouds 30 1010 70 6000 4.1 310 07:26 07.12.2019
3090 Clouds 30 1010 70 10000 4.1 300 06:50 07.12.2019
3091 Clouds 30 1011 70 10000 2.6 300 06:25 07.12.2019
3092 Clouds 29 1012 74 6000 1.5 260 05:34 07.12.2019
3093 Haze 28 1012 83 5000 3.1 250 04:19 07.12.2019
3094 Clouds 28 1012 74 8000 3.1 270 03:44 07.12.2019
3095 Clouds 27 1012 83 8000 3.1 250 02:21 07.12.2019
3096 Clouds 26 1012 88 6000 3.1 260 01:35 07.12.2019
3097 Clouds 26 1011 94 8000 5.1 270 00:55 07.12.2019
3098 Clouds 26 1011 94 7000 4.1 280 00:20 07.12.2019
3099 Clouds 26 1011 94 7000 4.1 300 23:56 06.12.2019
3100 Rain 26 1010 94 6000 3.1 300 23:38 06.12.2019
3101 Rain 26 1010 94 6000 3.1 300 23:18 06.12.2019
3102 Thunderstorm 26 1010 88 8000 3.6 290 22:38 06.12.2019
3103 Thunderstorm 26 1010 88 8000 3.6 290 22:20 06.12.2019
3104 Thunderstorm 26 1010 88 7000 3.6 280 21:58 06.12.2019
3105 Thunderstorm 26 1010 88 7000 3.6 330 21:39 06.12.2019
3106 Thunderstorm 26 1010 88 7000 3.6 330 21:20 06.12.2019
3107 Thunderstorm 26 1010 88 7000 3.1 350 20:43 06.12.2019
3108 Thunderstorm 26 1010 88 7000 3.1 350 20:25 06.12.2019
3109 Thunderstorm 26 1010 83 7000 2.6 0 19:59 06.12.2019
3110 Thunderstorm 26 1010 78 7000 3.6 220 19:40 06.12.2019
3111 Thunderstorm 26 1010 78 7000 3.6 220 19:22 06.12.2019
3112 Thunderstorm 27 1010 74 7000 3.6 210 18:57 06.12.2019
3113 Clouds 26 1010 78 7000 2.6 0 18:39 06.12.2019
3114 Clouds 27 1010 78 7000 2.6 0 18:20 06.12.2019
3115 Clouds 27 1010 74 7000 3.1 150 17:56 06.12.2019
3116 Clouds 27 1010 74 7000 3.1 150 17:56 06.12.2019
3117 Clouds 27 1010 74 7000 2.6 0 17:38 06.12.2019
3118 Clouds 27 1010 74 7000 2.6 0 17:19 06.12.2019
3119 Clouds 27 1010 74 7000 2.6 0 17:19 06.12.2019
3120 Clouds 27 1011 74 7000 4.1 160 16:43 06.12.2019
3121 Clouds 27 1011 74 7000 4.1 160 16:25 06.12.2019
3122 Clouds 27 1011 74 7000 5.7 170 15:59 06.12.2019
3123 Clouds 27 1011 74 7000 5.1 170 15:40 06.12.2019
3124 Clouds 26 1011 74 7000 5.1 170 15:19 06.12.2019
3125 Clouds 27 1011 79 7000 2.6 0 14:57 06.12.2019
3126 Clouds 27 1011 74 7000 1.5 0 14:38 06.12.2019
3127 Clouds 27 1011 74 7000 1.5 0 14:38 06.12.2019
3128 Clouds 27 1011 74 7000 1.5 0 14:19 06.12.2019
3129 Thunderstorm 28 1010 83 8000 1 0 13:43 06.12.2019
3130 Thunderstorm 28 1010 83 8000 1 0 13:43 06.12.2019
3131 Thunderstorm 28 1010 83 8000 1 0 13:25 06.12.2019
3132 Clouds 28 1009 74 8000 1.5 0 12:43 06.12.2019
3133 Clouds 28 1009 74 8000 1.5 0 12:23 06.12.2019
3134 Clouds 28 1009 74 8000 1.5 0 12:23 06.12.2019
3135 Clouds 29 1008 74 8000 3.1 20 11:58 06.12.2019
3136 Clouds 30 1008 70 9000 3.1 350 11:40 06.12.2019
3137 Clouds 29 1008 70 9000 3.1 350 11:22 06.12.2019
3138 Clouds 30 1008 70 9000 3.6 10 10:44 06.12.2019
3139 Clouds 30 1008 70 9000 3.6 10 10:22 06.12.2019
3140 Clouds 30 1008 70 9000 4.6 350 09:59 06.12.2019
3141 Clouds 30 1008 70 8000 4.1 350 09:38 06.12.2019
3142 Clouds 30 1008 70 8000 4.1 350 09:20 06.12.2019
3143 Clouds 30 1008 70 8000 5.1 350 08:57 06.12.2019
3144 Clouds 30 1008 70 7000 4.1 350 08:38 06.12.2019
3145 Clouds 30 1008 70 7000 4.1 350 08:20 06.12.2019
3146 Clouds 29 1009 83 8000 3.1 310 07:37 06.12.2019
3147 Clouds 29 1009 83 8000 3.1 310 07:19 06.12.2019
3148 Rain 28 1010 88 5000 3.6 290 06:30 06.12.2019
3149 Thunderstorm 28 1010 88 5000 4.1 300 05:54 06.12.2019
3150 Thunderstorm 29 1011 88 4000 3.1 360 05:35 06.12.2019
3151 Haze 28 1011 83 5000 3.6 290 02:19 06.12.2019
3152 Haze 27 1011 88 4000 2.46 307 01:43 06.12.2019
3153 Haze 27 1010 88 4000 1 300 00:48 06.12.2019
3154 Haze 27 1010 94 4000 3.83 313 00:22 06.12.2019
3155 Haze 27 1010 83 4000 1 0 23:49 05.12.2019
3156 Haze 26 1009 94 5000 3.25 312 23:19 05.12.2019
3157 Thunderstorm 26 1009 83 4000 1.5 210 22:58 05.12.2019
3158 Haze 26 1009 94 5000 3.25 312 22:38 05.12.2019
3159 Haze 26 1009 94 5000 3.25 312 22:18 05.12.2019
3160 Haze 26 1009 94 5000 3.25 312 22:18 05.12.2019
3161 Haze 26 1009 94 5000 3.25 312 22:18 05.12.2019
3162 Haze 26 1008 88 5000 1 0 21:55 05.12.2019
3163 Haze 26 1009 88 5000 1.5 260 21:36 05.12.2019
3164 Haze 26 1009 88 5000 1.5 260 21:18 05.12.2019
3165 Haze 27 1008 83 5000 1.5 0 20:40 05.12.2019
3166 Haze 27 1008 83 5000 1.5 0 20:40 05.12.2019
3167 Haze 27 1009 83 5000 2.1 0 20:21 05.12.2019
3168 Haze 27 1010 83 5000 3.1 340 19:59 05.12.2019
3169 Thunderstorm 27 1010 83 5000 1.5 0 19:40 05.12.2019
3170 Thunderstorm 27 1010 83 5000 1.5 0 19:21 05.12.2019
3171 Haze 27 1009 88 5000 2.1 210 18:57 05.12.2019
3172 Haze 27 1010 88 5000 2.1 300 18:38 05.12.2019
3173 Haze 27 1010 88 5000 2.1 300 18:20 05.12.2019
3174 Haze 27 1011 88 5000 2.1 0 17:40 05.12.2019
3175 Haze 27 1011 88 5000 2.1 0 17:20 05.12.2019
3176 Rain 27 1011 88 5000 2.1 310 16:58 05.12.2019
3177 Rain 27 1011 88 5000 3.1 290 16:39 05.12.2019
3178 Rain 27 1011 88 5000 3.1 290 16:21 05.12.2019
3179 Rain 27 1011 83 5000 3.6 300 15:58 05.12.2019
3180 Clouds 27 1012 78 6000 2.1 330 15:38 05.12.2019
3181 Clouds 28 1012 78 6000 2.1 330 15:20 05.12.2019
3182 Clouds 29 1011 70 7000 3.1 310 14:56 05.12.2019
3183 Clouds 29 1011 70 7000 3.1 310 14:56 05.12.2019
3184 Rain 28 1011 83 6000 4.1 200 14:37 05.12.2019
3185 Rain 27 1011 83 6000 4.1 200 14:19 05.12.2019
3186 Rain 27 1011 83 6000 4.1 200 14:19 05.12.2019
3187 Clouds 28 1011 74 8000 3.6 270 13:56 05.12.2019
3188 Rain 28 1010 74 6000 2.1 310 13:38 05.12.2019
3189 Rain 29 1010 74 6000 2.1 310 13:19 05.12.2019
3190 Clouds 29 1010 70 8000 3.1 330 12:57 05.12.2019
3191 Rain 30 1009 74 6000 3.6 10 12:38 05.12.2019
3192 Rain 30 1009 74 6000 3.6 10 12:20 05.12.2019
3193 Clouds 31 1008 66 6000 3.1 300 11:39 05.12.2019
3194 Clouds 30 1008 66 6000 3.1 300 11:21 05.12.2019
3195 Clouds 31 1008 62 10000 4.6 350 10:58 05.12.2019
3196 Clouds 32 1008 62 10000 5.1 330 10:40 05.12.2019
3197 Clouds 32 1008 62 10000 5.1 330 10:19 05.12.2019
3198 Clouds 32 1008 62 10000 5.7 330 09:55 05.12.2019
3199 Clouds 33 1008 62 10000 6.2 340 09:37 05.12.2019
3200 Clouds 32 1008 62 10000 6.2 340 09:18 05.12.2019
3201 Clouds 32 1008 66 7000 5.1 320 08:39 05.12.2019
3202 Clouds 32 1008 66 7000 5.1 320 08:20 05.12.2019
3203 Clouds 32 1009 62 9000 6.2 340 07:58 05.12.2019
3204 Clouds 32 1009 62 6000 4.6 330 07:39 05.12.2019
3205 Clouds 32 1009 62 6000 4.6 330 07:20 05.12.2019
3206 Clouds 32 1010 59 10000 6.2 330 06:46 05.12.2019
3207 Clouds 31 1010 70 6000 3.1 270 06:23 05.12.2019
3208 Clouds 32 1011 62 10000 6.7 340 05:49 05.12.2019
3209 Haze 31 1011 62 5000 1.5 90 05:24 05.12.2019
3210 Haze 31 1012 74 5000 1.95 325 04:33 05.12.2019
3211 Haze 29 1012 83 5000 1.95 325 03:31 05.12.2019
3212 Clouds 29 1012 70 8000 4.1 300 02:41 05.12.2019
3213 Haze 28 1012 88 5000 2.6 260 02:21 05.12.2019
3214 Haze 27 1012 78 5000 4.1 270 01:49 05.12.2019
3215 Haze 26 1011 94 5000 1.5 260 01:22 05.12.2019
3216 Haze 26 1010 83 5000 3.6 270 00:38 05.12.2019
3217 Haze 26 1010 83 5000 3.6 270 00:20 05.12.2019
3218 Haze 27 1010 78 5000 1 0 23:45 04.12.2019
3219 Haze 26 1010 83 5000 2.1 270 23:22 04.12.2019
3220 Haze 26 1010 83 5000 1.5 280 22:57 04.12.2019
3221 Haze 26 1010 83 5000 0.5 0 22:38 04.12.2019
3222 Haze 26 1010 83 5000 0.5 0 22:19 04.12.2019
3223 Haze 26 1010 83 5000 1.5 360 21:56 04.12.2019
3224 Haze 26 1010 83 5000 1.5 360 21:37 04.12.2019
3225 Haze 26 1010 83 5000 1.5 360 21:18 04.12.2019
3226 Haze 26 1010 78 5000 2.1 360 20:56 04.12.2019
3227 Haze 26 1010 83 5000 2.1 220 20:38 04.12.2019
3228 Haze 26 1010 83 5000 2.1 220 20:19 04.12.2019
3229 Clouds 26 1009 78 6000 1.5 200 19:42 04.12.2019
3230 Haze 26 1010 78 5000 2.1 0 19:24 04.12.2019
3231 Haze 25 1010 83 5000 3.6 220 18:59 04.12.2019
3232 Haze 25 1010 83 5000 3.6 220 18:41 04.12.2019
3233 Haze 26 1010 78 5000 4.1 170 18:22 04.12.2019
3234 Haze 26 1010 74 5000 3.6 170 17:58 04.12.2019
3235 Haze 26 1010 78 5000 4.1 170 17:39 04.12.2019
3236 Haze 26 1010 78 5000 4.1 170 17:19 04.12.2019
3237 Rain 26 1011 78 5000 5.1 170 16:56 04.12.2019
3238 Thunderstorm 26 1011 74 5000 5.1 160 16:38 04.12.2019
3239 Thunderstorm 26 1011 74 5000 5.1 160 16:38 04.12.2019
3240 Thunderstorm 26 1011 74 5000 5.1 160 16:19 04.12.2019
3241 Thunderstorm 26 1011 74 5000 5.1 160 16:19 04.12.2019
3242 Thunderstorm 25 1011 78 5000 3.6 170 15:55 04.12.2019
3243 Thunderstorm 25 1012 78 5000 5.7 140 15:36 04.12.2019
3244 Thunderstorm 25 1012 78 5000 5.7 140 15:18 04.12.2019
3245 Thunderstorm 26 1012 69 8000 7.2 160 14:42 04.12.2019
3246 Thunderstorm 27 1011 70 8000 4.1 220 14:23 04.12.2019
3247 Clouds 28 1010 70 8000 4.6 250 13:57 04.12.2019
3248 Thunderstorm 28 1009 79 4000 5.1 220 13:37 04.12.2019
3249 Thunderstorm 28 1009 79 4000 5.1 220 13:19 04.12.2019
3250 Clouds 30 1009 66 8000 4.1 290 12:44 04.12.2019
3251 Thunderstorm 30 1008 66 6000 1.5 296 12:24 04.12.2019
3252 Clouds 31 1007 70 10000 4.6 320 11:55 04.12.2019
3253 Clouds 31 1007 66 6000 2.6 36 11:36 04.12.2019
3254 Clouds 31 1007 66 6000 2.6 36 11:18 04.12.2019
3255 Clouds 32 1007 62 10000 5.7 340 10:42 04.12.2019
3256 Clouds 33 1007 62 10000 5.7 340 10:22 04.12.2019
3257 Clouds 33 1006 62 10000 5.7 340 09:55 04.12.2019
3258 Clouds 33 1006 59 6000 5.1 360 09:36 04.12.2019
3259 Clouds 33 1006 59 6000 5.1 360 09:18 04.12.2019
3260 Clouds 33 1006 59 6000 5.1 360 09:18 04.12.2019
3261 Clouds 33 1007 56 6000 2.6 20 08:39 04.12.2019
3262 Clouds 33 1007 56 6000 2.6 20 08:19 04.12.2019
3263 Clouds 33 1008 59 10000 4.6 350 07:47 04.12.2019
3264 Clouds 33 1008 59 10000 4.6 350 07:47 04.12.2019
3265 Clouds 33 1008 62 6000 2.1 350 07:29 04.12.2019
3266 Clouds 33 1008 62 6000 2.6 270 06:34 04.12.2019
3267 Clouds 32 1009 62 10000 6.7 340 05:48 04.12.2019
3268 Clouds 32 1010 66 10000 5.1 330 04:58 04.12.2019
3269 Clouds 30 1011 70 8000 5.1 350 03:56 04.12.2019
3270 Clear 31 1010 74 6000 2.6 240 02:38 04.12.2019
3271 Haze 27 1010 83 5000 1.5 290 00:51 04.12.2019
3272 Haze 26 1009 88 5000 1 300 00:25 04.12.2019
3273 Haze 26 1009 83 4000 1 0 23:58 03.12.2019
3274 Clouds 26 1008 94 7000 1 270 23:40 03.12.2019
3275 Rain 26 1008 94 7000 1 270 23:19 03.12.2019
3276 Clouds 26 1008 78 6000 2.1 270 22:40 03.12.2019
3277 Clouds 26 1008 83 6000 2.1 250 22:19 03.12.2019
3278 Clouds 26 1008 78 6000 1.5 270 21:58 03.12.2019
3279 Clouds 26 1008 78 6000 1.5 250 21:38 03.12.2019
3280 Clouds 26 1008 78 6000 1.5 250 21:19 03.12.2019
3281 Clouds 26 1008 83 6000 1.5 0 20:58 03.12.2019
3282 Clouds 26 1009 83 6000 2.6 250 20:39 03.12.2019
3283 Clouds 26 1009 83 6000 2.6 250 20:18 03.12.2019
3284 Clouds 27 1009 83 8000 3.6 320 19:55 03.12.2019
3285 Clouds 27 1009 83 8000 3.1 280 19:37 03.12.2019
3286 Clouds 27 1009 83 8000 3.1 280 19:18 03.12.2019
3287 Clouds 27 1010 83 8000 3.6 250 18:56 03.12.2019
3288 Clouds 27 1009 83 8000 3.1 240 18:37 03.12.2019
3289 Clouds 27 1009 83 8000 3.1 240 18:19 03.12.2019
3290 Clouds 27 1009 83 8000 3.1 240 18:19 03.12.2019
3291 Clouds 27 1010 83 8000 2.6 270 17:55 03.12.2019
3292 Clouds 27 1010 83 8000 3.1 280 17:36 03.12.2019
3293 Clouds 27 1010 83 8000 3.1 280 17:18 03.12.2019
3294 Clouds 28 1010 74 8000 3.6 250 16:56 03.12.2019
3295 Clouds 28 1010 74 7000 2.6 260 16:36 03.12.2019
3296 Clouds 28 1010 74 7000 2.6 260 16:18 03.12.2019
3297 Clouds 27 1010 74 8000 3.6 270 15:41 03.12.2019
3298 Clouds 27 1010 74 7000 3.6 260 15:20 03.12.2019
3299 Clouds 27 1010 74 7000 3.1 270 14:59 03.12.2019
3300 Clouds 27 1010 74 7000 3.1 270 14:41 03.12.2019
3301 Clouds 28 1009 70 7000 2.6 280 14:19 03.12.2019
3302 Clouds 28 1009 70 7000 2.6 280 13:54 03.12.2019
3303 Rain 28 1009 74 8000 2.1 280 13:36 03.12.2019
3304 Rain 28 1009 74 8000 2.1 280 13:18 03.12.2019
3305 Clouds 28 1008 70 8000 6.2 250 12:38 03.12.2019
3306 Clouds 28 1008 70 8000 6.2 250 12:18 03.12.2019
3307 Clouds 29 1008 70 9000 3.6 310 11:58 03.12.2019
3308 Clouds 31 1007 62 9000 3.1 350 11:38 03.12.2019
3309 Clouds 30 1007 62 9000 3.1 350 11:20 03.12.2019
3310 Clouds 31 1006 59 10000 4.6 330 10:57 03.12.2019
3311 Clouds 32 1006 59 8000 3.6 330 10:38 03.12.2019
3312 Clouds 32 1006 59 8000 3.6 330 10:19 03.12.2019
3313 Clouds 32 1006 52 10000 4.1 330 09:45 03.12.2019
3314 Clouds 32 1007 55 10000 4.6 340 09:25 03.12.2019
3315 Clouds 31 1007 66 9000 5.1 350 08:59 03.12.2019
3316 Clouds 31 1007 70 6000 3.6 270 08:39 03.12.2019
3317 Clouds 31 1007 70 6000 3.6 270 08:21 03.12.2019
3318 Clouds 30 1008 62 9000 4.6 350 07:52 03.12.2019
3319 Rain 31 1008 79 5000 2.6 260 07:29 03.12.2019
3320 Clouds 31 1008 52 10000 7.2 350 06:56 03.12.2019
3321 Clouds 32 1009 83 1500 3.1 300 06:20 03.12.2019
3322 Clouds 33 1009 63 9000 6.2 340 05:55 03.12.2019
3323 Clouds 33 1010 62 9000 3.1 310 03:44 03.12.2019
3324 Haze 32 1010 66 5000 2.6 240 03:23 03.12.2019
3325 Haze 31 1010 70 5000 1.5 0 02:54 03.12.2019
3326 Haze 31 1010 79 4000 2.1 220 02:32 03.12.2019
3327 Haze 28 1010 78 5000 2.6 250 01:59 03.12.2019
3328 Clouds 27 1009 88 4000 2.1 250 01:39 03.12.2019
3329 Clouds 27 1009 88 4000 2.1 250 01:20 03.12.2019
3330 Haze 26 1009 83 5000 3.1 240 00:42 03.12.2019
3331 Haze 26 1009 83 5000 3.6 240 00:23 03.12.2019
3332 Haze 26 1009 83 5000 2.1 210 23:44 02.12.2019
3333 Haze 26 1008 88 4000 2.1 200 23:22 02.12.2019
3334 Haze 26 1008 88 4000 1.5 260 22:58 02.12.2019
3335 Haze 26 1008 88 4500 2.6 270 22:39 02.12.2019
3336 Haze 26 1008 88 4500 2.6 270 22:20 02.12.2019
3337 Haze 26 1008 83 5000 1.5 230 21:54 02.12.2019
3338 Haze 26 1008 83 5000 1.5 240 21:36 02.12.2019
3339 Haze 26 1008 83 5000 1.5 240 21:18 02.12.2019
3340 Clouds 26 1008 83 6000 1.5 190 20:54 02.12.2019
3341 Haze 26 1008 83 5000 2.1 230 20:36 02.12.2019
3342 Haze 26 1008 83 5000 2.1 230 20:18 02.12.2019
3343 Haze 26 1008 83 5000 2.6 230 19:41 02.12.2019
3344 Haze 26 1008 83 5000 2.1 210 19:21 02.12.2019
3345 Haze 27 1009 78 5000 2.1 230 18:55 02.12.2019
3346 Clouds 27 1009 83 6000 1.5 240 18:36 02.12.2019
3347 Clouds 26 1009 83 6000 1.5 240 18:18 02.12.2019
3348 Clouds 27 1009 78 6000 2.6 230 17:41 02.12.2019
3349 Clouds 27 1009 78 6000 2.6 230 17:21 02.12.2019
3350 Clouds 27 1010 78 6000 3.6 240 16:59 02.12.2019
3351 Clouds 27 1009 78 6000 2.6 260 16:39 02.12.2019
3352 Clouds 27 1009 78 6000 2.6 260 16:39 02.12.2019
3353 Clouds 27 1009 78 6000 2.6 260 16:18 02.12.2019
3354 Clouds 27 1009 78 6000 3.6 270 15:56 02.12.2019
3355 Clouds 27 1009 74 6000 2.6 240 15:38 02.12.2019
3356 Clouds 28 1009 74 6000 2.6 240 15:20 02.12.2019
3357 Clouds 27 1009 78 7000 4.1 260 14:55 02.12.2019
3358 Clouds 27 1009 78 7000 4.1 260 14:55 02.12.2019
3359 Clouds 27 1009 74 7000 3.6 270 14:37 02.12.2019
3360 Clouds 28 1009 74 7000 3.6 270 14:18 02.12.2019
3361 Clouds 28 1008 74 7000 3.1 280 13:54 02.12.2019
3362 Clouds 28 1008 74 8000 4.1 280 13:36 02.12.2019
3363 Clouds 29 1008 74 8000 4.1 280 13:18 02.12.2019
3364 Clouds 28 1007 70 8000 1.5 0 12:41 02.12.2019
3365 Clouds 29 1007 70 8000 1.5 0 12:20 02.12.2019
3366 Clouds 29 1007 66 9000 3.1 340 11:56 02.12.2019
3367 Clouds 29 1006 62 9000 2.1 350 11:37 02.12.2019
3368 Clouds 31 1006 62 9000 2.1 350 11:19 02.12.2019
3369 Clouds 31 1006 62 9000 2.1 350 11:19 02.12.2019
3370 Clouds 32 1006 59 9000 2.6 0 10:56 02.12.2019
3371 Clouds 32 1006 59 9000 3.1 350 10:38 02.12.2019
3372 Clouds 32 1006 59 9000 3.1 350 10:19 02.12.2019
3373 Clouds 32 1006 62 9000 2.6 0 09:41 02.12.2019
3374 Clouds 30 1006 59 9000 3.1 360 09:19 02.12.2019
3375 Clouds 31 1007 59 9000 3.1 10 08:58 02.12.2019
3376 Clouds 31 1007 59 9000 3.1 10 08:58 02.12.2019
3377 Clouds 31 1007 59 9000 3.6 10 08:40 02.12.2019
3378 Clouds 30 1007 59 9000 3.6 10 08:21 02.12.2019
3379 Clouds 30 1007 62 10000 4.6 20 07:44 02.12.2019
3380 Rain 32 1007 83 4000 4.1 250 07:23 02.12.2019
3381 Clouds 33 1008 56 10000 4.6 360 06:58 02.12.2019
3382 Rain 33 1008 52 6000 2.1 60 06:39 02.12.2019
3383 Clouds 33 1009 62 10000 2.6 0 05:36 02.12.2019
3384 Clouds 33 1009 55 10000 2.1 0 04:50 02.12.2019
3385 Clouds 30 1010 70 6000 1 0 02:55 02.12.2019
3386 Clouds 29 1010 70 7000 1.5 190 02:36 02.12.2019
3387 Clouds 28 1009 78 7000 1.5 250 01:28 02.12.2019
3388 Haze 27 1009 88 5000 2.6 250 00:59 02.12.2019
3389 Clouds 27 1008 88 6000 1 250 00:28 02.12.2019
3390 Haze 26 1008 88 5000 2.6 220 23:56 01.12.2019
3391 Clouds 26 1008 88 7000 0.3 105 23:38 01.12.2019
3392 Clouds 26 1008 88 7000 1.09 63 23:19 01.12.2019
3393 Haze 26 1008 88 5000 1.5 220 22:56 01.12.2019
3394 Haze 26 1008 88 5000 1 0 22:37 01.12.2019
3395 Haze 26 1008 88 5000 1 0 22:18 01.12.2019
3396 Haze 26 1008 88 5000 1.5 0 21:56 01.12.2019
3397 Haze 26 1008 88 5000 1.5 0 21:38 01.12.2019
3398 Haze 26 1008 88 5000 1.5 0 21:18 01.12.2019
3399 Haze 26 1008 88 5000 1 210 20:56 01.12.2019
3400 Haze 26 1008 88 5000 2.6 190 20:37 01.12.2019
3401 Haze 26 1008 88 5000 2.6 190 20:19 01.12.2019
3402 Haze 26 1009 94 5000 2.6 180 19:55 01.12.2019
3403 Haze 26 1008 88 5000 1.5 130 19:36 01.12.2019
3404 Haze 26 1008 88 5000 1.5 130 19:36 01.12.2019
3405 Haze 26 1008 88 5000 1.5 130 19:18 01.12.2019
3406 Haze 26 1008 88 5000 1.5 130 19:18 01.12.2019
3407 Haze 26 1008 94 5000 3.1 200 18:55 01.12.2019
3408 Haze 26 1008 94 5000 3.1 200 18:55 01.12.2019
3409 Haze 26 1009 94 5000 2.6 200 18:36 01.12.2019
3410 Haze 26 1009 94 5000 2.6 200 18:18 01.12.2019
3411 Rain 26 1009 88 5000 3.1 200 17:55 01.12.2019
3412 Thunderstorm 26 1009 88 3000 2.1 0 17:37 01.12.2019
3413 Thunderstorm 26 1009 88 3000 2.1 0 17:19 01.12.2019
3414 Thunderstorm 26 1009 94 5000 4.6 190 16:43 01.12.2019
3415 Thunderstorm 26 1009 94 5000 4.6 190 16:23 01.12.2019
3416 Thunderstorm 28 1009 83 4500 4.1 240 15:53 01.12.2019
3417 Clouds 28 1008 74 8000 4.6 200 15:33 01.12.2019
3418 Clouds 28 1008 74 8000 1 0 14:58 01.12.2019
3419 Clouds 28 1008 74 8000 1 0 14:58 01.12.2019
3420 Clouds 28 1008 74 8000 1 0 14:58 01.12.2019
3421 Clouds 28 1008 74 8000 1.5 330 14:37 01.12.2019
3422 Clouds 28 1008 74 8000 1.5 330 14:19 01.12.2019
3423 Clouds 28 1008 74 9000 1 340 13:40 01.12.2019
3424 Clouds 28 1008 74 9000 1 340 13:40 01.12.2019
3425 Clouds 29 1008 74 9000 1 340 13:21 01.12.2019
3426 Clouds 29 1008 74 9000 1 0 12:47 01.12.2019
3427 Clouds 30 1007 66 9000 1.5 0 12:19 01.12.2019
3428 Clouds 30 1006 66 9000 3.1 20 11:44 01.12.2019
3429 Clouds 30 1007 62 9000 3.1 20 11:24 01.12.2019
3430 Clouds 31 1006 59 10000 4.6 40 10:55 01.12.2019
3431 Clouds 31 1006 59 10000 4.6 40 10:55 01.12.2019
3432 Clouds 31 1006 55 10000 5.1 50 10:37 01.12.2019
3433 Clouds 32 1006 55 10000 5.1 50 10:18 01.12.2019
3434 Clouds 32 1005 52 10000 6.7 40 09:41 01.12.2019
3435 Clouds 32 1005 52 10000 6.7 40 09:21 01.12.2019
3436 Clouds 33 1006 52 10000 6.7 50 08:49 01.12.2019
3437 Clouds 34 1006 49 10000 6.2 50 08:22 01.12.2019
3438 Clouds 34 1007 52 10000 6.2 50 07:52 01.12.2019
3439 Clouds 34 1007 56 10000 6.2 40 07:32 01.12.2019
3440 Clouds 34 1007 56 10000 6.2 40 07:32 01.12.2019
3441 Clouds 34 1008 56 10000 6.2 60 06:58 01.12.2019
3442 Clouds 34 1008 56 10000 6.2 50 06:40 01.12.2019
3443 Clouds 34 1008 52 10000 6.2 60 05:55 01.12.2019
3444 Clouds 33 1009 59 10000 4.6 50 04:53 01.12.2019
3445 Clouds 33 1009 62 10000 4.1 60 04:21 01.12.2019
3446 Clouds 31 1009 70 8000 1.5 0 02:38 01.12.2019
3447 Clouds 31 1009 70 8000 1.5 0 02:20 01.12.2019
3448 Clouds 30 1009 74 7000 2.1 0 01:52 01.12.2019
3449 Clouds 27 1009 78 7000 2.6 0 01:26 01.12.2019
3450 Mist 26 1009 100 3000 2.12 137 00:44 01.12.2019
3451 Mist 26 1009 100 3000 2.12 137 00:24 01.12.2019
3452 Haze 26 1008 88 5000 2.6 200 23:44 30.11.2019
3453 Haze 26 1008 88 5000 2.1 200 23:24 30.11.2019
3454 Haze 26 1008 88 5000 3.1 210 22:58 30.11.2019
3455 Haze 26 1008 94 4000 2.44 134 22:39 30.11.2019
3456 Haze 26 1008 94 4000 2.44 134 22:20 30.11.2019
3457 Haze 26 1008 88 5000 3.1 200 21:47 30.11.2019
3458 Haze 26 1008 88 5000 2.6 210 21:28 30.11.2019
3459 Haze 26 1008 83 5000 2.6 220 20:58 30.11.2019
3460 Haze 26 1008 88 5000 2.1 240 20:39 30.11.2019
3461 Haze 26 1008 88 5000 2.1 240 20:19 30.11.2019
3462 Haze 26 1008 83 5000 1 0 19:56 30.11.2019
3463 Haze 26 1008 88 5000 2.6 170 19:38 30.11.2019
3464 Haze 26 1008 88 5000 2.6 170 19:20 30.11.2019
3465 Haze 26 1008 83 5000 3.1 170 18:58 30.11.2019
3466 Haze 26 1009 83 5000 2.6 180 18:38 30.11.2019
3467 Haze 26 1009 83 5000 2.6 180 18:19 30.11.2019
3468 Haze 26 1009 88 5000 2.1 170 17:58 30.11.2019
3469 Clouds 26 1009 83 6000 3.6 170 17:39 30.11.2019
3470 Clouds 26 1009 83 6000 3.6 170 17:20 30.11.2019
3471 Clouds 26 1009 83 6000 3.1 190 16:56 30.11.2019
3472 Haze 26 1009 88 5000 4.1 190 16:38 30.11.2019
3473 Haze 26 1009 88 5000 4.1 190 16:20 30.11.2019
3474 Rain 26 1010 83 5000 2.6 0 15:42 30.11.2019
3475 Rain 26 1010 83 5000 1.5 0 15:19 30.11.2019
3476 Rain 26 1010 83 5000 2.1 0 14:57 30.11.2019
3477 Rain 26 1009 83 5000 2.6 0 14:38 30.11.2019
3478 Rain 26 1009 83 5000 2.6 0 14:38 30.11.2019
3479 Rain 25 1009 83 5000 2.6 0 14:19 30.11.2019
3480 Rain 25 1009 83 5000 1.5 0 13:58 30.11.2019
3481 Rain 25 1009 94 4000 2.1 270 13:38 30.11.2019
3482 Rain 25 1009 94 4000 2.1 270 13:19 30.11.2019
3483 Thunderstorm 24 1009 88 4000 4.6 190 12:47 30.11.2019
3484 Rain 25 1009 88 2500 7.2 180 12:28 30.11.2019
3485 Clouds 27 1008 74 8000 5.1 240 11:57 30.11.2019
3486 Clouds 27 1008 74 8000 5.1 240 11:57 30.11.2019
3487 -273 0 0 0 0 0 11:38 30.11.2019
3488 Clouds 28 1007 70 8000 3.1 300 11:18 30.11.2019
3489 Clouds 29 1007 66 8000 3.6 360 10:44 30.11.2019
3490 Clouds 30 1007 66 9000 4.6 340 10:21 30.11.2019
3491 Clouds 31 1006 66 10000 5.1 10 09:50 30.11.2019
3492 Clouds 32 1006 62 10000 6.2 10 09:30 30.11.2019
3493 Clouds 33 1007 59 10000 5.7 20 08:57 30.11.2019
3494 Clouds 33 1007 59 10000 5.1 10 08:38 30.11.2019
3495 Clouds 32 1007 59 10000 5.1 10 08:18 30.11.2019
3496 Clouds 33 1008 59 10000 4.1 350 07:42 30.11.2019
3497 Clouds 32 1008 62 10000 3.6 360 07:23 30.11.2019
3498 Clouds 33 1008 62 10000 3.6 30 06:46 30.11.2019
3499 Clouds 33 1009 62 10000 3.6 20 06:27 30.11.2019
3500 Clouds 31 1010 66 8000 1.5 0 05:23 30.11.2019
3501 Clouds 29 1010 74 7000 3.1 10 03:38 30.11.2019
3502 Haze 29 1010 79 4000 2.1 10 02:26 30.11.2019
3503 Haze 28 1010 83 4000 1.5 300 01:51 30.11.2019
3504 Haze 27 1010 83 3000 2.1 330 01:24 30.11.2019
3505 Haze 27 1010 83 5000 3.6 60 00:45 30.11.2019
3506 Haze 27 1009 88 4000 2.16 117 00:27 30.11.2019
3507 Haze 27 1009 88 4000 2.16 117 23:44 29.11.2019
3508 Haze 27 1009 88 4000 1.53 91 23:25 29.11.2019
3509 Haze 27 1009 88 4000 2.16 117 23:25 29.11.2019
3510 Haze 27 1009 88 4000 1.5 180 22:49 29.11.2019
3511 Haze 27 1008 88 4000 2.1 220 22:28 29.11.2019
3512 Haze 27 1008 83 4000 1.5 210 21:59 29.11.2019
3513 Haze 27 1008 83 4000 1.5 210 21:41 29.11.2019
3514 Haze 26 1008 88 4000 2.1 230 21:22 29.11.2019
3515 Haze 26 1008 88 4000 1 240 20:56 29.11.2019
3516 Haze 26 1008 88 4000 2.6 280 20:37 29.11.2019
3517 Haze 26 1008 88 4000 2.6 280 20:18 29.11.2019
3518 Haze 26 1008 88 4000 4.1 270 19:55 29.11.2019
3519 Haze 27 1009 88 4000 2.6 320 19:36 29.11.2019
3520 Haze 27 1009 88 4000 2.6 320 19:18 29.11.2019
3521 Haze 27 1009 88 4000 2.6 320 19:18 29.11.2019
3522 Rain 27 1009 83 4000 3.6 320 18:42 29.11.2019
3523 Thunderstorm 27 1009 88 4000 2.6 360 18:24 29.11.2019
3524 Thunderstorm 27 1009 88 4000 2.1 0 17:57 29.11.2019
3525 Thunderstorm 27 1009 88 4000 3.6 150 17:39 29.11.2019
3526 Thunderstorm 27 1009 88 4000 3.6 150 17:20 29.11.2019
3527 Rain 27 1009 88 5000 3.6 120 16:43 29.11.2019
3528 Haze 29 1009 74 5000 3.1 220 16:21 29.11.2019
3529 Haze 29 1009 74 5000 3.6 220 15:56 29.11.2019
3530 Haze 29 1009 74 5000 1.5 0 15:37 29.11.2019
3531 Haze 29 1009 74 5000 1.5 0 15:19 29.11.2019
3532 Clouds 29 1009 74 8000 1.5 320 14:40 29.11.2019
3533 Clouds 29 1009 74 8000 1.5 320 14:40 29.11.2019
3534 Clouds 29 1009 74 8000 1.5 320 14:21 29.11.2019
3535 Clouds 29 1009 74 8000 1.5 320 14:21 29.11.2019
3536 Clouds 30 1008 74 8000 2.1 300 13:57 29.11.2019
3537 Thunderstorm 30 1008 74 5000 2.66 53 13:37 29.11.2019
3538 Thunderstorm 29 1008 74 5000 2.65 46 13:19 29.11.2019
3539 Rain 30 1007 74 5000 3.1 330 12:42 29.11.2019
3540 Rain 29 1007 74 5000 3.1 330 12:24 29.11.2019
3541 Clouds 30 1007 74 6000 3.1 350 11:56 29.11.2019
3542 Clouds 30 1007 74 6000 3.1 350 11:56 29.11.2019
3543 Clouds 30 1006 74 6000 4.1 360 11:38 29.11.2019
3544 Clouds 30 1006 74 6000 4.1 360 11:19 29.11.2019
3545 Clouds 31 1006 70 7000 5.1 360 10:57 29.11.2019
3546 Clouds 31 1006 66 7000 4.1 360 10:38 29.11.2019
3547 Clouds 31 1006 66 7000 4.1 360 10:20 29.11.2019
3548 Clouds 32 1006 66 7000 4.6 360 09:57 29.11.2019
3549 Clouds 32 1006 66 7000 4.6 350 09:38 29.11.2019
3550 Clouds 33 1006 66 7000 4.6 350 09:20 29.11.2019
3551 Clouds 33 1006 63 7000 2.1 340 08:55 29.11.2019
3552 Clouds 33 1007 63 7000 6.2 360 08:36 29.11.2019
3553 Clouds 33 1007 63 7000 6.2 360 08:18 29.11.2019
3554 Clouds 33 1007 70 6000 4.1 360 07:41 29.11.2019
3555 Clouds 33 1008 63 9000 5.7 20 07:23 29.11.2019
3556 Clouds 33 1008 59 10000 4.6 40 06:46 29.11.2019
3557 Clouds 33 1008 59 9000 3.1 20 06:28 29.11.2019
3558 Rain 32 1009 59 5000 3.1 40 05:32 29.11.2019
3559 Haze 33 1009 59 4000 3.1 90 04:56 29.11.2019
3560 Haze 31 1010 66 5000 2.1 210 03:37 29.11.2019
3561 Haze 31 1010 66 5000 2.1 210 03:18 29.11.2019
3562 Haze 31 1010 66 5000 2.1 210 03:18 29.11.2019
3563 Haze 30 1010 74 5000 2.1 200 02:22 29.11.2019
3564 Haze 28 1009 78 5000 1.5 220 01:40 29.11.2019
3565 Haze 28 1009 78 5000 1.5 220 01:20 29.11.2019
3566 Haze 28 1009 78 5000 1.5 220 01:20 29.11.2019
3567 Clouds 28 1009 78 6000 1.5 0 00:40 29.11.2019
3568 Clouds 27 1009 78 6000 1.5 0 00:18 29.11.2019
3569 Clouds 27 1009 78 6000 1.5 0 00:18 29.11.2019
3570 Haze 27 1008 88 5000 2.21 65 23:41 28.11.2019
3571 Haze 26 1008 88 5000 2.75 51 23:21 28.11.2019
3572 Clouds 26 1008 83 6000 2.1 220 22:56 28.11.2019
3573 Haze 26 1008 88 4000 1.5 230 22:37 28.11.2019
3574 Haze 27 1008 88 4000 1.5 230 22:19 28.11.2019
3575 Clouds 27 1008 78 6000 2.1 210 21:55 28.11.2019
3576 Clouds 27 1008 78 6000 2.6 210 21:36 28.11.2019
3577 Clouds 27 1008 78 6000 2.6 210 21:18 28.11.2019
3578 Clouds 27 1008 78 6000 2.1 220 20:42 28.11.2019
3579 Clouds 26 1008 83 6000 2.6 260 20:22 28.11.2019
3580 Haze 27 1008 78 5000 2.6 260 19:58 28.11.2019
3581 Haze 27 1008 78 5000 2.6 200 19:40 28.11.2019
3582 Haze 27 1008 78 5000 2.6 200 19:21 28.11.2019
3583 Haze 28 1008 74 5000 2.1 0 18:58 28.11.2019
3584 Clouds 28 1009 74 7000 1.5 0 18:39 28.11.2019
3585 Clouds 28 1009 74 7000 1.5 0 18:18 28.11.2019
3586 Clouds 28 1009 74 6000 2.6 260 17:58 28.11.2019
3587 Clouds 28 1009 74 6000 2.6 260 17:58 28.11.2019
3588 Clouds 28 1009 74 7000 2.1 0 17:40 28.11.2019
3589 Clouds 28 1009 74 7000 2.1 0 17:20 28.11.2019
3590 Clouds 28 1009 74 7000 2.6 0 16:41 28.11.2019
3591 Clouds 28 1009 74 7000 2.6 0 16:41 28.11.2019
3592 Clouds 27 1009 74 7000 2.6 0 16:19 28.11.2019
3593 Clouds 27 1009 70 7000 3.1 250 15:59 28.11.2019
3594 Clouds 27 1009 70 8000 3.6 250 15:40 28.11.2019
3595 Clouds 27 1009 70 8000 3.6 250 15:20 28.11.2019
3596 Clouds 28 1008 74 8000 4.1 250 14:58 28.11.2019
3597 Clouds 28 1008 70 8000 1.5 310 14:39 28.11.2019
3598 Clouds 28 1008 70 8000 1.5 310 14:20 28.11.2019
3599 Clouds 29 1007 70 9000 1.5 340 13:44 28.11.2019
3600 Rain 29 1007 79 5000 2.1 220 13:24 28.11.2019
3601 Clouds 29 1008 70 9000 1.5 10 12:59 28.11.2019
3602 Clouds 30 1007 74 6000 2.6 350 12:40 28.11.2019
3603 Clouds 29 1007 74 6000 2.6 350 12:22 28.11.2019
3604 Clouds 30 1007 66 9000 2.6 20 11:56 28.11.2019
3605 Clouds 30 1006 70 6000 4.1 20 11:38 28.11.2019
3606 Clouds 30 1006 70 6000 4.1 20 11:19 28.11.2019
3607 Clouds 30 1006 62 9000 4.1 30 10:42 28.11.2019
3608 Clouds 30 1006 66 9000 3.6 30 10:42 28.11.2019
3609 Clouds 31 1006 62 9000 4.1 30 10:22 28.11.2019
3610 Clouds 31 1006 62 10000 5.7 40 09:58 28.11.2019
3611 Haze 32 1006 59 6000 5.1 340 09:40 28.11.2019
3612 Haze 32 1006 59 6000 5.1 340 09:20 28.11.2019
3613 Clouds 33 1006 59 10000 7.7 30 08:44 28.11.2019
3614 Haze 33 1007 63 5000 4.6 20 08:23 28.11.2019
3615 Clouds 33 1007 59 10000 7.2 50 07:58 28.11.2019
3616 Clouds 33 1007 59 10000 7.2 50 07:58 28.11.2019
3617 Rain 33 1007 59 5000 4.1 20 07:40 28.11.2019
3618 Rain 33 1007 59 5000 4.1 20 07:22 28.11.2019
3619 Clouds 34 1008 52 10000 6.2 50 06:43 28.11.2019
3620 Clouds 34 1009 52 9000 6.2 60 05:58 28.11.2019
3621 Haze 34 1009 59 4000 2.1 100 05:40 28.11.2019
3622 Clouds 33 1009 49 9000 3.6 70 04:51 28.11.2019
3623 Haze 31 1010 74 5000 2.1 100 02:33 28.11.2019
3624 Haze 28 1009 88 5000 1.5 150 01:28 28.11.2019
3625 Haze 27 1009 88 4000 2.53 101 00:42 28.11.2019
3626 Mist 26 1009 94 2500 2.53 101 00:20 28.11.2019
3627 Mist 26 1008 88 3000 2.53 101 23:39 27.11.2019
3628 Mist 26 1008 88 3000 2.05 67 23:21 27.11.2019
3629 Haze 26 1008 88 4000 2.05 67 22:58 27.11.2019
3630 Haze 26 1007 88 4000 2.05 67 22:38 27.11.2019
3631 Haze 26 1007 88 4000 2.05 67 22:19 27.11.2019
3632 Haze 26 1008 83 5000 2.6 230 21:56 27.11.2019
3633 Haze 26 1008 83 5000 2.6 230 21:56 27.11.2019
3634 Haze 26 1008 83 5000 2.1 230 21:37 27.11.2019
3635 Haze 26 1008 83 5000 2.1 230 21:19 27.11.2019
3636 Haze 27 1008 78 5000 2.1 210 20:57 27.11.2019
3637 Haze 27 1008 78 5000 2.1 210 20:57 27.11.2019
3638 Haze 27 1008 78 5000 2.6 230 20:37 27.11.2019
3639 Haze 27 1008 78 5000 2.6 230 20:19 27.11.2019
3640 Haze 27 1008 78 3000 2.1 230 19:56 27.11.2019
3641 Haze 27 1008 78 3000 2.1 240 19:37 27.11.2019
3642 Haze 27 1008 78 3000 2.1 240 19:18 27.11.2019
3643 Haze 27 1009 78 3000 2.1 230 18:56 27.11.2019
3644 Haze 27 1009 78 4000 2.1 230 18:36 27.11.2019
3645 Haze 27 1009 78 4000 2.1 230 18:18 27.11.2019
3646 Haze 27 1009 78 4000 1.5 210 17:55 27.11.2019
3647 Haze 27 1009 78 5000 1.5 230 17:36 27.11.2019
3648 Haze 27 1009 78 5000 1.5 230 17:18 27.11.2019
3649 Haze 27 1009 74 5000 2.6 240 16:55 27.11.2019
3650 Haze 27 1009 74 5000 2.1 220 16:36 27.11.2019
3651 Haze 27 1009 74 5000 2.1 220 16:18 27.11.2019
3652 Clouds 27 1009 74 6000 2.1 0 15:56 27.11.2019
3653 Clouds 27 1009 74 6000 2.6 0 15:37 27.11.2019
3654 Clouds 27 1009 74 6000 2.6 0 15:19 27.11.2019
3655 Clouds 29 1008 70 6000 3.6 220 14:55 27.11.2019
3656 Haze 27 1008 70 5000 3.1 220 14:37 27.11.2019
3657 Haze 27 1008 70 5000 3.1 220 14:19 27.11.2019
3658 Clouds 28 1008 70 7000 1 320 13:55 27.11.2019
3659 Clouds 28 1007 78 6000 3.6 180 13:36 27.11.2019
3660 Clouds 29 1007 70 6000 1.5 210 13:18 27.11.2019
3661 Clouds 29 1007 70 8000 2.1 30 12:41 27.11.2019
3662 Clouds 29 1007 66 9000 2.1 0 12:21 27.11.2019
3663 Clouds 29 1007 66 9000 2.1 0 11:56 27.11.2019
3664 Clouds 29 1007 62 10000 3.1 30 11:36 27.11.2019
3665 Clouds 31 1006 62 10000 2.6 0 11:18 27.11.2019
3666 Clouds 31 1006 62 10000 2.6 0 11:18 27.11.2019
3667 Clouds 31 1006 66 6000 3.1 360 10:43 27.11.2019
3668 Clouds 31 1006 66 6000 3.1 360 10:24 27.11.2019
3669 Clouds 31 1006 59 6000 4.1 360 09:57 27.11.2019
3670 Clouds 31 1006 66 6000 4.1 360 09:39 27.11.2019
3671 Clouds 31 1006 66 6000 4.1 360 09:18 27.11.2019
3672 Haze 32 1006 62 5000 5.1 350 08:42 27.11.2019
3673 Haze 32 1006 62 5000 5.1 350 08:23 27.11.2019
3674 Clouds 31 1007 62 9000 4.6 30 07:48 27.11.2019
3675 Clouds 32 1007 62 9000 4.6 30 07:29 27.11.2019
3676 Clouds 32 1008 62 8000 4.6 20 06:55 27.11.2019
3677 Clouds 32 1008 62 8000 4.6 20 06:36 27.11.2019
3678 Clouds 32 1009 62 7000 4.1 20 05:49 27.11.2019
3679 Clouds 32 1009 62 7000 4.1 20 05:26 27.11.2019
3680 Haze 32 1009 59 5000 4.1 30 04:49 27.11.2019
3681 Clouds 32 1010 59 6000 3.1 30 04:31 27.11.2019
3682 Clouds 32 1010 62 6000 3.6 40 03:43 27.11.2019
3683 Haze 31 1010 66 5000 2.1 180 03:20 27.11.2019
3684 Haze 31 1010 79 4000 2.6 180 02:34 27.11.2019
3685 Haze 27 1009 78 5000 1.5 0 00:55 27.11.2019
3686 Haze 27 1009 78 5000 1.5 0 00:37 27.11.2019
3687 Haze 26 1008 78 5000 2.1 0 00:19 27.11.2019
3688 Haze 26 1008 94 5000 1.5 190 23:41 26.11.2019
3689 Haze 26 1008 94 5000 1.5 190 23:23 26.11.2019
3690 Haze 26 1007 83 5000 2.1 240 22:40 26.11.2019
3691 Haze 26 1007 83 5000 2.1 240 22:20 26.11.2019
3692 Haze 26 1007 78 5000 2.1 200 21:59 26.11.2019
3693 Haze 27 1007 78 5000 2.6 210 21:39 26.11.2019
3694 Haze 27 1007 78 5000 2.6 210 21:21 26.11.2019
3695 Haze 27 1007 78 5000 2.6 210 20:57 26.11.2019
3696 Haze 27 1008 78 5000 3.1 210 20:38 26.11.2019
3697 Haze 27 1008 78 5000 3.1 210 20:19 26.11.2019
3698 Haze 27 1008 78 5000 3.1 210 20:19 26.11.2019
3699 Haze 27 1008 78 5000 1.5 230 19:56 26.11.2019
3700 Haze 26 1008 83 5000 2.6 250 19:38 26.11.2019
3701 Haze 26 1008 83 5000 2.6 250 19:19 26.11.2019
3702 Haze 26 1008 83 5000 3.1 270 18:58 26.11.2019
3703 Haze 26 1008 83 5000 3.1 270 18:39 26.11.2019
3704 Haze 26 1008 83 5000 3.1 260 18:21 26.11.2019
3705 Haze 26 1008 83 5000 3.1 260 17:58 26.11.2019
3706 Clouds 27 1009 74 6000 2.6 220 17:40 26.11.2019
3707 Clouds 27 1009 78 6000 4.6 260 17:21 26.11.2019
3708 Clouds 27 1009 78 6000 4.6 260 16:57 26.11.2019
3709 Clouds 27 1009 74 6000 1.5 0 16:38 26.11.2019
3710 Clouds 28 1009 74 6000 1.5 0 16:19 26.11.2019
3711 Clouds 28 1009 69 6000 1 0 15:59 26.11.2019
3712 Clouds 28 1009 69 6000 1 0 15:59 26.11.2019
3713 Clouds 27 1009 74 6000 3.1 230 15:38 26.11.2019
3714 Clouds 27 1009 74 6000 3.1 230 15:38 26.11.2019
3715 Clouds 27 1009 74 6000 3.1 230 15:20 26.11.2019
3716 Clouds 27 1009 74 7000 4.6 270 14:51 26.11.2019
3717 Clouds 28 1008 69 8000 2.1 0 14:26 26.11.2019
3718 Clouds 28 1008 69 8000 1.5 0 13:57 26.11.2019
3719 Haze 27 1008 83 5000 2.1 250 13:38 26.11.2019
3720 Haze 26 1008 83 5000 2.1 250 13:19 26.11.2019
3721 Haze 26 1008 83 5000 2.1 250 13:19 26.11.2019
3722 Clouds 28 1007 70 8000 3.1 230 12:39 26.11.2019
3723 Clouds 28 1007 70 8000 2.1 0 12:21 26.11.2019
3724 Clouds 28 1007 70 8000 2.1 0 11:59 26.11.2019
3725 Clouds 29 1006 66 10000 2.6 20 11:40 26.11.2019
3726 Clouds 29 1006 66 10000 3.6 10 11:20 26.11.2019
3727 Clouds 29 1006 66 10000 3.6 10 10:58 26.11.2019
3728 Clouds 29 1005 74 6000 3.6 330 10:40 26.11.2019
3729 Clouds 30 1005 74 6000 3.6 330 10:21 26.11.2019
3730 Clouds 30 1006 62 10000 4.1 30 09:57 26.11.2019
3731 Haze 30 1006 79 5000 3.6 280 09:38 26.11.2019
3732 Haze 29 1006 79 5000 3.6 280 09:19 26.11.2019
3733 Clouds 31 1006 59 9000 5.1 40 08:44 26.11.2019
3734 Thunderstorm 31 1007 88 2500 3.6 210 08:24 26.11.2019
3735 Thunderstorm 33 1007 62 5000 2.6 340 07:46 26.11.2019
3736 Thunderstorm 33 1007 62 5000 2.6 340 07:27 26.11.2019
3737 Clouds 32 1008 59 10000 6.7 40 06:55 26.11.2019
3738 Clouds 32 1008 59 10000 6.7 40 06:35 26.11.2019
3739 Clouds 33 1009 55 10000 4.6 40 05:53 26.11.2019
3740 Haze 33 1010 59 5000 2.1 100 04:47 26.11.2019
3741 Haze 32 1010 62 5000 1.5 0 02:52 26.11.2019
3742 Haze 28 1010 83 4000 1.5 210 01:33 26.11.2019
3743 Haze 26 1010 83 4000 3.74 133 00:53 26.11.2019
3744 Haze 26 1009 88 4000 3.74 133 00:30 26.11.2019
3745 Haze 26 1009 94 4000 3.74 133 23:54 25.11.2019
3746 Haze 26 1009 88 4000 3.74 133 23:36 25.11.2019
3747 Haze 26 1008 88 4000 2.87 56 23:18 25.11.2019
3748 Haze 26 1008 88 4000 2.87 56 22:39 25.11.2019
3749 Haze 26 1008 88 4000 2.87 56 22:19 25.11.2019
3750 Clouds 26 1008 83 3500 2.1 210 21:59 25.11.2019
3751 Haze 26 1008 83 3500 1.5 190 21:40 25.11.2019
3752 Haze 26 1008 83 3500 1.5 190 21:21 25.11.2019
3753 Haze 26 1008 83 3000 1 190 20:57 25.11.2019
3754 Haze 26 1008 83 3500 1 170 20:39 25.11.2019
3755 Haze 26 1008 83 3500 1 170 20:20 25.11.2019
3756 Haze 26 1009 83 4500 1 170 19:56 25.11.2019
3757 Haze 26 1009 83 5000 1.5 160 19:38 25.11.2019
3758 Haze 26 1009 83 5000 1.5 160 19:19 25.11.2019
3759 Haze 27 1009 83 5000 1.5 160 18:57 25.11.2019
3760 Haze 27 1009 78 5000 1.5 180 18:39 25.11.2019
3761 Haze 27 1010 78 4500 1 200 18:21 25.11.2019
3762 Haze 27 1010 78 4500 1 200 17:58 25.11.2019
3763 Haze 26 1010 78 5000 1.5 140 17:39 25.11.2019
3764 Haze 26 1010 78 3000 1 0 17:20 25.11.2019
3765 Haze 26 1010 78 3000 1 0 16:57 25.11.2019
3766 Haze 26 1010 78 4000 1.5 250 16:39 25.11.2019
3767 Haze 26 1010 78 4000 1.5 250 16:20 25.11.2019
3768 Haze 27 1010 74 4000 1 0 15:55 25.11.2019
3769 Haze 27 1010 74 4500 1 0 15:36 25.11.2019
3770 Haze 27 1010 74 4500 1 0 15:18 25.11.2019
3771 Haze 27 1010 74 4000 1.5 0 14:42 25.11.2019
3772 Haze 27 1009 74 5000 1.5 0 14:23 25.11.2019
3773 Clouds 28 1009 74 6000 1.5 180 13:55 25.11.2019
3774 Haze 28 1009 74 5000 3.1 170 13:36 25.11.2019
3775 Haze 28 1009 74 5000 3.1 170 13:18 25.11.2019
3776 Haze 28 1009 74 5000 3.1 170 13:18 25.11.2019
3777 Haze 28 1008 74 5000 3.1 140 12:55 25.11.2019
3778 Haze 28 1008 70 5000 2.6 200 12:36 25.11.2019
3779 Rain 28 1008 74 5000 3.6 180 12:18 25.11.2019
3780 Rain 29 1008 70 5000 2.1 180 11:40 25.11.2019
3781 Rain 29 1008 70 5000 2.1 180 11:40 25.11.2019
3782 Clouds 30 1007 62 6000 2.1 340 11:21 25.11.2019
3783 Clouds 30 1007 62 6000 2.1 340 10:58 25.11.2019
3784 Clouds 31 1007 59 6000 2.6 20 10:39 25.11.2019
3785 Clouds 31 1007 59 6000 2.6 20 10:19 25.11.2019
3786 Clouds 31 1006 59 6000 4.1 330 09:42 25.11.2019
3787 Clouds 31 1006 59 6000 4.1 330 09:24 25.11.2019
3788 Rain 31 1007 62 5000 2.6 320 08:42 25.11.2019
3789 Rain 31 1007 62 5000 2.6 320 08:24 25.11.2019
3790 Clouds 31 1008 59 10000 4.1 10 07:56 25.11.2019
3791 Clouds 32 1008 56 10000 3.6 360 07:37 25.11.2019
3792 -273 0 0 0 0 0 07:18 25.11.2019
3793 Haze 33 1009 52 5000 2.1 350 06:24 25.11.2019
3794 Haze 33 1009 52 5000 2.1 350 06:24 25.11.2019
3795 Haze 33 1009 59 5000 3.6 330 06:24 25.11.2019
3796 Haze 33 1009 52 5000 2.1 350 06:24 25.11.2019
3797 Haze 33 1009 59 5000 3.6 330 05:57 25.11.2019
3798 Clouds 33 1010 52 6000 3.6 60 05:32 25.11.2019
3799 Clouds 34 1011 55 6000 2.1 150 04:48 25.11.2019
3800 Haze 31 1012 74 4000 1.5 200 02:36 25.11.2019
3801 Haze 28 1011 74 4000 0.36 359 01:43 25.11.2019
3802 Haze 27 1011 74 4000 0.18 244 01:24 25.11.2019
3803 Haze 27 1011 78 5000 1 0 00:59 25.11.2019
3804 Haze 26 1010 83 4000 0.18 244 00:20 25.11.2019
3805 Haze 26 1010 88 5000 1.5 200 23:45 24.11.2019
3806 Haze 26 1010 88 5000 1.5 200 23:21 24.11.2019
3807 Clouds 26 1009 88 5000 1 0 22:58 24.11.2019
3808 Rain 26 1009 88 5000 1 0 22:39 24.11.2019
3809 Rain 26 1009 88 5000 1 0 22:19 24.11.2019
3810 Clouds 27 1009 83 6000 1 0 21:57 24.11.2019
3811 Clouds 27 1009 78 6000 2.1 200 21:39 24.11.2019
3812 Clouds 27 1009 78 6000 2.1 200 21:20 24.11.2019
3813 Clouds 27 1009 83 6000 1.5 200 20:58 24.11.2019
3814 Clouds 27 1010 88 7000 1.5 210 20:38 24.11.2019
3815 Clouds 26 1010 88 7000 1.5 210 20:18 24.11.2019
3816 Clouds 26 1010 88 7000 1.5 230 19:56 24.11.2019
3817 Clouds 26 1010 88 7000 1.5 220 19:38 24.11.2019
3818 Clouds 26 1010 88 7000 1.5 220 19:20 24.11.2019
3819 Clouds 26 1010 83 7000 1.5 200 18:58 24.11.2019
3820 Clouds 26 1010 83 7000 1.5 200 18:37 24.11.2019
3821 Clouds 26 1011 83 7000 1 210 18:19 24.11.2019
3822 Clouds 26 1011 83 7000 1 210 18:19 24.11.2019
3823 Clouds 27 1011 74 7000 1.5 200 17:56 24.11.2019
3824 Clouds 27 1011 74 7000 1.5 200 17:37 24.11.2019
3825 Clouds 27 1011 78 7000 1.5 220 17:19 24.11.2019
3826 Clouds 26 1011 78 7000 1.5 220 16:57 24.11.2019
3827 Clouds 27 1012 74 7000 2.1 210 16:38 24.11.2019
3828 Clouds 27 1012 74 7000 2.1 210 16:19 24.11.2019
3829 Clouds 28 1011 78 7000 1.5 240 15:43 24.11.2019
3830 Clouds 28 1012 74 7000 1.5 0 15:25 24.11.2019
3831 Clouds 28 1011 74 7000 1 0 14:58 24.11.2019
3832 Clouds 28 1011 74 7000 1 0 14:58 24.11.2019
3833 Clouds 28 1011 74 8000 1 310 14:38 24.11.2019
3834 Clouds 29 1011 74 8000 1 310 14:18 24.11.2019
3835 Clouds 29 1011 74 8000 1.5 0 13:54 24.11.2019
3836 Clouds 29 1010 66 6000 1.5 350 13:36 24.11.2019
3837 Clouds 29 1010 66 6000 1.5 350 13:18 24.11.2019
3838 Clouds 29 1009 58 6000 2.1 20 12:41 24.11.2019
3839 Clouds 30 1009 66 9000 3.1 350 12:19 24.11.2019
3840 Clouds 30 1009 66 9000 3.1 350 11:57 24.11.2019
3841 Clouds 30 1008 52 6000 3.6 10 11:37 24.11.2019
3842 Clouds 30 1008 58 10000 3.6 360 11:18 24.11.2019
3843 Clouds 31 1007 52 6000 2.6 300 10:47 24.11.2019
3844 Clouds 31 1007 52 6000 2.6 300 10:29 24.11.2019
3845 Clouds 31 1007 52 10000 4.1 360 09:58 24.11.2019
3846 Clouds 32 1007 49 10000 4.6 360 09:38 24.11.2019
3847 Clouds 33 1007 49 10000 4.6 360 09:19 24.11.2019
3848 Clouds 33 1008 49 10000 4.6 360 08:56 24.11.2019
3849 Clouds 33 1008 46 6000 4.1 30 08:36 24.11.2019
3850 Clouds 33 1008 46 6000 4.1 30 08:18 24.11.2019
3851 Clouds 33 1009 44 6000 3.6 50 07:45 24.11.2019
3852 Clouds 34 1009 44 6000 3.6 50 07:20 24.11.2019
3853 Clouds 34 1010 44 10000 5.1 10 06:21 24.11.2019
3854 Clouds 34 1011 44 10000 2.6 0 04:49 24.11.2019
3855 Clouds 33 1011 58 8000 1.5 0 03:41 24.11.2019
3856 Haze 31 1011 74 4000 2.1 130 02:32 24.11.2019
3857 Haze 28 1011 83 3000 2.1 180 01:42 24.11.2019
3858 Haze 27 1011 83 3000 2.1 180 01:22 24.11.2019
3859 Haze 26 1010 94 3000 2.92 118 00:48 24.11.2019
3860 Haze 25 1010 94 3000 2.92 118 00:24 24.11.2019
3861 Haze 25 1010 94 3000 2.92 118 23:56 23.11.2019
3862 Haze 25 1010 94 4000 2.92 118 23:37 23.11.2019
3863 Haze 25 1010 94 4000 1.19 105 23:19 23.11.2019
3864 Haze 25 1009 94 4000 1.19 105 22:54 23.11.2019
3865 Haze 25 1009 94 4000 1.19 105 22:54 23.11.2019
3866 Haze 25 1009 94 4000 1.19 105 22:36 23.11.2019
3867 Haze 25 1009 94 4000 1.19 105 22:18 23.11.2019
3868 Haze 25 1009 88 5000 1 160 21:43 23.11.2019
3869 Haze 25 1009 88 5000 1 160 21:43 23.11.2019
3870 Haze 25 1009 88 5000 1 160 21:23 23.11.2019
3871 Haze 25 1009 88 5000 1 160 21:23 23.11.2019
3872 Haze 25 1009 88 5000 1 170 20:59 23.11.2019
3873 Haze 26 1010 88 5000 1.5 200 20:37 23.11.2019
3874 Haze 26 1010 88 5000 1.5 200 20:19 23.11.2019
3875 Haze 26 1010 83 5000 1 190 19:56 23.11.2019
3876 Haze 26 1010 83 5000 1.5 210 19:37 23.11.2019
3877 Haze 26 1010 83 5000 1.5 210 19:37 23.11.2019
3878 Haze 26 1010 83 5000 1.5 210 19:37 23.11.2019
3879 Clouds 26 1010 83 6000 1 210 19:18 23.11.2019
3880 Clouds 26 1010 83 6000 1 210 18:41 23.11.2019
3881 Clouds 26 1011 83 6000 1 210 18:21 23.11.2019
3882 Clouds 26 1011 83 6000 1 210 18:21 23.11.2019
3883 Clouds 26 1011 83 6000 1 210 17:59 23.11.2019
3884 Clouds 25 1011 83 6000 2.1 210 17:40 23.11.2019
3885 Clouds 25 1012 83 6000 1.5 220 17:21 23.11.2019
3886 Clouds 25 1012 83 6000 1.5 220 16:56 23.11.2019
3887 Clouds 26 1012 83 6000 1.5 230 16:38 23.11.2019
3888 Clouds 26 1012 83 6000 1.5 230 16:20 23.11.2019
3889 Clouds 26 1012 78 6000 1 200 15:57 23.11.2019
3890 Clouds 26 1012 83 6000 2.1 220 15:38 23.11.2019
3891 Clouds 26 1012 83 6000 2.1 220 15:18 23.11.2019
3892 Clouds 26 1011 78 6000 1 0 14:55 23.11.2019
3893 Clouds 27 1011 78 6000 1.5 220 14:37 23.11.2019
3894 Clouds 27 1011 78 6000 1.5 220 14:18 23.11.2019
3895 Clouds 27 1010 70 6000 2.6 250 13:42 23.11.2019
3896 Clouds 27 1010 70 6000 2.6 250 13:19 23.11.2019
3897 Clouds 27 1010 70 6000 3.1 270 12:55 23.11.2019
3898 Clouds 28 1009 70 6000 2.6 320 12:37 23.11.2019
3899 Clouds 28 1009 74 7000 4.1 230 12:19 23.11.2019
3900 Clouds 29 1008 62 6000 3.6 300 11:42 23.11.2019
3901 Clouds 30 1007 59 6000 4.1 330 11:19 23.11.2019
3902 Clouds 30 1008 62 8000 3.6 310 10:45 23.11.2019
3903 Clouds 31 1008 62 8000 3.6 310 10:21 23.11.2019
3904 Clouds 32 1007 59 7000 4.6 340 09:42 23.11.2019
3905 Clouds 32 1007 59 7000 4.6 340 09:20 23.11.2019
3906 Clouds 32 1008 55 6000 4.1 20 08:43 23.11.2019
3907 Clouds 33 1008 55 6000 4.1 20 08:20 23.11.2019
3908 Rain 33 1008 59 5000 4.1 350 07:54 23.11.2019
3909 Rain 34 1009 55 5000 3.6 20 07:35 23.11.2019
3910 Clouds 34 1010 55 6000 3.1 350 06:46 23.11.2019
3911 Clouds 33 1010 55 6000 3.1 0 06:21 23.11.2019
3912 Clouds 33 1010 59 6000 2.6 0 05:51 23.11.2019
3913 Clouds 33 1010 59 6000 2.6 0 05:29 23.11.2019
3914 Haze 32 1011 66 5000 2.1 20 04:49 23.11.2019
3915 Haze 32 1011 70 5000 2.1 230 04:27 23.11.2019
3916 Haze 30 1012 74 4000 2.1 220 02:48 23.11.2019
3917 Haze 28 1011 78 4000 2.1 160 01:51 23.11.2019
3918 Haze 27 1011 83 4000 2.1 200 01:32 23.11.2019
3919 Mist 26 1010 88 3000 1.5 160 00:40 23.11.2019
3920 Mist 26 1010 88 3000 1.5 0 00:18 23.11.2019
3921 Haze 26 1010 94 5000 1.5 230 23:42 22.11.2019
3922 Mist 26 1009 88 4000 1 180 23:20 22.11.2019
3923 Mist 26 1009 88 4000 1 180 22:57 22.11.2019
3924 Mist 26 1009 88 4000 1 180 22:38 22.11.2019
3925 Mist 26 1009 88 4000 1 180 22:20 22.11.2019
3926 Haze 26 1009 88 5000 1 0 21:58 22.11.2019
3927 Haze 26 1009 88 5000 1.5 0 21:39 22.11.2019
3928 Haze 26 1009 88 5000 1.5 0 21:19 22.11.2019
3929 Haze 26 1009 83 5000 1.5 210 20:43 22.11.2019
3930 Haze 27 1009 78 5000 1 0 20:22 22.11.2019
3931 Haze 26 1010 83 5000 1 180 19:57 22.11.2019
3932 Haze 26 1010 83 5000 1 0 19:37 22.11.2019
3933 Haze 26 1010 83 5000 1 0 19:19 22.11.2019
3934 Mist 27 1011 78 4000 1.5 0 18:40 22.11.2019
3935 Mist 27 1011 78 4000 1.5 0 18:21 22.11.2019
3936 Haze 27 1011 78 3000 1.5 180 17:58 22.11.2019
3937 Haze 27 1011 83 3000 2.6 230 17:40 22.11.2019
3938 Haze 26 1011 83 3000 2.6 230 17:21 22.11.2019
3939 Haze 27 1011 78 3000 2.6 230 16:42 22.11.2019
3940 Haze 27 1011 83 5000 1 0 16:24 22.11.2019
3941 Clouds 28 1011 78 6000 1 0 15:45 22.11.2019
3942 Clouds 29 1011 70 8000 1 0 15:24 22.11.2019
3943 Clouds 29 1011 70 8000 1 0 15:24 22.11.2019
3944 Clouds 29 1010 70 8000 1.5 0 14:56 22.11.2019
3945 Clouds 29 1010 70 8000 1.5 0 14:56 22.11.2019
3946 Clouds 29 1010 70 8000 1 0 14:38 22.11.2019
3947 Clouds 29 1010 70 8000 1 0 14:19 22.11.2019
3948 Clouds 29 1010 70 7000 1.5 0 13:58 22.11.2019
3949 Clouds 29 1009 70 8000 1.5 0 13:37 22.11.2019
3950 Clouds 28 1009 70 8000 1.5 0 13:18 22.11.2019
3951 Clouds 28 1009 70 8000 2.1 0 12:57 22.11.2019
3952 Clouds 28 1009 66 6000 1.5 320 12:39 22.11.2019
3953 Clouds 29 1009 66 6000 1.5 320 12:18 22.11.2019
3954 Clouds 29 1008 66 9000 2.1 0 11:55 22.11.2019
3955 Haze 29 1008 62 5000 1.5 320 11:36 22.11.2019
3956 Haze 30 1008 62 5000 1.5 320 11:18 22.11.2019
3957 Haze 30 1008 62 5000 1.5 320 11:18 22.11.2019
3958 Clouds 30 1008 62 6000 2.6 10 10:40 22.11.2019
3959 Clouds 30 1008 62 6000 2.6 10 10:22 22.11.2019
3960 Clouds 30 1008 62 6000 2.6 10 10:22 22.11.2019
3961 Clouds 30 1008 66 9000 2.1 0 09:58 22.11.2019
3962 Clouds 30 1008 62 6000 3.6 320 09:39 22.11.2019
3963 Clouds 30 1008 62 6000 3.6 320 09:21 22.11.2019
3964 Clouds 30 1008 66 9000 1.5 0 08:47 22.11.2019
3965 Rain 29 1008 66 5000 2.6 270 08:28 22.11.2019
3966 Clouds 29 1009 74 8000 2.6 0 07:56 22.11.2019
3967 Rain 29 1009 62 6000 4.1 340 07:37 22.11.2019
3968 Rain 29 1009 62 6000 4.1 340 07:18 22.11.2019
3969 Rain 29 1010 49 5000 3.1 40 06:41 22.11.2019
3970 Rain 31 1011 69 4000 6.7 360 05:57 22.11.2019
3971 Clouds 32 1011 55 10000 1 0 04:53 22.11.2019
3972 Clouds 31 1012 66 8000 2.1 0 02:59 22.11.2019
3973 Clouds 29 1012 70 6000 3.1 180 02:37 22.11.2019
3974 Clouds 28 1012 70 6000 3.1 180 02:18 22.11.2019
3975 Haze 27 1012 83 5000 2.6 210 01:42 22.11.2019
3976 Haze 27 1012 83 5000 2.6 210 01:18 22.11.2019
3977 Haze 26 1011 94 4000 1.5 240 00:26 22.11.2019
3978 Haze 25 1010 94 4000 2.6 240 23:57 21.11.2019
3979 Haze 25 1010 94 4000 1.5 240 23:39 21.11.2019
3980 Haze 25 1010 94 4000 1.5 240 23:21 21.11.2019
3981 Haze 26 1010 94 4000 1.5 240 22:54 21.11.2019
3982 Haze 26 1009 94 4000 2.1 240 22:36 21.11.2019
3983 Haze 26 1009 94 4000 2.1 240 22:18 21.11.2019
3984 Haze 26 1009 83 4500 2.6 210 21:54 21.11.2019
3985 Haze 26 1009 83 4500 1.5 220 21:36 21.11.2019
3986 Haze 26 1009 83 4500 1.5 220 21:18 21.11.2019
3987 Haze 26 1010 83 5000 1.5 210 20:55 21.11.2019
3988 Haze 26 1010 78 5000 1.5 210 20:36 21.11.2019
3989 Haze 27 1010 78 5000 1.5 210 20:18 21.11.2019
3990 Haze 27 1010 78 5000 1 220 19:41 21.11.2019
3991 Haze 26 1010 83 5000 2.1 220 19:23 21.11.2019
3992 Haze 26 1010 83 5000 2.1 220 19:23 21.11.2019
3993 Clouds 26 1010 78 6000 1.5 220 18:59 21.11.2019
3994 Clouds 26 1011 83 6000 1.5 240 18:40 21.11.2019
3995 Clouds 26 1011 83 6000 1.5 240 18:21 21.11.2019
3996 Clouds 26 1011 78 6000 1 0 17:58 21.11.2019
3997 Clouds 27 1011 74 6000 1.5 180 17:39 21.11.2019
3998 Clouds 27 1011 74 6000 1.5 180 17:21 21.11.2019
3999 Clouds 27 1011 74 6000 1 170 16:57 21.11.2019
4000 Clouds 26 1011 83 6000 1 0 16:39 21.11.2019
4001 Clouds 26 1011 83 6000 1 0 16:20 21.11.2019
4002 Clouds 26 1011 83 6000 1.5 0 15:44 21.11.2019
4003 Clouds 27 1011 74 6000 2.1 150 15:21 21.11.2019
4004 Clouds 26 1010 78 6000 1.5 0 14:58 21.11.2019
4005 Clouds 26 1010 78 6000 2.1 160 14:38 21.11.2019
4006 Clouds 26 1010 78 6000 2.1 160 14:20 21.11.2019
4007 Rain 26 1010 78 5000 2.6 140 13:59 21.11.2019
4008 Haze 26 1009 94 5000 3.6 240 13:37 21.11.2019
4009 Haze 26 1009 94 5000 3.6 240 13:19 21.11.2019
4010 Haze 26 1009 94 5000 3.6 240 13:19 21.11.2019
4011 Thunderstorm 27 1009 94 4000 6.2 240 12:42 21.11.2019
4012 Thunderstorm 27 1009 94 4000 6.2 240 12:24 21.11.2019
4013 Thunderstorm 28 1008 94 3000 3.49 16 11:56 21.11.2019
4014 Thunderstorm 28 1008 88 2000 6.7 30 11:38 21.11.2019
4015 Thunderstorm 29 1008 88 2000 6.7 30 11:19 21.11.2019
4016 Thunderstorm 30 1007 66 5000 5.7 360 10:43 21.11.2019
4017 Thunderstorm 30 1007 66 5000 5.7 360 10:25 21.11.2019
4018 Clouds 30 1007 62 10000 5.1 10 09:59 21.11.2019
4019 Thunderstorm 31 1006 62 7000 6.2 360 09:41 21.11.2019
4020 Thunderstorm 32 1006 62 7000 6.2 360 09:23 21.11.2019
4021 Clouds 32 1007 59 6000 5.1 350 08:55 21.11.2019
4022 Clouds 33 1007 62 6000 6.2 20 08:37 21.11.2019
4023 Clouds 33 1007 62 6000 6.2 20 08:18 21.11.2019
4024 Clouds 33 1008 52 10000 4.6 360 07:39 21.11.2019
4025 Clouds 34 1008 52 10000 4.6 360 07:18 21.11.2019
4026 Clouds 33 1008 55 10000 5.1 10 06:45 21.11.2019
4027 Clouds 33 1009 55 6000 3.6 360 06:24 21.11.2019
4028 Haze 33 1010 59 5000 2.6 70 05:27 21.11.2019
4029 Haze 31 1011 74 4000 1.5 130 03:25 21.11.2019
4030 Haze 30 1011 83 4000 2.1 130 02:35 21.11.2019
4031 Clouds 28 1010 70 6000 1.5 0 01:52 21.11.2019
4032 Haze 27 1010 74 5000 1.5 0 01:23 21.11.2019
4033 Haze 27 1010 78 5000 1 190 00:47 21.11.2019
4034 Haze 26 1010 88 4000 1.5 130 00:20 21.11.2019
4035 Haze 26 1010 88 4000 1.5 130 00:20 21.11.2019
4036 Haze 27 1009 78 5000 1 160 23:51 20.11.2019
4037 Haze 26 1009 83 5000 1 150 23:23 20.11.2019
4038 Haze 26 1009 83 5000 1 0 22:59 20.11.2019
4039 Clouds 26 1009 88 5000 2.1 60 22:41 20.11.2019
4040 Clouds 27 1009 88 5000 2.1 60 22:20 20.11.2019
4041 Haze 27 1009 74 5000 1.5 150 21:59 20.11.2019
4042 Haze 27 1009 74 5000 1.5 130 21:40 20.11.2019
4043 Haze 27 1009 74 5000 1.5 130 21:22 20.11.2019
4044 Haze 27 1009 78 5000 1 0 20:58 20.11.2019
4045 Haze 27 1009 78 5000 1.5 190 20:40 20.11.2019
4046 Haze 26 1009 78 5000 1.5 190 20:22 20.11.2019
4047 Haze 26 1009 74 5000 1 0 19:58 20.11.2019
4048 Haze 26 1009 74 5000 1 0 19:58 20.11.2019
4049 Haze 26 1009 78 5000 1.5 190 19:37 20.11.2019
4050 Haze 26 1009 78 5000 1.5 190 19:19 20.11.2019
4051 Haze 26 1010 78 5000 1 230 18:59 20.11.2019
4052 Haze 26 1010 78 5000 1 160 18:40 20.11.2019
4053 Haze 26 1010 78 5000 1 160 18:21 20.11.2019
4054 Haze 26 1010 78 5000 1.5 170 17:58 20.11.2019
4055 Haze 26 1010 78 5000 1 0 17:39 20.11.2019
4056 Haze 26 1010 78 5000 1 0 17:20 20.11.2019
4057 Haze 26 1010 78 5000 1.5 170 16:57 20.11.2019
4058 Haze 26 1010 78 5000 1.5 130 16:39 20.11.2019
4059 Haze 26 1010 78 5000 1.5 130 16:19 20.11.2019
4060 Haze 26 1010 74 5000 1.5 160 15:56 20.11.2019
4061 Haze 26 1010 74 5000 1.5 160 15:56 20.11.2019
4062 Clouds 26 1010 69 6000 1.5 140 15:38 20.11.2019
4063 Clouds 27 1010 69 6000 1.5 140 15:18 20.11.2019
4064 Clouds 27 1010 74 6000 2.6 160 14:40 20.11.2019
4065 Clouds 26 1010 74 6000 2.6 160 14:22 20.11.2019
4066 Clouds 26 1010 74 6000 2.6 160 14:22 20.11.2019
4067 Clouds 26 1010 74 6000 2.6 160 14:22 20.11.2019
4068 Clouds 26 1010 74 6000 2.6 160 14:22 20.11.2019
4069 Clouds 26 1010 74 6000 2.6 160 14:22 20.11.2019
4070 Clouds 27 1009 74 6000 1 170 13:58 20.11.2019
4071 Clouds 27 1009 74 6000 1 170 13:58 20.11.2019
4072 Rain 27 1009 88 5000 4.6 140 13:39 20.11.2019
4073 Rain 27 1009 88 5000 4.6 140 13:20 20.11.2019
4074 Thunderstorm 28 1009 74 5000 3.1 200 12:57 20.11.2019
4075 Rain 28 1008 74 5000 1.5 0 12:37 20.11.2019
4076 Rain 28 1008 74 5000 1.5 0 12:19 20.11.2019
4077 Rain 29 1007 66 5000 3.1 260 11:45 20.11.2019
4078 Clouds 29 1006 66 6000 3.1 350 11:22 20.11.2019
4079 Clouds 30 1007 70 7000 4.6 320 10:56 20.11.2019
4080 Clouds 31 1006 55 6000 3.6 360 10:38 20.11.2019
4081 Clouds 31 1006 55 6000 3.6 360 10:20 20.11.2019
4082 Clouds 32 1006 55 10000 4.1 360 09:56 20.11.2019
4083 Clouds 32 1005 55 6000 3.6 360 09:37 20.11.2019
4084 Clouds 33 1005 55 6000 3.6 360 09:19 20.11.2019
4085 Clouds 34 1006 52 10000 4.6 10 08:41 20.11.2019
4086 Clouds 34 1006 52 6000 3.1 10 08:23 20.11.2019
4087 Clouds 34 1007 49 10000 6.2 10 07:48 20.11.2019
4088 Clouds 34 1009 52 6000 1.5 260 07:30 20.11.2019
4089 Clouds 34 1008 49 10000 4.1 340 06:55 20.11.2019
4090 Clouds 34 1008 46 6000 3.1 30 06:36 20.11.2019
4091 Clouds 33 1008 46 6000 3.1 30 06:18 20.11.2019
4092 Clouds 34 1010 55 10000 1 0 03:55 20.11.2019
4093 Clouds 29 1011 66 6000 1.5 150 02:23 20.11.2019
4094 Clouds 28 1011 78 6000 2.87 123 01:35 20.11.2019
4095 Clouds 26 1010 74 8000 2.1 160 00:44 20.11.2019
4096 Clouds 26 1010 78 6000 2.87 123 00:18 20.11.2019
4097 Haze 26 1009 88 5000 1.5 240 23:40 19.11.2019
4098 Haze 25 1009 88 5000 1.5 240 23:22 19.11.2019
4099 Haze 26 1009 88 5000 2.55 124 22:54 19.11.2019
4100 Haze 26 1009 83 5000 2.55 124 22:36 19.11.2019
4101 Haze 26 1009 83 5000 2.55 124 22:18 19.11.2019
4102 Clouds 26 1009 78 7000 1.5 170 21:54 19.11.2019
4103 Clouds 26 1009 78 7000 1 140 21:36 19.11.2019
4104 Clouds 26 1009 78 7000 1 140 21:18 19.11.2019
4105 Clouds 26 1009 78 7000 1.5 170 20:54 19.11.2019
4106 Clouds 26 1009 78 7000 1.5 0 20:36 19.11.2019
4107 Clouds 26 1009 78 7000 1.5 0 20:18 19.11.2019
4108 Clouds 25 1009 78 7000 1.5 0 20:18 19.11.2019
4109 Clouds 25 1009 78 7000 1.76 103 19:41 19.11.2019
4110 Clouds 25 1009 78 7000 1.76 103 19:41 19.11.2019
4111 Clouds 26 1009 74 7000 0.5 0 19:20 19.11.2019
4112 Clouds 26 1010 74 7000 2.1 170 18:58 19.11.2019
4113 Clouds 26 1010 74 7000 2.6 180 18:39 19.11.2019
4114 Clouds 26 1010 74 7000 2.6 180 18:18 19.11.2019
4115 Clouds 26 1010 78 7000 1 220 17:57 19.11.2019
4116 Clouds 26 1010 78 7000 1 220 17:37 19.11.2019
4117 Clouds 26 1010 78 7000 1 220 17:19 19.11.2019
4118 Clouds 26 1010 78 7000 1.5 220 16:57 19.11.2019
4119 Clouds 27 1011 69 7000 2.6 200 16:38 19.11.2019
4120 Clouds 27 1011 69 7000 2.6 200 16:18 19.11.2019
4121 Clouds 28 1011 66 7000 3.1 210 15:44 19.11.2019
4122 Clouds 28 1011 74 7000 2.1 230 15:25 19.11.2019
4123 Clouds 28 1010 74 7000 1 0 14:57 19.11.2019
4124 Clouds 28 1010 74 7000 1 0 14:39 19.11.2019
4125 Clouds 29 1010 74 7000 1 0 14:20 19.11.2019
4126 Clouds 29 1009 74 7000 0.5 0 13:42 19.11.2019
4127 Clouds 29 1009 70 6000 3.1 360 13:20 19.11.2019
4128 Clouds 30 1009 66 8000 2.1 360 12:54 19.11.2019
4129 Clouds 30 1008 66 8000 2.6 300 12:36 19.11.2019
4130 Clouds 30 1008 66 8000 2.6 300 12:18 19.11.2019
4131 Clouds 30 1008 66 9000 4.1 350 11:54 19.11.2019
4132 Clouds 31 1007 59 8000 6.2 360 11:36 19.11.2019
4133 Clouds 31 1007 59 8000 6.2 360 11:18 19.11.2019
4134 Clouds 32 1007 59 10000 5.1 340 10:42 19.11.2019
4135 Clouds 32 1007 59 10000 5.1 340 10:20 19.11.2019
4136 Clouds 32 1007 59 10000 5.1 340 10:20 19.11.2019
4137 Clouds 33 1007 55 10000 3.1 360 09:43 19.11.2019
4138 Clouds 33 1007 49 8000 5.7 360 09:21 19.11.2019
4139 Clouds 33 1008 55 10000 3.6 40 08:57 19.11.2019
4140 Clouds 33 1008 55 10000 6.2 30 08:38 19.11.2019
4141 Clouds 33 1008 55 10000 6.2 30 08:20 19.11.2019
4142 Clouds 33 1008 49 10000 6.7 30 07:42 19.11.2019
4143 Clouds 34 1008 49 10000 6.7 30 07:23 19.11.2019
4144 Clouds 34 1009 49 10000 6.2 50 06:58 19.11.2019
4145 Clouds 34 1009 49 10000 6.2 50 06:37 19.11.2019
4146 Clouds 34 1009 49 10000 5.7 50 05:52 19.11.2019
4147 Clouds 34 1010 46 10000 5.1 50 05:18 19.11.2019
4148 Clouds 32 1011 59 10000 2.6 0 03:39 19.11.2019
4149 Clouds 32 1011 59 10000 2.6 0 03:19 19.11.2019
4150 Clouds 31 1011 74 6000 2.1 210 02:45 19.11.2019
4151 Clouds 28 1010 70 6000 3.6 210 01:48 19.11.2019
4152 Clouds 27 1010 78 6000 3.6 210 00:46 19.11.2019
4153 Haze 27 1010 94 4000 2.53 128 00:19 19.11.2019
4154 Clouds 26 1010 94 6000 4.6 160 23:39 18.11.2019
4155 Clouds 26 1010 94 6000 4.6 160 23:19 18.11.2019
4156 Clouds 26 1009 78 7000 3.1 210 22:46 18.11.2019
4157 Clouds 26 1009 88 6000 2.6 170 22:24 18.11.2019
4158 Clouds 26 1009 78 7000 2.6 200 21:58 18.11.2019
4159 Clouds 26 1009 78 7000 2.1 200 21:40 18.11.2019
4160 Clouds 26 1009 78 7000 2.1 200 21:21 18.11.2019
4161 Clouds 26 1009 78 7000 2.1 220 20:59 18.11.2019
4162 Clouds 26 1010 78 7000 1.5 300 20:40 18.11.2019
4163 Clouds 26 1010 78 7000 1.5 300 20:19 18.11.2019
4164 Clouds 26 1010 78 8000 1 340 19:57 18.11.2019
4165 Clouds 26 1010 78 8000 1.5 310 19:38 18.11.2019
4166 Clouds 26 1010 78 8000 1.5 310 19:20 18.11.2019
4167 Clouds 26 1010 74 8000 1 0 18:56 18.11.2019
4168 Clouds 27 1010 74 8000 1 0 18:38 18.11.2019
4169 Clouds 27 1010 74 8000 1 0 18:19 18.11.2019
4170 Clouds 27 1011 74 8000 2.1 0 17:55 18.11.2019
4171 Clouds 27 1011 74 8000 2.1 0 17:55 18.11.2019
4172 Clouds 27 1011 74 8000 2.1 0 17:37 18.11.2019
4173 Clouds 27 1011 74 8000 2.1 0 17:18 18.11.2019
4174 Clouds 27 1011 74 8000 1.5 0 16:42 18.11.2019
4175 Clouds 27 1011 74 8000 2.1 110 16:24 18.11.2019
4176 Clouds 27 1011 74 8000 1 0 15:57 18.11.2019
4177 Clouds 27 1011 74 8000 2.1 0 15:39 18.11.2019
4178 Clouds 27 1011 74 8000 2.1 0 15:20 18.11.2019
4179 Clouds 27 1011 74 8000 2.6 80 14:44 18.11.2019
4180 Clouds 28 1011 74 8000 3.1 50 14:24 18.11.2019
4181 Clouds 28 1011 74 8000 3.1 50 14:24 18.11.2019
4182 Clouds 28 1011 74 8000 4.6 50 13:59 18.11.2019
4183 Clouds 28 1011 74 8000 4.6 50 13:41 18.11.2019
4184 Clouds 28 1011 74 6000 3.1 10 13:23 18.11.2019
4185 Clouds 28 1010 79 6000 5.7 30 12:40 18.11.2019
4186 Clouds 28 1010 79 6000 5.7 30 12:20 18.11.2019
4187 Clouds 29 1009 74 7000 10.3 40 11:56 18.11.2019
4188 Clouds 30 1008 52 7000 5.1 20 11:37 18.11.2019
4189 Clouds 31 1008 52 7000 5.1 20 11:19 18.11.2019
4190 Clouds 32 1008 36 7000 5.1 30 10:42 18.11.2019
4191 Clouds 33 1008 36 7000 5.1 30 10:23 18.11.2019
4192 Clouds 33 1008 52 10000 5.7 50 09:57 18.11.2019
4193 Clouds 34 1007 34 7000 5.7 60 09:38 18.11.2019
4194 Clouds 34 1007 34 7000 5.7 60 09:19 18.11.2019
4195 Clouds 34 1007 34 7000 5.7 60 09:19 18.11.2019
4196 Clouds 35 1008 50 10000 4.6 40 08:47 18.11.2019
4197 Clouds 35 1007 47 6000 4.1 30 08:24 18.11.2019
4198 Clouds 35 1008 50 10000 6.7 20 07:58 18.11.2019
4199 Clouds 35 1008 47 10000 3.6 40 07:38 18.11.2019
4200 Clouds 36 1008 47 10000 3.6 40 07:20 18.11.2019
4201 Clouds 36 1008 47 10000 2.6 30 06:43 18.11.2019
4202 Clouds 36 1008 34 6000 5.1 80 06:25 18.11.2019
4203 Clouds 35 1009 36 6000 4.1 80 05:41 18.11.2019
4204 Clouds 33 1010 52 10000 2.1 0 03:53 18.11.2019
4205 Clouds 27 1011 74 6000 2.1 210 01:40 18.11.2019
4206 Haze 27 1011 78 5000 3.1 180 00:53 18.11.2019
4207 Haze 26 1010 88 5000 1.5 180 00:18 18.11.2019
4208 Clouds 26 1010 83 7000 1.58 94 23:41 17.11.2019
4209 Clouds 26 1010 83 7000 1.23 164 23:21 17.11.2019
4210 Haze 26 1010 83 5000 2.6 230 22:57 17.11.2019
4211 Haze 26 1009 83 5000 2.6 240 22:39 17.11.2019
4212 Haze 26 1009 83 5000 2.6 240 22:39 17.11.2019
4213 Haze 26 1009 83 5000 2.6 240 22:20 17.11.2019
4214 Clouds 25 1009 83 6000 2.1 240 21:55 17.11.2019
4215 Clouds 25 1009 83 7000 2.6 230 21:36 17.11.2019
4216 Clouds 25 1009 83 7000 2.6 230 21:18 17.11.2019
4217 Clouds 25 1009 83 8000 2.1 230 20:54 17.11.2019
4218 Clouds 25 1009 83 8000 2.6 230 20:36 17.11.2019
4219 Clouds 25 1009 83 8000 2.6 230 20:18 17.11.2019
4220 Clouds 25 1010 83 8000 2.6 230 19:54 17.11.2019
4221 Clouds 26 1010 78 8000 2.6 240 19:36 17.11.2019
4222 Clouds 26 1010 78 8000 2.6 240 19:18 17.11.2019
4223 Clouds 26 1010 78 7000 4.1 250 18:54 17.11.2019
4224 Clouds 26 1010 78 7000 3.6 230 18:36 17.11.2019
4225 Clouds 26 1010 78 7000 3.6 230 18:18 17.11.2019
4226 Clouds 27 1010 74 7000 4.1 230 17:56 17.11.2019
4227 Clouds 27 1011 74 7000 3.1 240 17:38 17.11.2019
4228 Clouds 27 1011 74 7000 3.1 240 17:18 17.11.2019
4229 Clouds 27 1011 74 7000 4.1 260 16:42 17.11.2019
4230 Clouds 27 1011 74 7000 4.1 260 16:21 17.11.2019
4231 Clouds 28 1011 70 7000 1.5 310 15:57 17.11.2019
4232 Clouds 28 1011 70 8000 1.5 320 15:39 17.11.2019
4233 Clouds 28 1011 70 8000 1.5 320 15:19 17.11.2019
4234 Clouds 29 1011 66 8000 1.5 300 14:57 17.11.2019
4235 Clouds 29 1010 66 8000 1 310 14:39 17.11.2019
4236 Clouds 29 1010 66 8000 1 310 14:39 17.11.2019
4237 Clouds 30 1010 66 8000 1 310 14:20 17.11.2019
4238 Clouds 30 1010 70 8000 1.5 40 13:58 17.11.2019
4239 Clouds 30 1010 58 7000 3.6 50 13:40 17.11.2019
4240 Clouds 30 1010 58 7000 3.6 50 13:19 17.11.2019
4241 Clouds 30 1009 58 8000 4.1 30 12:45 17.11.2019
4242 Clouds 31 1009 52 8000 3.1 50 12:23 17.11.2019
4243 Clouds 31 1008 49 8000 6.2 50 11:58 17.11.2019
4244 Clouds 32 1008 49 8000 6.2 30 11:40 17.11.2019
4245 Clouds 32 1008 49 8000 6.2 30 11:40 17.11.2019
4246 Clouds 32 1008 49 8000 6.2 30 11:20 17.11.2019
4247 Clouds 33 1008 46 8000 5.1 50 10:56 17.11.2019
4248 Clouds 33 1007 46 8000 5.7 30 10:36 17.11.2019
4249 Clouds 33 1007 46 8000 5.7 30 10:18 17.11.2019
4250 Clouds 34 1007 41 7000 5.1 40 09:41 17.11.2019
4251 Clouds 34 1007 41 7000 5.1 40 09:23 17.11.2019
4252 Clouds 34 1007 49 7000 3.6 30 08:44 17.11.2019
4253 Clouds 33 1008 49 7000 4.1 330 08:24 17.11.2019
4254 Clouds 34 1008 47 7000 3.1 340 07:56 17.11.2019
4255 Clouds 34 1008 46 7000 5.7 30 07:38 17.11.2019
4256 Clouds 34 1008 46 7000 5.7 30 07:19 17.11.2019
4257 Clouds 35 1009 46 6000 5.7 30 06:50 17.11.2019
4258 Clouds 35 1009 41 6000 5.1 40 06:27 17.11.2019
4259 Clouds 34 1010 49 6000 3.1 120 04:50 17.11.2019
4260 Haze 32 1011 55 5000 3.1 90 03:58 17.11.2019
4261 Haze 32 1011 55 5000 2.6 180 03:33 17.11.2019
4262 Haze 31 1011 66 5000 2.17 355 02:41 17.11.2019
4263 Haze 29 1011 66 5000 2.6 0 01:49 17.11.2019
4264 Haze 27 1011 74 5000 2.1 0 00:59 17.11.2019
4265 Haze 26 1011 78 5000 1.5 190 00:23 17.11.2019
4266 Haze 26 1010 78 5000 2.1 0 23:59 16.11.2019
4267 Clear 26 1010 83 6000 1.5 220 23:40 16.11.2019
4268 Clear 25 1010 83 6000 1.5 220 23:18 16.11.2019
4269 Haze 25 1010 78 5000 3.1 210 22:42 16.11.2019
4270 Haze 25 1010 78 5000 3.1 210 22:20 16.11.2019
4271 Haze 25 1010 78 5000 3.1 210 21:58 16.11.2019
4272 Haze 25 1010 74 5000 3.6 210 21:39 16.11.2019
4273 Haze 26 1010 74 5000 3.6 210 21:21 16.11.2019
4274 Haze 26 1010 74 5000 3.1 210 20:57 16.11.2019
4275 Haze 26 1010 74 5000 3.1 220 20:39 16.11.2019
4276 Haze 26 1010 74 5000 3.1 220 20:19 16.11.2019
4277 Haze 27 1011 74 5000 2.1 220 19:41 16.11.2019
4278 Haze 27 1011 74 5000 2.1 220 19:22 16.11.2019
4279 Haze 27 1011 74 5000 3.1 210 18:58 16.11.2019
4280 Clouds 27 1011 74 6000 1.5 0 18:39 16.11.2019
4281 Clouds 27 1011 74 6000 1.5 0 18:20 16.11.2019
4282 Haze 27 1011 74 5000 2.1 0 17:55 16.11.2019
4283 Haze 27 1012 69 5000 1.5 0 17:36 16.11.2019
4284 Haze 27 1012 69 5000 1.5 0 17:18 16.11.2019
4285 Haze 28 1012 70 5000 1 60 16:44 16.11.2019
4286 Haze 28 1012 70 5000 1 60 16:44 16.11.2019
4287 Haze 28 1012 70 5000 1.5 60 16:26 16.11.2019
4288 Clouds 28 1012 70 6000 1.5 50 15:54 16.11.2019
4289 Clouds 28 1011 69 8000 0.5 0 15:36 16.11.2019
4290 Clouds 28 1011 69 8000 0.5 0 15:18 16.11.2019
4291 Clouds 29 1011 66 8000 1.5 320 14:40 16.11.2019
4292 Clouds 30 1011 66 8000 1.5 320 14:21 16.11.2019
4293 Clouds 30 1010 66 8000 1 340 13:56 16.11.2019
4294 Clouds 30 1010 58 6000 2.6 20 13:38 16.11.2019
4295 Clouds 30 1010 58 6000 2.6 20 13:19 16.11.2019
4296 Clouds 30 1009 66 8000 2.1 20 12:58 16.11.2019
4297 Clouds 30 1008 55 6000 3.6 360 12:40 16.11.2019
4298 Clouds 30 1008 55 6000 3.6 360 12:20 16.11.2019
4299 Clouds 31 1009 58 10000 3.1 30 11:45 16.11.2019
4300 Clouds 32 1008 49 7000 4.6 30 11:26 16.11.2019
4301 Clouds 32 1008 55 10000 4.6 40 10:57 16.11.2019
4302 Clouds 32 1008 52 9000 5.1 50 10:39 16.11.2019
4303 Clouds 33 1008 52 9000 5.1 50 10:20 16.11.2019
4304 Clouds 34 1008 49 8000 5.1 40 09:43 16.11.2019
4305 Clouds 34 1007 41 7000 5.1 10 09:21 16.11.2019
4306 Clouds 34 1008 49 10000 5.7 40 08:58 16.11.2019
4307 Clouds 34 1007 46 7000 4.1 360 08:38 16.11.2019
4308 Clouds 34 1007 46 7000 4.1 360 08:18 16.11.2019
4309 Clouds 34 1007 46 7000 4.1 360 08:18 16.11.2019
4310 Clouds 35 1008 49 10000 4.83 353 07:42 16.11.2019
4311 Clouds 35 1008 32 7000 4.1 60 07:20 16.11.2019
4312 Clouds 35 1009 46 10000 5.1 40 06:51 16.11.2019
4313 Clear 35 1009 30 7000 5.1 120 06:33 16.11.2019
4314 Clear 35 1010 34 6000 5.1 50 05:28 16.11.2019
4315 Clouds 33 1011 38 10000 2.6 0 03:44 16.11.2019
4316 Clear 33 1011 45 6000 1.5 40 03:25 16.11.2019
4317 Clouds 29 1011 58 6000 2.6 130 01:51 16.11.2019
4318 Rain 27 1011 74 6000 1.5 150 01:20 16.11.2019
4319 Rain 26 1011 88 6000 2.6 180 00:44 16.11.2019
4320 Haze 25 1011 94 5000 2.2 107 00:25 16.11.2019
4321 Haze 25 1010 94 5000 2.1 240 23:40 15.11.2019
4322 Haze 25 1010 94 5000 2.1 240 23:21 15.11.2019
4323 Haze 25 1010 83 5000 1.5 0 22:55 15.11.2019
4324 Haze 25 1010 83 5000 1.5 170 22:37 15.11.2019
4325 Haze 25 1010 83 5000 1.5 170 22:18 15.11.2019
4326 Haze 25 1010 78 5000 1.5 150 21:42 15.11.2019
4327 Haze 25 1010 78 5000 1.5 150 21:21 15.11.2019
4328 Haze 25 1010 83 5000 2.1 200 20:59 15.11.2019
4329 Clouds 25 1010 78 7000 2.1 190 20:40 15.11.2019
4330 Clouds 25 1010 78 7000 2.1 190 20:22 15.11.2019
4331 Clouds 26 1010 74 7000 1.5 200 19:59 15.11.2019
4332 Clouds 26 1010 74 7000 1.5 200 19:41 15.11.2019
4333 Clouds 26 1010 74 7000 1.5 200 19:21 15.11.2019
4334 Clouds 25 1011 78 7000 2.1 220 18:59 15.11.2019
4335 Clouds 26 1011 74 8000 1 0 18:41 15.11.2019
4336 Clouds 26 1011 74 8000 1 0 18:41 15.11.2019
4337 Clouds 25 1011 74 8000 1 0 18:22 15.11.2019
4338 Clouds 25 1011 74 7000 1 0 17:54 15.11.2019
4339 Clouds 25 1011 74 7000 1 150 17:36 15.11.2019
4340 Clouds 25 1011 74 7000 1 150 17:18 15.11.2019
4341 Clouds 25 1011 74 8000 2.1 160 16:40 15.11.2019
4342 Clouds 25 1011 74 8000 2.1 160 16:22 15.11.2019
4343 Clouds 25 1011 74 8000 2.1 170 15:57 15.11.2019
4344 Clouds 25 1011 69 8000 2.6 0 15:36 15.11.2019
4345 Clouds 25 1011 69 8000 2.6 0 15:18 15.11.2019
4346 Clouds 26 1011 69 8000 3.1 170 14:55 15.11.2019
4347 Clouds 26 1011 65 8000 3.1 180 14:36 15.11.2019
4348 Clouds 26 1011 65 8000 3.1 180 14:18 15.11.2019
4349 Clouds 26 1010 61 10000 3.6 200 13:54 15.11.2019
4350 Thunderstorm 26 1010 83 4000 4.6 150 13:36 15.11.2019
4351 Thunderstorm 27 1010 83 4000 4.6 150 13:18 15.11.2019
4352 Thunderstorm 27 1010 65 4000 6.2 150 12:55 15.11.2019
4353 Rain 29 1009 66 5000 2.1 210 12:36 15.11.2019
4354 Rain 29 1009 66 5000 2.1 210 12:18 15.11.2019
4355 Clouds 30 1007 62 8000 3.1 360 11:39 15.11.2019
4356 Clouds 31 1007 62 8000 3.1 360 11:21 15.11.2019
4357 Clouds 32 1007 55 8000 4.1 360 10:58 15.11.2019
4358 Clouds 32 1007 55 8000 3.1 330 10:39 15.11.2019
4359 Clouds 32 1007 55 8000 3.1 330 10:20 15.11.2019
4360 Clouds 33 1007 49 8000 6.2 360 09:41 15.11.2019
4361 Clouds 33 1007 49 8000 6.2 360 09:20 15.11.2019
4362 Clouds 34 1007 52 8000 4.1 360 08:57 15.11.2019
4363 Clouds 33 1008 52 10000 5.7 360 08:39 15.11.2019
4364 Clouds 34 1008 52 10000 5.7 360 08:18 15.11.2019
4365 Clouds 34 1009 47 10000 4.1 20 07:42 15.11.2019
4366 Clouds 34 1009 47 10000 4.1 20 07:22 15.11.2019
4367 Clouds 34 1009 46 7000 5.7 50 06:36 15.11.2019
4368 Clouds 34 1009 46 7000 5.1 60 05:52 15.11.2019
4369 Clouds 34 1009 46 7000 5.1 60 05:52 15.11.2019
4370 Clouds 34 1010 49 7000 4.1 150 05:28 15.11.2019
4371 Clouds 33 1011 49 7000 3.1 120 04:42 15.11.2019
4372 Clouds 30 1011 66 8000 1 0 03:38 15.11.2019
4373 Clouds 29 1011 74 6000 2.1 120 02:32 15.11.2019
4374 Haze 27 1010 78 5000 2.6 150 01:48 15.11.2019
4375 Haze 27 1010 78 5000 2.6 150 01:24 15.11.2019
4376 Haze 27 1010 78 5000 2.6 150 01:24 15.11.2019
4377 Haze 26 1010 83 5000 0.76 87 00:37 15.11.2019
4378 Haze 26 1010 83 5000 0.76 87 00:37 15.11.2019
4379 Haze 26 1009 78 5000 3.1 170 23:59 14.11.2019
4380 Haze 26 1009 78 5000 3.6 190 23:40 14.11.2019
4381 Haze 26 1009 78 5000 3.6 190 23:21 14.11.2019
4382 Haze 26 1009 83 4000 1.15 153 22:41 14.11.2019
4383 Haze 26 1009 83 4000 1.15 153 22:22 14.11.2019
4384 Haze 26 1009 78 5000 2.6 190 21:57 14.11.2019
4385 Haze 26 1009 74 5000 2.6 200 21:39 14.11.2019
4386 Haze 26 1009 74 5000 2.6 200 21:39 14.11.2019
4387 Haze 26 1009 74 5000 2.6 200 21:21 14.11.2019
4388 Haze 26 1009 74 5000 2.6 200 20:54 14.11.2019
4389 Clouds 26 1009 74 6000 1.5 220 20:36 14.11.2019
4390 Clouds 26 1009 74 6000 1.5 220 20:18 14.11.2019
4391 Clouds 27 1010 74 8000 2.6 210 19:54 14.11.2019
4392 Clouds 27 1010 74 8000 3.1 210 19:36 14.11.2019
4393 Clouds 27 1010 69 6000 2.6 200 19:18 14.11.2019
4394 Clouds 28 1011 69 7000 1.5 160 18:41 14.11.2019
4395 Clouds 27 1011 69 7000 1.5 160 18:22 14.11.2019
4396 Clouds 27 1011 65 6000 2.1 110 17:57 14.11.2019
4397 Clouds 27 1011 65 6000 2.1 110 17:37 14.11.2019
4398 Clouds 28 1011 65 6000 2.1 110 17:19 14.11.2019
4399 Clouds 27 1011 65 6000 2.1 110 16:58 14.11.2019
4400 Clouds 27 1012 65 6000 2.6 0 16:37 14.11.2019
4401 Clouds 28 1012 65 6000 2.6 0 16:19 14.11.2019
4402 Clouds 28 1012 65 6000 2.6 0 15:57 14.11.2019
4403 Clouds 27 1012 65 6000 2.1 80 15:38 14.11.2019
4404 Clouds 27 1012 65 6000 2.1 80 15:20 14.11.2019
4405 Clouds 28 1011 61 6000 2.6 90 14:46 14.11.2019
4406 Clouds 27 1011 61 8000 1.5 80 14:23 14.11.2019
4407 Clouds 27 1011 58 8000 2.6 90 13:58 14.11.2019
4408 Clouds 27 1010 54 8000 3.6 110 13:39 14.11.2019
4409 Clouds 27 1010 54 8000 3.6 110 13:20 14.11.2019
4410 Clouds 27 1009 58 8000 3.6 110 12:57 14.11.2019
4411 Clouds 28 1009 65 6000 4.1 90 12:38 14.11.2019
4412 Clouds 28 1009 65 6000 4.1 90 12:19 14.11.2019
4413 Clouds 28 1009 62 8000 4.1 130 11:54 14.11.2019
4414 Clouds 28 1009 66 6000 4.1 100 11:36 14.11.2019
4415 Clouds 28 1009 66 6000 4.1 100 11:18 14.11.2019
4416 Clouds 28 1009 66 6000 4.1 100 11:18 14.11.2019
4417 Clouds 28 1009 66 8000 3.1 110 10:41 14.11.2019
4418 Clouds 28 1009 70 7000 4.6 70 10:21 14.11.2019
4419 Clouds 28 1009 62 8000 7.7 100 09:59 14.11.2019
4420 Clouds 28 1009 70 8000 7.7 90 09:41 14.11.2019
4421 Clouds 28 1009 70 8000 7.7 90 09:23 14.11.2019
4422 Clouds 28 1010 74 6000 6.2 50 08:49 14.11.2019
4423 Clouds 28 1010 74 6000 6.2 50 08:28 14.11.2019
4424 Clouds 29 1010 74 9000 8.7 70 07:59 14.11.2019
4425 Clouds 28 1010 70 6000 5.7 60 07:38 14.11.2019
4426 Clouds 28 1010 70 6000 5.7 60 07:20 14.11.2019
4427 Clouds 29 1011 62 8000 9.8 90 06:45 14.11.2019
4428 Clouds 28 1011 54 5000 5.7 60 06:19 14.11.2019
4429 Clouds 31 1012 62 7000 6.7 60 04:49 14.11.2019
4430 Haze 28 1012 74 5000 1 0 04:27 14.11.2019
4431 Clouds 28 1012 78 6000 1.5 0 02:49 14.11.2019
4432 Haze 27 1012 78 5000 1.5 150 02:28 14.11.2019
4433 Haze 26 1011 83 4000 1.5 120 01:34 14.11.2019
4434 Haze 26 1011 83 4000 1.5 220 00:55 14.11.2019
4435 Haze 25 1011 88 4000 4.13 112 00:34 14.11.2019
4436 Haze 26 1010 88 4000 1.5 250 23:58 13.11.2019
4437 Haze 25 1010 88 5000 1.5 280 23:37 13.11.2019
4438 Haze 25 1010 88 5000 1.5 280 23:18 13.11.2019
4439 Clouds 26 1009 83 6000 1 0 22:41 13.11.2019
4440 Clouds 27 1009 83 6000 1 0 22:22 13.11.2019
4441 Clouds 26 1009 78 6000 2.1 170 21:57 13.11.2019
4442 Haze 26 1009 78 5000 2.1 210 21:39 13.11.2019
4443 Haze 26 1009 78 5000 2.1 210 21:20 13.11.2019
4444 Thunderstorm 26 1009 78 5000 2.1 220 20:57 13.11.2019
4445 Haze 26 1009 83 5000 2.1 210 20:38 13.11.2019
4446 Haze 26 1009 83 5000 2.1 210 20:19 13.11.2019
4447 Rain 26 1010 83 5000 2.6 210 19:59 13.11.2019
4448 Haze 27 1010 74 5000 2.6 230 19:40 13.11.2019
4449 Haze 27 1010 74 5000 2.6 230 19:18 13.11.2019
4450 Haze 27 1011 74 5000 2.1 230 18:55 13.11.2019
4451 Haze 27 1011 74 5000 3.1 240 18:37 13.11.2019
4452 Haze 27 1011 74 5000 3.1 240 18:18 13.11.2019
4453 Haze 27 1011 74 5000 2.1 260 17:56 13.11.2019
4454 Clouds 26 1012 74 6000 2.1 220 17:37 13.11.2019
4455 Clouds 26 1012 74 6000 2.1 220 17:19 13.11.2019
4456 Clouds 26 1012 69 6000 2.6 200 16:56 13.11.2019
4457 Clouds 26 1012 69 6000 2.1 0 16:37 13.11.2019
4458 Clouds 26 1012 69 6000 2.1 0 16:18 13.11.2019
4459 Clouds 26 1012 65 7000 2.1 0 15:56 13.11.2019
4460 Clouds 26 1012 65 7000 2.1 0 15:56 13.11.2019
4461 Clouds 26 1012 65 7000 2.6 0 15:37 13.11.2019
4462 Clouds 26 1012 65 7000 2.6 0 15:18 13.11.2019
4463 Clouds 27 1011 69 7000 3.6 180 14:41 13.11.2019
4464 Clouds 26 1011 69 7000 3.6 180 14:21 13.11.2019
4465 Rain 27 1010 65 3000 3.1 230 13:39 13.11.2019
4466 Rain 27 1010 65 3000 3.1 230 13:20 13.11.2019
4467 Rain 27 1010 69 5000 3.6 200 12:59 13.11.2019
4468 Clouds 28 1010 66 7000 4.1 220 12:41 13.11.2019
4469 Clouds 29 1010 66 7000 4.1 220 12:23 13.11.2019
4470 Clouds 29 1009 62 9000 3.6 70 11:55 13.11.2019
4471 Clouds 30 1009 55 6000 4.1 90 11:37 13.11.2019
4472 Clouds 30 1009 55 6000 4.1 90 11:18 13.11.2019
4473 Clouds 29 1008 62 9000 5.1 70 10:55 13.11.2019
4474 -273 0 0 0 0 0 10:37 13.11.2019
4475 Clouds 31 1008 59 9000 6.2 60 10:19 13.11.2019
4476 Clouds 31 1008 59 9000 6.2 60 10:19 13.11.2019
4477 Clouds 31 1007 52 6000 5.1 30 09:42 13.11.2019
4478 Clouds 31 1007 52 6000 5.1 30 09:21 13.11.2019
4479 Clouds 30 1008 55 6000 5.1 30 08:42 13.11.2019
4480 Clouds 31 1008 52 6000 4.1 50 08:23 13.11.2019
4481 Thunderstorm 31 1009 59 5000 4.6 80 07:59 13.11.2019
4482 Rain 31 1010 49 5000 5.1 80 07:39 13.11.2019
4483 Rain 32 1010 49 5000 5.1 80 07:18 13.11.2019
4484 Rain 32 1010 49 5000 5.1 80 07:18 13.11.2019
4485 Clouds 32 1009 62 8000 5.7 40 06:42 13.11.2019
4486 Rain 33 1010 49 5000 5.1 80 06:19 13.11.2019
4487 Haze 33 1010 49 5000 4.1 120 05:48 13.11.2019
4488 Haze 33 1010 49 5000 6.7 80 05:19 13.11.2019
4489 Haze 31 1011 66 4000 2.1 160 03:57 13.11.2019
4490 Haze 27 1011 74 5000 3.1 200 01:52 13.11.2019
4491 Haze 27 1011 83 4000 2.1 180 01:27 13.11.2019
4492 Haze 27 1011 83 4000 2.1 180 01:27 13.11.2019
4493 Haze 26 1011 78 5000 3.1 200 00:43 13.11.2019
4494 Haze 26 1010 83 5000 1.5 230 23:57 12.11.2019
4495 Haze 26 1010 83 5000 2.6 210 23:39 12.11.2019
4496 Haze 26 1010 83 5000 2.6 210 23:19 12.11.2019
4497 Haze 26 1010 83 5000 3.1 230 22:42 12.11.2019
4498 Haze 26 1010 94 5000 2.3 104 22:19 12.11.2019
4499 Haze 26 1010 83 5000 3.1 220 21:57 12.11.2019
4500 Haze 26 1010 83 5000 3.1 230 21:38 12.11.2019
4501 Haze 26 1010 83 5000 3.1 230 21:20 12.11.2019
4502 Haze 26 1010 83 5000 2.1 210 20:55 12.11.2019
4503 Haze 27 1010 78 5000 3.1 230 20:37 12.11.2019
4504 Haze 27 1010 78 5000 3.1 230 20:37 12.11.2019
4505 Haze 27 1010 78 5000 3.1 230 20:18 12.11.2019
4506 Haze 27 1010 78 5000 3.6 220 19:55 12.11.2019
4507 Haze 26 1011 78 5000 2.1 210 19:37 12.11.2019
4508 Haze 26 1011 78 5000 2.1 210 19:18 12.11.2019
4509 Haze 26 1011 78 4700 4.1 250 18:55 12.11.2019
4510 Haze 26 1011 74 5000 3.6 250 18:37 12.11.2019
4511 Haze 26 1011 74 5000 3.6 250 18:37 12.11.2019
4512 Haze 26 1011 74 5000 3.6 250 18:19 12.11.2019
4513 Haze 26 1011 74 5000 4.1 260 17:55 12.11.2019
4514 Haze 26 1012 74 5000 4.1 260 17:37 12.11.2019
4515 Haze 26 1012 74 5000 4.1 260 17:37 12.11.2019
4516 Haze 26 1012 74 5000 4.1 260 17:18 12.11.2019
4517 Haze 26 1012 74 5000 4.1 260 17:18 12.11.2019
4518 Haze 26 1012 74 5000 4.1 240 16:43 12.11.2019
4519 Haze 26 1012 65 5000 3.6 240 16:25 12.11.2019
4520 Haze 26 1011 65 5000 3.1 250 15:57 12.11.2019
4521 Haze 26 1011 65 5000 3.1 250 15:57 12.11.2019
4522 Haze 26 1011 69 5000 2.1 220 15:37 12.11.2019
4523 Haze 26 1011 69 5000 2.1 220 15:18 12.11.2019
4524 Haze 27 1011 65 5000 2.1 220 14:55 12.11.2019
4525 Haze 27 1011 69 4500 3.1 230 14:36 12.11.2019
4526 Haze 28 1011 69 4500 3.1 230 14:18 12.11.2019
4527 Clouds 28 1010 74 8000 1 0 13:54 12.11.2019
4528 Haze 28 1010 70 5000 1.5 260 13:36 12.11.2019
4529 Haze 29 1010 70 5000 1.5 260 13:18 12.11.2019
4530 Haze 29 1009 66 5000 2.1 20 12:39 12.11.2019
4531 Haze 29 1009 66 5000 2.1 20 12:19 12.11.2019
4532 Clouds 30 1009 66 9000 3.1 30 11:55 12.11.2019
4533 Rain 30 1007 62 5000 4.1 30 11:36 12.11.2019
4534 Clouds 30 1008 62 9000 3.6 30 11:18 12.11.2019
4535 Clouds 31 1008 62 9000 3.6 30 10:55 12.11.2019
4536 Haze 31 1007 62 5000 4.1 30 10:36 12.11.2019
4537 Haze 31 1007 62 5000 4.1 30 10:18 12.11.2019
4538 Clouds 31 1008 55 10000 4.1 10 09:39 12.11.2019
4539 Clouds 31 1008 55 10000 4.1 10 09:19 12.11.2019
4540 Clouds 31 1008 55 10000 5.1 360 08:49 12.11.2019
4541 Clouds 31 1008 55 10000 4.1 350 08:29 12.11.2019
4542 Clouds 33 1008 55 10000 4.1 350 07:43 12.11.2019
4543 Rain 33 1009 66 5000 5.1 330 07:25 12.11.2019
4544 Clouds 34 1009 52 10000 4.6 360 06:54 12.11.2019
4545 Clouds 34 1009 49 6000 3.1 200 06:26 12.11.2019
4546 Clouds 33 1010 52 9000 1.5 0 05:56 12.11.2019
4547 Clouds 33 1010 59 9000 2.1 0 04:59 12.11.2019
4548 Clouds 32 1011 62 6000 2.6 250 04:35 12.11.2019
4549 Clouds 30 1011 70 6000 2.6 240 02:41 12.11.2019
4550 Haze 27 1010 74 6000 3.1 240 01:27 12.11.2019
4551 Haze 26 1010 74 5000 2.1 240 00:57 12.11.2019
4552 Haze 26 1010 74 5000 2.1 240 00:57 12.11.2019
4553 Haze 26 1009 88 5000 3.6 230 00:39 12.11.2019
4554 Haze 25 1009 88 5000 3.1 270 23:56 11.11.2019
4555 Clouds 25 1009 88 6000 2.1 240 23:38 11.11.2019
4556 Clouds 25 1009 88 6000 2.1 240 23:19 11.11.2019
4557 Clear 25 1008 88 6000 2.1 240 22:39 11.11.2019
4558 Clear 25 1008 88 6000 2.1 240 22:20 11.11.2019
4559 Clouds 26 1009 78 6000 1.5 200 21:58 11.11.2019
4560 Clouds 26 1008 78 6000 2.1 200 21:39 11.11.2019
4561 Clouds 26 1008 78 6000 2.1 200 21:21 11.11.2019
4562 Haze 26 1008 78 5000 1.5 200 20:56 11.11.2019
4563 Haze 26 1008 78 5000 1.5 200 20:56 11.11.2019
4564 Haze 26 1008 78 5000 1.5 200 20:38 11.11.2019
4565 Haze 26 1008 78 5000 1.5 200 20:19 11.11.2019
4566 Haze 26 1008 78 5000 1.5 200 20:19 11.11.2019
4567 Haze 26 1009 78 5000 2.6 210 19:55 11.11.2019
4568 Haze 26 1009 74 5000 2.1 210 19:37 11.11.2019
4569 Haze 26 1009 74 5000 2.1 210 19:18 11.11.2019
4570 Clouds 26 1009 69 6000 1.5 210 18:41 11.11.2019
4571 Clouds 27 1009 65 6000 2.1 210 18:21 11.11.2019
4572 Clouds 27 1009 65 6000 2.1 210 17:46 11.11.2019
4573 Clouds 27 1009 65 6000 2.1 210 17:46 11.11.2019
4574 Clouds 27 1010 65 6000 2.6 200 17:28 11.11.2019
4575 Clouds 27 1010 65 6000 1.5 160 16:58 11.11.2019
4576 Clouds 27 1010 65 6000 2.1 140 16:38 11.11.2019
4577 Clouds 27 1010 65 6000 2.1 140 16:20 11.11.2019
4578 Clouds 27 1010 65 6000 2.6 140 15:42 11.11.2019
4579 Clouds 27 1010 65 6000 2.1 150 15:20 11.11.2019
4580 Clouds 27 1009 69 7000 2.1 0 14:56 11.11.2019
4581 Clouds 27 1009 69 7000 2.1 0 14:56 11.11.2019
4582 Clouds 27 1009 69 7000 2.1 0 14:38 11.11.2019
4583 Clouds 28 1009 74 7000 1.5 0 14:20 11.11.2019
4584 Clouds 28 1009 66 8000 1 0 13:56 11.11.2019
4585 Clouds 28 1008 74 6000 3.1 150 13:37 11.11.2019
4586 Clouds 28 1008 74 6000 3.1 150 13:18 11.11.2019
4587 Thunderstorm 28 1008 70 5000 4.1 210 12:55 11.11.2019
4588 Thunderstorm 29 1008 66 5000 2.1 320 12:37 11.11.2019
4589 Thunderstorm 30 1008 66 5000 2.1 320 12:19 11.11.2019
4590 Thunderstorm 31 1007 59 6000 4.6 360 11:41 11.11.2019
4591 Thunderstorm 31 1007 59 6000 4.6 360 11:21 11.11.2019
4592 Thunderstorm 32 1006 62 7000 4.1 360 10:44 11.11.2019
4593 Clouds 32 1006 59 7000 5.1 30 10:20 11.11.2019
4594 Clouds 32 1006 59 7000 5.1 30 10:20 11.11.2019
4595 Clouds 33 1006 59 8000 4.1 30 09:59 11.11.2019
4596 Clouds 33 1006 59 8000 4.1 30 09:41 11.11.2019
4597 Clouds 33 1006 56 7000 3.1 350 09:20 11.11.2019
4598 Clouds 33 1007 52 10000 5.1 20 08:43 11.11.2019
4599 Clouds 34 1007 49 10000 5.1 20 08:23 11.11.2019
4600 Clouds 33 1007 49 10000 5.1 20 07:57 11.11.2019
4601 Clouds 34 1007 49 10000 5.1 20 07:39 11.11.2019
4602 Rain 34 1008 74 3000 3.1 90 07:19 11.11.2019
4603 Rain 34 1008 59 3000 4.6 30 06:56 11.11.2019
4604 Rain 34 1009 55 4000 3.6 60 06:38 11.11.2019
4605 Rain 35 1009 55 4000 3.6 60 06:19 11.11.2019
4606 Haze 36 1009 55 4000 3.6 350 05:48 11.11.2019
4607 Rain 33 1011 66 6000 2.44 1 03:34 11.11.2019
4608 Rain 31 1011 70 6000 2.44 1 02:39 11.11.2019
4609 Clouds 29 1011 69 7000 2.1 210 01:59 11.11.2019
4610 Clouds 27 1010 69 6000 3.6 210 01:36 11.11.2019
4611 Clouds 27 1010 83 7000 2.6 210 00:55 11.11.2019
4612 Clouds 26 1009 78 6000 2.1 230 00:33 11.11.2019
4613 Clouds 25 1009 83 6000 1.5 220 23:58 10.11.2019
4614 Clouds 25 1009 83 8000 2.1 210 23:38 10.11.2019
4615 Clouds 25 1009 83 8000 2.1 210 23:19 10.11.2019
4616 Clouds 25 1009 83 8000 2.1 210 23:19 10.11.2019
4617 Clouds 25 1009 78 6000 1.5 240 22:56 10.11.2019
4618 Clouds 25 1009 78 6000 1.5 240 22:38 10.11.2019
4619 Clouds 26 1008 78 6000 2.1 200 22:19 10.11.2019
4620 Clouds 26 1008 78 6000 2.1 200 22:19 10.11.2019
4621 Clouds 25 1008 83 8000 1.5 200 21:55 10.11.2019
4622 Clouds 25 1008 83 8000 1.5 210 21:37 10.11.2019
4623 Clouds 25 1008 83 8000 1.5 210 21:19 10.11.2019
4624 Clouds 26 1008 83 8000 2.1 210 20:41 10.11.2019
4625 Clouds 26 1009 78 8000 3.1 220 20:22 10.11.2019
4626 Clouds 26 1009 74 8000 2.1 210 19:56 10.11.2019
4627 Clouds 26 1009 74 8000 2.1 210 19:56 10.11.2019
4628 Clouds 26 1009 74 8000 2.1 210 19:38 10.11.2019
4629 Clouds 27 1009 69 8000 2.6 200 19:19 10.11.2019
4630 Clouds 27 1009 69 8000 1.5 0 18:58 10.11.2019
4631 Clouds 27 1009 69 8000 1.5 0 18:40 10.11.2019
4632 Clouds 27 1009 69 8000 1.5 0 18:40 10.11.2019
4633 Clouds 27 1009 69 8000 1.5 0 18:40 10.11.2019
4634 Clouds 27 1010 69 8000 2.1 170 18:19 10.11.2019
4635 Clouds 28 1010 66 8000 2.1 170 17:57 10.11.2019
4636 Clouds 28 1010 66 8000 2.1 150 17:38 10.11.2019
4637 Clouds 28 1010 66 8000 2.1 150 17:20 10.11.2019
4638 Clouds 27 1010 69 8000 1.5 220 16:58 10.11.2019
4639 Clouds 27 1010 69 8000 2.1 0 16:39 10.11.2019
4640 Clouds 28 1010 69 8000 2.1 0 16:21 10.11.2019
4641 Clouds 28 1010 70 8000 1 90 15:56 10.11.2019
4642 Clouds 28 1010 70 8000 2.1 0 15:36 10.11.2019
4643 Clouds 28 1010 70 8000 2.1 0 15:18 10.11.2019
4644 Clouds 28 1010 66 8000 3.1 50 14:55 10.11.2019
4645 Clouds 28 1009 66 8000 2.6 50 14:36 10.11.2019
4646 Clouds 28 1009 66 8000 2.6 50 14:18 10.11.2019
4647 Clouds 29 1009 62 8000 2.1 40 13:41 10.11.2019
4648 Clouds 29 1009 62 8000 2.1 40 13:20 10.11.2019
4649 Clouds 30 1008 62 9000 1.5 0 12:54 10.11.2019
4650 Rain 30 1008 74 5000 1.5 290 12:36 10.11.2019
4651 Rain 30 1008 74 5000 1.5 290 12:18 10.11.2019
4652 Clouds 30 1007 62 10000 2.6 0 11:54 10.11.2019
4653 Clouds 31 1006 62 6000 3.6 360 11:36 10.11.2019
4654 Clouds 31 1006 62 6000 3.6 360 11:18 10.11.2019
4655 Clouds 32 1006 59 10000 4.1 350 10:41 10.11.2019
4656 Clouds 32 1006 62 6000 3.6 360 10:20 10.11.2019
4657 Clouds 33 1006 59 10000 4.6 350 09:45 10.11.2019
4658 Haze 33 1006 59 5000 4.6 360 09:27 10.11.2019
4659 Clouds 33 1007 52 10000 4.1 360 08:59 10.11.2019
4660 Clouds 33 1007 52 10000 4.1 360 08:38 10.11.2019
4661 Clouds 33 1007 52 10000 4.1 360 08:38 10.11.2019
4662 Haze 34 1007 66 5000 5.1 20 08:19 10.11.2019
4663 Clouds 32 1008 55 10000 4.1 360 07:43 10.11.2019
4664 Clouds 35 1008 52 10000 5.7 360 07:25 10.11.2019
4665 Clouds 35 1008 52 10000 5.7 360 07:25 10.11.2019
4666 Haze 34 1009 49 5000 2.1 360 06:33 10.11.2019
4667 Clouds 34 1010 49 10000 2.6 0 05:43 10.11.2019
4668 Clouds 32 1012 55 10000 1.5 0 03:22 10.11.2019
4669 Clouds 28 1012 65 6000 2.1 230 01:56 10.11.2019
4670 Clouds 27 1011 69 6000 2.1 250 01:19 10.11.2019
4671 Clouds 25 1011 69 6000 2.6 240 00:42 10.11.2019
4672 Haze 24 1010 69 5000 2.1 260 23:58 09.11.2019
4673 Haze 24 1010 69 5000 1.5 240 23:38 09.11.2019
4674 Haze 25 1010 69 5000 1.5 240 23:18 09.11.2019
4675 Haze 25 1010 69 5000 0.91 175 22:41 09.11.2019
4676 Haze 25 1010 74 5000 0.91 175 22:21 09.11.2019
4677 Haze 25 1010 78 5000 2.1 210 21:56 09.11.2019
4678 Haze 25 1010 78 5000 2.1 210 21:37 09.11.2019
4679 Haze 25 1010 78 5000 2.1 220 21:19 09.11.2019
4680 Haze 25 1010 78 5000 2.6 210 20:43 09.11.2019
4681 Clouds 25 1010 74 6000 2.1 200 20:23 09.11.2019
4682 Clouds 25 1010 74 6000 2.1 220 19:58 09.11.2019
4683 Clouds 26 1010 69 6000 1.5 210 19:40 09.11.2019
4684 Clouds 26 1010 69 6000 1.5 210 19:40 09.11.2019
4685 Clouds 25 1010 69 6000 1.5 210 19:21 09.11.2019
4686 Clouds 25 1011 69 6000 2.1 220 18:57 09.11.2019
4687 Clouds 26 1011 65 6000 1.5 220 18:38 09.11.2019
4688 Clouds 26 1011 65 6000 1.5 220 18:18 09.11.2019
4689 Clouds 26 1011 65 7000 1.5 220 17:41 09.11.2019
4690 Clouds 26 1011 65 7000 1.5 220 17:22 09.11.2019
4691 Clouds 26 1011 65 7000 2.1 230 16:56 09.11.2019
4692 Clouds 26 1011 61 7000 3.1 240 16:37 09.11.2019
4693 Clouds 26 1011 61 7000 3.1 240 16:37 09.11.2019
4694 Clouds 27 1011 61 7000 3.1 240 16:18 09.11.2019
4695 Clouds 27 1011 54 7000 3.6 240 15:41 09.11.2019
4696 Clouds 28 1011 51 8000 3.6 230 15:23 09.11.2019
4697 Clouds 28 1011 51 8000 3.6 240 14:46 09.11.2019
4698 Clouds 29 1011 48 8000 3.1 230 14:23 09.11.2019
4699 Clouds 30 1010 48 8000 3.6 250 13:58 09.11.2019
4700 Clouds 30 1010 48 8000 3.6 250 13:40 09.11.2019
4701 Clouds 30 1010 62 6000 1.5 250 13:21 09.11.2019
4702 Clouds 30 1009 58 6000 1.5 350 12:58 09.11.2019
4703 Clouds 31 1009 58 6000 1.5 350 12:40 09.11.2019
4704 Clouds 31 1009 55 6000 2.6 340 12:21 09.11.2019
4705 Clouds 31 1008 52 6000 4.1 20 11:48 09.11.2019
4706 Clear 32 1008 52 6000 4.6 350 11:22 09.11.2019
4707 Clear 32 1008 46 6000 2.6 300 10:58 09.11.2019
4708 Clear 33 1007 46 6000 3.6 330 10:39 09.11.2019
4709 Clear 34 1007 46 6000 3.6 330 10:19 09.11.2019
4710 Clear 34 1007 44 6000 3.1 20 09:45 09.11.2019
4711 Clouds 35 1007 44 6000 5.7 30 09:26 09.11.2019
4712 Clouds 35 1008 44 6000 5.7 20 08:57 09.11.2019
4713 Clouds 35 1008 41 6000 5.1 40 08:39 09.11.2019
4714 Clouds 36 1008 41 6000 5.1 40 08:19 09.11.2019
4715 Clouds 36 1008 39 6000 3.1 340 07:44 09.11.2019
4716 Clouds 36 1009 37 6000 4.1 20 07:22 09.11.2019
4717 Clouds 36 1010 34 6000 2.1 100 06:49 09.11.2019
4718 Clear 36 1010 36 6000 2.1 210 06:30 09.11.2019
4719 Clear 35 1011 36 6000 2.1 210 05:42 09.11.2019
4720 Clear 35 1012 41 6000 2.1 10 04:56 09.11.2019
4721 Clouds 32 1013 48 9000 3.1 200 03:37 09.11.2019
4722 Haze 31 1013 66 5000 1.5 220 02:42 09.11.2019
4723 Clouds 28 1013 69 7000 2.6 0 01:55 09.11.2019
4724 Clouds 26 1012 78 7000 2.6 220 00:51 09.11.2019
4725 Rain 25 1012 83 6000 2.59 235 00:31 09.11.2019
4726 Clouds 24 1011 83 6000 2.6 190 23:57 08.11.2019
4727 Clouds 25 1011 83 6000 1.5 280 23:38 08.11.2019
4728 Clouds 24 1011 83 6000 1.5 280 23:19 08.11.2019
4729 Clouds 24 1011 83 10000 2.1 220 22:47 08.11.2019
4730 Clouds 24 1011 83 6000 2.6 220 22:22 08.11.2019
4731 Clouds 24 1011 83 6000 2.6 220 21:56 08.11.2019
4732 Clouds 24 1011 83 6000 3.6 230 21:38 08.11.2019
4733 Clouds 24 1011 83 6000 3.6 230 21:18 08.11.2019
4734 Clouds 24 1011 83 6000 4.1 230 20:41 08.11.2019
4735 Clouds 24 1011 83 6000 4.1 230 20:21 08.11.2019
4736 Clouds 24 1011 78 6000 3.6 240 19:58 08.11.2019
4737 Clouds 25 1011 73 6000 3.1 230 19:38 08.11.2019
4738 Clouds 25 1011 73 6000 3.1 230 19:18 08.11.2019
4739 Clouds 25 1011 73 6000 3.1 230 19:18 08.11.2019
4740 Clouds 25 1012 73 6000 3.6 240 18:55 08.11.2019
4741 Clouds 25 1012 73 6000 3.1 230 18:37 08.11.2019
4742 Clouds 25 1012 73 6000 3.1 230 18:19 08.11.2019
4743 Clear 26 1013 73 6000 2.1 230 17:55 08.11.2019
4744 Clouds 25 1013 69 6000 2.6 230 17:37 08.11.2019
4745 Clouds 25 1013 69 6000 2.6 230 17:18 08.11.2019
4746 Clouds 26 1013 65 6000 3.6 230 16:57 08.11.2019
4747 Clouds 26 1013 61 6000 3.1 230 16:39 08.11.2019
4748 Clouds 26 1013 61 6000 3.1 230 16:19 08.11.2019
4749 Clouds 27 1012 54 7000 2.6 230 15:56 08.11.2019
4750 Clouds 27 1012 51 7000 3.6 220 15:38 08.11.2019
4751 Clouds 27 1012 51 7000 3.6 220 15:20 08.11.2019
4752 Clouds 28 1012 48 7000 3.1 210 14:55 08.11.2019
4753 Clouds 27 1012 54 8000 3.6 230 14:36 08.11.2019
4754 Clouds 28 1012 54 8000 3.6 230 14:18 08.11.2019
4755 Clouds 28 1011 51 9000 4.6 230 13:55 08.11.2019
4756 Clouds 28 1011 62 6000 3.6 130 13:36 08.11.2019
4757 Clouds 28 1011 62 6000 3.6 130 13:18 08.11.2019
4758 Clouds 29 1010 51 9000 6.7 230 12:42 08.11.2019
4759 Clouds 29 1009 66 6000 2.1 340 12:24 08.11.2019
4760 Clouds 30 1008 43 10000 6.7 240 11:57 08.11.2019
4761 Clouds 30 1008 62 6000 3.1 350 11:38 08.11.2019
4762 Clouds 31 1008 62 6000 3.1 350 11:19 08.11.2019
4763 Clouds 31 1008 55 10000 5.1 320 10:54 08.11.2019
4764 Clouds 31 1008 59 6000 3.6 20 10:36 08.11.2019
4765 Clouds 30 1008 59 6000 3.6 20 10:18 08.11.2019
4766 Clouds 33 1008 59 6000 6.2 360 09:41 08.11.2019
4767 Clouds 33 1008 59 6000 6.2 360 09:20 08.11.2019
4768 Clouds 34 1008 46 10000 6.2 330 08:58 08.11.2019
4769 Clouds 34 1008 49 6000 4.1 20 08:37 08.11.2019
4770 Clouds 34 1008 49 6000 4.1 20 08:18 08.11.2019
4771 Haze 35 1009 47 5000 3.1 320 07:40 08.11.2019
4772 Haze 35 1009 47 5000 3.1 320 07:22 08.11.2019
4773 Haze 34 1010 41 5000 2.1 180 06:41 08.11.2019
4774 Haze 34 1010 41 5000 2.1 180 06:21 08.11.2019
4775 Clouds 33 1011 46 9000 3.6 280 05:55 08.11.2019
4776 Haze 33 1011 49 5000 1.5 240 05:21 08.11.2019
4777 Clouds 29 1012 62 9000 2.6 0 03:44 08.11.2019
4778 Haze 30 1012 74 5000 1.5 50 03:23 08.11.2019
4779 Clouds 29 1013 62 9000 2.1 0 02:45 08.11.2019
4780 Clouds 25 1012 74 9000 3.1 210 01:47 08.11.2019
4781 Haze 25 1012 78 5000 3.1 240 01:24 08.11.2019
4782 Haze 24 1011 83 5000 2.1 260 00:24 08.11.2019
4783 Clouds 24 1011 88 6000 2.6 200 23:59 07.11.2019
4784 Haze 24 1010 78 5000 2.1 250 23:41 07.11.2019
4785 Haze 24 1010 78 5000 2.1 250 23:22 07.11.2019
4786 Clouds 24 1010 83 6000 2.6 220 22:42 07.11.2019
4787 Clouds 24 1010 88 6000 2.6 220 22:22 07.11.2019
4788 Clouds 24 1010 83 6000 3.1 220 21:56 07.11.2019
4789 Haze 24 1010 83 5000 3.1 220 21:38 07.11.2019
4790 Haze 24 1010 83 5000 3.1 220 21:19 07.11.2019
4791 Haze 24 1010 83 5000 2.1 210 20:58 07.11.2019
4792 Haze 24 1010 83 5000 3.6 210 20:39 07.11.2019
4793 Haze 24 1010 83 5000 3.6 210 20:21 07.11.2019
4794 Haze 24 1010 83 5000 2.6 220 19:56 07.11.2019
4795 Haze 25 1010 78 5000 2.6 220 19:37 07.11.2019
4796 Haze 25 1010 78 5000 2.6 220 19:18 07.11.2019
4797 Haze 24 1010 83 5000 3.1 220 18:55 07.11.2019
4798 Clouds 25 1010 73 6000 3.6 240 18:37 07.11.2019
4799 Clouds 25 1010 73 6000 3.6 240 18:37 07.11.2019
4800 Clouds 25 1010 73 6000 3.6 240 18:19 07.11.2019
4801 Clouds 25 1010 73 6000 3.1 230 17:40 07.11.2019
4802 Clouds 26 1011 74 6000 1 0 17:22 07.11.2019
4803 Clouds 26 1011 74 6000 1 0 16:58 07.11.2019
4804 Clouds 27 1011 69 6000 1 230 16:40 07.11.2019
4805 Clouds 27 1011 69 6000 1 230 16:20 07.11.2019
4806 Clouds 27 1010 69 7000 1 100 15:58 07.11.2019
4807 Clouds 27 1010 74 7000 2.6 120 15:39 07.11.2019
4808 Clear 27 1012 10 0 1.79 225 15:19 07.11.2019
4809 Clouds 28 1010 66 8000 2.1 0 14:45 07.11.2019
4810 Clouds 28 1010 66 8000 2.1 0 14:27 07.11.2019
4811 Clouds 28 1010 70 8000 1 0 13:57 07.11.2019
4812 Clouds 28 1009 66 9000 1 0 13:39 07.11.2019
4813 Clouds 29 1009 66 9000 1 0 13:21 07.11.2019
4814 Clouds 29 1009 66 9000 1 0 13:21 07.11.2019
4815 Clouds 29 1009 66 9000 2.1 40 12:58 07.11.2019
4816 Clouds 29 1009 66 9000 2.1 40 12:58 07.11.2019
4817 Haze 29 1008 66 5000 3.1 10 12:40 07.11.2019
4818 Haze 29 1008 66 5000 3.1 10 12:22 07.11.2019
4819 Clouds 30 1008 66 9000 3.6 30 11:59 07.11.2019
4820 Clear 30 1008 62 6000 3.1 360 11:40 07.11.2019
4821 Clear 30 1008 62 6000 3.1 360 11:21 07.11.2019
4822 Clear 30 1007 59 6000 5.7 20 10:41 07.11.2019
4823 Clear 30 1007 59 6000 5.7 20 10:19 07.11.2019
4824 Clear 31 1007 55 6000 3.1 340 09:44 07.11.2019
4825 Clear 31 1007 55 6000 3.1 340 09:23 07.11.2019
4826 Clouds 33 1007 55 10000 4.6 40 08:57 07.11.2019
4827 Clouds 33 1007 55 10000 4.6 40 08:57 07.11.2019
4828 Haze 33 1007 52 5000 5.1 20 08:38 07.11.2019
4829 Clouds 33 1008 52 9000 4.1 30 08:19 07.11.2019
4830 Clouds 33 1008 52 9000 4.1 30 08:19 07.11.2019
4831 Clouds 33 1008 52 9000 4.1 30 08:19 07.11.2019
4832 Haze 33 1008 52 5000 4.6 10 07:42 07.11.2019
4833 Haze 32 1008 52 5000 4.6 10 07:22 07.11.2019
4834 Haze 32 1008 52 5000 4.6 10 07:22 07.11.2019
4835 Clouds 32 1009 55 9000 4.6 50 07:00 07.11.2019
4836 Haze 32 1009 52 5000 4.1 340 06:40 07.11.2019
4837 Haze 32 1009 52 5000 4.1 340 06:40 07.11.2019
4838 Haze 32 1009 52 5000 4.1 340 06:21 07.11.2019
4839 Haze 32 1009 52 5000 4.1 340 06:21 07.11.2019
4840 Haze 32 1010 46 5000 3.1 350 05:47 07.11.2019
4841 Haze 32 1010 46 5000 3.1 350 05:29 07.11.2019
4842 Haze 32 1011 52 5000 2.6 30 04:49 07.11.2019
4843 Clouds 30 1011 55 8000 1.5 0 03:32 07.11.2019
4844 Clear 27 1011 69 6000 1.5 160 01:18 07.11.2019
4845 Haze 25 1010 78 5000 1.92 173 00:23 07.11.2019
4846 Haze 25 1010 78 5000 1.92 173 00:23 07.11.2019
4847 Clouds 25 1009 78 6000 3.1 210 23:48 06.11.2019
4848 Clouds 25 1009 78 6000 3.1 210 23:23 06.11.2019
4849 Clouds 25 1009 78 6000 3.1 210 23:23 06.11.2019
4850 Clouds 25 1009 78 6000 4.6 240 22:58 06.11.2019
4851 Clouds 25 1008 73 6000 5.1 230 22:39 06.11.2019
4852 Clouds 25 1008 73 6000 5.1 230 22:19 06.11.2019
4853 Haze 25 1008 78 5000 4.1 230 21:57 06.11.2019
4854 Haze 25 1008 83 5000 3.6 240 21:38 06.11.2019
4855 Haze 25 1008 83 5000 3.6 240 21:19 06.11.2019
4856 Haze 25 1008 83 5000 3.6 240 21:19 06.11.2019
4857 Haze 24 1008 83 5000 3.6 250 20:55 06.11.2019
4858 Haze 24 1008 78 5000 3.6 240 20:37 06.11.2019
4859 Haze 25 1008 78 5000 3.6 240 20:18 06.11.2019
4860 Haze 25 1009 78 5000 4.1 240 19:40 06.11.2019
4861 Haze 25 1009 78 5000 4.1 240 19:22 06.11.2019
4862 Clouds 25 1009 78 6000 4.1 250 18:59 06.11.2019
4863 Clouds 25 1009 78 6000 4.1 250 18:39 06.11.2019
4864 Clouds 25 1009 78 6000 4.1 250 18:20 06.11.2019
4865 Clouds 25 1010 83 6000 4.1 250 17:59 06.11.2019
4866 Clouds 25 1010 83 6000 3.6 260 17:41 06.11.2019
4867 Clouds 25 1010 83 6000 3.6 260 17:22 06.11.2019
4868 Clouds 26 1010 78 7000 4.1 250 16:57 06.11.2019
4869 Clouds 26 1010 78 7000 4.6 250 16:38 06.11.2019
4870 Clouds 26 1010 78 7000 4.6 250 16:19 06.11.2019
4871 Clouds 26 1010 74 7000 4.6 260 15:57 06.11.2019
4872 Clouds 27 1009 61 8000 3.1 240 15:37 06.11.2019
4873 Clouds 27 1009 61 8000 3.1 240 15:19 06.11.2019
4874 Clouds 28 1009 62 8000 3.6 220 14:57 06.11.2019
4875 Clouds 28 1009 70 8000 1.5 0 14:38 06.11.2019
4876 Clouds 28 1009 70 8000 1.5 0 14:20 06.11.2019
4877 Clouds 28 1008 70 8000 1.5 0 13:57 06.11.2019
4878 Haze 28 1008 74 5000 2.1 120 13:37 06.11.2019
4879 Haze 28 1008 74 5000 2.1 120 13:18 06.11.2019
4880 Rain 28 1008 83 5000 2.6 240 12:54 06.11.2019
4881 Thunderstorm 28 1008 78 1500 1.5 350 12:36 06.11.2019
4882 Thunderstorm 28 1008 78 1500 1.5 350 12:18 06.11.2019
4883 Rain 29 1007 70 5000 1.5 330 11:54 06.11.2019
4884 Rain 30 1006 62 6000 3.1 350 11:36 06.11.2019
4885 Rain 30 1006 62 6000 3.1 350 11:18 06.11.2019
4886 Clouds 31 1006 62 6000 2.6 10 10:42 06.11.2019
4887 Rain 31 1006 55 6000 3.1 20 10:24 06.11.2019
4888 Rain 31 1006 55 6000 3.1 20 10:24 06.11.2019
4889 Clouds 32 1006 52 6000 3.1 330 09:58 06.11.2019
4890 Clouds 32 1006 52 6000 5.1 20 09:38 06.11.2019
4891 Clouds 32 1006 52 6000 5.1 20 09:20 06.11.2019
4892 Clouds 32 1006 52 6000 3.6 20 08:55 06.11.2019
4893 Clouds 32 1006 52 6000 3.1 330 08:37 06.11.2019
4894 Clouds 32 1006 52 6000 3.1 330 08:37 06.11.2019
4895 Clouds 33 1006 52 6000 3.1 330 08:18 06.11.2019
4896 Clouds 32 1007 49 6000 2.6 30 07:43 06.11.2019
4897 Clouds 32 1007 49 6000 2.6 30 07:24 06.11.2019
4898 Clouds 33 1008 52 6000 2.1 330 06:48 06.11.2019
4899 Clouds 33 1008 52 6000 2.1 270 06:28 06.11.2019
4900 Clouds 32 1010 52 6000 1.5 100 05:37 06.11.2019
4901 Haze 32 1011 70 5000 1.5 150 03:22 06.11.2019
4902 Clouds 27 1011 69 6000 3.1 210 01:41 06.11.2019
4903 Clouds 26 1011 83 6000 3.1 250 00:46 06.11.2019
4904 Clouds 26 1010 83 6000 3.1 240 23:59 05.11.2019
4905 Haze 26 1010 83 4000 2.6 200 23:40 05.11.2019
4906 Haze 26 1010 83 4000 2.6 200 23:22 05.11.2019
4907 Rain 25 1009 83 10000 3.1 230 22:57 05.11.2019
4908 Haze 25 1009 94 4000 1.22 19 22:38 05.11.2019
4909 Haze 25 1009 94 4000 1.22 19 22:18 05.11.2019
4910 Clouds 26 1009 83 6000 2.6 210 21:43 05.11.2019
4911 Clouds 26 1009 83 6000 3.1 220 21:22 05.11.2019
4912 Clouds 26 1008 83 6000 3.1 230 20:59 05.11.2019
4913 Clouds 26 1009 78 6000 3.1 230 20:39 05.11.2019
4914 Clouds 26 1009 78 6000 3.1 230 20:21 05.11.2019
4915 Clouds 26 1009 78 6000 2.6 230 19:59 05.11.2019
4916 Haze 26 1009 78 5000 3.6 240 19:40 05.11.2019
4917 Haze 27 1009 78 5000 3.6 240 19:22 05.11.2019
4918 Haze 26 1009 74 5000 4.1 210 18:58 05.11.2019
4919 Haze 26 1010 69 5000 4.1 210 18:39 05.11.2019
4920 Haze 26 1010 69 5000 4.1 210 18:20 05.11.2019
4921 Haze 26 1010 74 5000 2.6 210 17:58 05.11.2019
4922 Haze 26 1010 78 5000 3.1 190 17:39 05.11.2019
4923 Haze 27 1010 78 5000 3.1 190 17:19 05.11.2019
4924 Haze 27 1011 78 5000 2.6 210 16:55 05.11.2019
4925 Haze 27 1011 74 5000 2.1 0 16:37 05.11.2019
4926 Haze 27 1011 74 5000 2.1 0 16:18 05.11.2019
4927 Clouds 27 1010 74 7000 3.1 140 15:38 05.11.2019
4928 Clouds 26 1010 74 7000 3.1 140 15:19 05.11.2019
4929 Clouds 26 1010 74 7000 2.6 100 14:58 05.11.2019
4930 Rain 26 1010 94 5000 2.6 30 14:39 05.11.2019
4931 Rain 26 1010 94 5000 2.6 30 14:21 05.11.2019
4932 Rain 26 1010 94 5000 2.6 30 14:21 05.11.2019
4933 Thunderstorm 26 1009 66 7000 4.6 140 13:55 05.11.2019
4934 Thunderstorm 26 1010 100 2000 3.6 330 13:37 05.11.2019
4935 Thunderstorm 26 1010 100 2000 3.6 330 13:18 05.11.2019
4936 Thunderstorm 28 1008 70 5000 6.7 180 12:39 05.11.2019
4937 Thunderstorm 28 1008 70 5000 6.7 180 12:21 05.11.2019
4938 Clouds 30 1008 70 10000 3.6 20 11:56 05.11.2019
4939 Rain 30 1007 62 6000 4.6 330 11:37 05.11.2019
4940 Rain 31 1007 62 6000 4.6 330 11:19 05.11.2019
4941 Clouds 31 1007 62 10000 4.6 340 10:44 05.11.2019
4942 Clouds 32 1006 59 6000 4.1 10 10:25 05.11.2019
4943 Clouds 32 1007 59 10000 4.6 10 09:59 05.11.2019
4944 Clouds 33 1007 55 6000 5.1 20 09:40 05.11.2019
4945 Clouds 33 1007 55 6000 5.1 20 09:20 05.11.2019
4946 Clouds 33 1007 55 10000 4.6 20 08:55 05.11.2019
4947 Haze 34 1007 55 5000 3.6 20 08:37 05.11.2019
4948 Haze 34 1007 55 5000 3.6 20 08:18 05.11.2019
4949 Clouds 34 1008 49 6000 4.6 20 07:44 05.11.2019
4950 Clouds 34 1008 49 6000 4.6 20 07:25 05.11.2019
4951 Clouds 34 1008 49 6000 4.6 20 07:25 05.11.2019
4952 Clouds 35 1009 49 9000 5.7 50 06:51 05.11.2019
4953 Clouds 35 1009 46 6000 2.1 40 06:28 05.11.2019
4954 Haze 34 1011 52 5000 2.1 200 05:40 05.11.2019
4955 Haze 34 1011 52 5000 2.1 200 05:19 05.11.2019
4956 Haze 33 1012 55 5000 2.1 180 04:20 05.11.2019
4957 Haze 31 1012 66 5000 2.1 140 03:24 05.11.2019
4958 Clouds 30 1012 62 9000 4.1 200 02:42 05.11.2019
4959 Clouds 30 1012 62 9000 4.1 200 02:42 05.11.2019
4960 Clouds 28 1012 69 7000 3.6 220 01:52 05.11.2019
4961 Clouds 26 1012 83 7000 2.6 0 00:46 05.11.2019
4962 Haze 25 1011 83 5000 1.5 240 00:25 05.11.2019
4963 Clouds 25 1011 83 6000 3.1 260 23:42 04.11.2019
4964 Clouds 25 1011 88 6000 0.98 355 23:19 04.11.2019
4965 Clouds 25 1011 88 6000 0.98 355 22:57 04.11.2019
4966 Clouds 25 1010 88 6000 3.1 230 22:39 04.11.2019
4967 Clouds 25 1010 88 6000 3.1 230 22:20 04.11.2019
4968 Clouds 25 1010 88 6000 3.1 230 22:20 04.11.2019
4969 Clouds 25 1010 83 6000 3.1 220 21:55 04.11.2019
4970 Clouds 25 1010 83 6000 3.1 210 21:37 04.11.2019
4971 Clouds 25 1010 83 6000 3.1 210 21:18 04.11.2019
4972 Clouds 25 1010 83 6000 3.1 210 21:18 04.11.2019
4973 Clouds 25 1010 83 6000 3.1 230 20:55 04.11.2019
4974 Haze 25 1010 83 5000 2.6 250 20:37 04.11.2019
4975 Haze 25 1010 83 5000 2.6 250 20:18 04.11.2019
4976 Haze 26 1010 83 5000 2.6 250 19:43 04.11.2019
4977 Rain 26 1011 78 5000 3.1 250 19:25 04.11.2019
4978 Clouds 26 1011 78 6000 3.6 260 18:59 04.11.2019
4979 Clouds 26 1012 78 6000 2.6 280 18:41 04.11.2019
4980 Clouds 26 1012 78 6000 2.6 280 18:23 04.11.2019
4981 Clouds 26 1012 78 6000 2.6 260 17:59 04.11.2019
4982 Clouds 27 1012 74 6000 3.1 260 17:37 04.11.2019
4983 Clouds 27 1012 74 6000 3.1 260 17:19 04.11.2019
4984 Clouds 27 1012 74 6000 2.6 230 16:55 04.11.2019
4985 Clouds 27 1012 74 6000 3.1 210 16:36 04.11.2019
4986 Clouds 27 1012 74 6000 3.1 210 16:18 04.11.2019
4987 Clouds 27 1012 70 7000 2.1 0 15:41 04.11.2019
4988 Clouds 27 1012 66 7000 1.5 0 15:21 04.11.2019
4989 Clouds 27 1012 66 7000 1 290 14:58 04.11.2019
4990 Clouds 27 1011 66 7000 1 0 14:40 04.11.2019
4991 Clouds 28 1011 66 7000 1 0 14:21 04.11.2019
4992 Clouds 27 1011 69 8000 1 0 13:58 04.11.2019
4993 Thunderstorm 27 1011 74 5000 2.1 270 13:40 04.11.2019
4994 Thunderstorm 27 1011 74 5000 2.1 270 13:21 04.11.2019
4995 Thunderstorm 27 1011 74 5000 2.1 270 13:21 04.11.2019
4996 Clouds 27 1011 74 8000 2.6 300 12:57 04.11.2019
4997 Rain 28 1010 66 5000 2.1 340 12:39 04.11.2019
4998 Rain 28 1010 66 5000 2.1 340 12:20 04.11.2019
4999 Clouds 30 1010 62 9000 3.1 360 11:43 04.11.2019
5000 Rain 30 1009 62 6000 2.6 10 11:24 04.11.2019
5001 Clouds 30 1009 62 10000 3.6 360 10:59 04.11.2019
5002 Rain 31 1009 58 6000 2.6 340 10:41 04.11.2019
5003 Rain 31 1009 58 6000 2.6 340 10:41 04.11.2019
5004 Rain 31 1009 58 6000 2.6 340 10:23 04.11.2019
5005 Rain 31 1009 58 6000 2.6 340 10:23 04.11.2019
5006 Clouds 31 1009 59 10000 4.1 10 09:46 04.11.2019
5007 Rain 31 1009 55 6000 44.8 20 09:28 04.11.2019
5008 Clouds 32 1009 59 10000 5.7 10 08:58 04.11.2019
5009 Rain 32 1009 55 6000 44.8 20 08:38 04.11.2019
5010 Rain 33 1009 55 6000 44.8 20 08:19 04.11.2019
5011 Rain 33 1009 55 6000 44.8 20 08:19 04.11.2019
5012 Clouds 33 1010 59 10000 5.1 10 07:43 04.11.2019
5013 Rain 33 1010 52 6000 4.1 40 07:24 04.11.2019
5014 Clouds 34 1011 52 10000 5.1 30 06:57 04.11.2019
5015 Clouds 34 1011 52 6000 3.1 50 06:33 04.11.2019
5016 Clouds 35 1012 52 10000 4.1 30 05:48 04.11.2019
5017 Clouds 32 1012 55 10000 2.1 0 04:44 04.11.2019
5018 Clouds 31 1013 55 10000 2.1 0 04:21 04.11.2019
5019 Clouds 31 1013 55 10000 2.1 0 04:21 04.11.2019
5020 Clouds 29 1013 74 6000 3.1 220 02:32 04.11.2019
5021 Clouds 27 1013 78 6000 3.1 240 01:22 04.11.2019
5022 Clouds 27 1012 78 6000 2.1 230 00:41 04.11.2019
5023 Clouds 27 1012 78 6000 2.1 220 00:20 04.11.2019
5024 Haze 26 1012 83 5000 3.1 240 23:43 03.11.2019
5025 Haze 26 1011 78 5000 3.1 250 23:21 03.11.2019
5026 Haze 26 1011 83 5000 2.6 250 22:59 03.11.2019
5027 Haze 26 1011 83 5000 3.1 240 22:41 03.11.2019
5028 Haze 26 1011 83 5000 3.1 240 22:20 03.11.2019
5029 Haze 27 1010 78 5000 3.6 230 21:58 03.11.2019
5030 Haze 27 1010 78 5000 3.1 220 21:39 03.11.2019
5031 Haze 27 1010 78 5000 3.1 220 21:20 03.11.2019
5032 Haze 27 1010 78 5000 2.1 210 20:55 03.11.2019
5033 Haze 27 1010 78 5000 3.1 220 20:36 03.11.2019
5034 Haze 27 1010 78 5000 3.1 220 20:18 03.11.2019
5035 Haze 27 1010 83 5000 2.6 230 19:55 03.11.2019
5036 Clouds 27 1010 74 6000 3.6 220 19:37 03.11.2019
5037 Clouds 28 1010 74 6000 3.6 220 19:19 03.11.2019
5038 Clouds 28 1011 74 8000 4.1 200 18:39 03.11.2019
5039 Clouds 28 1011 74 8000 4.1 200 18:19 03.11.2019
5040 Clouds 28 1011 74 8000 4.1 180 17:58 03.11.2019
5041 Clouds 28 1011 74 8000 4.1 190 17:40 03.11.2019
5042 Clouds 28 1011 74 8000 4.1 190 17:19 03.11.2019
5043 Clouds 28 1011 74 8000 3.1 180 16:55 03.11.2019
5044 Clouds 28 1012 74 8000 4.1 180 16:37 03.11.2019
5045 Clouds 28 1012 74 8000 4.1 180 16:19 03.11.2019
5046 Clouds 28 1012 78 8000 3.6 180 15:56 03.11.2019
5047 Clouds 28 1011 78 8000 2.1 0 15:38 03.11.2019
5048 Clouds 28 1011 78 8000 2.1 0 15:20 03.11.2019
5049 Clouds 27 1011 69 8000 5.1 170 14:41 03.11.2019
5050 Clouds 27 1011 69 8000 5.1 170 14:19 03.11.2019
5051 Clouds 28 1011 70 8000 5.1 150 13:56 03.11.2019
5052 Rain 28 1011 100 4000 4.1 190 13:37 03.11.2019
5053 Rain 28 1011 100 4000 4.1 190 13:18 03.11.2019
5054 Rain 28 1011 100 4000 4.1 190 13:18 03.11.2019
5055 Rain 29 1010 83 4000 3.1 150 12:38 03.11.2019
5056 Rain 29 1010 83 4000 3.1 150 12:19 03.11.2019
5057 Thunderstorm 30 1010 70 5000 3.6 10 11:57 03.11.2019
5058 Thunderstorm 30 1009 66 5000 3.6 30 11:39 03.11.2019
5059 Thunderstorm 30 1009 66 5000 3.6 30 11:20 03.11.2019
5060 Rain 31 1009 66 6000 4.1 10 10:42 03.11.2019
5061 Rain 31 1008 59 6000 2.6 10 10:22 03.11.2019
5062 Clouds 32 1008 55 7000 4.1 360 09:59 03.11.2019
5063 Clouds 32 1008 52 7000 5.1 350 09:41 03.11.2019
5064 Clouds 32 1008 52 7000 5.1 350 09:23 03.11.2019
5065 Clouds 33 1008 52 7000 4.1 40 08:55 03.11.2019
5066 Clouds 33 1008 52 7000 4.1 330 08:36 03.11.2019
5067 Clouds 33 1008 52 7000 4.1 330 08:18 03.11.2019
5068 Clouds 33 1009 52 6000 3.1 330 07:43 03.11.2019
5069 Clouds 34 1009 49 6000 2.1 310 07:18 03.11.2019
5070 Clouds 33 1010 49 6000 3.1 10 06:39 03.11.2019
5071 Clouds 34 1011 49 6000 2.1 120 05:41 03.11.2019
5072 Clouds 34 1011 49 6000 2.1 120 05:19 03.11.2019
5073 Clouds 33 1011 52 7000 2.1 150 04:48 03.11.2019
5074 Clouds 32 1012 52 7000 4.1 210 03:54 03.11.2019
5075 Clouds 30 1012 58 6000 4.1 210 02:47 03.11.2019
5076 Rain 28 1012 62 6000 4.1 210 02:21 03.11.2019
5077 Clouds 27 1012 69 7000 3.1 230 01:49 03.11.2019
5078 Clouds 26 1012 74 6000 3.1 220 01:24 03.11.2019
5079 Clouds 26 1012 74 7000 3.6 240 00:57 03.11.2019
5080 Clouds 26 1011 83 6000 2.6 240 00:37 03.11.2019
5081 Clouds 25 1011 83 6000 2.6 240 00:18 03.11.2019
5082 Clouds 25 1011 83 7000 3.6 250 23:39 02.11.2019
5083 Clouds 25 1011 83 7000 3.6 250 23:20 02.11.2019
5084 Clouds 26 1010 78 7000 3.6 250 22:56 02.11.2019
5085 Clouds 25 1010 83 7000 3.6 250 22:38 02.11.2019
5086 Clouds 25 1010 83 7000 3.6 250 22:38 02.11.2019
5087 Clouds 25 1010 83 7000 3.6 250 22:19 02.11.2019
5088 Clouds 26 1010 78 7000 3.6 230 21:57 02.11.2019
5089 Clouds 26 1010 78 7000 3.6 220 21:38 02.11.2019
5090 Clouds 26 1010 78 7000 3.6 220 21:19 02.11.2019
5091 Clouds 26 1010 78 7000 3.6 220 21:19 02.11.2019
5092 Clouds 26 1010 78 7000 3.6 220 20:59 02.11.2019
5093 Clouds 26 1010 74 7000 2.6 240 20:41 02.11.2019
5094 Clouds 26 1010 74 7000 2.6 240 20:41 02.11.2019
5095 Clouds 26 1010 74 7000 2.6 240 20:21 02.11.2019
5096 Clouds 26 1010 74 7000 3.1 240 19:58 02.11.2019
5097 Clouds 26 1010 65 7000 2.6 210 19:36 02.11.2019
5098 Clouds 27 1010 65 7000 2.6 210 19:18 02.11.2019
5099 Clouds 27 1010 65 7000 3.6 200 18:54 02.11.2019
5100 Clouds 27 1010 65 7000 3.6 190 18:36 02.11.2019
5101 Clouds 27 1010 65 7000 3.6 190 18:18 02.11.2019
5102 Clouds 27 1011 61 7000 3.6 170 17:55 02.11.2019
5103 Clouds 27 1011 61 7000 3.6 170 17:36 02.11.2019
5104 Clouds 27 1011 61 7000 3.6 170 17:18 02.11.2019
5105 Clouds 27 1011 61 7000 3.6 160 16:39 02.11.2019
5106 Clouds 27 1011 61 7000 3.6 160 16:20 02.11.2019
5107 Clouds 28 1011 61 7000 4.6 160 15:43 02.11.2019
5108 Clouds 28 1011 61 7000 5.1 170 15:21 02.11.2019
5109 Clouds 28 1010 65 7000 7.2 160 14:58 02.11.2019
5110 Clouds 28 1010 65 7000 6.2 160 14:40 02.11.2019
5111 Clouds 28 1010 65 7000 6.2 160 14:21 02.11.2019
5112 Clouds 28 1010 61 8000 3.6 180 13:54 02.11.2019
5113 Thunderstorm 28 1010 83 4000 1.5 180 13:36 02.11.2019
5114 Thunderstorm 28 1010 83 4000 1.5 180 13:18 02.11.2019
5115 Thunderstorm 28 1009 83 5000 2.6 240 12:40 02.11.2019
5116 Thunderstorm 28 1009 83 5000 2.6 240 12:21 02.11.2019
5117 Clouds 28 1009 69 8000 5.7 200 11:55 02.11.2019
5118 Rain 28 1008 88 5000 1.5 230 11:37 02.11.2019
5119 Rain 28 1008 88 5000 1.5 230 11:37 02.11.2019
5120 Rain 28 1008 88 5000 1.5 230 11:19 02.11.2019
5121 Clouds 28 1008 62 8000 4.6 160 10:43 02.11.2019
5122 Thunderstorm 28 1007 83 4000 2.1 290 10:24 02.11.2019
5123 Clouds 30 1007 52 10000 2.6 360 09:43 02.11.2019
5124 Rain 30 1007 88 3000 3.6 290 09:22 02.11.2019
5125 Rain 30 1007 83 1000 8.7 310 08:57 02.11.2019
5126 Rain 32 1007 49 5000 2.6 10 08:39 02.11.2019
5127 Rain 33 1007 49 5000 2.6 10 08:19 02.11.2019
5128 Rain 35 1007 49 6000 4.1 360 07:45 02.11.2019
5129 Clouds 35 1007 44 6000 4.1 230 07:26 02.11.2019
5130 Clouds 35 1007 44 6000 4.1 230 07:26 02.11.2019
5131 Clouds 35 1008 46 10000 3.6 0 06:52 02.11.2019
5132 Clouds 34 1009 44 6000 6.7 200 06:25 02.11.2019
5133 Clouds 34 1009 44 10000 2.1 0 05:54 02.11.2019
5134 Clouds 32 1010 44 10000 2.6 0 04:46 02.11.2019
5135 Clouds 31 1010 58 6000 2.6 130 04:19 02.11.2019
5136 Clouds 30 1011 58 9000 3.1 0 03:33 02.11.2019
5137 Clouds 28 1011 69 7000 5.1 220 02:32 02.11.2019
5138 Clouds 27 1011 74 8000 4.1 230 01:41 02.11.2019
5139 Clouds 27 1010 74 6000 5.1 210 01:19 02.11.2019
5140 Clouds 26 1010 83 6000 2.1 240 00:42 02.11.2019
5141 Clouds 26 1010 83 6000 2.1 240 00:24 02.11.2019
5142 Clouds 26 1010 78 6000 3.1 220 23:42 01.11.2019
5143 Rain 25 1009 78 6000 1.5 240 23:20 01.11.2019
5144 Clouds 25 1009 78 6000 3.1 240 22:55 01.11.2019
5145 Haze 25 1008 88 5000 1.5 250 22:37 01.11.2019
5146 Haze 25 1008 88 5000 1.5 250 22:18 01.11.2019
5147 Clouds 26 1009 78 7000 3.6 230 21:38 01.11.2019
5148 Clouds 26 1009 78 7000 3.6 230 21:20 01.11.2019
5149 Clouds 26 1009 83 7000 3.6 230 20:55 01.11.2019
5150 Clouds 26 1009 83 7000 3.6 230 20:36 01.11.2019
5151 Clouds 26 1009 83 7000 3.6 230 20:18 01.11.2019
5152 Haze 26 1009 83 5000 3.1 230 19:41 01.11.2019
5153 Haze 26 1009 78 5000 3.6 220 19:22 01.11.2019
5154 Haze 26 1010 78 5000 4.1 240 18:58 01.11.2019
5155 Haze 26 1010 78 5000 3.6 250 18:39 01.11.2019
5156 Haze 26 1010 78 5000 3.6 250 18:18 01.11.2019
5157 Haze 27 1010 74 5000 4.1 260 17:41 01.11.2019
5158 Haze 27 1010 74 5000 4.1 260 17:23 01.11.2019
5159 Haze 27 1010 74 5000 3.6 240 16:59 01.11.2019
5160 Haze 27 1010 78 5000 3.1 250 16:36 01.11.2019
5161 Haze 27 1010 78 5000 3.1 250 16:18 01.11.2019
5162 Clouds 28 1010 65 6000 3.1 190 15:41 01.11.2019
5163 Clouds 28 1010 65 6000 3.1 190 15:22 01.11.2019
5164 Clouds 28 1010 62 7000 3.6 140 14:58 01.11.2019
5165 Clouds 29 1009 66 8000 3.6 150 14:40 01.11.2019
5166 Clouds 28 1009 66 8000 3.6 150 14:21 01.11.2019
5167 Clouds 27 1009 69 8000 3.6 160 13:56 01.11.2019
5168 Rain 27 1009 94 4000 1.5 270 13:37 01.11.2019
5169 Rain 27 1009 94 4000 1.5 270 13:18 01.11.2019
5170 Clouds 27 1008 74 8000 5.7 160 12:43 01.11.2019
5171 Rain 27 1008 94 3000 1.5 70 12:24 01.11.2019
5172 Clouds 27 1008 66 8000 4.1 160 11:43 01.11.2019
5173 Clouds 27 1008 66 8000 4.1 160 11:43 01.11.2019
5174 Rain 27 1008 100 500 5.1 210 11:25 01.11.2019
5175 Clouds 27 1008 69 7000 7.7 220 10:58 01.11.2019
5176 Rain 28 1008 94 5000 1.5 300 10:39 01.11.2019
5177 Rain 29 1008 94 5000 1.5 300 10:20 01.11.2019
5178 Thunderstorm 29 1007 58 7000 5.1 60 09:45 01.11.2019
5179 Thunderstorm 29 1008 94 300 7.2 130 09:26 01.11.2019
5180 Clouds 31 1007 55 8000 5.7 30 08:58 01.11.2019
5181 Rain 32 1007 52 5000 4.1 30 08:40 01.11.2019
5182 Rain 32 1007 52 5000 4.1 30 08:21 01.11.2019
5183 Clouds 33 1007 46 8000 6.2 20 07:52 01.11.2019
5184 Clouds 34 1007 46 8000 4.1 20 07:25 01.11.2019
5185 Clouds 34 1008 49 9000 4.1 20 06:56 01.11.2019
5186 Clouds 34 1008 44 7000 4.1 270 06:37 01.11.2019
5187 Clouds 35 1008 44 7000 4.1 270 06:18 01.11.2019
5188 Clouds 35 1008 44 7000 4.1 270 06:18 01.11.2019
5189 Clouds 34 1009 46 10000 2.6 0 05:41 01.11.2019
5190 Clouds 32 1010 55 10000 1.5 0 03:33 01.11.2019
5191 Clouds 28 1011 74 8000 4.1 260 01:51 01.11.2019
5192 Clouds 27 1010 74 8000 4.1 230 01:28 01.11.2019
5193 Clouds 26 1010 69 7000 4.6 210 00:21 01.11.2019
5194 Clouds 26 1009 83 6000 3.6 260 23:56 31.10.2019
5195 Clouds 26 1009 69 6000 3.6 200 23:38 31.10.2019
5196 Clouds 26 1009 69 6000 3.6 200 23:19 31.10.2019
5197 Clouds 27 1009 78 6000 3.1 240 22:42 31.10.2019
5198 Clouds 27 1009 69 6000 3.6 190 22:24 31.10.2019
5199 Clouds 26 1009 78 6000 3.1 250 21:58 31.10.2019
5200 Clouds 26 1009 78 6000 4.1 270 21:40 31.10.2019
5201 Clouds 26 1009 78 6000 4.1 270 21:18 31.10.2019
5202 Clouds 26 1009 78 6000 3.6 270 20:41 31.10.2019
5203 Clouds 26 1009 78 6000 3.6 270 20:23 31.10.2019
5204 Clouds 26 1009 74 6000 3.6 250 19:59 31.10.2019
5205 Clouds 26 1009 74 6000 3.6 230 19:38 31.10.2019
5206 Clouds 26 1009 74 6000 3.6 230 19:20 31.10.2019
5207 Clouds 26 1009 74 6000 4.1 250 18:44 31.10.2019
5208 Clouds 26 1010 78 6000 3.6 240 18:26 31.10.2019
5209 Clouds 26 1009 78 7000 3.6 260 17:59 31.10.2019
5210 Clouds 26 1010 78 7000 4.1 270 17:41 31.10.2019
5211 Clouds 27 1010 78 7000 4.1 270 17:20 31.10.2019
5212 Clouds 27 1010 78 7000 3.6 250 16:55 31.10.2019
5213 Clouds 27 1010 78 8000 3.6 270 16:37 31.10.2019
5214 Clouds 27 1010 78 8000 3.6 270 16:18 31.10.2019
5215 Clouds 27 1009 69 8000 4.1 260 15:40 31.10.2019
5216 Clouds 28 1009 69 8000 4.1 260 15:22 31.10.2019
5217 Clouds 28 1009 69 8000 4.1 260 15:22 31.10.2019
5218 Clouds 28 1009 69 8000 3.1 250 14:59 31.10.2019
5219 Clouds 28 1009 66 8000 3.6 280 14:41 31.10.2019
5220 Clouds 29 1009 66 8000 3.6 280 14:22 31.10.2019
5221 Clouds 29 1008 66 8000 1.5 330 13:59 31.10.2019
5222 Rain 29 1008 70 7000 3.1 230 13:39 31.10.2019
5223 Rain 29 1008 70 7000 3.1 230 13:19 31.10.2019
5224 Clouds 30 1008 70 8000 2.6 330 12:57 31.10.2019
5225 Clouds 30 1007 66 8000 1.5 360 12:38 31.10.2019
5226 Clouds 30 1007 66 8000 1.5 360 12:18 31.10.2019
5227 Clouds 30 1007 70 9000 4.1 340 11:45 31.10.2019
5228 Clouds 31 1006 55 8000 4.1 10 11:21 31.10.2019
5229 Clouds 31 1007 62 10000 4.6 360 10:58 31.10.2019
5230 Clouds 31 1007 62 10000 4.6 360 10:58 31.10.2019
5231 Clouds 31 1006 49 8000 3.1 350 10:39 31.10.2019
5232 Clouds 32 1006 49 8000 3.1 350 10:21 31.10.2019
5233 Clouds 33 1006 46 8000 3.1 340 09:54 31.10.2019
5234 Clouds 33 1006 46 8000 3.1 340 09:36 31.10.2019
5235 Clouds 33 1006 46 8000 3.1 340 09:18 31.10.2019
5236 Clouds 33 1007 55 10000 4.6 20 08:43 31.10.2019
5237 Clouds 34 1007 44 8000 3.6 350 08:24 31.10.2019
5238 Clouds 34 1007 46 10000 4.6 30 07:48 31.10.2019
5239 Clouds 34 1007 46 8000 3.1 350 07:26 31.10.2019
5240 Clouds 34 1008 49 10000 5.7 50 06:53 31.10.2019
5241 Clouds 34 1009 46 7000 3.6 330 06:32 31.10.2019
5242 Clouds 33 1010 55 6000 3.1 320 05:27 31.10.2019
5243 Clouds 32 1010 58 9000 1.5 0 03:20 31.10.2019
5244 Haze 30 1010 62 5000 1.5 180 02:30 31.10.2019
5245 Haze 27 1010 69 5000 2.1 120 01:24 31.10.2019
5246 Haze 26 1009 74 5000 1.15 51 00:27 31.10.2019
5247 Clouds 26 1009 74 6000 3.1 210 23:52 30.10.2019
5248 Clouds 26 1008 74 6000 1.5 210 23:27 30.10.2019
5249 Clouds 26 1008 74 6000 2.6 240 22:43 30.10.2019
5250 Clouds 25 1008 78 6000 2.6 240 22:20 30.10.2019
5251 Clouds 26 1008 74 6000 2.6 240 21:55 30.10.2019
5252 Clouds 26 1008 74 6000 2.6 230 21:37 30.10.2019
5253 Clouds 26 1008 74 6000 2.6 230 21:18 30.10.2019
5254 Haze 26 1008 74 5000 3.1 200 20:58 30.10.2019
5255 Haze 26 1007 69 5000 3.1 190 20:39 30.10.2019
5256 Haze 27 1007 69 5000 3.1 190 20:21 30.10.2019
5257 Haze 27 1008 69 5000 3.1 210 19:54 30.10.2019
5258 Haze 27 1008 69 5000 3.1 210 19:36 30.10.2019
5259 Haze 27 1008 69 5000 3.1 210 19:18 30.10.2019
5260 Clouds 27 1008 65 6000 3.1 210 18:39 30.10.2019
5261 Clouds 28 1008 65 6000 3.1 210 18:19 30.10.2019
5262 Clouds 28 1008 65 6000 3.1 210 18:19 30.10.2019
5263 Clouds 27 1008 69 6000 2.1 220 17:57 30.10.2019
5264 Clouds 27 1009 69 6000 2.1 240 17:38 30.10.2019
5265 Clouds 27 1009 69 6000 2.1 240 17:18 30.10.2019
5266 Clouds 28 1009 65 6000 2.6 250 16:55 30.10.2019
5267 Clouds 28 1009 65 6000 2.6 250 16:37 30.10.2019
5268 Clouds 28 1009 65 6000 2.6 250 16:18 30.10.2019
5269 Clouds 28 1009 65 6000 2.6 250 15:54 30.10.2019
5270 Clouds 28 1009 65 6000 4.1 260 15:36 30.10.2019
5271 Clouds 28 1009 65 6000 4.1 260 15:18 30.10.2019
5272 Clouds 28 1008 65 6000 3.6 280 14:41 30.10.2019
5273 Clouds 29 1008 62 7000 3.6 280 14:22 30.10.2019
5274 Clouds 29 1008 62 7000 0.5 0 13:58 30.10.2019
5275 Clouds 30 1008 58 6000 2.1 30 13:40 30.10.2019
5276 Clouds 30 1008 58 6000 2.1 30 13:20 30.10.2019
5277 Clouds 30 1007 62 8000 1.5 10 12:57 30.10.2019
5278 Clouds 30 1007 62 10000 2.6 350 12:38 30.10.2019
5279 Clouds 30 1007 62 10000 2.6 350 12:19 30.10.2019
5280 Clouds 31 1006 55 10000 4.1 340 11:41 30.10.2019
5281 Clouds 31 1006 55 10000 4.1 340 11:23 30.10.2019
5282 Clouds 32 1006 52 10000 4.1 350 10:45 30.10.2019
5283 Clouds 32 1006 43 7000 3.1 340 10:27 30.10.2019
5284 Clouds 33 1006 49 10000 4.1 360 09:58 30.10.2019
5285 Clouds 33 1006 49 10000 4.1 360 09:58 30.10.2019
5286 Clouds 33 1006 49 6000 3.6 340 09:39 30.10.2019
5287 Clouds 33 1006 49 6000 3.6 340 09:21 30.10.2019
5288 Clouds 34 1007 52 10000 4.6 10 08:42 30.10.2019
5289 Clouds 34 1007 52 10000 4.6 10 08:42 30.10.2019
5290 Clouds 34 1007 44 10000 4.6 10 08:22 30.10.2019
5291 Clouds 34 1008 46 10000 5.1 10 07:56 30.10.2019
5292 Clouds 34 1008 44 6000 3.6 20 07:37 30.10.2019
5293 Clouds 34 1008 44 6000 3.6 20 07:37 30.10.2019
5294 Clouds 35 1008 44 9000 3.6 350 06:46 30.10.2019
5295 Clouds 35 1009 41 6000 3.1 360 06:27 30.10.2019
5296 Clouds 34 1010 49 7000 3.1 20 05:54 30.10.2019
5297 Haze 34 1010 38 5000 2.1 130 05:35 30.10.2019
5298 Clouds 31 1011 58 8000 1.5 0 03:50 30.10.2019
5299 Clouds 30 1011 58 8000 2.1 0 03:21 30.10.2019
5300 Clouds 29 1011 66 8000 2.1 0 02:48 30.10.2019
5301 Clouds 27 1011 69 8000 1.5 0 01:42 30.10.2019
5302 Haze 25 1010 88 5000 1.5 220 00:37 30.10.2019
5303 Haze 25 1010 88 5000 1.5 220 00:18 30.10.2019
5304 Haze 25 1009 88 5000 1.56 91 23:39 29.10.2019
5305 Haze 24 1009 88 5000 1.01 3 23:18 29.10.2019
5306 Clouds 26 1009 83 7000 2.6 220 22:41 29.10.2019
5307 Clouds 26 1009 83 7000 2.6 220 22:19 29.10.2019
5308 Clouds 26 1009 83 7000 3.1 210 21:55 29.10.2019
5309 Clouds 26 1008 83 7000 2.6 210 21:36 29.10.2019
5310 Clouds 26 1008 83 7000 2.6 210 21:18 29.10.2019
5311 Clouds 26 1008 78 7000 2.6 210 20:42 29.10.2019
5312 Clouds 26 1009 78 7000 2.6 210 20:23 29.10.2019
5313 Clouds 26 1009 78 7000 1.5 210 19:59 29.10.2019
5314 Clouds 26 1009 74 7000 2.1 220 19:40 29.10.2019
5315 Clouds 27 1009 74 7000 2.1 220 19:21 29.10.2019
5316 Clouds 27 1009 69 7000 2.6 0 18:58 29.10.2019
5317 Clouds 27 1010 69 7000 1.5 0 18:40 29.10.2019
5318 Clouds 27 1010 69 7000 1.5 0 18:20 29.10.2019
5319 Clouds 27 1010 65 7000 3.1 230 17:57 29.10.2019
5320 Clouds 27 1010 65 7000 2.6 0 17:38 29.10.2019
5321 Clouds 27 1010 65 7000 2.6 0 17:20 29.10.2019
5322 Clouds 27 1010 65 7000 2.6 210 16:57 29.10.2019
5323 Clouds 27 1010 65 7000 3.1 180 16:38 29.10.2019
5324 Clouds 27 1010 65 7000 3.1 180 16:18 29.10.2019
5325 Clouds 27 1010 65 7000 2.1 0 15:42 29.10.2019
5326 Clouds 27 1010 65 7000 2.1 0 15:21 29.10.2019
5327 Clouds 27 1009 65 7000 2.6 190 14:58 29.10.2019
5328 Clouds 27 1009 74 6000 2.6 250 14:39 29.10.2019
5329 Clouds 27 1009 74 6000 2.6 250 14:21 29.10.2019
5330 Clouds 27 1009 62 8000 5.1 210 13:57 29.10.2019
5331 Clouds 27 1009 69 6000 3.6 210 13:38 29.10.2019
5332 Clouds 27 1009 69 6000 3.6 210 13:20 29.10.2019
5333 Clouds 28 1008 66 8000 2.1 310 12:43 29.10.2019
5334 Rain 28 1008 62 6000 2.1 340 12:25 29.10.2019
5335 Clouds 30 1008 66 10000 3.1 330 11:55 29.10.2019
5336 Clouds 30 1007 58 7000 4.1 360 11:37 29.10.2019
5337 Clouds 30 1007 58 7000 4.1 360 11:18 29.10.2019
5338 Clouds 31 1007 62 10000 3.6 20 10:56 29.10.2019
5339 Clouds 31 1006 52 7000 5.1 340 10:38 29.10.2019
5340 Clouds 31 1006 52 7000 5.1 340 10:19 29.10.2019
5341 Clouds 32 1006 59 10000 5.1 40 09:42 29.10.2019
5342 Clouds 32 1006 49 7000 4.6 30 09:23 29.10.2019
5343 Clouds 33 1007 49 7000 5.1 10 08:57 29.10.2019
5344 Clouds 33 1007 49 7000 5.1 10 08:38 29.10.2019
5345 Clouds 33 1007 49 7000 5.1 10 08:20 29.10.2019
5346 Clouds 33 1008 55 10000 6.2 50 07:48 29.10.2019
5347 Clouds 33 1008 52 6000 5.7 30 07:20 29.10.2019
5348 Clouds 33 1009 52 8000 5.7 60 06:53 29.10.2019
5349 Clouds 33 1009 55 6000 4.1 330 06:29 29.10.2019
5350 Clouds 34 1010 49 8000 5.1 60 05:54 29.10.2019
5351 Clouds 34 1010 49 6000 1.5 120 05:36 29.10.2019
5352 Haze 32 1011 58 5000 3.6 70 04:41 29.10.2019
5353 Haze 30 1011 70 3000 2.6 70 02:39 29.10.2019
5354 Clouds 28 1011 69 6000 2.6 0 01:56 29.10.2019
5355 Haze 27 1010 78 2500 1.5 110 01:35 29.10.2019
5356 Haze 26 1010 78 5000 2.1 0 00:53 29.10.2019
5357 Haze 26 1009 88 3000 2.98 108 00:24 29.10.2019
5358 Haze 25 1009 88 5000 2.98 108 23:38 28.10.2019
5359 Haze 25 1009 88 5000 1.57 116 23:20 28.10.2019
5360 Haze 25 1009 88 5000 1.57 116 23:20 28.10.2019
5361 Haze 25 1009 88 5000 1.57 116 23:20 28.10.2019
5362 Haze 26 1009 88 5000 1.57 116 22:40 28.10.2019
5363 Haze 26 1009 88 5000 1.57 116 22:20 28.10.2019
5364 Haze 26 1009 78 5000 2.1 230 21:59 28.10.2019
5365 Haze 26 1009 78 5000 2.1 230 21:41 28.10.2019
5366 Haze 26 1009 78 5000 2.1 230 21:22 28.10.2019
5367 Haze 26 1009 78 5000 2.1 220 20:59 28.10.2019
5368 Clouds 26 1009 78 6000 1 200 20:40 28.10.2019
5369 Clouds 26 1009 78 6000 1 200 20:21 28.10.2019
5370 Clouds 26 1009 78 6000 1 200 20:21 28.10.2019
5371 Clouds 27 1009 74 7000 2.6 220 19:55 28.10.2019
5372 Clouds 27 1009 69 8000 3.1 220 19:36 28.10.2019
5373 Clouds 27 1009 69 8000 3.1 220 19:36 28.10.2019
5374 Clouds 27 1009 69 8000 3.1 220 19:36 28.10.2019
5375 Clouds 27 1009 69 8000 3.1 220 19:18 28.10.2019
5376 Clouds 27 1010 74 8000 3.6 220 18:57 28.10.2019
5377 Clouds 27 1010 65 8000 3.1 210 18:38 28.10.2019
5378 Clouds 27 1010 65 8000 3.1 210 18:20 28.10.2019
5379 Clouds 27 1010 65 8000 2.6 240 17:55 28.10.2019
5380 Clouds 27 1010 65 8000 1.5 0 17:36 28.10.2019
5381 Clouds 27 1010 65 8000 1.5 0 17:18 28.10.2019
5382 Clouds 27 1011 65 8000 1.5 0 16:54 28.10.2019
5383 Clouds 27 1011 65 8000 2.1 0 16:36 28.10.2019
5384 Clouds 27 1011 65 8000 2.1 0 16:18 28.10.2019
5385 Clouds 27 1010 65 8000 2.6 160 15:55 28.10.2019
5386 Clouds 27 1010 65 8000 1.5 0 15:37 28.10.2019
5387 Clouds 27 1010 65 8000 1.5 0 15:18 28.10.2019
5388 Clouds 27 1010 65 8000 2.1 0 14:54 28.10.2019
5389 Clouds 27 1009 69 8000 2.6 210 14:36 28.10.2019
5390 Clouds 27 1009 69 8000 2.6 210 14:18 28.10.2019
5391 Clouds 28 1009 74 8000 1 0 13:41 28.10.2019
5392 Haze 27 1009 74 5000 2.6 190 13:18 28.10.2019
5393 Clouds 27 1008 74 8000 2.1 0 12:59 28.10.2019
5394 Clouds 27 1008 74 9000 2.6 0 12:40 28.10.2019
5395 Clouds 28 1008 74 9000 2.6 0 12:19 28.10.2019
5396 Clouds 28 1008 70 10000 3.1 10 11:38 28.10.2019
5397 Clouds 28 1008 70 10000 3.1 10 11:38 28.10.2019
5398 Clouds 30 1008 70 10000 3.1 10 11:19 28.10.2019
5399 Clouds 30 1007 66 10000 4.1 10 10:42 28.10.2019
5400 Clouds 31 1007 62 10000 4.1 10 10:24 28.10.2019
5401 Clouds 31 1007 62 10000 6.7 20 09:58 28.10.2019
5402 Rain 31 1007 55 8000 5.1 360 09:39 28.10.2019
5403 Rain 31 1007 55 8000 5.1 360 09:20 28.10.2019
5404 Clouds 31 1007 66 10000 5.1 10 08:57 28.10.2019
5405 Clouds 31 1007 62 10000 5.1 20 08:39 28.10.2019
5406 Clouds 33 1007 62 10000 5.1 20 08:19 28.10.2019
5407 Clouds 33 1008 59 10000 5.7 40 07:57 28.10.2019
5408 Haze 33 1007 52 6000 3.1 20 07:38 28.10.2019
5409 Haze 34 1007 52 6000 3.1 20 07:20 28.10.2019
5410 Haze 33 1009 55 5000 2.6 40 06:40 28.10.2019
5411 Clouds 33 1009 59 10000 3.6 30 05:57 28.10.2019
5412 Clouds 32 1010 62 10000 1.5 0 04:25 28.10.2019
5413 Clouds 32 1011 66 10000 2.1 0 03:40 28.10.2019
5414 Clouds 29 1011 62 9000 2.6 210 02:45 28.10.2019
5415 Haze 27 1010 78 5000 2.05 189 01:19 28.10.2019
5416 Clouds 27 1009 74 6000 3.1 190 00:42 28.10.2019
5417 Haze 27 1009 88 5000 2.05 189 00:20 28.10.2019
5418 Clouds 27 1009 74 5000 2.1 0 23:42 27.10.2019
5419 Haze 27 1008 78 5000 1.5 170 23:19 27.10.2019
5420 Haze 27 1008 74 5000 2.6 150 22:43 27.10.2019
5421 Haze 27 1008 74 5000 2.6 150 22:23 27.10.2019
5422 Haze 27 1008 74 5000 2.1 0 21:58 27.10.2019
5423 Haze 27 1008 78 5000 1.5 0 21:39 27.10.2019
5424 Haze 27 1008 78 5000 1.5 0 21:21 27.10.2019
5425 Haze 27 1008 74 5000 2.6 170 20:58 27.10.2019
5426 Haze 27 1008 74 5000 2.6 170 20:58 27.10.2019
5427 Haze 27 1009 78 4000 2.6 0 20:40 27.10.2019
5428 Haze 27 1009 78 4000 2.6 0 20:22 27.10.2019
5429 Haze 27 1009 83 4000 2.1 0 19:56 27.10.2019
5430 Haze 28 1009 74 4000 2.1 0 19:37 27.10.2019
5431 Haze 28 1009 74 4000 2.1 0 19:19 27.10.2019
5432 Haze 28 1009 74 4000 2.6 0 18:55 27.10.2019
5433 Haze 28 1010 74 5000 2.1 0 18:37 27.10.2019
5434 Haze 28 1010 74 5000 2.1 0 18:19 27.10.2019
5435 Haze 28 1010 74 5000 1 0 17:41 27.10.2019
5436 Haze 28 1010 74 5000 1 0 17:21 27.10.2019
5437 Clouds 28 1010 74 7000 1.5 0 16:59 27.10.2019
5438 Clouds 28 1010 74 7000 2.1 0 16:40 27.10.2019
5439 Clouds 28 1010 74 7000 2.1 0 16:22 27.10.2019
5440 Clouds 28 1010 74 7000 3.1 170 15:58 27.10.2019
5441 Clouds 28 1009 74 7000 2.6 0 15:39 27.10.2019
5442 Clouds 28 1009 74 7000 2.6 0 15:20 27.10.2019
5443 Thunderstorm 28 1009 74 7000 1 0 14:44 27.10.2019
5444 Thunderstorm 28 1009 74 7000 1 0 14:24 27.10.2019
5445 Clouds 28 1008 74 8000 0.5 0 13:59 27.10.2019
5446 Thunderstorm 28 1008 78 2000 1.5 130 13:40 27.10.2019
5447 Thunderstorm 28 1008 78 2000 1.5 130 13:22 27.10.2019
5448 Clouds 29 1008 74 8000 2.6 40 12:59 27.10.2019
5449 Thunderstorm 29 1007 70 6000 2.1 40 12:41 27.10.2019
5450 Thunderstorm 30 1007 70 6000 2.1 40 12:23 27.10.2019
5451 Clouds 30 1007 70 8000 3.1 30 11:42 27.10.2019
5452 Thunderstorm 30 1007 70 6000 3.1 10 11:24 27.10.2019
5453 Thunderstorm 30 1007 70 6000 3.1 10 11:24 27.10.2019
5454 Clouds 31 1006 66 8000 4.6 20 10:57 27.10.2019
5455 Clouds 31 1006 59 6000 5.1 20 10:38 27.10.2019
5456 Clouds 31 1006 59 6000 5.1 20 10:38 27.10.2019
5457 Clouds 31 1006 59 6000 5.1 20 10:19 27.10.2019
5458 Clouds 31 1006 66 10000 4.6 30 09:43 27.10.2019
5459 Clouds 31 1006 59 6000 6.7 360 09:19 27.10.2019
5460 Clouds 31 1007 66 10000 4.6 20 08:57 27.10.2019
5461 Rain 31 1007 66 5000 6.2 30 08:37 27.10.2019
5462 Rain 31 1007 66 5000 6.2 30 08:19 27.10.2019
5463 Rain 31 1007 66 5000 6.2 30 08:19 27.10.2019
5464 Clouds 32 1007 66 8000 6.7 40 07:46 27.10.2019
5465 Clouds 32 1007 66 8000 6.7 40 07:46 27.10.2019
5466 Rain 32 1007 59 5000 5.1 20 07:26 27.10.2019
5467 Clouds 32 1008 59 6000 4.1 30 06:55 27.10.2019
5468 Haze 33 1008 55 5000 1.5 310 06:29 27.10.2019
5469 Clouds 33 1009 55 7000 2.6 0 05:54 27.10.2019
5470 Haze 32 1009 52 5000 2.1 130 05:34 27.10.2019
5471 Haze 30 1010 66 4000 3.1 13 03:35 27.10.2019
5472 Haze 27 1010 78 4000 1.5 190 02:28 27.10.2019
5473 Haze 26 1009 88 4000 3.18 119 01:25 27.10.2019
5474 Haze 26 1009 78 4500 2.6 210 00:53 27.10.2019
5475 Haze 26 1009 78 5000 2.6 210 00:34 27.10.2019
5476 Haze 26 1009 78 5000 1.5 220 23:58 26.10.2019
5477 Clouds 26 1008 78 6000 2.6 200 23:40 26.10.2019
5478 Clouds 26 1008 78 6000 2.6 200 23:21 26.10.2019
5479 Clouds 26 1008 78 6000 3.1 200 22:57 26.10.2019
5480 Clouds 26 1008 78 6000 1.5 0 22:38 26.10.2019
5481 Clouds 26 1008 78 6000 1.5 0 22:19 26.10.2019
5482 Clouds 27 1008 69 6000 2.1 200 21:55 26.10.2019
5483 Clouds 27 1008 69 6000 2.1 200 21:37 26.10.2019
5484 Clouds 27 1008 69 6000 2.1 200 21:19 26.10.2019
5485 Clouds 27 1008 69 6000 1.5 210 20:42 26.10.2019
5486 Clouds 27 1009 69 6000 2.1 0 20:19 26.10.2019
5487 Clouds 27 1009 65 6000 1.5 210 19:43 26.10.2019
5488 Clouds 27 1009 65 6000 1.5 0 19:21 26.10.2019
5489 Clouds 27 1010 65 6000 1 0 18:58 26.10.2019
5490 Clouds 27 1010 65 6000 2.1 0 18:40 26.10.2019
5491 Clouds 27 1010 65 6000 2.1 0 18:20 26.10.2019
5492 Clouds 27 1010 65 6000 2.6 0 17:59 26.10.2019
5493 Clouds 28 1010 65 6000 3.1 180 17:39 26.10.2019
5494 Clouds 28 1010 65 6000 3.1 180 17:20 26.10.2019
5495 Clouds 28 1010 69 6000 1 0 16:57 26.10.2019
5496 Clouds 28 1010 69 6000 2.6 190 16:38 26.10.2019
5497 Clouds 28 1010 69 6000 2.6 190 16:20 26.10.2019
5498 Clouds 28 1009 70 7000 1 0 15:40 26.10.2019
5499 Clouds 28 1009 70 7000 1 0 15:40 26.10.2019
5500 Clouds 28 1009 70 7000 1 0 15:18 26.10.2019
5501 Clouds 28 1009 65 6000 4.1 190 14:40 26.10.2019
5502 Clouds 28 1009 65 6000 4.1 190 14:20 26.10.2019
5503 Clouds 28 1009 70 0 2.81 356 13:59 26.10.2019
5504 Clouds 28 1009 70 0 2.81 356 13:39 26.10.2019
5505 Clouds 28 1009 70 0 2.81 356 13:20 26.10.2019
5506 Clouds 30 1008 66 9000 3.1 360 12:46 26.10.2019
5507 Clouds 31 1006 46 6000 4.1 60 12:23 26.10.2019
5508 Clouds 31 1006 46 6000 4.1 60 11:48 26.10.2019
5509 Clouds 32 1006 46 6000 4.1 60 11:48 26.10.2019
5510 Clouds 32 1006 46 6000 4.1 60 11:27 26.10.2019
5511 Clouds 32 1006 46 6000 4.1 60 11:27 26.10.2019
5512 Clouds 33 1006 59 10000 6.7 40 10:47 26.10.2019
5513 Clouds 33 1006 46 6000 5.1 10 10:27 26.10.2019
5514 Clouds 33 1007 59 10000 6.2 20 09:59 26.10.2019
5515 Clouds 33 1007 49 6000 4.1 10 09:41 26.10.2019
5516 Clouds 33 1007 49 6000 4.1 10 09:22 26.10.2019
5517 Clouds 34 1007 55 9000 6.2 30 08:43 26.10.2019
5518 Clouds 34 1007 47 6000 5.1 30 08:25 26.10.2019
5519 Clouds 35 1008 52 7000 5.7 40 07:44 26.10.2019
5520 Clouds 35 1008 52 7000 5.7 40 07:44 26.10.2019
5521 Haze 34 1008 41 5000 2.1 110 07:25 26.10.2019
5522 Clouds 33 1009 55 8000 4.1 50 06:42 26.10.2019
5523 Haze 34 1010 49 5000 2.1 70 06:23 26.10.2019
5524 Haze 32 1011 55 5000 3.1 200 05:19 26.10.2019
5525 Clouds 30 1011 58 9000 2.1 0 04:23 26.10.2019
5526 Clouds 28 1011 62 7000 3.6 170 02:45 26.10.2019
5527 Haze 26 1010 78 5000 3.1 200 01:51 26.10.2019
5528 Clear 26 1010 78 6000 2.3 132 01:22 26.10.2019
5529 Clear 25 1009 78 6000 1.5 180 00:23 26.10.2019
5530 Clouds 25 1009 78 7000 2.1 0 23:43 25.10.2019
5531 Clouds 25 1009 78 7000 1 0 23:20 25.10.2019
5532 Clouds 25 1009 78 7000 1.5 0 22:40 25.10.2019
5533 Clouds 25 1009 78 7000 1.5 0 22:22 25.10.2019
5534 Clouds 25 1009 78 7000 1.5 0 22:22 25.10.2019
5535 Clouds 25 1009 78 7000 3.1 230 21:58 25.10.2019
5536 Clouds 25 1009 78 7000 2.1 240 21:39 25.10.2019
5537 Clouds 25 1009 78 7000 2.1 240 21:19 25.10.2019
5538 Clouds 26 1009 74 7000 2.6 220 20:55 25.10.2019
5539 Clouds 26 1010 74 7000 1.5 0 20:37 25.10.2019
5540 Clouds 26 1010 74 7000 1.5 0 20:18 25.10.2019
5541 Clouds 26 1010 69 7000 3.1 260 19:41 25.10.2019
5542 Clouds 26 1010 69 7000 3.1 260 19:23 25.10.2019
5543 Clouds 26 1011 69 7000 3.6 270 18:44 25.10.2019
5544 Clouds 27 1011 69 6000 1.5 290 18:22 25.10.2019
5545 Clouds 28 1011 70 7000 1 330 17:41 25.10.2019
5546 Clouds 28 1011 70 7000 1 330 17:41 25.10.2019
5547 Clouds 28 1011 70 7000 1 330 17:21 25.10.2019
5548 Clouds 28 1011 70 8000 1 360 16:54 25.10.2019
5549 Clouds 28 1011 70 7000 1 360 16:36 25.10.2019
5550 Clouds 28 1011 70 7000 1 360 16:18 25.10.2019
5551 Clouds 29 1010 66 8000 1.5 30 15:40 25.10.2019
5552 Clouds 29 1010 66 8000 1.5 30 15:22 25.10.2019
5553 Clouds 29 1010 70 8000 1 0 14:58 25.10.2019
5554 Clouds 29 1010 70 8000 1 0 14:58 25.10.2019
5555 Clouds 29 1009 58 8000 2.1 50 14:39 25.10.2019
5556 Clouds 29 1009 58 8000 2.1 50 14:20 25.10.2019
5557 Clouds 30 1009 70 9000 1.5 340 13:42 25.10.2019
5558 Clouds 30 1008 55 9000 5.1 30 13:24 25.10.2019
5559 Clouds 30 1008 66 10000 3.1 30 12:56 25.10.2019
5560 Clouds 30 1007 46 9000 6.2 40 12:38 25.10.2019
5561 Clouds 30 1007 46 9000 6.2 40 12:19 25.10.2019
5562 Clouds 31 1006 41 8000 5.7 30 11:41 25.10.2019
5563 Clouds 31 1006 41 8000 5.7 30 11:22 25.10.2019
5564 Clouds 32 1007 55 10000 6.2 50 10:57 25.10.2019
5565 Clouds 32 1006 52 8000 5.7 360 10:39 25.10.2019
5566 Clouds 32 1006 52 8000 5.7 360 10:19 25.10.2019
5567 Clouds 33 1007 52 10000 6.2 30 09:54 25.10.2019
5568 Clouds 34 1007 44 8000 5.7 30 09:36 25.10.2019
5569 Clouds 33 1007 44 8000 5.7 30 09:18 25.10.2019
5570 Clouds 34 1008 52 10000 6.7 60 08:42 25.10.2019
5571 Clouds 34 1007 49 7000 6.2 330 08:23 25.10.2019
5572 Clouds 34 1009 52 10000 7.2 40 07:49 25.10.2019
5573 Clouds 34 1009 52 10000 7.2 40 07:49 25.10.2019
5574 Clouds 34 1009 52 10000 7.2 40 07:49 25.10.2019
5575 Clouds 34 1009 46 6000 3.6 40 07:30 25.10.2019
5576 Clouds 34 1010 44 6000 2.1 60 06:38 25.10.2019
5577 Clouds 33 1011 55 9000 4.1 50 05:50 25.10.2019
5578 Clouds 33 1011 52 6000 3.6 40 05:32 25.10.2019
5579 Clouds 32 1011 58 6000 1.5 110 04:38 25.10.2019
5580 Haze 28 1011 70 5000 1.5 0 02:44 25.10.2019
5581 Haze 27 1010 74 5000 2.1 180 01:53 25.10.2019
5582 Haze 25 1010 88 5000 1.5 120 00:39 25.10.2019
5583 Haze 25 1009 83 5000 1 0 23:57 24.10.2019
5584 Haze 25 1009 78 5000 1.5 170 23:37 24.10.2019
5585 Haze 25 1009 78 5000 1.5 170 23:37 24.10.2019
5586 Haze 25 1009 78 5000 1.5 170 23:19 24.10.2019
5587 Haze 25 1009 78 5000 1 0 22:54 24.10.2019
5588 Haze 25 1009 78 5000 1.5 0 22:36 24.10.2019
5589 Haze 25 1009 78 5000 1.5 0 22:18 24.10.2019
5590 Haze 26 1009 78 5000 1 0 21:54 24.10.2019
5591 Haze 26 1009 78 5000 1 0 21:54 24.10.2019
5592 Haze 26 1009 78 5000 1 0 21:54 24.10.2019
5593 Haze 26 1009 78 5000 1 0 21:36 24.10.2019
5594 Haze 26 1009 78 5000 1 0 21:18 24.10.2019
5595 Haze 26 1009 78 5000 1 0 20:54 24.10.2019
5596 Haze 25 1009 83 5000 1.5 240 20:36 24.10.2019
5597 Haze 25 1009 83 5000 1.5 240 20:18 24.10.2019
5598 Haze 26 1010 78 5000 1.5 220 19:41 24.10.2019
5599 Haze 26 1010 78 5000 1.5 220 19:22 24.10.2019
5600 Haze 26 1010 74 4000 1.5 210 18:58 24.10.2019
5601 Haze 26 1010 74 4000 1.5 210 18:58 24.10.2019
5602 Haze 26 1011 78 4000 1 0 18:39 24.10.2019
5603 Haze 27 1011 78 4000 1 0 18:21 24.10.2019
5604 Haze 27 1011 74 4000 1.5 30 17:56 24.10.2019
5605 Clouds 27 1011 74 6000 2.1 0 17:37 24.10.2019
5606 Clouds 28 1011 74 6000 2.1 0 17:18 24.10.2019
5607 Clouds 28 1011 66 7000 1.5 330 16:42 24.10.2019
5608 Clouds 28 1011 66 7000 2.1 0 16:23 24.10.2019
5609 Clouds 28 1011 66 7000 2.1 0 16:23 24.10.2019
5610 Clouds 29 1010 70 7000 1.5 310 15:59 24.10.2019
5611 Clouds 29 1010 70 7000 1.5 340 15:41 24.10.2019
5612 Clouds 29 1010 70 7000 1.5 340 15:23 24.10.2019
5613 Clouds 29 1009 66 8000 2.1 0 14:59 24.10.2019
5614 Clouds 29 1009 66 6000 1.5 30 14:41 24.10.2019
5615 Clouds 29 1009 66 6000 1.5 30 14:22 24.10.2019
5616 Clouds 29 1009 66 10000 2.1 0 13:42 24.10.2019
5617 Clouds 29 1008 66 6000 3.1 360 13:21 24.10.2019
5618 Clouds 30 1008 62 10000 3.1 340 12:59 24.10.2019
5619 Clouds 30 1007 58 6000 4.1 20 12:40 24.10.2019
5620 Clouds 30 1007 58 6000 4.1 20 12:20 24.10.2019
5621 Clouds 32 1007 58 10000 4.1 350 11:57 24.10.2019
5622 Clouds 32 1007 55 6000 3.6 360 11:39 24.10.2019
5623 Clouds 32 1007 55 6000 3.6 360 11:20 24.10.2019
5624 Clouds 33 1007 52 10000 4.6 10 10:59 24.10.2019
5625 Clouds 33 1006 46 6000 4.1 40 10:41 24.10.2019
5626 Clouds 33 1006 46 6000 4.1 40 10:41 24.10.2019
5627 Clouds 33 1006 46 6000 4.1 40 10:22 24.10.2019
5628 Clouds 34 1007 44 6000 4.1 10 09:39 24.10.2019
5629 Clouds 34 1007 44 6000 4.1 10 09:19 24.10.2019
5630 Clouds 34 1007 46 10000 3.6 20 08:56 24.10.2019
5631 Clouds 34 1007 44 6000 4.1 10 08:38 24.10.2019
5632 Clouds 34 1007 44 6000 4.1 10 08:18 24.10.2019
5633 Clouds 35 1008 44 10000 6.7 360 07:46 24.10.2019
5634 Clouds 35 1008 39 6000 4.1 30 07:23 24.10.2019
5635 Clouds 34 1009 44 10000 3.6 20 06:48 24.10.2019
5636 Clouds 33 1009 43 6000 3.1 30 06:26 24.10.2019
5637 Clouds 34 1010 49 10000 3.6 30 05:52 24.10.2019
5638 Clouds 33 1010 41 6000 3.6 30 05:29 24.10.2019
5639 Clouds 31 1011 55 6000 1.5 200 03:39 24.10.2019
5640 Clouds 30 1011 55 6000 1.5 200 03:19 24.10.2019
5641 Haze 28 1010 65 5000 1.5 210 02:29 24.10.2019
5642 Haze 27 1010 74 5000 1.5 0 01:57 24.10.2019
5643 Haze 26 1009 74 5000 2.48 128 01:30 24.10.2019
5644 Clouds 26 1009 78 7000 2.1 0 00:47 24.10.2019
5645 Haze 26 1009 74 5000 2.27 125 00:23 24.10.2019
5646 Clouds 26 1009 74 6000 1.5 170 23:44 23.10.2019
5647 Haze 26 1009 74 5000 2.27 125 23:24 23.10.2019
5648 Clouds 26 1009 78 6000 1.5 180 22:57 23.10.2019
5649 Clouds 26 1009 83 6000 1.5 190 22:38 23.10.2019
5650 Clouds 26 1009 83 6000 1.5 190 22:19 23.10.2019
5651 Clouds 26 1009 83 6000 1 210 21:58 23.10.2019
5652 Haze 26 1009 83 5000 1 210 21:39 23.10.2019
5653 Haze 26 1009 83 5000 1 210 21:20 23.10.2019
5654 Haze 26 1009 78 5000 1 200 20:58 23.10.2019
5655 Haze 26 1010 78 5000 1.5 210 20:39 23.10.2019
5656 Haze 26 1010 78 5000 1.5 210 20:39 23.10.2019
5657 Haze 26 1010 78 5000 1.5 210 20:21 23.10.2019
5658 Haze 26 1010 78 5000 1.5 0 19:58 23.10.2019
5659 Haze 26 1010 78 5000 1 220 19:40 23.10.2019
5660 Haze 26 1010 78 5000 1 220 19:19 23.10.2019
5661 Haze 27 1010 74 5000 1.5 200 18:56 23.10.2019
5662 Haze 28 1011 69 5000 2.1 190 18:38 23.10.2019
5663 Haze 28 1011 69 5000 2.1 190 18:18 23.10.2019
5664 Haze 28 1011 69 5000 2.1 190 18:18 23.10.2019
5665 Haze 28 1011 69 5000 2.1 210 17:45 23.10.2019
5666 Haze 28 1011 74 5000 0.5 120 17:20 23.10.2019
5667 Clouds 28 1010 74 8000 0.5 0 16:58 23.10.2019
5668 Clouds 28 1010 70 8000 0.5 0 16:39 23.10.2019
5669 Clouds 28 1010 70 8000 0.5 0 16:20 23.10.2019
5670 Clouds 28 1009 70 8000 1.5 0 15:42 23.10.2019
5671 Clouds 28 1010 74 8000 1.5 300 15:42 23.10.2019
5672 Clouds 29 1009 70 8000 1.5 0 15:23 23.10.2019
5673 Clouds 29 1009 70 8000 2.1 0 14:58 23.10.2019
5674 Clouds 29 1008 45 6000 2.1 10 14:39 23.10.2019
5675 Clouds 29 1008 45 6000 2.1 10 14:20 23.10.2019
5676 Clouds 30 1008 62 8000 2.1 330 13:59 23.10.2019
5677 Clouds 30 1007 38 6000 3.6 50 13:40 23.10.2019
5678 Clouds 30 1007 38 6000 3.6 50 13:22 23.10.2019
5679 Clouds 31 1007 62 9000 2.6 0 12:56 23.10.2019
5680 Clouds 32 1006 41 7000 7.2 40 12:37 23.10.2019
5681 Clouds 32 1006 41 7000 7.2 40 12:18 23.10.2019
5682 Clouds 33 1006 55 10000 3.6 360 11:57 23.10.2019
5683 Clouds 33 1005 36 7000 6.7 30 11:38 23.10.2019
5684 Clouds 33 1005 36 7000 6.7 30 11:20 23.10.2019
5685 Clouds 33 1005 41 7000 8.2 30 10:45 23.10.2019
5686 Clouds 34 1006 52 8000 6.2 360 10:26 23.10.2019
5687 Clouds 35 1006 49 10000 6.2 10 09:56 23.10.2019
5688 Clouds 35 1006 32 7000 9.3 50 09:37 23.10.2019
5689 Clouds 35 1006 32 7000 9.3 50 09:19 23.10.2019
5690 Clouds 36 1006 44 10000 6.2 30 08:42 23.10.2019
5691 Clouds 36 1007 32 7000 6.7 80 08:24 23.10.2019
5692 Clouds 36 1007 49 10000 6.2 360 07:46 23.10.2019
5693 Clouds 36 1008 29 6000 7.2 50 07:23 23.10.2019
5694 Clouds 35 1008 49 10000 5.1 20 06:47 23.10.2019
5695 Clouds 34 1009 32 6000 4.1 120 06:22 23.10.2019
5696 Clouds 33 1009 49 10000 2.6 0 05:55 23.10.2019
5697 Clouds 32 1010 55 10000 1.5 0 04:59 23.10.2019
5698 Clouds 31 1011 58 6000 2.6 200 03:35 23.10.2019
5699 Clouds 28 1010 61 8000 2.1 210 02:41 23.10.2019
5700 Clouds 25 1009 74 6000 0.81 102 01:34 23.10.2019
5701 Clouds 25 1009 73 6000 1 180 00:56 23.10.2019
5702 Clouds 24 1009 73 6000 2.1 0 00:29 23.10.2019
5703 Clouds 24 1008 78 6000 1.5 0 23:41 22.10.2019
5704 Clouds 24 1008 78 6000 1.5 0 23:19 22.10.2019
5705 Clouds 25 1008 69 6000 2.1 170 22:57 22.10.2019
5706 Clouds 26 1008 69 6000 2.1 180 22:39 22.10.2019
5707 Clouds 25 1008 69 6000 2.1 180 22:21 22.10.2019
5708 Clouds 25 1008 74 6000 1.5 0 21:56 22.10.2019
5709 Haze 25 1009 83 5000 1.5 210 21:37 22.10.2019
5710 Haze 25 1009 83 5000 1.5 210 21:18 22.10.2019
5711 Haze 25 1009 78 5000 1.5 200 20:57 22.10.2019
5712 Haze 25 1009 78 5000 1.5 210 20:39 22.10.2019
5713 Haze 26 1009 78 5000 1.5 210 20:20 22.10.2019
5714 Haze 26 1009 74 5000 1.5 210 19:55 22.10.2019
5715 Haze 26 1009 74 5000 1.5 210 19:37 22.10.2019
5716 Haze 26 1009 74 5000 1.5 210 19:19 22.10.2019
5717 Haze 26 1010 74 5000 1 230 18:41 22.10.2019
5718 Haze 27 1010 74 5000 1 230 18:22 22.10.2019
5719 Haze 27 1010 69 5000 1 200 17:59 22.10.2019
5720 Haze 27 1010 65 5000 1 220 17:39 22.10.2019
5721 Haze 27 1010 65 5000 1 220 17:20 22.10.2019
5722 Haze 27 1010 65 5000 1 220 17:20 22.10.2019
5723 Haze 27 1010 69 5000 1 200 16:57 22.10.2019
5724 Haze 27 1010 69 5000 1 200 16:57 22.10.2019
5725 Clouds 28 1010 62 7000 0.5 0 16:38 22.10.2019
5726 Clouds 28 1010 62 7000 0.5 0 16:19 22.10.2019
5727 Clouds 28 1010 62 7000 0.5 0 16:19 22.10.2019
5728 Clouds 28 1009 66 7000 1 0 15:58 22.10.2019
5729 Clouds 29 1009 62 7000 1.5 10 15:39 22.10.2019
5730 Clouds 29 1009 62 7000 1.5 10 15:18 22.10.2019
5731 Clouds 29 1009 62 7000 2.1 0 14:43 22.10.2019
5732 Clouds 30 1008 43 8000 4.1 70 14:20 22.10.2019
5733 Clouds 30 1008 58 7000 3.1 40 13:43 22.10.2019
5734 Clouds 30 1007 38 9000 6.2 60 13:22 22.10.2019
5735 Clouds 30 1007 38 9000 6.2 60 13:22 22.10.2019
5736 Clouds 31 1006 52 10000 5.1 30 12:59 22.10.2019
5737 Clouds 32 1006 30 9000 6.7 70 12:40 22.10.2019
5738 Clouds 32 1006 30 9000 6.7 70 12:21 22.10.2019
5739 Clouds 33 1006 46 10000 6.2 30 11:56 22.10.2019
5740 Clouds 34 1005 30 9000 6.7 50 11:38 22.10.2019
5741 Clouds 34 1005 30 9000 6.7 50 11:20 22.10.2019
5742 Clouds 35 1005 41 10000 7.2 10 10:56 22.10.2019
5743 Clouds 35 1005 25 9000 8.2 70 10:37 22.10.2019
5744 Clouds 35 1005 25 9000 8.2 70 10:18 22.10.2019
5745 Clouds 36 1006 39 10000 6.7 30 09:54 22.10.2019
5746 Clouds 36 1006 27 9000 7.2 60 09:36 22.10.2019
5747 Clouds 36 1006 27 9000 7.2 60 09:18 22.10.2019
5748 Clouds 36 1006 41 10000 6.2 10 08:42 22.10.2019
5749 Clouds 36 1006 27 9000 6.2 50 08:21 22.10.2019
5750 Clouds 37 1007 32 10000 7.2 40 07:45 22.10.2019
5751 Clouds 36 1007 25 8000 6.7 60 07:26 22.10.2019
5752 Clouds 36 1008 34 10000 7.2 50 06:48 22.10.2019
5753 Clouds 36 1008 22 8000 8.7 70 06:30 22.10.2019
5754 Clouds 35 1009 39 10000 2.6 0 05:56 22.10.2019
5755 Clouds 34 1009 30 8000 4.1 70 05:20 22.10.2019
5756 Clouds 28 1009 65 6000 3.1 220 02:47 22.10.2019
5757 Haze 27 1009 69 5000 2.1 190 02:28 22.10.2019
5758 Haze 25 1008 78 5000 1.5 260 01:27 22.10.2019
5759 Haze 25 1008 78 5000 1 190 00:57 22.10.2019
5760 Clouds 25 1008 78 6000 1.5 220 00:39 22.10.2019
5761 Clouds 25 1008 78 6000 1.5 220 00:20 22.10.2019
5762 Haze 25 1008 83 5000 1.5 190 23:55 21.10.2019
5763 Haze 24 1008 83 5000 1.5 190 23:37 21.10.2019
5764 Haze 24 1008 83 5000 1.5 190 23:18 21.10.2019
5765 Haze 24 1008 83 5000 1 210 22:56 21.10.2019
5766 Haze 25 1008 83 5000 1.5 200 22:37 21.10.2019
5767 Haze 25 1008 83 5000 1.5 200 22:19 21.10.2019
5768 Haze 25 1008 78 5000 1 190 21:41 21.10.2019
5769 Haze 25 1008 78 5000 1 190 21:23 21.10.2019
5770 Haze 25 1009 78 5000 1.5 210 20:59 21.10.2019
5771 Haze 25 1009 78 5000 2.1 210 20:41 21.10.2019
5772 Haze 25 1009 78 5000 2.1 210 20:21 21.10.2019
5773 Haze 25 1009 78 5000 2.1 210 19:59 21.10.2019
5774 Haze 25 1010 83 5000 2.1 220 19:40 21.10.2019
5775 Haze 25 1010 83 5000 2.1 220 19:22 21.10.2019
5776 Haze 26 1010 78 5000 2.6 210 18:56 21.10.2019
5777 Haze 26 1010 74 5000 1 200 18:37 21.10.2019
5778 Haze 26 1010 74 5000 1 200 18:19 21.10.2019
5779 Clouds 27 1010 65 6000 1.5 70 17:57 21.10.2019
5780 Clouds 28 1010 62 6000 1.5 80 17:38 21.10.2019
5781 Clouds 28 1010 62 6000 1.5 80 17:18 21.10.2019
5782 Clouds 27 1010 69 7000 3.1 60 16:56 21.10.2019
5783 Clouds 27 1009 74 8000 4.1 40 16:38 21.10.2019
5784 Clouds 27 1009 74 8000 4.1 40 16:20 21.10.2019
5785 Clouds 27 1009 74 8000 4.1 40 16:20 21.10.2019
5786 Clouds 27 1009 74 8000 3.1 50 15:46 21.10.2019
5787 Clouds 29 1009 65 8000 2.1 80 15:25 21.10.2019
5788 Clouds 28 1008 69 8000 2.1 50 14:58 21.10.2019
5789 Clouds 29 1008 51 6000 4.1 60 14:39 21.10.2019
5790 Clouds 29 1008 51 6000 4.1 60 14:20 21.10.2019
5791 Clouds 30 1008 66 9000 4.1 50 13:56 21.10.2019
5792 Clouds 30 1007 45 6000 6.2 60 13:38 21.10.2019
5793 Clouds 30 1007 45 6000 6.2 60 13:19 21.10.2019
5794 Clouds 31 1006 38 7000 7.2 70 12:42 21.10.2019
5795 Clouds 32 1006 38 7000 7.2 70 12:22 21.10.2019
5796 Clouds 33 1006 55 10000 6.7 50 11:57 21.10.2019
5797 Clouds 33 1006 38 7000 7.2 50 11:38 21.10.2019
5798 Clouds 34 1006 38 7000 7.2 50 11:20 21.10.2019
5799 Clouds 34 1006 52 10000 8.7 40 10:57 21.10.2019
5800 Clouds 34 1006 36 7000 8.2 50 10:38 21.10.2019
5801 Clouds 35 1006 36 7000 8.2 50 10:19 21.10.2019
5802 Clouds 35 1006 52 10000 6.2 30 09:46 21.10.2019
5803 Clouds 36 1006 32 7000 8.2 50 09:26 21.10.2019
5804 Clouds 36 1007 46 10000 8.7 30 08:57 21.10.2019
5805 Clouds 36 1007 32 7000 8.2 60 08:37 21.10.2019
5806 Clouds 36 1007 32 7000 8.2 60 08:19 21.10.2019
5807 Clouds 36 1008 27 7000 8.7 30 07:39 21.10.2019
5808 Clouds 36 1008 27 7000 8.7 30 07:21 21.10.2019
5809 Clouds 35 1009 39 10000 7.2 40 06:56 21.10.2019
5810 Clouds 36 1009 22 7000 8.7 100 06:36 21.10.2019
5811 Clouds 36 1009 22 7000 8.7 100 06:36 21.10.2019
5812 Clouds 35 1010 46 9000 4.1 40 05:56 21.10.2019
5813 Clouds 35 1010 46 9000 4.1 40 05:56 21.10.2019
5814 Haze 32 1011 58 5000 1.5 0 04:45 21.10.2019
5815 Clouds 30 1011 66 7000 1 0 03:37 21.10.2019
5816 Haze 27 1011 74 4000 1.5 230 02:25 21.10.2019
5817 Haze 26 1011 78 4800 1.5 200 01:59 21.10.2019
5818 Haze 25 1010 78 4000 5.24 96.326 01:23 21.10.2019
5819 Haze 24 1009 83 5000 1.5 240 00:48 21.10.2019
5820 Haze 24 1009 88 5000 5.24 96.326 00:26 21.10.2019
5821 Mist 24 1009 83 4500 1 0 23:42 20.10.2019
5822 Mist 25 1009 83 4300 1.5 200 23:22 20.10.2019
5823 Mist 25 1009 83 4300 1.5 200 23:22 20.10.2019
5824 Mist 24 1008 83 4100 2.1 230 22:57 20.10.2019
5825 Clear 26 1010 74 0 0.89 181 22:38 20.10.2019
5826 Clear 26 1010 74 0 0.89 181 22:18 20.10.2019
5827 Haze 26 1009 78 5000 1 190 21:58 20.10.2019
5828 Haze 26 1009 78 5000 1.5 200 21:39 20.10.2019
5829 Haze 26 1009 78 5000 1.5 200 21:21 20.10.2019
5830 Clouds 27 1009 74 7000 1.5 0 20:42 20.10.2019
5831 Clouds 27 1009 69 7000 2.6 90 20:20 20.10.2019
5832 Clouds 27 1010 69 7000 2.1 90 19:57 20.10.2019
5833 Clouds 27 1010 69 7000 3.6 90 19:39 20.10.2019
5834 Clouds 27 1010 69 7000 3.6 90 19:20 20.10.2019
5835 Clouds 27 1010 69 7000 3.6 90 19:20 20.10.2019
5836 Clouds 27 1010 69 7000 3.1 100 18:56 20.10.2019
5837 Clouds 27 1010 69 7000 3.1 100 18:56 20.10.2019
5838 Clouds 27 1010 69 7000 2.6 90 18:38 20.10.2019
5839 Clouds 27 1010 69 7000 2.6 90 18:20 20.10.2019
5840 Clouds 27 1010 69 7000 3.1 80 17:54 20.10.2019
5841 Clouds 27 1011 69 7000 4.6 70 17:36 20.10.2019
5842 Clouds 27 1011 69 7000 4.6 70 17:18 20.10.2019
5843 Clouds 28 1010 66 7000 4.1 80 16:41 20.10.2019
5844 Clouds 28 1010 66 7000 4.1 80 16:23 20.10.2019
5845 Clouds 29 1010 62 7000 4.1 80 15:58 20.10.2019
5846 Clouds 29 1010 62 7000 4.1 70 15:38 20.10.2019
5847 Clouds 29 1010 62 7000 4.1 70 15:20 20.10.2019
5848 Clouds 29 1009 62 8000 4.6 80 14:57 20.10.2019
5849 Clouds 29 1009 58 7000 4.1 90 14:37 20.10.2019
5850 Clouds 29 1009 58 7000 4.1 90 14:19 20.10.2019
5851 Clouds 29 1009 62 8000 6.2 60 13:55 20.10.2019
5852 Clouds 29 1009 48 7000 4.1 50 13:36 20.10.2019
5853 Clouds 29 1009 48 7000 4.1 50 13:18 20.10.2019
5854 Clouds 30 1008 58 9000 7.2 50 12:56 20.10.2019
5855 Clouds 31 1008 40 7000 5.1 60 12:37 20.10.2019
5856 Clouds 31 1008 40 7000 5.1 60 12:19 20.10.2019
5857 Clouds 32 1007 52 10000 7.7 40 11:54 20.10.2019
5858 Clouds 33 1007 36 7000 5.1 70 11:36 20.10.2019
5859 Clouds 33 1007 36 7000 5.1 70 11:18 20.10.2019
5860 Clouds 32 1007 49 10000 8.7 40 10:41 20.10.2019
5861 Clouds 34 1007 49 10000 8.7 40 10:22 20.10.2019
5862 Clouds 34 1008 49 10000 5.1 30 09:57 20.10.2019
5863 Clouds 34 1008 41 7000 5.7 50 09:39 20.10.2019
5864 Clouds 34 1008 41 7000 5.7 50 09:21 20.10.2019
5865 Clouds 34 1008 55 10000 6.2 30 08:48 20.10.2019
5866 Clouds 34 1008 39 6000 5.7 30 08:23 20.10.2019
5867 Clouds 34 1009 52 10000 6.7 20 07:50 20.10.2019
5868 Clouds 35 1009 36 6000 4.1 90 07:30 20.10.2019
5869 Haze 34 1010 55 10000 4.6 20 06:57 20.10.2019
5870 Haze 34 1010 55 5000 2.6 80 06:20 20.10.2019
5871 Haze 32 1012 58 5000 2.1 50 04:27 20.10.2019
5872 Clouds 31 1012 62 8000 2.1 0 03:46 20.10.2019
5873 Clouds 30 1012 66 0 1.5 170 03:20 20.10.2019
5874 Haze 28 1011 74 5000 2.1 200 02:40 20.10.2019
5875 Haze 27 1011 78 5000 1.5 170 01:58 20.10.2019
5876 Haze 27 1011 83 6000 2.72 152.07 01:23 20.10.2019
5877 Haze 27 1010 88 3500 2.1 160 00:56 20.10.2019
5878 Haze 27 1010 83 6000 2.72 152.07 00:38 20.10.2019
5879 Haze 26 1010 83 6000 2.6 102.132 00:19 20.10.2019
5880 Haze 26 1010 88 4000 1 0 23:42 19.10.2019
5881 Haze 26 1010 88 5000 1 170 23:22 19.10.2019
5882 Haze 26 1010 88 5000 1 0 22:56 19.10.2019
5883 Haze 26 1010 88 5000 1 190 22:37 19.10.2019
5884 Haze 26 1010 88 5000 1 190 22:19 19.10.2019
5885 Haze 26 1010 88 5000 1.5 200 21:46 19.10.2019
5886 Haze 26 1010 88 5000 1 200 21:23 19.10.2019
5887 Haze 27 1010 83 5000 1.5 200 20:45 19.10.2019
5888 Haze 27 1010 83 5000 1 220 20:23 19.10.2019
5889 Haze 27 1010 83 5000 1 220 20:23 19.10.2019
5890 Haze 27 1010 83 4000 1.5 200 19:59 19.10.2019
5891 Haze 27 1011 83 3500 1.5 220 19:40 19.10.2019
5892 Haze 26 1011 83 3500 1.5 220 19:22 19.10.2019
5893 Haze 26 1011 83 5000 1.5 210 18:42 19.10.2019
5894 Haze 26 1011 83 5000 1.5 210 18:24 19.10.2019
5895 Haze 26 1011 83 5000 1.5 210 18:24 19.10.2019
5896 Haze 27 1012 78 4500 1.5 210 17:57 19.10.2019
5897 Haze 27 1012 78 5000 2.1 220 17:37 19.10.2019
5898 Haze 27 1012 78 5000 2.1 220 17:19 19.10.2019
5899 Clouds 27 1011 78 6000 1 220 16:39 19.10.2019
5900 Clouds 28 1011 78 6000 1 220 16:20 19.10.2019
5901 Clouds 28 1011 78 6000 1 220 16:20 19.10.2019
5902 Clouds 28 1011 78 8000 1 0 15:45 19.10.2019
5903 Clouds 28 1011 70 8000 2.1 60 15:26 19.10.2019
5904 Clouds 28 1010 78 8000 2.6 40 14:56 19.10.2019
5905 Clouds 28 1010 66 8000 3.1 50 14:38 19.10.2019
5906 Clouds 28 1010 66 8000 3.1 50 14:20 19.10.2019
5907 Clouds 28 1010 66 8000 3.1 50 14:19 19.10.2019
5908 Clouds 29 1010 74 9000 3.1 20 13:55 19.10.2019
5909 Clouds 29 1009 55 8000 4.1 50 13:36 19.10.2019
5910 Clouds 29 1009 55 8000 4.1 50 13:18 19.10.2019
5911 Clouds 29 1009 55 8000 4.1 50 13:18 19.10.2019
5912 Clouds 30 1008 49 7000 5.1 40 12:39 19.10.2019
5913 Clouds 31 1008 49 7000 5.1 40 12:21 19.10.2019
5914 Clouds 31 1009 62 10000 4.6 20 11:57 19.10.2019
5915 Clouds 31 1009 62 10000 4.6 20 11:39 19.10.2019
5916 Clouds 32 1008 49 7000 6.2 40 11:21 19.10.2019
5917 Clouds 33 1008 41 7000 7.2 30 10:41 19.10.2019
5918 Clouds 33 1008 41 7000 7.2 30 10:23 19.10.2019
5919 Clouds 33 1009 59 10000 7.2 20 09:59 19.10.2019
5920 Clouds 33 1009 59 10000 7.2 20 09:59 19.10.2019
5921 Clouds 33 1009 44 7000 7.7 40 09:40 19.10.2019
5922 Clouds 33 1009 44 7000 7.7 40 09:22 19.10.2019
5923 Clouds 34 1009 55 10000 6.2 20 08:56 19.10.2019
5924 Clouds 34 1009 55 10000 6.2 20 08:56 19.10.2019
5925 Clouds 34 1009 36 7000 6.2 30 08:37 19.10.2019
5926 Clouds 33 1010 52 10000 6.7 30 08:19 19.10.2019
5927 Clouds 34 1010 41 7000 7.2 60 07:41 19.10.2019
5928 Clouds 34 1010 41 7000 7.2 60 07:23 19.10.2019
5929 Clouds 33 1011 43 7000 6.7 70 06:36 19.10.2019
5930 Clouds 33 1011 55 10000 4.6 40 05:51 19.10.2019
5931 Clouds 31 1012 62 7000 7.7 50 04:54 19.10.2019
5932 Haze 29 1012 70 4000 2.1 130 03:19 19.10.2019
5933 Haze 28 1011 83 3000 1.44 178.328 02:34 19.10.2019
5934 Haze 26 1011 88 5000 1 200 01:50 19.10.2019
5935 Haze 26 1010 94 5000 1 210 00:57 19.10.2019
5936 Haze 26 1009 94 3000 1.75 145.156 00:37 19.10.2019
5937 Haze 26 1009 94 3000 1.5 207.352 00:19 19.10.2019
5938 Haze 26 1009 88 5000 1 0 23:39 18.10.2019
5939 Haze 26 1009 88 5000 1 0 23:21 18.10.2019
5940 Haze 26 1009 88 4200 1 200 22:55 18.10.2019
5941 Haze 26 1009 88 5000 1.5 200 22:37 18.10.2019
5942 Haze 26 1009 88 5000 1.5 200 22:37 18.10.2019
5943 Haze 26 1009 88 5000 1.5 200 22:18 18.10.2019
5944 Haze 26 1009 94 4100 1.5 210 21:55 18.10.2019
5945 Haze 26 1009 88 5000 1.5 200 21:36 18.10.2019
5946 Haze 26 1009 88 5000 1.5 200 21:18 18.10.2019
5947 Clouds 26 1009 88 6000 1 0 20:43 18.10.2019
5948 Clouds 26 1010 88 6000 2.1 180 20:24 18.10.2019
5949 Rain 26 1010 94 5000 1.5 210 19:58 18.10.2019
5950 Rain 26 1010 88 5000 2.1 0 19:40 18.10.2019
5951 Rain 26 1010 88 5000 2.1 0 19:22 18.10.2019
5952 Clouds 27 1010 78 7000 2.1 340 18:59 18.10.2019
5953 Clouds 27 1010 78 7000 1.5 0 18:41 18.10.2019
5954 Clouds 27 1010 78 7000 1.5 0 18:23 18.10.2019
5955 Clouds 27 1011 74 7000 2.1 40 17:56 18.10.2019
5956 Clouds 27 1011 78 7000 1.5 10 17:37 18.10.2019
5957 Clouds 27 1011 78 7000 1.5 10 17:19 18.10.2019
5958 Clouds 28 1010 78 7000 1.5 0 16:40 18.10.2019
5959 Clouds 28 1010 78 7000 1.5 0 16:21 18.10.2019
5960 Clouds 28 1010 74 7000 1.5 360 15:58 18.10.2019
5961 Clouds 28 1010 70 7000 1.5 0 15:38 18.10.2019
5962 Clouds 28 1010 70 7000 1.5 0 15:20 18.10.2019
5963 Clouds 28 1010 70 7000 1.5 0 15:20 18.10.2019
5964 Clouds 28 1009 70 8000 1.5 0 14:57 18.10.2019
5965 Clouds 28 1009 70 6000 1.5 360 14:38 18.10.2019
5966 Clouds 28 1009 70 6000 1.5 360 14:38 18.10.2019
5967 Clouds 28 1009 70 6000 1.5 360 14:19 18.10.2019
5968 Clouds 29 1009 70 8000 2.6 360 13:56 18.10.2019
5969 Clouds 29 1008 62 6000 2.1 10 13:37 18.10.2019
5970 Clouds 29 1008 62 6000 2.1 10 13:18 18.10.2019
5971 Clouds 29 1008 66 10000 2.1 0 12:55 18.10.2019
5972 Clouds 29 1007 58 6000 2.1 320 12:37 18.10.2019
5973 Clouds 31 1007 58 6000 2.1 320 12:18 18.10.2019
5974 Clouds 31 1007 55 6000 3.6 360 11:41 18.10.2019
5975 Clouds 31 1007 55 6000 3.6 360 11:21 18.10.2019
5976 Clouds 31 1007 58 10000 4.1 360 10:58 18.10.2019
5977 Clouds 32 1007 55 10000 4.6 10 10:40 18.10.2019
5978 Rain 32 1007 55 10000 4.6 10 10:22 18.10.2019
5979 Rain 32 1008 55 10000 4.6 350 09:57 18.10.2019
5980 Rain 32 1008 55 6000 3.6 360 09:39 18.10.2019
5981 Rain 33 1008 55 6000 3.6 360 09:19 18.10.2019
5982 Haze 32 1008 59 10000 3.6 10 08:45 18.10.2019
5983 Haze 33 1008 59 5000 3.6 10 08:25 18.10.2019
5984 Haze 33 1008 59 5000 3.6 10 08:25 18.10.2019
5985 Haze 33 1009 55 10000 4.6 10 07:57 18.10.2019
5986 Haze 33 1009 55 5000 2.1 30 07:38 18.10.2019
5987 Haze 33 1010 55 10000 3.6 40 06:56 18.10.2019
5988 Haze 32 1010 59 5000 1.5 210 06:37 18.10.2019
5989 Haze 32 1010 59 5000 1.5 210 06:19 18.10.2019
5990 Haze 31 1011 62 8000 4.6 50 05:53 18.10.2019
5991 Haze 31 1011 66 4000 1.5 60 05:20 18.10.2019
5992 Haze 30 1011 70 7000 2.1 0 03:41 18.10.2019
5993 Haze 28 1011 78 5000 2.6 0 02:56 18.10.2019
5994 Haze 28 1011 78 5000 2.6 0 02:56 18.10.2019
5995 Haze 27 1010 78 5000 1.5 190 02:32 18.10.2019
5996 Haze 25 1010 88 5000 1 0 01:42 18.10.2019
5997 Haze 25 1010 88 5000 1.54 212.148 01:23 18.10.2019
5998 Haze 26 1009 88 5000 1.5 200 00:43 18.10.2019
5999 Haze 26 1009 83 5000 1.52 236.894 00:20 18.10.2019
6000 Mist 26 1009 88 5000 1.5 180 23:40 17.10.2019
6001 Mist 25 1009 88 5000 1.5 180 23:21 17.10.2019
6002 Mist 26 1009 88 5000 1 200 22:58 17.10.2019
6003 Mist 26 1009 88 5000 1 200 22:58 17.10.2019
6004 Mist 26 1009 88 5000 2.1 240 22:39 17.10.2019
6005 Mist 26 1009 88 5000 2.1 240 22:20 17.10.2019
6006 Mist 26 1008 88 4500 1.5 0 21:58 17.10.2019
6007 Mist 26 1009 88 5000 2.1 260 21:39 17.10.2019
6008 Mist 25 1009 88 5000 2.1 260 21:20 17.10.2019
6009 Mist 26 1009 88 4500 2.6 220 20:58 17.10.2019
6010 Mist 26 1009 88 4500 2.6 220 20:58 17.10.2019
6011 Mist 26 1009 94 4500 3.6 230 20:39 17.10.2019
6012 Mist 26 1009 94 4500 3.6 230 20:19 17.10.2019
6013 Mist 26 1009 94 4500 3.6 230 20:19 17.10.2019
6014 Rain 25 1010 88 5000 1.5 0 19:59 17.10.2019
6015 Rain 25 1010 88 5000 1.5 0 19:39 17.10.2019
6016 Rain 26 1010 88 5000 1.5 0 19:19 17.10.2019
6017 Clouds 26 1010 83 6000 2.1 210 18:58 17.10.2019
6018 Clouds 26 1010 83 6000 2.1 210 18:38 17.10.2019
6019 Clouds 26 1010 83 6000 2.1 210 18:19 17.10.2019
6020 Clouds 27 1010 78 7000 2.1 170 17:42 17.10.2019
6021 Clouds 27 1010 78 7000 2.6 50 17:23 17.10.2019
6022 Clouds 27 1010 74 7000 1.5 0 16:57 17.10.2019
6023 Clouds 27 1010 78 7000 1 0 16:38 17.10.2019
6024 Clouds 27 1010 78 7000 1 0 16:18 17.10.2019
6025 Clouds 27 1009 78 7000 2.1 0 15:55 17.10.2019
6026 Clouds 27 1009 78 8000 2.1 30 15:37 17.10.2019
6027 Clouds 28 1009 78 8000 2.1 30 15:19 17.10.2019
6028 Clouds 29 1009 74 9000 1.5 0 14:54 17.10.2019
6029 Rain 29 1009 70 6000 3.1 60 14:36 17.10.2019
6030 Rain 29 1009 70 6000 3.1 60 14:18 17.10.2019
6031 Clouds 29 1008 62 6000 4.1 30 13:39 17.10.2019
6032 Clouds 29 1008 62 6000 4.1 30 13:19 17.10.2019
6033 Clouds 29 1008 70 10000 3.1 360 12:43 17.10.2019
6034 Clouds 30 1007 62 6000 5.1 20 12:21 17.10.2019
6035 Clouds 30 1007 66 10000 4.6 30 11:59 17.10.2019
6036 Clouds 30 1006 59 6000 6.2 50 11:41 17.10.2019
6037 Clouds 30 1006 59 6000 6.2 50 11:21 17.10.2019
6038 Clouds 31 1007 62 10000 6.2 30 10:57 17.10.2019
6039 Clouds 32 1007 55 10000 5.7 20 10:39 17.10.2019
6040 Clouds 32 1007 55 10000 5.7 20 10:19 17.10.2019
6041 Clouds 33 1007 59 10000 5.7 10 09:55 17.10.2019
6042 Clouds 33 1007 59 6000 5.7 30 09:36 17.10.2019
6043 Clouds 33 1007 59 6000 5.7 30 09:18 17.10.2019
6044 Clouds 33 1007 59 6000 5.7 30 09:18 17.10.2019
6045 Clouds 33 1007 59 10000 5.7 10 08:46 17.10.2019
6046 Haze 33 1008 52 5000 5.1 30 08:26 17.10.2019
6047 Clouds 34 1008 55 10000 4.6 20 07:56 17.10.2019
6048 Haze 33 1009 62 5000 3.1 330 07:38 17.10.2019
6049 Haze 34 1009 62 5000 3.1 330 07:19 17.10.2019
6050 Haze 33 1010 55 5000 2.6 360 06:40 17.10.2019
6051 Haze 32 1010 55 5000 2.6 360 06:21 17.10.2019
6052 Clouds 32 1010 59 8000 2.6 0 05:58 17.10.2019
6053 Clouds 31 1010 62 6000 2.1 240 05:34 17.10.2019
6054 Clouds 31 1011 62 8000 1 0 04:57 17.10.2019
6055 Clouds 31 1011 66 6000 1.5 0 03:58 17.10.2019
6056 Haze 30 1011 78 5000 1 140 03:38 17.10.2019
6057 Haze 27 1010 83 4000 1.5 140 01:55 17.10.2019
6058 Clouds 26 1009 94 6000 1.5 260 00:41 17.10.2019
6059 Clouds 26 1009 94 6000 1.5 260 00:20 17.10.2019
6060 Haze 26 1009 88 5000 0.5 0 23:42 16.10.2019
6061 Haze 26 1009 88 5000 1 180 23:21 16.10.2019
6062 Haze 26 1009 88 5000 1.5 0 22:57 16.10.2019
6063 Haze 26 1009 94 5000 1 160 22:38 16.10.2019
6064 Haze 26 1009 94 5000 1 160 22:19 16.10.2019
6065 Haze 26 1009 94 5000 1 160 22:19 16.10.2019
6066 Haze 26 1009 94 5000 1 0 21:58 16.10.2019
6067 Rain 26 1010 88 5000 1 0 21:38 16.10.2019
6068 Rain 26 1010 88 5000 1 0 21:20 16.10.2019
6069 Rain 26 1010 94 4000 1 0 20:58 16.10.2019
6070 Thunderstorm 26 1010 94 3000 1.5 0 20:40 16.10.2019
6071 Thunderstorm 26 1010 94 3000 1.5 0 20:21 16.10.2019
6072 Thunderstorm 26 1011 88 2500 4.1 100 19:59 16.10.2019
6073 Clouds 27 1010 74 6000 1.5 0 19:39 16.10.2019
6074 Clouds 27 1010 74 6000 1.5 0 19:39 16.10.2019
6075 Clouds 28 1010 74 6000 1.5 0 19:21 16.10.2019
6076 Clouds 28 1010 78 8000 1.5 0 18:55 16.10.2019
6077 Clouds 28 1010 74 8000 1.5 0 18:37 16.10.2019
6078 Clouds 28 1010 74 8000 1.5 0 18:18 16.10.2019
6079 Clouds 27 1010 74 8000 2.1 0 17:54 16.10.2019
6080 Clouds 27 1010 74 8000 2.1 0 17:54 16.10.2019
6081 Clouds 27 1010 78 8000 1 0 17:36 16.10.2019
6082 Clouds 27 1010 78 8000 1 0 17:18 16.10.2019
6083 Clouds 28 1010 78 8000 2.1 350 16:43 16.10.2019
6084 Clouds 28 1010 78 8000 1.5 340 16:21 16.10.2019
6085 Clouds 28 1010 74 8000 2.6 310 15:58 16.10.2019
6086 Clouds 28 1009 70 8000 2.1 0 15:39 16.10.2019
6087 Clouds 28 1009 70 8000 2.1 0 15:19 16.10.2019
6088 Clouds 28 1009 70 8000 2.1 0 15:19 16.10.2019
6089 Clouds 28 1009 70 8000 2.1 0 14:58 16.10.2019
6090 Clouds 28 1009 70 8000 2.1 0 14:39 16.10.2019
6091 Clouds 28 1009 70 8000 2.1 0 14:39 16.10.2019
6092 Clouds 28 1009 66 6000 1.5 330 14:20 16.10.2019
6093 Clouds 29 1008 70 9000 2.1 330 13:57 16.10.2019
6094 Clouds 29 1008 70 9000 2.1 330 13:39 16.10.2019
6095 Clouds 29 1008 66 6000 2.6 350 13:20 16.10.2019
6096 Clouds 30 1008 70 10000 3.1 340 12:42 16.10.2019
6097 Clouds 30 1007 59 6000 4.1 20 12:20 16.10.2019
6098 Clouds 31 1007 58 10000 4.1 340 11:55 16.10.2019
6099 Clouds 31 1007 58 10000 4.1 340 11:36 16.10.2019
6100 Clouds 31 1007 59 6000 4.1 20 11:18 16.10.2019
6101 Clouds 32 1007 59 10000 4.6 20 10:36 16.10.2019
6102 Haze 32 1007 55 5000 5.7 360 10:18 16.10.2019
6103 Clouds 33 1008 59 10000 4.6 360 09:40 16.10.2019
6104 Haze 33 1008 55 5000 4.1 10 09:22 16.10.2019
6105 Clouds 33 1008 52 10000 4.6 30 08:56 16.10.2019
6106 Clouds 33 1008 52 10000 4.6 30 08:56 16.10.2019
6107 Clouds 33 1008 52 10000 4.6 30 08:38 16.10.2019
6108 Clouds 33 1009 59 5000 3.1 340 08:19 16.10.2019
6109 Clouds 33 1009 52 10000 4.1 20 07:41 16.10.2019
6110 Clouds 33 1010 49 6000 2.1 20 07:23 16.10.2019
6111 Clouds 33 1010 52 10000 3.6 30 06:48 16.10.2019
6112 Haze 32 1011 49 5000 3.1 90 06:29 16.10.2019
6113 Clouds 31 1012 55 8000 2.1 0 04:31 16.10.2019
6114 Clouds 29 1011 65 6000 2.1 0 02:51 16.10.2019
6115 Haze 26 1011 94 3000 1.737 113 01:20 16.10.2019
6116 Haze 26 1010 78 5000 1.5 170 00:59 16.10.2019
6117 Haze 26 1010 78 5000 1.5 170 00:40 16.10.2019
6118 Haze 25 1010 83 4000 1 0 23:59 15.10.2019
6119 Haze 25 1010 83 4000 1 0 23:38 15.10.2019
6120 Haze 25 1010 78 4000 1 200 23:20 15.10.2019
6121 Haze 25 1010 78 4500 1.5 210 22:55 15.10.2019
6122 Haze 25 1010 78 4500 1.5 210 22:55 15.10.2019
6123 Haze 25 1010 78 4500 1.5 210 22:37 15.10.2019
6124 Haze 25 1010 78 4500 1 200 22:18 15.10.2019
6125 Haze 25 1010 83 4000 1.5 180 21:55 15.10.2019
6126 Haze 25 1010 83 4000 1.5 180 21:55 15.10.2019
6127 Haze 25 1010 83 4000 1.5 180 21:36 15.10.2019
6128 Haze 25 1010 83 5000 1 210 21:18 15.10.2019
6129 Haze 25 1010 78 5000 1 200 20:55 15.10.2019
6130 Haze 25 1010 78 5000 1 200 20:55 15.10.2019
6131 Haze 25 1010 78 5000 1 200 20:37 15.10.2019
6132 Haze 26 1010 74 5000 1 160 20:19 15.10.2019
6133 Clouds 26 1010 74 6000 1 0 19:55 15.10.2019
6134 Clouds 26 1010 74 6000 1 0 19:55 15.10.2019
6135 Clouds 26 1010 74 6000 1 0 19:36 15.10.2019
6136 Clouds 27 1010 74 6000 1 0 19:18 15.10.2019
6137 Clouds 27 1010 74 6000 1 0 19:18 15.10.2019
6138 Clouds 27 1011 74 6000 1.5 170 18:43 15.10.2019
6139 Clouds 26 1011 69 6000 1.5 0 18:25 15.10.2019
6140 Clouds 27 1011 74 6000 1.5 160 17:55 15.10.2019
6141 Clouds 27 1011 74 6000 1.5 160 17:55 15.10.2019
6142 Clouds 26 1011 74 6000 1.5 160 17:37 15.10.2019
6143 Clouds 27 1011 74 6000 2.1 160 17:19 15.10.2019
6144 Clouds 27 1011 74 6000 2.1 160 16:45 15.10.2019
6145 Clouds 27 1011 69 7000 2.1 190 16:22 15.10.2019
6146 Clouds 27 1010 65 7000 1.5 0 15:58 15.10.2019
6147 Clouds 27 1010 65 7000 1.5 0 15:39 15.10.2019
6148 Clouds 27 1010 65 8000 1.5 0 15:19 15.10.2019
6149 Clouds 28 1010 65 8000 2.1 190 14:56 15.10.2019
6150 Clouds 27 1010 65 8000 2.1 190 14:37 15.10.2019
6151 Haze 27 1010 78 5000 2.1 200 14:19 15.10.2019
6152 Clouds 28 1010 70 8000 2.1 330 13:43 15.10.2019
6153 Haze 27 1009 88 3000 2.1 190 13:21 15.10.2019
6154 Rain 28 1009 69 4000 4.1 140 12:57 15.10.2019
6155 Clouds 29 1008 66 6000 2.1 330 12:38 15.10.2019
6156 Clouds 30 1008 66 6000 2.1 330 12:19 15.10.2019
6157 Clouds 30 1008 62 9000 3.1 350 11:43 15.10.2019
6158 Clouds 30 1008 58 6000 2.1 10 11:20 15.10.2019
6159 Clouds 32 1007 55 10000 4.6 360 10:56 15.10.2019
6160 Clouds 32 1007 55 10000 4.6 360 10:38 15.10.2019
6161 Clouds 32 1007 59 6000 4.6 20 10:18 15.10.2019
6162 Clouds 33 1007 55 6000 6.2 350 09:55 15.10.2019
6163 Clouds 33 1007 55 6000 6.2 350 09:55 15.10.2019
6164 Clouds 33 1008 52 6000 5.7 340 09:36 15.10.2019
6165 Clouds 33 1008 52 6000 5.7 340 09:36 15.10.2019
6166 Clouds 33 1008 52 6000 5.7 340 09:18 15.10.2019
6167 Clouds 33 1009 55 6000 5.1 350 08:41 15.10.2019
6168 Clouds 33 1009 55 6000 5.1 350 08:21 15.10.2019
6169 Haze 34 1009 52 8000 5.1 10 07:55 15.10.2019
6170 Haze 34 1009 52 8000 5.1 10 07:36 15.10.2019
6171 Haze 34 1010 49 5000 4.1 50 07:18 15.10.2019
6172 Haze 33 1010 52 8000 3.1 10 06:43 15.10.2019
6173 Haze 33 1011 52 5000 1.5 280 06:20 15.10.2019
6174 Haze 33 1011 46 9000 1.5 0 05:37 15.10.2019
6175 Haze 33 1012 55 5000 2.6 100 05:19 15.10.2019
6176 Haze 31 1012 62 5000 2.1 60 04:23 15.10.2019
6177 Haze 30 1012 62 7000 2.6 0 03:36 15.10.2019
6178 Haze 28 1011 69 5000 2.1 210 02:22 15.10.2019
6179 Haze 27 1011 74 6000 2.1 180 01:47 15.10.2019
6180 Haze 26 1011 78 5000 1.68 218.819 01:18 15.10.2019
6181 Haze 26 1011 78 5000 1.5 0 00:46 15.10.2019
6182 Haze 26 1010 78 5000 0.8 347.463 00:20 15.10.2019
6183 Haze 26 1010 78 7000 1.5 180 23:39 14.10.2019
6184 Haze 26 1010 78 4000 0.8 347.463 23:19 14.10.2019
6185 Clouds 26 1010 78 7000 1.5 190 22:40 14.10.2019
6186 Clouds 26 1010 78 7000 1.5 190 22:21 14.10.2019
6187 Clouds 26 1010 83 8000 1 0 21:59 14.10.2019
6188 Clouds 26 1010 83 8000 1 0 21:40 14.10.2019
6189 Clouds 26 1010 83 7000 2.1 230 21:21 14.10.2019
6190 Clouds 26 1010 83 7000 2.1 230 21:21 14.10.2019
6191 Clouds 26 1010 78 7000 1 210 20:58 14.10.2019
6192 Clouds 26 1010 78 7000 1 210 20:39 14.10.2019
6193 Clouds 26 1010 78 7000 1 170 20:20 14.10.2019
6194 Clouds 26 1011 78 7000 1 190 19:58 14.10.2019
6195 Clouds 26 1011 78 7000 1 190 19:39 14.10.2019
6196 Clouds 26 1011 78 7000 1 190 19:39 14.10.2019
6197 Clouds 26 1011 78 7000 1.5 230 19:21 14.10.2019
6198 Clouds 26 1011 78 7000 1.5 230 19:21 14.10.2019
6199 Clouds 26 1011 74 8000 2.1 210 18:57 14.10.2019
6200 Clouds 26 1011 78 6000 1 220 18:38 14.10.2019
6201 Clouds 26 1011 78 6000 1 220 18:18 14.10.2019
6202 Clouds 27 1011 74 8000 1 0 17:44 14.10.2019
6203 Clouds 27 1011 74 8000 1 0 17:25 14.10.2019
6204 Clouds 27 1011 74 8000 1 310 16:58 14.10.2019
6205 Clouds 28 1011 74 8000 1.5 300 16:40 14.10.2019
6206 Clouds 28 1011 74 8000 1.5 300 16:40 14.10.2019
6207 Clouds 28 1011 74 8000 1.5 300 16:20 14.10.2019
6208 Clouds 28 1010 74 8000 1.5 320 15:41 14.10.2019
6209 Clouds 28 1010 74 8000 1 0 15:22 14.10.2019
6210 Clouds 28 1010 74 9000 2.1 340 14:46 14.10.2019
6211 Clouds 29 1010 66 6000 2.1 360 14:26 14.10.2019
6212 Clouds 29 1009 74 9000 2.1 360 13:59 14.10.2019
6213 Clouds 29 1009 74 9000 2.1 360 13:59 14.10.2019
6214 Clear 29 1008 58 7000 5.7 30 13:41 14.10.2019
6215 Clouds 29 1008 58 7000 5.7 30 13:21 14.10.2019
6216 Clouds 30 1008 58 7000 5.7 30 12:43 14.10.2019
6217 Clouds 31 1008 58 7000 5.7 30 12:21 14.10.2019
6218 Clouds 31 1008 58 7000 5.7 30 12:21 14.10.2019
6219 Clouds 31 1008 62 10000 4.1 10 12:00 14.10.2019
6220 Clouds 30 1007 55 7000 5.1 10 11:41 14.10.2019
6221 Clouds 32 1007 55 7000 5.1 10 11:22 14.10.2019
6222 Clouds 32 1008 58 10000 6.2 20 10:44 14.10.2019
6223 Clouds 33 1007 49 6000 5.1 20 10:23 14.10.2019
6224 Clouds 33 1008 55 10000 5.7 20 10:00 14.10.2019
6225 Clouds 33 1008 52 10000 5.7 10 09:41 14.10.2019
6226 Clouds 33 1008 52 10000 5.7 10 09:40 14.10.2019
6227 Clouds 34 1008 52 10000 5.7 10 09:20 14.10.2019
6228 Clouds 34 1008 52 10000 5.7 10 08:48 14.10.2019
6229 Clouds 34 1009 41 6000 4.1 70 08:23 14.10.2019
6230 Clouds 34 1010 52 10000 5.7 30 07:45 14.10.2019
6231 Clouds 34 1010 41 6000 3.1 10 07:23 14.10.2019
6232 Clouds 34 1011 55 10000 5.1 40 06:56 14.10.2019
6233 Clouds 34 1011 55 10000 5.1 40 06:56 14.10.2019
6234 Clouds 33 1011 49 6000 4.1 50 06:28 14.10.2019
6235 Haze 33 1011 52 9000 4.1 30 05:53 14.10.2019
6236 Haze 32 1012 55 9000 2.6 0 04:59 14.10.2019
6237 Haze 30 1012 62 7000 1.5 0 03:49 14.10.2019
6238 Haze 30 1012 70 5000 2.6 120 03:22 14.10.2019
6239 Haze 27 1011 78 3500 1.5 0 01:56 14.10.2019
6240 Haze 26 1011 88 3000 3.36 87.781 01:18 14.10.2019
6241 Haze 26 1010 88 4000 1 220 00:41 14.10.2019
6242 Haze 26 1010 88 4000 1 220 00:18 14.10.2019
6243 Haze 26 1010 88 4000 2.1 210 23:40 13.10.2019
6244 Haze 25 1010 88 4000 2.1 210 23:19 13.10.2019
6245 Haze 26 1010 88 4500 1.5 230 22:56 13.10.2019
6246 Haze 25 1010 88 4000 2.1 230 22:38 13.10.2019
6247 Haze 25 1010 88 4000 2.1 230 22:19 13.10.2019
6248 Haze 26 1010 78 3500 1 160 21:56 13.10.2019
6249 Haze 26 1010 83 3000 1.5 180 21:36 13.10.2019
6250 Haze 26 1010 83 3000 1.5 180 21:36 13.10.2019
6251 Haze 26 1010 83 3000 1.5 180 21:18 13.10.2019
6252 Haze 26 1010 83 3000 1 0 20:55 13.10.2019
6253 Haze 26 1010 78 4000 1 0 20:37 13.10.2019
6254 Haze 26 1010 78 4000 1 0 20:18 13.10.2019
6255 Haze 26 1010 78 4000 1.5 180 19:54 13.10.2019
6256 -273 0 0 0 0 0 19:36 13.10.2019
6257 Haze 26 1010 74 5000 0.5 0 19:36 13.10.2019
6258 Haze 26 1010 74 5000 0.5 0 19:18 13.10.2019
6259 -273 0 0 0 0 0 18:40 13.10.2019
6260 Haze 26 1011 74 5000 0.5 0 18:20 13.10.2019
6261 Haze 26 1011 74 5000 1 0 17:59 13.10.2019
6262 Haze 27 1011 69 5000 1 0 17:41 13.10.2019
6263 Haze 27 1011 69 5000 1 0 17:22 13.10.2019
6264 Haze 27 1011 69 5000 2.6 40 16:43 13.10.2019
6265 Haze 27 1011 69 5000 2.1 40 16:19 13.10.2019
6266 Haze 27 1010 65 5000 1.5 0 15:58 13.10.2019
6267 Haze 27 1010 65 5000 3.1 40 15:39 13.10.2019
6268 Haze 28 1010 65 5000 3.1 40 15:20 13.10.2019
6269 Haze 28 1010 65 5000 3.1 40 15:20 13.10.2019
6270 Haze 28 1010 65 5000 2.6 40 14:58 13.10.2019
6271 Haze 28 1009 62 8000 2.6 360 14:39 13.10.2019
6272 Haze 28 1009 62 8000 2.6 360 14:20 13.10.2019
6273 Haze 28 1009 74 5000 2.1 0 13:56 13.10.2019
6274 Clouds 29 1008 58 7000 3.6 360 13:37 13.10.2019
6275 Clouds 29 1008 58 7000 3.6 360 13:18 13.10.2019
6276 Clouds 29 1008 70 6000 3.1 340 12:55 13.10.2019
6277 Clouds 29 1007 55 7000 3.1 20 12:37 13.10.2019
6278 Clouds 30 1007 55 7000 3.1 20 12:18 13.10.2019
6279 Clouds 31 1007 66 7000 4.1 320 11:55 13.10.2019
6280 Clouds 31 1007 44 8000 4.1 360 11:36 13.10.2019
6281 Clouds 32 1007 44 8000 4.1 360 11:18 13.10.2019
6282 Clouds 32 1007 44 8000 5.1 360 10:41 13.10.2019
6283 Clouds 32 1007 44 8000 5.1 360 10:22 13.10.2019
6284 Clouds 33 1007 44 8000 4.1 360 09:41 13.10.2019
6285 Clouds 33 1007 44 8000 4.1 360 09:21 13.10.2019
6286 Clouds 34 1008 52 8000 4.6 360 08:57 13.10.2019
6287 Clouds 33 1008 49 7000 5.1 20 08:38 13.10.2019
6288 Clouds 33 1009 49 8000 3.6 360 08:19 13.10.2019
6289 Clouds 33 1009 49 8000 3.6 360 07:46 13.10.2019
6290 Clouds 33 1010 55 6000 3.1 20 06:59 13.10.2019
6291 Clouds 33 1010 38 6000 3.1 80 06:40 13.10.2019
6292 Haze 32 1011 52 6000 4.1 110 05:39 13.10.2019
6293 Haze 31 1011 58 6000 3.1 40 04:46 13.10.2019
6294 Haze 29 1012 70 4000 2.6 60 03:40 13.10.2019
6295 Haze 28 1011 83 3000 1.66 172.884 02:41 13.10.2019
6296 Haze 26 1011 83 5000 2.1 220 01:53 13.10.2019
6297 Haze 25 1010 78 5000 1.39 167.077 01:26 13.10.2019
6298 Haze 25 1010 88 5000 2.1 190 00:47 13.10.2019
6299 Haze 24 1010 83 5000 2.1 220 00:21 13.10.2019
6300 Haze 24 1010 83 5000 2.6 230 23:56 12.10.2019
6301 Haze 24 1009 83 6000 1.94 189.695 23:37 12.10.2019
6302 Haze 24 1009 83 6000 1.94 189.695 23:19 12.10.2019
6303 Haze 24 1009 83 5000 2.1 240 22:57 12.10.2019
6304 Haze 25 1009 78 5000 3.1 240 22:38 12.10.2019
6305 Haze 25 1009 78 5000 3.1 240 22:20 12.10.2019
6306 Haze 25 1010 78 4000 3.1 230 21:54 12.10.2019
6307 Haze 25 1010 78 4000 2.6 230 21:36 12.10.2019
6308 Haze 25 1010 78 4000 2.6 230 21:18 12.10.2019
6309 Haze 24 1010 83 4000 1.5 300 20:40 12.10.2019
6310 Haze 24 1010 83 4000 1.5 300 20:22 12.10.2019
6311 Haze 26 1011 74 5000 1.5 0 19:38 12.10.2019
6312 Haze 26 1011 74 5000 1.5 0 19:20 12.10.2019
6313 Haze 25 1011 78 5000 2.6 200 18:57 12.10.2019
6314 Haze 26 1012 69 5000 2.1 0 18:38 12.10.2019
6315 Haze 27 1012 69 5000 2.1 0 18:20 12.10.2019
6316 Haze 27 1012 69 5000 2.1 0 17:43 12.10.2019
6317 Clouds 25 1015 72 0 0.45 216 17:19 12.10.2019
6318 Haze 26 1011 65 5000 2.1 0 16:54 12.10.2019
6319 Haze 26 1011 65 5000 3.1 210 16:36 12.10.2019
6320 Haze 26 1011 65 5000 3.1 210 16:36 12.10.2019
6321 Haze 26 1011 65 5000 3.1 210 16:18 12.10.2019
6322 Haze 27 1011 61 5000 2.6 0 15:43 12.10.2019
6323 Clouds 27 1011 74 6000 1 280 15:23 12.10.2019
6324 Clouds 28 1010 70 8000 1.5 330 14:43 12.10.2019
6325 Clouds 28 1010 74 6000 1.5 330 14:22 12.10.2019
6326 Clouds 28 1010 70 10000 1.5 20 13:58 12.10.2019
6327 Clouds 28 1010 70 6000 2.1 340 13:40 12.10.2019
6328 Clouds 28 1010 70 6000 2.1 340 13:40 12.10.2019
6329 Clouds 29 1010 70 6000 2.1 340 13:21 12.10.2019
6330 Clouds 30 1009 70 6000 2.6 350 12:39 12.10.2019
6331 Clouds 30 1009 70 6000 2.6 350 12:21 12.10.2019
6332 Clouds 31 1008 62 10000 4.1 350 11:58 12.10.2019
6333 Clouds 31 1008 62 7000 2.6 10 11:39 12.10.2019
6334 Clouds 31 1008 62 7000 2.6 10 11:20 12.10.2019
6335 Clouds 31 1008 62 10000 4.6 10 10:44 12.10.2019
6336 Clouds 32 1007 52 7000 4.1 40 10:24 12.10.2019
6337 Clouds 33 1008 55 10000 6.2 40 09:58 12.10.2019
6338 Clouds 33 1008 55 10000 6.2 40 09:58 12.10.2019
6339 Clouds 32 1008 52 6000 4.1 360 09:39 12.10.2019
6340 Clouds 33 1008 52 6000 4.1 360 09:21 12.10.2019
6341 Clouds 33 1008 52 9000 6.2 50 08:58 12.10.2019
6342 Clouds 33 1009 52 8000 4.6 30 08:38 12.10.2019
6343 Haze 33 1009 52 8000 4.6 30 08:20 12.10.2019
6344 -273 0 0 0 0 0 08:20 12.10.2019
6345 Haze 33 1009 46 5000 1.5 350 07:35 12.10.2019
6346 Haze 32 1010 59 6000 4.1 50 06:56 12.10.2019
6347 Haze 31 1011 58 7000 2.6 0 05:47 12.10.2019
6348 Haze 31 1011 52 5000 2.6 150 05:23 12.10.2019
6349 Haze 32 1012 58 5000 2.6 210 04:24 12.10.2019
6350 Haze 30 1011 66 5000 2.1 180 03:31 12.10.2019
6351 Haze 26 1010 83 3000 1.7 116.142 01:45 12.10.2019
6352 Haze 26 1010 88 3000 2.22 125.828 01:21 12.10.2019
6353 Haze 26 1010 88 3000 2.22 125.828 00:42 12.10.2019
6354 Haze 26 1009 88 4000 2.4 84.076 23:59 11.10.2019
6355 Haze 26 1009 74 5000 1.5 220 23:40 11.10.2019
6356 Haze 26 1009 74 5000 1.5 220 23:40 11.10.2019
6357 Haze 27 1009 74 5000 1.5 220 23:20 11.10.2019
6358 Haze 27 1009 78 4700 1 210 22:41 11.10.2019
6359 Haze 27 1009 78 4700 1 210 22:41 11.10.2019
6360 Haze 27 1009 78 4700 1 210 22:22 11.10.2019
6361 Haze 26 1009 83 3700 1 0 21:58 11.10.2019
6362 Haze 26 1009 78 3400 2.4 84.076 21:39 11.10.2019
6363 Haze 27 1009 78 3400 2.69 57.191 21:21 11.10.2019
6364 Haze 26 1010 78 3500 1 0 20:45 11.10.2019
6365 Haze 26 1010 83 5000 1 0 20:27 11.10.2019
6366 Haze 26 1010 83 5000 1 0 20:27 11.10.2019
6367 Clouds 26 1010 74 6000 1.5 230 19:59 11.10.2019
6368 Haze 27 1010 74 5000 2.1 200 19:39 11.10.2019
6369 Haze 27 1010 74 5000 2.1 200 19:18 11.10.2019
6370 Haze 27 1010 74 5000 2.1 200 19:18 11.10.2019
6371 Haze 27 1010 74 5000 2.1 200 19:18 11.10.2019
6372 Haze 27 1010 74 5000 2.1 200 19:18 11.10.2019
6373 Haze 27 1010 74 3500 1 0 18:59 11.10.2019
6374 Haze 27 1010 74 3500 1 0 18:59 11.10.2019
6375 Haze 27 1011 74 4000 1.5 320 18:38 11.10.2019
6376 Haze 27 1011 74 4000 1.5 320 18:19 11.10.2019
6377 Haze 27 1011 74 5000 2.6 280 17:59 11.10.2019
6378 Haze 27 1011 74 5000 2.6 280 17:59 11.10.2019
6379 Haze 26 1011 74 5000 1 330 17:38 11.10.2019
6380 Haze 27 1011 74 5000 1 330 17:19 11.10.2019
6381 Haze 27 1011 74 5000 1 330 17:19 11.10.2019
6382 Clouds 27 1011 74 6000 1 330 16:59 11.10.2019
6383 Clouds 27 1011 74 7000 1 320 16:39 11.10.2019
6384 Clouds 27 1011 74 7000 1 320 16:19 11.10.2019
6385 Clouds 27 1011 78 8000 1 310 15:55 11.10.2019
6386 Clouds 27 1010 78 8000 1 320 15:36 11.10.2019
6387 Clouds 27 1010 78 8000 1 320 15:18 11.10.2019
6388 Clouds 28 1010 70 8000 1.5 350 14:41 11.10.2019
6389 Clouds 29 1010 70 8000 1.5 350 14:21 11.10.2019
6390 Clouds 29 1009 70 8000 2.1 360 13:45 11.10.2019
6391 Clouds 29 1009 52 6000 4.1 40 13:26 11.10.2019
6392 Clouds 29 1009 55 7000 5.1 20 12:58 11.10.2019
6393 Clouds 29 1008 58 10000 5.7 40 12:39 11.10.2019
6394 Clouds 30 1008 58 10000 5.7 40 12:21 11.10.2019
6395 Clouds 31 1008 58 10000 6.7 40 11:59 11.10.2019
6396 Clouds 31 1007 49 7000 8.2 20 11:39 11.10.2019
6397 Clouds 31 1007 49 7000 8.2 20 11:21 11.10.2019
6398 Clouds 32 1007 49 7000 7.7 40 10:56 11.10.2019
6399 Clouds 32 1008 46 7000 7.7 60 10:37 11.10.2019
6400 Clouds 32 1008 46 7000 7.7 60 10:18 11.10.2019
6401 Clouds 33 1008 41 7000 7.7 50 09:42 11.10.2019
6402 Clouds 33 1008 41 7000 7.2 60 09:21 11.10.2019
6403 Clouds 33 1008 41 6000 7.2 70 08:59 11.10.2019
6404 Clouds 33 1009 44 6000 7.2 30 08:39 11.10.2019
6405 Clouds 33 1009 44 6000 7.2 30 08:20 11.10.2019
6406 Clouds 33 1009 44 6000 7.2 30 08:20 11.10.2019
6407 Haze 33 1009 44 6000 7.7 60 07:57 11.10.2019
6408 Haze 33 1010 46 5000 5.1 50 07:38 11.10.2019
6409 Haze 33 1010 46 5000 5.1 50 07:19 11.10.2019
6410 Haze 33 1011 52 5000 2.6 70 06:43 11.10.2019
6411 Haze 33 1011 52 5000 2.6 70 06:19 11.10.2019
6412 Haze 31 1012 58 4000 2.6 120 05:32 11.10.2019
6413 Haze 31 1012 66 4000 3.1 150 04:58 11.10.2019
6414 Haze 28 1012 74 6000 3.1 220 03:45 11.10.2019
6415 Haze 26 1012 88 3000 1 200 01:28 11.10.2019
6416 Haze 26 1011 88 4000 1 180 00:42 11.10.2019
6417 Haze 26 1011 88 4000 1 180 00:20 11.10.2019
6418 Haze 26 1010 88 4000 1 200 23:41 10.10.2019
6419 Haze 26 1010 88 4000 1 200 23:20 10.10.2019
6420 Haze 26 1010 78 5000 1.5 210 22:57 10.10.2019
6421 Haze 26 1010 74 5000 2.1 210 22:37 10.10.2019
6422 Haze 27 1010 74 5000 2.1 210 22:19 10.10.2019
6423 Haze 27 1010 74 5000 2.1 210 21:54 10.10.2019
6424 Haze 27 1011 74 5000 2.1 200 21:36 10.10.2019
6425 Haze 27 1011 74 5000 2.1 200 21:18 10.10.2019
6426 Haze 27 1011 74 5000 1 0 20:41 10.10.2019
6427 Haze 27 1011 74 5000 1 0 20:21 10.10.2019
6428 Haze 27 1011 74 5000 1 0 20:20 10.10.2019
6429 Haze 27 1011 74 5000 1 0 20:20 10.10.2019
6430 Haze 27 1011 78 5000 1 130 19:57 10.10.2019
6431 Haze 27 1011 74 5000 1.5 0 19:39 10.10.2019
6432 Haze 27 1011 74 5000 1.5 0 19:19 10.10.2019
6433 Haze 27 1012 78 5000 2.1 170 18:54 10.10.2019
6434 Haze 27 1012 78 5000 2.1 170 18:54 10.10.2019
6435 Haze 27 1012 78 5000 2.1 170 18:54 10.10.2019
6436 Haze 27 1012 78 5000 2.1 170 18:54 10.10.2019
6437 Haze 27 1012 78 5000 3.1 200 18:36 10.10.2019
6438 Haze 27 1012 78 5000 3.1 200 18:18 10.10.2019
6439 Haze 26 1012 78 5000 1.5 0 17:40 10.10.2019
6440 Haze 26 1012 78 5000 1.5 0 17:20 10.10.2019
6441 Haze 27 1012 78 5000 3.6 200 16:58 10.10.2019
6442 Haze 27 1012 78 5000 3.6 170 16:39 10.10.2019
6443 Haze 27 1012 78 5000 3.6 170 16:21 10.10.2019
6444 Clouds 27 1011 74 6000 4.1 210 15:43 10.10.2019
6445 Haze 27 1011 74 6000 4.1 210 15:24 10.10.2019
6446 Haze 28 1011 74 7000 4.1 230 14:59 10.10.2019
6447 Haze 28 1011 78 5000 4.1 220 14:37 10.10.2019
6448 Haze 28 1011 78 5000 4.1 220 14:37 10.10.2019
6449 Haze 29 1011 78 5000 4.1 220 14:19 10.10.2019
6450 Haze 29 1011 78 5000 4.1 220 14:19 10.10.2019
6451 Haze 29 1010 70 8000 2.6 290 13:59 10.10.2019
6452 Haze 29 1010 70 5000 2.1 340 13:39 10.10.2019
6453 Haze 29 1010 70 5000 2.1 340 13:18 10.10.2019
6454 Haze 29 1010 70 5000 2.1 340 13:18 10.10.2019
6455 Haze 30 1010 66 8000 2.6 360 12:54 10.10.2019
6456 Haze 30 1009 66 5000 4.1 350 12:36 10.10.2019
6457 Haze 30 1009 66 5000 4.1 350 12:18 10.10.2019
6458 Haze 31 1008 62 5000 4.1 360 11:41 10.10.2019
6459 Haze 30 1008 62 5000 4.1 360 11:20 10.10.2019
6460 Haze 30 1008 62 5000 4.1 360 11:20 10.10.2019
6461 Haze 31 1008 58 10000 5.1 20 10:58 10.10.2019
6462 Haze 31 1008 59 5000 5.1 340 10:40 10.10.2019
6463 Haze 31 1008 59 5000 5.1 340 10:21 10.10.2019
6464 Haze 32 1009 59 5000 4.1 10 09:41 10.10.2019
6465 Haze 31 1009 55 8000 5.1 30 09:41 10.10.2019
6466 Haze 32 1009 59 5000 4.1 10 09:23 10.10.2019
6467 Haze 32 1009 55 6000 5.1 30 08:59 10.10.2019
6468 Haze 32 1010 55 5000 3.6 330 08:41 10.10.2019
6469 Haze 32 1010 55 5000 3.6 330 08:21 10.10.2019
6470 Haze 32 1010 55 7000 3.6 20 07:57 10.10.2019
6471 Haze 32 1011 49 5000 4.6 20 07:36 10.10.2019
6472 Haze 32 1011 49 5000 4.6 20 07:18 10.10.2019
6473 Haze 32 1012 52 4000 2.1 330 06:39 10.10.2019
6474 Clouds 31 1012 58 7000 2.1 0 05:57 10.10.2019
6475 Haze 31 1012 55 5000 3.6 100 05:22 10.10.2019
6476 Haze 30 1013 55 6000 3.1 160 04:36 10.10.2019
6477 Haze 26 1012 78 5000 3.1 230 02:46 10.10.2019
6478 Haze 25 1011 83 4000 2.1 240 01:39 10.10.2019
6479 Haze 25 1011 83 4000 2.1 240 01:39 10.10.2019
6480 Haze 25 1011 83 4000 2.1 240 01:21 10.10.2019
6481 Haze 25 1011 88 5000 1.5 230 00:41 10.10.2019
6482 Haze 25 1011 88 5000 1.5 230 00:19 10.10.2019
6483 Haze 25 1010 83 4000 2.1 220 23:38 09.10.2019
6484 Haze 25 1010 83 4000 2.1 220 23:19 09.10.2019
6485 Haze 25 1010 83 4000 2.1 220 23:19 09.10.2019
6486 Haze 25 1010 83 5000 1.5 230 22:42 09.10.2019
6487 Haze 25 1010 83 5000 2.6 230 22:23 09.10.2019
6488 Haze 25 1010 83 4000 2.1 240 21:59 09.10.2019
6489 Haze 25 1010 83 4000 2.1 250 21:39 09.10.2019
6490 Haze 25 1010 83 4000 2.1 250 21:20 09.10.2019
6491 Haze 25 1010 83 4000 2.1 260 20:56 09.10.2019
6492 Haze 25 1010 78 4000 2.6 230 20:37 09.10.2019
6493 Haze 25 1010 78 4000 2.6 230 20:18 09.10.2019
6494 Haze 25 1010 78 4000 3.1 250 19:45 09.10.2019
6495 Haze 25 1010 78 4000 2.6 240 19:24 09.10.2019
6496 Haze 26 1011 78 4000 4.1 230 18:58 09.10.2019
6497 Haze 26 1011 74 4000 2.1 240 18:37 09.10.2019
6498 Haze 25 1011 74 4000 2.1 240 18:18 09.10.2019
6499 Haze 25 1011 74 4000 2.1 240 18:18 09.10.2019
6500 Haze 25 1011 83 3000 1.5 0 17:55 09.10.2019
6501 Haze 26 1011 78 3000 1 300 17:36 09.10.2019
6502 Haze 26 1011 78 3000 1 300 17:18 09.10.2019
6503 Haze 26 1011 78 5000 1.5 310 16:41 09.10.2019
6504 Haze 26 1011 78 5000 1.5 310 16:22 09.10.2019
6505 Haze 26 1011 78 4000 1 350 15:58 09.10.2019
6506 Haze 27 1011 78 5000 1 340 15:39 09.10.2019
6507 Haze 27 1011 78 5000 1 340 15:39 09.10.2019
6508 Haze 27 1011 78 5000 1 340 15:20 09.10.2019
6509 Haze 27 1010 74 5000 0.5 350 14:58 09.10.2019
6510 Clouds 27 1010 74 6000 1.5 30 14:39 09.10.2019
6511 Clouds 27 1010 74 6000 1.5 30 14:18 09.10.2019
6512 Clouds 27 1009 70 6000 1.5 320 13:40 09.10.2019
6513 Clouds 28 1009 70 6000 1.5 320 13:21 09.10.2019
6514 Clouds 28 1009 74 9000 2.6 20 12:59 09.10.2019
6515 Clouds 28 1008 58 6000 5.1 360 12:40 09.10.2019
6516 Clouds 30 1008 58 6000 5.1 360 12:21 09.10.2019
6517 Clouds 30 1008 62 10000 5.1 40 11:55 09.10.2019
6518 Clouds 31 1007 55 6000 6.2 350 11:36 09.10.2019
6519 Clouds 31 1007 55 6000 6.2 350 11:18 09.10.2019
6520 Clouds 31 1007 55 6000 6.2 350 11:18 09.10.2019
6521 Clouds 29 1007 62 10000 6.2 30 10:43 09.10.2019
6522 Clouds 30 1007 52 6000 6.7 20 10:21 09.10.2019
6523 Clouds 31 1007 52 6000 6.7 10 09:57 09.10.2019
6524 Clouds 31 1008 55 6000 5.1 10 09:38 09.10.2019
6525 Clouds 33 1008 55 6000 5.1 10 09:18 09.10.2019
6526 Clouds 33 1009 55 6000 5.1 30 08:41 09.10.2019
6527 Clouds 33 1009 55 6000 5.1 30 08:21 09.10.2019
6528 Clouds 33 1009 52 6000 3.6 10 07:56 09.10.2019
6529 Haze 32 1010 59 5000 3.1 40 07:37 09.10.2019
6530 Haze 33 1010 59 5000 3.1 40 07:19 09.10.2019
6531 Haze 33 1010 52 5000 4.1 70 06:49 09.10.2019
6532 Haze 32 1011 55 5000 1.5 270 05:55 09.10.2019
6533 Haze 31 1011 58 5000 2.1 60 05:23 09.10.2019
6534 Haze 30 1012 66 5000 2.1 130 04:24 09.10.2019
6535 Haze 27 1011 69 5000 2.1 190 02:50 09.10.2019
6536 Haze 25 1011 78 5000 1.5 190 01:43 09.10.2019
6537 Haze 25 1011 88 4000 0.93 51.877 01:19 09.10.2019
6538 Haze 25 1010 83 5000 2.6 170 00:56 09.10.2019
6539 Haze 25 1010 88 5000 3.1 170 00:38 09.10.2019
6540 Haze 25 1010 88 5000 3.1 170 00:19 09.10.2019
6541 Haze 25 1010 88 5000 2.1 180 23:39 08.10.2019
6542 Haze 25 1010 88 5000 2.1 180 23:18 08.10.2019
6543 Haze 25 1010 88 5000 1.5 190 22:56 08.10.2019
6544 Haze 25 1010 88 5000 1.5 190 22:38 08.10.2019
6545 Haze 25 1010 88 5000 1.5 190 22:19 08.10.2019
6546 Haze 25 1010 88 5000 1 0 21:57 08.10.2019
6547 Haze 25 1010 88 4500 2.1 180 21:38 08.10.2019
6548 Haze 25 1010 88 4500 2.1 180 21:19 08.10.2019
6549 Haze 25 1010 88 5000 1.5 190 20:56 08.10.2019
6550 Haze 25 1011 88 5000 1.5 210 20:37 08.10.2019
6551 Haze 25 1011 88 5000 1.5 210 20:19 08.10.2019
6552 Haze 25 1011 88 5000 2.1 190 19:56 08.10.2019
6553 Clouds 25 1011 88 6000 2.1 190 19:37 08.10.2019
6554 Clouds 25 1011 88 6000 2.1 190 19:18 08.10.2019
6555 Clouds 25 1012 88 6000 2.1 190 18:46 08.10.2019
6556 Clouds 25 1012 83 6000 1.5 0 18:25 08.10.2019
6557 Rain 25 1012 78 5000 2.1 260 17:59 08.10.2019
6558 Rain 25 1012 88 5000 3.1 200 17:40 08.10.2019
6559 Rain 24 1012 88 5000 3.1 200 17:20 08.10.2019
6560 Rain 24 1012 88 4500 2.6 120 16:56 08.10.2019
6561 Rain 24 1012 88 4000 3.6 140 16:37 08.10.2019
6562 Rain 24 1012 88 4000 3.6 140 16:19 08.10.2019
6563 Rain 25 1012 78 6000 2.6 170 15:40 08.10.2019
6564 Rain 25 1012 78 6000 2.6 170 15:21 08.10.2019
6565 Clouds 26 1011 69 8000 4.1 190 14:57 08.10.2019
6566 Clouds 26 1011 70 8000 1 0 14:38 08.10.2019
6567 Clouds 26 1011 70 8000 1 0 14:38 08.10.2019
6568 Haze 27 1011 70 8000 1 0 14:20 08.10.2019
6569 Haze 28 1010 70 8000 2.6 10 13:55 08.10.2019
6570 Haze 28 1010 66 5000 3.6 20 13:37 08.10.2019
6571 Haze 28 1010 66 5000 3.6 20 13:18 08.10.2019
6572 Clouds 29 1008 55 6000 5.1 20 12:41 08.10.2019
6573 Clouds 29 1008 55 6000 5.1 20 12:21 08.10.2019
6574 Clouds 30 1008 66 10000 6.2 350 11:59 08.10.2019
6575 Clouds 30 1007 55 6000 5.1 30 11:40 08.10.2019
6576 Clouds 31 1007 55 6000 5.1 30 11:21 08.10.2019
6577 Clouds 31 1007 58 10000 5.1 340 10:55 08.10.2019
6578 Clouds 32 1007 49 6000 4.1 10 10:36 08.10.2019
6579 Clouds 32 1007 49 6000 4.1 10 10:18 08.10.2019
6580 Clouds 33 1008 52 9000 6.2 10 09:41 08.10.2019
6581 Clouds 33 1008 52 9000 6.2 10 09:22 08.10.2019
6582 Clouds 33 1008 52 9000 4.6 330 08:54 08.10.2019
6583 Clouds 33 1008 46 6000 5.1 40 08:36 08.10.2019
6584 Clouds 33 1008 46 6000 5.1 40 08:18 08.10.2019
6585 Haze 34 1009 46 5000 5.1 10 07:41 08.10.2019
6586 Haze 34 1009 46 5000 5.1 10 07:19 08.10.2019
6587 Clouds 34 1010 52 9000 6.2 350 06:46 08.10.2019
6588 Haze 33 1010 55 9000 2.6 0 06:23 08.10.2019
6589 Haze 33 1010 49 10000 2.1 0 05:44 08.10.2019
6590 Haze 33 1011 49 5000 2.6 120 05:21 08.10.2019
6591 Haze 33 1011 49 5000 2.6 120 05:21 08.10.2019
6592 Haze 30 1012 58 4000 2.6 180 03:32 08.10.2019
6593 Haze 28 1012 61 4000 1.5 140 02:44 08.10.2019
6594 Haze 27 1011 61 4000 1.5 160 02:25 08.10.2019
6595 Haze 25 1011 65 4000 1 180 01:42 08.10.2019
6596 Haze 24 1010 65 4000 1 160 00:57 08.10.2019
6597 Haze 24 1010 65 4000 1 160 00:57 08.10.2019
6598 Haze 24 1010 65 5000 1 130 00:25 08.10.2019
6599 Haze 25 1010 69 5000 1.59 126.575 23:58 07.10.2019
6600 Clouds 25 1010 88 6000 1.5 200 23:38 07.10.2019
6601 Clouds 24 1010 88 6000 1.5 200 23:19 07.10.2019
6602 Clouds 24 1010 88 6000 1.5 200 23:19 07.10.2019
6603 Clouds 24 1010 88 6000 1.5 190 22:55 07.10.2019
6604 Clouds 24 1010 94 6000 2.1 200 22:37 07.10.2019
6605 Clouds 24 1010 94 6000 2.1 200 22:18 07.10.2019
6606 Haze 25 1010 88 5000 2.6 200 21:54 07.10.2019
6607 Haze 25 1010 88 5000 2.6 220 21:36 07.10.2019
6608 Haze 25 1010 88 5000 2.6 220 21:36 07.10.2019
6609 Haze 25 1010 88 5000 2.6 220 21:18 07.10.2019
6610 Haze 24 1010 83 5000 2.1 240 20:56 07.10.2019
6611 Haze 24 1010 83 5000 2.1 240 20:56 07.10.2019
6612 Haze 26 1010 78 5000 2.1 220 20:37 07.10.2019
6613 Haze 26 1010 78 5000 2.1 220 20:18 07.10.2019
6614 Clouds 26 1011 74 6000 1 230 19:42 07.10.2019
6615 Clouds 26 1011 74 6000 1 230 19:42 07.10.2019
6616 Clouds 27 1011 74 6000 1 230 19:21 07.10.2019
6617 Clouds 27 1011 74 7000 0.5 0 19:00 07.10.2019
6618 Clouds 26 1011 74 7000 0.5 0 18:41 07.10.2019
6619 Clouds 26 1011 74 7000 0.5 0 18:19 07.10.2019
6620 Clouds 26 1012 74 7000 1 100 17:58 07.10.2019
6621 Clouds 26 1012 74 7000 1.5 70 17:40 07.10.2019
6622 Clouds 26 1012 74 7000 1.5 70 17:18 07.10.2019
6623 Clouds 27 1011 69 7000 2.1 0 16:44 07.10.2019
6624 Clouds 27 1011 69 7000 2.1 60 16:26 07.10.2019
6625 Clouds 28 1011 65 8000 1.5 80 15:57 07.10.2019
6626 Clouds 28 1011 65 8000 2.6 60 15:38 07.10.2019
6627 Clouds 28 1011 65 8000 2.6 60 15:20 07.10.2019
6628 Clear 28 1010 54 8000 3.6 60 14:41 07.10.2019
6629 Clear 28 1010 54 8000 3.6 60 14:23 07.10.2019
6630 Clear 29 1010 48 8000 3.6 60 13:45 07.10.2019
6631 Clear 29 1010 51 8000 5.1 50 13:21 07.10.2019
6632 Clouds 30 1009 55 8000 6.7 50 12:58 07.10.2019
6633 Clear 30 1009 43 9000 8.2 50 12:40 07.10.2019
6634 Clear 30 1009 43 9000 8.2 50 12:21 07.10.2019
6635 Clouds 31 1008 48 8000 9.3 40 11:59 07.10.2019
6636 Clouds 32 1008 46 8000 6.7 50 11:40 07.10.2019
6637 Clouds 32 1008 46 8000 6.7 50 11:21 07.10.2019
6638 Clear 33 1008 32 9000 9.8 40 10:56 07.10.2019
6639 Clouds 33 1008 46 8000 7.7 40 10:37 07.10.2019
6640 Clouds 33 1008 46 8000 7.7 40 10:37 07.10.2019
6641 Clouds 33 1008 46 8000 7.7 40 10:19 07.10.2019
6642 Clouds 34 1009 43 8000 10.3 40 09:38 07.10.2019
6643 Clouds 34 1009 43 8000 10.3 40 09:20 07.10.2019
6644 Clouds 34 1009 30 7000 7.7 60 08:44 07.10.2019
6645 Clouds 34 1009 30 7000 7.7 60 08:21 07.10.2019
6646 Clouds 33 1010 36 7000 8.7 40 07:55 07.10.2019
6647 Clouds 33 1010 41 6000 6.7 40 07:36 07.10.2019
6648 Clouds 33 1010 41 6000 6.7 40 07:18 07.10.2019
6649 Clouds 33 1011 46 6000 6.2 70 06:43 07.10.2019
6650 Clouds 33 1011 46 6000 6.2 70 06:22 07.10.2019
6651 Clouds 33 1012 49 6000 5.1 110 05:27 07.10.2019
6652 Clouds 32 1012 52 6000 3.1 150 04:56 07.10.2019
6653 Clouds 30 1012 62 6000 2.1 120 03:51 07.10.2019
6654 Clouds 30 1012 62 6000 2.1 120 03:51 07.10.2019
6655 Haze 30 1012 58 5000 2.6 220 03:32 07.10.2019
6656 Haze 28 1012 61 5000 1 0 02:55 07.10.2019
6657 Haze 26 1011 65 4000 2.1 220 02:20 07.10.2019
6658 Haze 26 1011 65 4000 2.1 220 02:20 07.10.2019
6659 Haze 25 1011 73 5000 2.1 200 01:24 07.10.2019
6660 Haze 25 1011 73 5000 2.1 160 00:55 07.10.2019
6661 Haze 25 1011 69 6000 1.5 200 00:36 07.10.2019
6662 Haze 25 1011 69 6000 1.5 200 00:18 07.10.2019
6663 Haze 25 1011 78 5000 1.5 180 23:40 06.10.2019
6664 Haze 25 1011 78 5000 1.5 180 23:21 06.10.2019
6665 Haze 25 1010 78 5000 1 180 22:58 06.10.2019
6666 Haze 25 1010 78 5000 1 180 22:39 06.10.2019
6667 Haze 25 1010 78 5000 1 180 22:21 06.10.2019
6668 Haze 25 1010 78 5000 1 200 21:56 06.10.2019
6669 Haze 25 1010 78 5000 1 190 21:37 06.10.2019
6670 Haze 25 1010 78 5000 1 190 21:19 06.10.2019
6671 Haze 25 1010 78 5000 1.5 200 20:57 06.10.2019
6672 Haze 25 1010 78 5000 1.5 200 20:38 06.10.2019
6673 Haze 25 1010 78 5000 1.5 200 20:20 06.10.2019
6674 Haze 25 1010 78 5000 1.5 220 19:57 06.10.2019
6675 Haze 25 1011 78 5000 1.5 220 19:37 06.10.2019
6676 Haze 25 1011 78 5000 1.5 220 19:19 06.10.2019
6677 Haze 25 1011 78 5000 2.1 220 18:56 06.10.2019
6678 Haze 25 1011 78 5000 2.1 230 18:38 06.10.2019
6679 Haze 25 1011 78 5000 2.1 230 18:19 06.10.2019
6680 Haze 26 1011 69 5000 2.1 250 17:43 06.10.2019
6681 Haze 27 1011 69 5000 2.1 250 17:20 06.10.2019
6682 Haze 27 1011 65 5000 1 0 16:58 06.10.2019
6683 Haze 27 1011 61 5000 1 0 16:40 06.10.2019
6684 Haze 27 1011 61 5000 1 0 16:22 06.10.2019
6685 Haze 28 1011 65 5000 1 0 15:44 06.10.2019
6686 Haze 28 1011 65 5000 1 0 15:44 06.10.2019
6687 Haze 28 1011 65 5000 1.5 0 15:22 06.10.2019
6688 Haze 28 1010 65 5000 2.1 0 14:58 06.10.2019
6689 Clouds 28 1010 48 6000 1.5 360 14:40 06.10.2019
6690 Clouds 28 1010 48 6000 1.5 360 14:21 06.10.2019
6691 Clouds 29 1010 54 8000 2.1 0 13:55 06.10.2019
6692 Clouds 29 1009 40 6000 2.6 360 13:37 06.10.2019
6693 Clouds 29 1009 40 6000 2.6 360 13:18 06.10.2019
6694 Clouds 30 1009 51 9000 3.1 340 12:55 06.10.2019
6695 Clouds 30 1008 38 7000 4.1 10 12:37 06.10.2019
6696 Clouds 30 1008 38 7000 4.1 10 12:19 06.10.2019
6697 Clouds 31 1008 55 9000 5.1 330 11:43 06.10.2019
6698 Clouds 32 1008 38 7000 5.1 20 11:24 06.10.2019
6699 Clouds 33 1008 43 9000 6.2 330 10:58 06.10.2019
6700 Clouds 32 1008 49 9000 6.7 340 10:39 06.10.2019
6701 Clouds 33 1008 49 9000 6.7 340 10:21 06.10.2019
6702 Clouds 34 1008 25 7000 4.6 20 09:41 06.10.2019
6703 Clouds 34 1008 25 7000 4.6 20 09:21 06.10.2019
6704 Clouds 35 1008 39 10000 4.6 20 08:57 06.10.2019
6705 Clouds 35 1008 26 6000 5.1 70 08:38 06.10.2019
6706 Clouds 35 1008 26 6000 5.1 70 08:19 06.10.2019
6707 Clouds 35 1010 30 6000 4.6 30 07:41 06.10.2019
6708 Clouds 35 1010 36 10000 2.1 0 06:59 06.10.2019
6709 Clouds 33 1011 43 10000 2.6 0 05:57 06.10.2019
6710 Clouds 32 1012 52 10000 1.5 0 04:44 06.10.2019
6711 Clouds 32 1012 52 10000 1.5 0 04:44 06.10.2019
6712 Haze 28 1012 58 6000 5.7 220 02:56 06.10.2019
6713 Haze 27 1012 61 6000 5.1 210 02:37 06.10.2019
6714 Haze 26 1012 65 6000 4.1 220 01:50 06.10.2019
6715 Haze 24 1011 69 6000 4.6 210 01:31 06.10.2019
6716 Haze 24 1011 69 6000 4.6 200 00:59 06.10.2019
6717 Haze 24 1011 69 6000 4.6 200 00:59 06.10.2019
6718 Haze 24 1011 69 5000 2.6 210 00:40 06.10.2019
6719 Haze 24 1011 69 5000 2.6 210 00:20 06.10.2019
6720 Haze 24 1011 88 5000 2.1 180 23:42 05.10.2019
6721 Haze 24 1011 88 5000 2.1 180 23:21 05.10.2019
6722 Haze 24 1010